<?xml version='1.0' encoding='UTF-8'?><gpx version="1.1" creator="JPX - https://github.com/jenetics/jpx" xmlns="http://www.topografix.com/GPX/1/1"><trk><trkseg><trkpt lat="45.7760969" lon="8.8009297"><ele>326.5</ele><time>2026-04-24T08:26:38.572Z</time></trkpt><trkpt lat="45.7759458" lon="8.8012313"><ele>326.0</ele><time>2026-04-24T08:26:40.589Z</time></trkpt><trkpt lat="45.7758944" lon="8.8013117"><ele>325.5</ele><time>2026-04-24T08:26:41.591Z</time></trkpt><trkpt lat="45.7759858" lon="8.8013829"><ele>325.0</ele><time>2026-04-24T08:27:36.818Z</time></trkpt><trkpt lat="45.7760781" lon="8.801422"><ele>325.0</ele><time>2026-04-24T08:27:40.809Z</time></trkpt><trkpt lat="45.7760689" lon="8.8015165"><ele>325.0</ele><time>2026-04-24T08:27:50.82Z</time></trkpt><trkpt lat="45.77608" lon="8.8016085"><ele>325.0</ele><time>2026-04-24T08:27:58.816Z</time></trkpt><trkpt lat="45.7760857" lon="8.8017186"><ele>325.0</ele><time>2026-04-24T08:28:01.812Z</time></trkpt><trkpt lat="45.7760849" lon="8.8018218"><ele>325.0</ele><time>2026-04-24T08:28:04.821Z</time></trkpt><trkpt lat="45.7760643" lon="8.8019083"><ele>325.0</ele><time>2026-04-24T08:28:07.809Z</time></trkpt><trkpt lat="45.775994" lon="8.8019613"><ele>325.0</ele><time>2026-04-24T08:28:09.81Z</time></trkpt><trkpt lat="45.775928" lon="8.8019827"><ele>326.16666666666663</ele><time>2026-04-24T08:28:10.806Z</time></trkpt><trkpt lat="45.7758591" lon="8.8020102"><ele>327.3333333333333</ele><time>2026-04-24T08:28:11.802Z</time></trkpt><trkpt lat="45.7757825" lon="8.802039"><ele>328.5</ele><time>2026-04-24T08:28:12.812Z</time></trkpt><trkpt lat="45.7757107" lon="8.8020634"><ele>329.6666666666667</ele><time>2026-04-24T08:28:13.805Z</time></trkpt><trkpt lat="45.7756318" lon="8.8020953"><ele>330.83333333333337</ele><time>2026-04-24T08:28:14.812Z</time></trkpt><trkpt lat="45.7755523" lon="8.8021213"><ele>332.0</ele><time>2026-04-24T08:28:15.801Z</time></trkpt><trkpt lat="45.7754816" lon="8.8021568"><ele>332.0</ele><time>2026-04-24T08:28:16.808Z</time></trkpt><trkpt lat="45.7754143" lon="8.8022105"><ele>332.0</ele><time>2026-04-24T08:28:17.799Z</time></trkpt><trkpt lat="45.7753351" lon="8.8022588"><ele>332.0</ele><time>2026-04-24T08:28:18.811Z</time></trkpt><trkpt lat="45.7752579" lon="8.8023059"><ele>332.0</ele><time>2026-04-24T08:28:19.804Z</time></trkpt><trkpt lat="45.7751818" lon="8.8023634"><ele>332.0</ele><time>2026-04-24T08:28:20.807Z</time></trkpt><trkpt lat="45.775117" lon="8.8024135"><ele>332.0</ele><time>2026-04-24T08:28:21.801Z</time></trkpt><trkpt lat="45.7750487" lon="8.8024747"><ele>333.40000000000003</ele><time>2026-04-24T08:28:22.814Z</time></trkpt><trkpt lat="45.7749787" lon="8.8025652"><ele>334.8</ele><time>2026-04-24T08:28:23.798Z</time></trkpt><trkpt lat="45.7749015" lon="8.8026614"><ele>336.2</ele><time>2026-04-24T08:28:24.8Z</time></trkpt><trkpt lat="45.7748272" lon="8.8027568"><ele>337.6</ele><time>2026-04-24T08:28:25.804Z</time></trkpt><trkpt lat="45.7747469" lon="8.8028466"><ele>339.0</ele><time>2026-04-24T08:28:26.809Z</time></trkpt><trkpt lat="45.7746571" lon="8.8029231"><ele>339.0</ele><time>2026-04-24T08:28:27.807Z</time></trkpt><trkpt lat="45.7745556" lon="8.8029871"><ele>339.0</ele><time>2026-04-24T08:28:28.807Z</time></trkpt><trkpt lat="45.7744359" lon="8.8030238"><ele>339.0</ele><time>2026-04-24T08:28:29.834Z</time></trkpt><trkpt lat="45.7743296" lon="8.803045"><ele>339.0</ele><time>2026-04-24T08:28:30.803Z</time></trkpt><trkpt lat="45.7742367" lon="8.8030805"><ele>339.0</ele><time>2026-04-24T08:28:31.807Z</time></trkpt><trkpt lat="45.7741651" lon="8.8031147"><ele>339.8333333333333</ele><time>2026-04-24T08:28:32.806Z</time></trkpt><trkpt lat="45.7741136" lon="8.8032166"><ele>340.6666666666667</ele><time>2026-04-24T08:28:34.807Z</time></trkpt><trkpt lat="45.7741202" lon="8.8033183"><ele>341.5</ele><time>2026-04-24T08:28:35.802Z</time></trkpt><trkpt lat="45.7741292" lon="8.8034389"><ele>342.33333333333337</ele><time>2026-04-24T08:28:36.796Z</time></trkpt><trkpt lat="45.7741405" lon="8.8035539"><ele>343.1666666666667</ele><time>2026-04-24T08:28:37.805Z</time></trkpt><trkpt lat="45.7741419" lon="8.803664"><ele>344.0</ele><time>2026-04-24T08:28:38.81Z</time></trkpt><trkpt lat="45.7741396" lon="8.8038262"><ele>344.5</ele><time>2026-04-24T08:28:40.81Z</time></trkpt><trkpt lat="45.7741195" lon="8.8039434"><ele>345.0</ele><time>2026-04-24T08:28:42.811Z</time></trkpt><trkpt lat="45.7740488" lon="8.8039546"><ele>345.5</ele><time>2026-04-24T08:28:50.803Z</time></trkpt><trkpt lat="45.7739283" lon="8.8039061"><ele>346.0</ele><time>2026-04-24T08:29:06.801Z</time></trkpt><trkpt lat="45.7738497" lon="8.8038873"><ele>346.5</ele><time>2026-04-24T08:29:07.81Z</time></trkpt><trkpt lat="45.7737746" lon="8.8038802"><ele>347.0</ele><time>2026-04-24T08:29:08.814Z</time></trkpt><trkpt lat="45.7737086" lon="8.8038937"><ele>347.0</ele><time>2026-04-24T08:29:09.827Z</time></trkpt><trkpt lat="45.7736578" lon="8.8039935"><ele>347.0</ele><time>2026-04-24T08:29:11.807Z</time></trkpt><trkpt lat="45.773649" lon="8.8041782"><ele>347.0</ele><time>2026-04-24T08:29:13.808Z</time></trkpt><trkpt lat="45.7736517" lon="8.8043184"><ele>347.0</ele><time>2026-04-24T08:29:15.81Z</time></trkpt><trkpt lat="45.773719" lon="8.8044009"><ele>347.0</ele><time>2026-04-24T08:29:26.815Z</time></trkpt><trkpt lat="45.7738209" lon="8.8044401"><ele>347.8</ele><time>2026-04-24T08:29:28.808Z</time></trkpt><trkpt lat="45.7738929" lon="8.804463"><ele>348.6</ele><time>2026-04-24T08:29:29.834Z</time></trkpt><trkpt lat="45.7739846" lon="8.8044959"><ele>349.40000000000003</ele><time>2026-04-24T08:29:30.82Z</time></trkpt><trkpt lat="45.7740994" lon="8.8045313"><ele>350.20000000000005</ele><time>2026-04-24T08:29:31.818Z</time></trkpt><trkpt lat="45.7742125" lon="8.8045641"><ele>351.0</ele><time>2026-04-24T08:29:32.81Z</time></trkpt><trkpt lat="45.7743137" lon="8.8045853"><ele>348.75</ele><time>2026-04-24T08:29:33.809Z</time></trkpt><trkpt lat="45.7744192" lon="8.8045854"><ele>346.5</ele><time>2026-04-24T08:29:34.809Z</time></trkpt><trkpt lat="45.7745336" lon="8.8045513"><ele>344.25</ele><time>2026-04-24T08:29:35.804Z</time></trkpt><trkpt lat="45.7746555" lon="8.8044977"><ele>342.0</ele><time>2026-04-24T08:29:36.805Z</time></trkpt><trkpt lat="45.774775" lon="8.8044364"><ele>342.0</ele><time>2026-04-24T08:29:37.808Z</time></trkpt><trkpt lat="45.7748884" lon="8.8043744"><ele>342.0</ele><time>2026-04-24T08:29:38.808Z</time></trkpt><trkpt lat="45.7750067" lon="8.8043115"><ele>342.0</ele><time>2026-04-24T08:29:39.809Z</time></trkpt><trkpt lat="45.7751242" lon="8.8042427"><ele>342.0</ele><time>2026-04-24T08:29:40.806Z</time></trkpt><trkpt lat="45.7752431" lon="8.8041815"><ele>340.75</ele><time>2026-04-24T08:29:41.802Z</time></trkpt><trkpt lat="45.7753637" lon="8.8041159"><ele>339.5</ele><time>2026-04-24T08:29:42.806Z</time></trkpt><trkpt lat="45.7754837" lon="8.8040582"><ele>338.25</ele><time>2026-04-24T08:29:43.812Z</time></trkpt><trkpt lat="45.7755936" lon="8.8039914"><ele>337.0</ele><time>2026-04-24T08:29:44.812Z</time></trkpt><trkpt lat="45.7756894" lon="8.8039211"><ele>337.0</ele><time>2026-04-24T08:29:45.808Z</time></trkpt><trkpt lat="45.7757755" lon="8.8038413"><ele>337.0</ele><time>2026-04-24T08:29:46.817Z</time></trkpt><trkpt lat="45.7758452" lon="8.803754"><ele>337.0</ele><time>2026-04-24T08:29:47.814Z</time></trkpt><trkpt lat="45.7758988" lon="8.8036479"><ele>337.0</ele><time>2026-04-24T08:29:48.815Z</time></trkpt><trkpt lat="45.7759434" lon="8.803526"><ele>337.0</ele><time>2026-04-24T08:29:49.809Z</time></trkpt><trkpt lat="45.7759884" lon="8.8033941"><ele>336.0</ele><time>2026-04-24T08:29:50.812Z</time></trkpt><trkpt lat="45.7760388" lon="8.8032568"><ele>335.0</ele><time>2026-04-24T08:29:51.812Z</time></trkpt><trkpt lat="45.7760939" lon="8.803127"><ele>334.0</ele><time>2026-04-24T08:29:52.814Z</time></trkpt><trkpt lat="45.776146" lon="8.8029961"><ele>333.0</ele><time>2026-04-24T08:29:53.808Z</time></trkpt><trkpt lat="45.7761974" lon="8.802855"><ele>332.0</ele><time>2026-04-24T08:29:54.819Z</time></trkpt><trkpt lat="45.7762543" lon="8.8027194"><ele>331.0</ele><time>2026-04-24T08:29:55.81Z</time></trkpt><trkpt lat="45.7763193" lon="8.8025815"><ele>330.0</ele><time>2026-04-24T08:29:56.823Z</time></trkpt><trkpt lat="45.7763911" lon="8.8024441"><ele>329.0</ele><time>2026-04-24T08:29:57.818Z</time></trkpt><trkpt lat="45.7764804" lon="8.8023129"><ele>328.0</ele><time>2026-04-24T08:29:58.819Z</time></trkpt><trkpt lat="45.7765718" lon="8.8021893"><ele>328.0</ele><time>2026-04-24T08:29:59.838Z</time></trkpt><trkpt lat="45.776659" lon="8.802069"><ele>328.0</ele><time>2026-04-24T08:30:00.828Z</time></trkpt><trkpt lat="45.7767374" lon="8.8019517"><ele>328.0</ele><time>2026-04-24T08:30:01.821Z</time></trkpt><trkpt lat="45.7768139" lon="8.8018278"><ele>328.0</ele><time>2026-04-24T08:30:02.842Z</time></trkpt><trkpt lat="45.7768928" lon="8.8017076"><ele>326.4</ele><time>2026-04-24T08:30:03.818Z</time></trkpt><trkpt lat="45.7769772" lon="8.8015979"><ele>324.79999999999995</ele><time>2026-04-24T08:30:04.827Z</time></trkpt><trkpt lat="45.7770522" lon="8.8015008"><ele>323.2</ele><time>2026-04-24T08:30:05.818Z</time></trkpt><trkpt lat="45.7771193" lon="8.801415"><ele>321.6</ele><time>2026-04-24T08:30:06.825Z</time></trkpt><trkpt lat="45.7771785" lon="8.8013312"><ele>320.0</ele><time>2026-04-24T08:30:07.82Z</time></trkpt><trkpt lat="45.7772314" lon="8.8012335"><ele>320.0</ele><time>2026-04-24T08:30:08.816Z</time></trkpt><trkpt lat="45.7772741" lon="8.8011229"><ele>320.0</ele><time>2026-04-24T08:30:09.806Z</time></trkpt><trkpt lat="45.7773026" lon="8.8009964"><ele>320.0</ele><time>2026-04-24T08:30:10.808Z</time></trkpt><trkpt lat="45.7773298" lon="8.8008547"><ele>320.0</ele><time>2026-04-24T08:30:11.805Z</time></trkpt><trkpt lat="45.7773529" lon="8.8006926"><ele>320.0</ele><time>2026-04-24T08:30:12.806Z</time></trkpt><trkpt lat="45.7773614" lon="8.8005207"><ele>320.0</ele><time>2026-04-24T08:30:13.802Z</time></trkpt><trkpt lat="45.7773651" lon="8.8003519"><ele>320.0</ele><time>2026-04-24T08:30:14.807Z</time></trkpt><trkpt lat="45.7773715" lon="8.8001993"><ele>320.0</ele><time>2026-04-24T08:30:15.807Z</time></trkpt><trkpt lat="45.7773727" lon="8.8000429"><ele>320.0</ele><time>2026-04-24T08:30:16.807Z</time></trkpt><trkpt lat="45.777379" lon="8.7998921"><ele>320.0</ele><time>2026-04-24T08:30:17.809Z</time></trkpt><trkpt lat="45.7773893" lon="8.7997575"><ele>320.0</ele><time>2026-04-24T08:30:18.817Z</time></trkpt><trkpt lat="45.7774039" lon="8.7996311"><ele>320.0</ele><time>2026-04-24T08:30:19.812Z</time></trkpt><trkpt lat="45.7774193" lon="8.7995095"><ele>320.0</ele><time>2026-04-24T08:30:20.814Z</time></trkpt><trkpt lat="45.7774296" lon="8.7993963"><ele>320.0</ele><time>2026-04-24T08:30:21.803Z</time></trkpt><trkpt lat="45.77744" lon="8.7992989"><ele>320.0</ele><time>2026-04-24T08:30:22.814Z</time></trkpt><trkpt lat="45.777488" lon="8.7992069"><ele>320.0</ele><time>2026-04-24T08:30:25.811Z</time></trkpt><trkpt lat="45.7775713" lon="8.799135"><ele>320.2</ele><time>2026-04-24T08:30:27.804Z</time></trkpt><trkpt lat="45.7776287" lon="8.7990072"><ele>320.4</ele><time>2026-04-24T08:30:29.814Z</time></trkpt><trkpt lat="45.7776462" lon="8.7988161"><ele>320.6</ele><time>2026-04-24T08:30:31.817Z</time></trkpt><trkpt lat="45.7776347" lon="8.7986934"><ele>320.8</ele><time>2026-04-24T08:30:32.827Z</time></trkpt><trkpt lat="45.7776237" lon="8.7985547"><ele>321.0</ele><time>2026-04-24T08:30:33.816Z</time></trkpt><trkpt lat="45.7776206" lon="8.7984039"><ele>321.0</ele><time>2026-04-24T08:30:34.815Z</time></trkpt><trkpt lat="45.77762" lon="8.7982566"><ele>321.0</ele><time>2026-04-24T08:30:35.807Z</time></trkpt><trkpt lat="45.7776196" lon="8.7981274"><ele>321.0</ele><time>2026-04-24T08:30:36.803Z</time></trkpt><trkpt lat="45.7776175" lon="8.7980174"><ele>321.0</ele><time>2026-04-24T08:30:37.806Z</time></trkpt><trkpt lat="45.7776172" lon="8.797924"><ele>321.0</ele><time>2026-04-24T08:30:38.811Z</time></trkpt><trkpt lat="45.7776097" lon="8.7978271"><ele>321.0</ele><time>2026-04-24T08:30:39.812Z</time></trkpt><trkpt lat="45.7776035" lon="8.7977349"><ele>320.8333333333333</ele><time>2026-04-24T08:30:40.811Z</time></trkpt><trkpt lat="45.7775953" lon="8.7976453"><ele>320.6666666666667</ele><time>2026-04-24T08:30:41.807Z</time></trkpt><trkpt lat="45.7775892" lon="8.7975003"><ele>320.5</ele><time>2026-04-24T08:30:43.809Z</time></trkpt><trkpt lat="45.7775763" lon="8.7973961"><ele>320.33333333333337</ele><time>2026-04-24T08:30:45.817Z</time></trkpt><trkpt lat="45.777554" lon="8.797311"><ele>320.1666666666667</ele><time>2026-04-24T08:30:47.817Z</time></trkpt><trkpt lat="45.7775319" lon="8.797222"><ele>320.0</ele><time>2026-04-24T08:30:49.818Z</time></trkpt><trkpt lat="45.7775139" lon="8.7970853"><ele>320.0</ele><time>2026-04-24T08:30:51.813Z</time></trkpt><trkpt lat="45.7774992" lon="8.7969072"><ele>320.0</ele><time>2026-04-24T08:30:53.814Z</time></trkpt><trkpt lat="45.777485" lon="8.7967988"><ele>320.0</ele><time>2026-04-24T08:30:54.807Z</time></trkpt><trkpt lat="45.7774661" lon="8.7967024"><ele>320.0</ele><time>2026-04-24T08:30:55.813Z</time></trkpt><trkpt lat="45.7774351" lon="8.7965653"><ele>320.0</ele><time>2026-04-24T08:30:57.814Z</time></trkpt><trkpt lat="45.7774199" lon="8.7964549"><ele>319.8</ele><time>2026-04-24T08:30:59.828Z</time></trkpt><trkpt lat="45.7774049" lon="8.7962945"><ele>319.6</ele><time>2026-04-24T08:31:01.819Z</time></trkpt><trkpt lat="45.7773795" lon="8.7961238"><ele>319.4</ele><time>2026-04-24T08:31:03.836Z</time></trkpt><trkpt lat="45.7773464" lon="8.7959875"><ele>319.2</ele><time>2026-04-24T08:31:05.825Z</time></trkpt><trkpt lat="45.7773347" lon="8.7958904"><ele>319.0</ele><time>2026-04-24T08:31:07.816Z</time></trkpt><trkpt lat="45.7773023" lon="8.7957841"><ele>318.8333333333333</ele><time>2026-04-24T08:31:11.821Z</time></trkpt><trkpt lat="45.7772952" lon="8.7956548"><ele>318.66666666666663</ele><time>2026-04-24T08:31:14.819Z</time></trkpt><trkpt lat="45.7772715" lon="8.7955385"><ele>318.5</ele><time>2026-04-24T08:31:16.819Z</time></trkpt><trkpt lat="45.7772379" lon="8.7954289"><ele>318.3333333333333</ele><time>2026-04-24T08:31:18.818Z</time></trkpt><trkpt lat="45.7771327" lon="8.7953404"><ele>318.1666666666667</ele><time>2026-04-24T08:31:20.815Z</time></trkpt><trkpt lat="45.7770772" lon="8.7952905"><ele>318.0</ele><time>2026-04-24T08:31:21.816Z</time></trkpt><trkpt lat="45.7770041" lon="8.7951709"><ele>318.3333333333333</ele><time>2026-04-24T08:31:23.812Z</time></trkpt><trkpt lat="45.7769339" lon="8.7950009"><ele>318.6666666666667</ele><time>2026-04-24T08:31:25.816Z</time></trkpt><trkpt lat="45.7769002" lon="8.7948953"><ele>319.0</ele><time>2026-04-24T08:31:26.818Z</time></trkpt><trkpt lat="45.7768648" lon="8.7948031"><ele>319.33333333333337</ele><time>2026-04-24T08:31:27.814Z</time></trkpt><trkpt lat="45.7768217" lon="8.7947172"><ele>319.6666666666667</ele><time>2026-04-24T08:31:28.818Z</time></trkpt><trkpt lat="45.7767758" lon="8.794631"><ele>320.0</ele><time>2026-04-24T08:31:29.821Z</time></trkpt><trkpt lat="45.7767321" lon="8.7945392"><ele>320.5</ele><time>2026-04-24T08:31:30.814Z</time></trkpt><trkpt lat="45.7766829" lon="8.7944363"><ele>321.0</ele><time>2026-04-24T08:31:31.804Z</time></trkpt><trkpt lat="45.7766306" lon="8.7943385"><ele>321.5</ele><time>2026-04-24T08:31:32.816Z</time></trkpt><trkpt lat="45.7765821" lon="8.7942461"><ele>322.0</ele><time>2026-04-24T08:31:33.81Z</time></trkpt><trkpt lat="45.7765444" lon="8.7941718"><ele>322.5</ele><time>2026-04-24T08:31:34.833Z</time></trkpt><trkpt lat="45.7765153" lon="8.7940877"><ele>323.0</ele><time>2026-04-24T08:31:36.807Z</time></trkpt><trkpt lat="45.776491" lon="8.7939946"><ele>323.0</ele><time>2026-04-24T08:31:40.815Z</time></trkpt><trkpt lat="45.7765087" lon="8.7938822"><ele>323.0</ele><time>2026-04-24T08:31:42.824Z</time></trkpt><trkpt lat="45.776484" lon="8.7937521"><ele>323.0</ele><time>2026-04-24T08:31:44.821Z</time></trkpt><trkpt lat="45.7764117" lon="8.7936335"><ele>323.0</ele><time>2026-04-24T08:31:46.826Z</time></trkpt><trkpt lat="45.7763744" lon="8.7935438"><ele>323.0</ele><time>2026-04-24T08:31:47.818Z</time></trkpt><trkpt lat="45.7763324" lon="8.7934244"><ele>323.2</ele><time>2026-04-24T08:31:48.816Z</time></trkpt><trkpt lat="45.7762938" lon="8.793298"><ele>323.4</ele><time>2026-04-24T08:31:49.816Z</time></trkpt><trkpt lat="45.7762655" lon="8.7931806"><ele>323.59999999999997</ele><time>2026-04-24T08:31:50.816Z</time></trkpt><trkpt lat="45.7762285" lon="8.7930628"><ele>323.79999999999995</ele><time>2026-04-24T08:31:51.814Z</time></trkpt><trkpt lat="45.7761937" lon="8.7929346"><ele>324.0</ele><time>2026-04-24T08:31:52.802Z</time></trkpt><trkpt lat="45.7761508" lon="8.7927983"><ele>324.5</ele><time>2026-04-24T08:31:53.81Z</time></trkpt><trkpt lat="45.7760993" lon="8.792659"><ele>325.0</ele><time>2026-04-24T08:31:54.815Z</time></trkpt><trkpt lat="45.776042" lon="8.7925108"><ele>325.5</ele><time>2026-04-24T08:31:55.812Z</time></trkpt><trkpt lat="45.7759844" lon="8.7923487"><ele>326.0</ele><time>2026-04-24T08:31:56.806Z</time></trkpt><trkpt lat="45.7759204" lon="8.792179"><ele>324.5</ele><time>2026-04-24T08:31:57.815Z</time></trkpt><trkpt lat="45.7758507" lon="8.7919985"><ele>323.0</ele><time>2026-04-24T08:31:58.82Z</time></trkpt><trkpt lat="45.7757824" lon="8.7918215"><ele>321.5</ele><time>2026-04-24T08:31:59.822Z</time></trkpt><trkpt lat="45.7757135" lon="8.7916503"><ele>320.0</ele><time>2026-04-24T08:32:00.818Z</time></trkpt><trkpt lat="45.775648" lon="8.7914916"><ele>319.25</ele><time>2026-04-24T08:32:01.818Z</time></trkpt><trkpt lat="45.7755793" lon="8.7913487"><ele>318.5</ele><time>2026-04-24T08:32:02.822Z</time></trkpt><trkpt lat="45.7755077" lon="8.7912137"><ele>317.75</ele><time>2026-04-24T08:32:03.815Z</time></trkpt><trkpt lat="45.7754285" lon="8.7910806"><ele>317.0</ele><time>2026-04-24T08:32:04.819Z</time></trkpt><trkpt lat="45.7753436" lon="8.7909528"><ele>317.75</ele><time>2026-04-24T08:32:05.832Z</time></trkpt><trkpt lat="45.7752561" lon="8.7908323"><ele>318.5</ele><time>2026-04-24T08:32:06.819Z</time></trkpt><trkpt lat="45.7751658" lon="8.7907235"><ele>319.25</ele><time>2026-04-24T08:32:07.816Z</time></trkpt><trkpt lat="45.7750729" lon="8.7906193"><ele>320.0</ele><time>2026-04-24T08:32:08.812Z</time></trkpt><trkpt lat="45.7749839" lon="8.7905197"><ele>320.0</ele><time>2026-04-24T08:32:09.814Z</time></trkpt><trkpt lat="45.7748931" lon="8.7904306"><ele>320.0</ele><time>2026-04-24T08:32:10.804Z</time></trkpt><trkpt lat="45.7748012" lon="8.7903552"><ele>320.0</ele><time>2026-04-24T08:32:11.81Z</time></trkpt><trkpt lat="45.774713" lon="8.7902845"><ele>320.0</ele><time>2026-04-24T08:32:12.81Z</time></trkpt><trkpt lat="45.774633" lon="8.7902272"><ele>320.0</ele><time>2026-04-24T08:32:13.821Z</time></trkpt><trkpt lat="45.7745549" lon="8.7901724"><ele>319.2</ele><time>2026-04-24T08:32:14.826Z</time></trkpt><trkpt lat="45.7744731" lon="8.7901142"><ele>318.4</ele><time>2026-04-24T08:32:15.825Z</time></trkpt><trkpt lat="45.7743836" lon="8.7900454"><ele>317.6</ele><time>2026-04-24T08:32:16.828Z</time></trkpt><trkpt lat="45.7742959" lon="8.7899614"><ele>316.8</ele><time>2026-04-24T08:32:17.821Z</time></trkpt><trkpt lat="45.7742042" lon="8.789849"><ele>316.0</ele><time>2026-04-24T08:32:18.823Z</time></trkpt><trkpt lat="45.7741109" lon="8.7897091"><ele>316.0</ele><time>2026-04-24T08:32:19.823Z</time></trkpt><trkpt lat="45.7740348" lon="8.7895458"><ele>316.0</ele><time>2026-04-24T08:32:20.823Z</time></trkpt><trkpt lat="45.773972" lon="8.7893677"><ele>316.0</ele><time>2026-04-24T08:32:21.813Z</time></trkpt><trkpt lat="45.7739181" lon="8.7891653"><ele>316.0</ele><time>2026-04-24T08:32:22.827Z</time></trkpt><trkpt lat="45.7738882" lon="8.7889318"><ele>315.66666666666663</ele><time>2026-04-24T08:32:23.818Z</time></trkpt><trkpt lat="45.7738894" lon="8.788698"><ele>315.3333333333333</ele><time>2026-04-24T08:32:24.815Z</time></trkpt><trkpt lat="45.7739123" lon="8.7884568"><ele>315.0</ele><time>2026-04-24T08:32:25.814Z</time></trkpt><trkpt lat="45.7739254" lon="8.7882282"><ele>314.25</ele><time>2026-04-24T08:32:26.818Z</time></trkpt><trkpt lat="45.7739283" lon="8.7880193"><ele>313.5</ele><time>2026-04-24T08:32:27.816Z</time></trkpt><trkpt lat="45.7739179" lon="8.787818"><ele>312.75</ele><time>2026-04-24T08:32:28.81Z</time></trkpt><trkpt lat="45.7739107" lon="8.7875951"><ele>312.0</ele><time>2026-04-24T08:32:29.822Z</time></trkpt><trkpt lat="45.7738995" lon="8.7873985"><ele>311.0</ele><time>2026-04-24T08:32:30.81Z</time></trkpt><trkpt lat="45.773894" lon="8.7872096"><ele>310.0</ele><time>2026-04-24T08:32:31.809Z</time></trkpt><trkpt lat="45.7738697" lon="8.7870134"><ele>309.0</ele><time>2026-04-24T08:32:32.802Z</time></trkpt><trkpt lat="45.7738554" lon="8.7868213"><ele>308.0</ele><time>2026-04-24T08:32:33.801Z</time></trkpt><trkpt lat="45.7738251" lon="8.7866443"><ele>307.8</ele><time>2026-04-24T08:32:34.805Z</time></trkpt><trkpt lat="45.7737983" lon="8.7864797"><ele>307.6</ele><time>2026-04-24T08:32:35.814Z</time></trkpt><trkpt lat="45.7737867" lon="8.7863328"><ele>307.4</ele><time>2026-04-24T08:32:36.823Z</time></trkpt><trkpt lat="45.7737844" lon="8.7861863"><ele>307.2</ele><time>2026-04-24T08:32:37.802Z</time></trkpt><trkpt lat="45.7737683" lon="8.7860434"><ele>307.0</ele><time>2026-04-24T08:32:38.794Z</time></trkpt><trkpt lat="45.7737553" lon="8.7858766"><ele>307.0</ele><time>2026-04-24T08:32:39.802Z</time></trkpt><trkpt lat="45.7737264" lon="8.7856728"><ele>307.0</ele><time>2026-04-24T08:32:40.8Z</time></trkpt><trkpt lat="45.7737003" lon="8.7854571"><ele>307.0</ele><time>2026-04-24T08:32:41.794Z</time></trkpt><trkpt lat="45.7736895" lon="8.7852589"><ele>307.0</ele><time>2026-04-24T08:32:42.803Z</time></trkpt><trkpt lat="45.7736742" lon="8.7850635"><ele>305.75</ele><time>2026-04-24T08:32:43.805Z</time></trkpt><trkpt lat="45.7736581" lon="8.7848776"><ele>304.5</ele><time>2026-04-24T08:32:44.815Z</time></trkpt><trkpt lat="45.773644" lon="8.7846955"><ele>303.25</ele><time>2026-04-24T08:32:45.805Z</time></trkpt><trkpt lat="45.7736202" lon="8.784502"><ele>302.0</ele><time>2026-04-24T08:32:46.811Z</time></trkpt><trkpt lat="45.7735986" lon="8.7843149"><ele>301.75</ele><time>2026-04-24T08:32:47.81Z</time></trkpt><trkpt lat="45.7735768" lon="8.784121"><ele>301.5</ele><time>2026-04-24T08:32:48.81Z</time></trkpt><trkpt lat="45.7735502" lon="8.7839305"><ele>301.25</ele><time>2026-04-24T08:32:49.813Z</time></trkpt><trkpt lat="45.7735229" lon="8.7837334"><ele>301.0</ele><time>2026-04-24T08:32:50.815Z</time></trkpt><trkpt lat="45.7734977" lon="8.7835405"><ele>302.25</ele><time>2026-04-24T08:32:51.81Z</time></trkpt><trkpt lat="45.7734759" lon="8.7833503"><ele>303.5</ele><time>2026-04-24T08:32:52.819Z</time></trkpt><trkpt lat="45.7734617" lon="8.7831752"><ele>304.75</ele><time>2026-04-24T08:32:53.811Z</time></trkpt><trkpt lat="45.7734494" lon="8.7830074"><ele>306.0</ele><time>2026-04-24T08:32:54.815Z</time></trkpt><trkpt lat="45.7734348" lon="8.7828599"><ele>306.0</ele><time>2026-04-24T08:32:55.809Z</time></trkpt><trkpt lat="45.773425" lon="8.7827373"><ele>306.0</ele><time>2026-04-24T08:32:56.816Z</time></trkpt><trkpt lat="45.7734164" lon="8.782631"><ele>306.0</ele><time>2026-04-24T08:32:57.81Z</time></trkpt><trkpt lat="45.7734145" lon="8.7825314"><ele>306.0</ele><time>2026-04-24T08:32:58.814Z</time></trkpt><trkpt lat="45.7734278" lon="8.7823725"><ele>306.0</ele><time>2026-04-24T08:33:00.809Z</time></trkpt><trkpt lat="45.7734362" lon="8.7822763"><ele>306.0</ele><time>2026-04-24T08:33:01.806Z</time></trkpt><trkpt lat="45.7734375" lon="8.7821737"><ele>306.3333333333333</ele><time>2026-04-24T08:33:02.803Z</time></trkpt><trkpt lat="45.7734291" lon="8.7820738"><ele>306.6666666666667</ele><time>2026-04-24T08:33:03.811Z</time></trkpt><trkpt lat="45.7734017" lon="8.7819659"><ele>307.0</ele><time>2026-04-24T08:33:04.812Z</time></trkpt><trkpt lat="45.7733709" lon="8.7818594"><ele>307.33333333333337</ele><time>2026-04-24T08:33:05.817Z</time></trkpt><trkpt lat="45.7733423" lon="8.7817616"><ele>307.6666666666667</ele><time>2026-04-24T08:33:06.827Z</time></trkpt><trkpt lat="45.773311" lon="8.7816671"><ele>308.0</ele><time>2026-04-24T08:33:07.833Z</time></trkpt><trkpt lat="45.7732802" lon="8.7815686"><ele>308.0</ele><time>2026-04-24T08:33:08.811Z</time></trkpt><trkpt lat="45.7732492" lon="8.7814558"><ele>308.0</ele><time>2026-04-24T08:33:09.802Z</time></trkpt><trkpt lat="45.7732187" lon="8.7813423"><ele>308.0</ele><time>2026-04-24T08:33:10.795Z</time></trkpt><trkpt lat="45.773183" lon="8.7812204"><ele>308.0</ele><time>2026-04-24T08:33:11.797Z</time></trkpt><trkpt lat="45.7731367" lon="8.7810879"><ele>308.0</ele><time>2026-04-24T08:33:12.792Z</time></trkpt><trkpt lat="45.7730963" lon="8.7809614"><ele>308.0</ele><time>2026-04-24T08:33:13.791Z</time></trkpt><trkpt lat="45.7730525" lon="8.7808245"><ele>308.0</ele><time>2026-04-24T08:33:14.79Z</time></trkpt><trkpt lat="45.7729934" lon="8.7806631"><ele>308.0</ele><time>2026-04-24T08:33:15.797Z</time></trkpt><trkpt lat="45.7729296" lon="8.780483"><ele>308.0</ele><time>2026-04-24T08:33:16.791Z</time></trkpt><trkpt lat="45.7728626" lon="8.7802979"><ele>308.0</ele><time>2026-04-24T08:33:17.789Z</time></trkpt><trkpt lat="45.7728086" lon="8.7801125"><ele>308.0</ele><time>2026-04-24T08:33:18.79Z</time></trkpt><trkpt lat="45.7727613" lon="8.7799297"><ele>308.0</ele><time>2026-04-24T08:33:19.792Z</time></trkpt><trkpt lat="45.772712" lon="8.7797458"><ele>308.0</ele><time>2026-04-24T08:33:20.792Z</time></trkpt><trkpt lat="45.7726465" lon="8.7795563"><ele>309.0</ele><time>2026-04-24T08:33:21.794Z</time></trkpt><trkpt lat="45.7725749" lon="8.7793839"><ele>310.0</ele><time>2026-04-24T08:33:22.793Z</time></trkpt><trkpt lat="45.7725059" lon="8.7792357"><ele>311.0</ele><time>2026-04-24T08:33:23.798Z</time></trkpt><trkpt lat="45.7724327" lon="8.7790951"><ele>312.0</ele><time>2026-04-24T08:33:24.799Z</time></trkpt><trkpt lat="45.7723485" lon="8.7789659"><ele>312.0</ele><time>2026-04-24T08:33:25.807Z</time></trkpt><trkpt lat="45.7722627" lon="8.7788517"><ele>312.0</ele><time>2026-04-24T08:33:26.81Z</time></trkpt><trkpt lat="45.7721687" lon="8.7787342"><ele>312.0</ele><time>2026-04-24T08:33:27.811Z</time></trkpt><trkpt lat="45.7720803" lon="8.7786118"><ele>312.0</ele><time>2026-04-24T08:33:28.812Z</time></trkpt><trkpt lat="45.7719902" lon="8.7784972"><ele>312.75</ele><time>2026-04-24T08:33:29.822Z</time></trkpt><trkpt lat="45.7719031" lon="8.7783858"><ele>313.5</ele><time>2026-04-24T08:33:30.814Z</time></trkpt><trkpt lat="45.7718225" lon="8.7782736"><ele>314.25</ele><time>2026-04-24T08:33:31.815Z</time></trkpt><trkpt lat="45.771738" lon="8.7781529"><ele>315.0</ele><time>2026-04-24T08:33:32.813Z</time></trkpt><trkpt lat="45.7716472" lon="8.7780231"><ele>315.0</ele><time>2026-04-24T08:33:33.815Z</time></trkpt><trkpt lat="45.7715557" lon="8.7778782"><ele>315.0</ele><time>2026-04-24T08:33:34.81Z</time></trkpt><trkpt lat="45.7714755" lon="8.7777408"><ele>315.0</ele><time>2026-04-24T08:33:35.814Z</time></trkpt><trkpt lat="45.7713954" lon="8.77761"><ele>315.0</ele><time>2026-04-24T08:33:36.819Z</time></trkpt><trkpt lat="45.7713105" lon="8.7774658"><ele>313.5</ele><time>2026-04-24T08:33:37.81Z</time></trkpt><trkpt lat="45.7712346" lon="8.7773379"><ele>312.0</ele><time>2026-04-24T08:33:38.838Z</time></trkpt><trkpt lat="45.7711513" lon="8.7771847"><ele>310.5</ele><time>2026-04-24T08:33:39.814Z</time></trkpt><trkpt lat="45.771078" lon="8.7770421"><ele>309.0</ele><time>2026-04-24T08:33:40.822Z</time></trkpt><trkpt lat="45.7710107" lon="8.7768912"><ele>310.59999999999997</ele><time>2026-04-24T08:33:41.819Z</time></trkpt><trkpt lat="45.7709692" lon="8.7767427"><ele>312.2</ele><time>2026-04-24T08:33:42.819Z</time></trkpt><trkpt lat="45.7709277" lon="8.7766041"><ele>313.79999999999995</ele><time>2026-04-24T08:33:43.806Z</time></trkpt><trkpt lat="45.7708887" lon="8.7764728"><ele>315.4</ele><time>2026-04-24T08:33:44.81Z</time></trkpt><trkpt lat="45.7708308" lon="8.7763433"><ele>317.0</ele><time>2026-04-24T08:33:45.81Z</time></trkpt><trkpt lat="45.7707627" lon="8.7762145"><ele>317.0</ele><time>2026-04-24T08:33:46.799Z</time></trkpt><trkpt lat="45.7707083" lon="8.7760754"><ele>317.0</ele><time>2026-04-24T08:33:47.806Z</time></trkpt><trkpt lat="45.7706519" lon="8.775939"><ele>317.0</ele><time>2026-04-24T08:33:48.812Z</time></trkpt><trkpt lat="45.7705871" lon="8.7757815"><ele>317.0</ele><time>2026-04-24T08:33:49.81Z</time></trkpt><trkpt lat="45.7705232" lon="8.7756203"><ele>315.25</ele><time>2026-04-24T08:33:50.811Z</time></trkpt><trkpt lat="45.7704563" lon="8.7754572"><ele>313.5</ele><time>2026-04-24T08:33:51.809Z</time></trkpt><trkpt lat="45.7703836" lon="8.775285"><ele>311.75</ele><time>2026-04-24T08:33:52.813Z</time></trkpt><trkpt lat="45.7703098" lon="8.7751008"><ele>310.0</ele><time>2026-04-24T08:33:53.809Z</time></trkpt><trkpt lat="45.7702404" lon="8.7749063"><ele>309.5</ele><time>2026-04-24T08:33:54.805Z</time></trkpt><trkpt lat="45.7701765" lon="8.7747365"><ele>309.0</ele><time>2026-04-24T08:33:55.802Z</time></trkpt><trkpt lat="45.7700909" lon="8.7745787"><ele>308.5</ele><time>2026-04-24T08:33:56.803Z</time></trkpt><trkpt lat="45.7699759" lon="8.7744312"><ele>308.0</ele><time>2026-04-24T08:33:57.802Z</time></trkpt><trkpt lat="45.7698524" lon="8.7742933"><ele>308.0</ele><time>2026-04-24T08:33:58.807Z</time></trkpt><trkpt lat="45.7697306" lon="8.7741331"><ele>308.0</ele><time>2026-04-24T08:33:59.819Z</time></trkpt><trkpt lat="45.7696099" lon="8.7739781"><ele>308.0</ele><time>2026-04-24T08:34:00.817Z</time></trkpt><trkpt lat="45.7694887" lon="8.7737889"><ele>308.0</ele><time>2026-04-24T08:34:01.818Z</time></trkpt><trkpt lat="45.7693713" lon="8.7736138"><ele>308.0</ele><time>2026-04-24T08:34:02.816Z</time></trkpt><trkpt lat="45.7692582" lon="8.7734602"><ele>308.0</ele><time>2026-04-24T08:34:03.822Z</time></trkpt><trkpt lat="45.769149" lon="8.7732972"><ele>308.0</ele><time>2026-04-24T08:34:04.819Z</time></trkpt><trkpt lat="45.7690456" lon="8.7731517"><ele>308.0</ele><time>2026-04-24T08:34:05.821Z</time></trkpt><trkpt lat="45.7689216" lon="8.7729951"><ele>308.0</ele><time>2026-04-24T08:34:06.826Z</time></trkpt><trkpt lat="45.7687948" lon="8.7728027"><ele>307.6666666666667</ele><time>2026-04-24T08:34:07.813Z</time></trkpt><trkpt lat="45.7686769" lon="8.7726314"><ele>307.3333333333333</ele><time>2026-04-24T08:34:08.822Z</time></trkpt><trkpt lat="45.7685547" lon="8.7724637"><ele>307.0</ele><time>2026-04-24T08:34:09.835Z</time></trkpt><trkpt lat="45.7684385" lon="8.7722928"><ele>307.0</ele><time>2026-04-24T08:34:10.83Z</time></trkpt><trkpt lat="45.7683232" lon="8.7721321"><ele>307.0</ele><time>2026-04-24T08:34:11.82Z</time></trkpt><trkpt lat="45.7682073" lon="8.7719625"><ele>307.0</ele><time>2026-04-24T08:34:12.829Z</time></trkpt><trkpt lat="45.7680836" lon="8.7718163"><ele>306.3333333333333</ele><time>2026-04-24T08:34:13.825Z</time></trkpt><trkpt lat="45.7679613" lon="8.7716775"><ele>305.6666666666667</ele><time>2026-04-24T08:34:14.82Z</time></trkpt><trkpt lat="45.767839" lon="8.7715304"><ele>305.0</ele><time>2026-04-24T08:34:15.821Z</time></trkpt><trkpt lat="45.7677034" lon="8.7713888"><ele>305.6666666666667</ele><time>2026-04-24T08:34:16.818Z</time></trkpt><trkpt lat="45.7675621" lon="8.7712679"><ele>306.3333333333333</ele><time>2026-04-24T08:34:17.817Z</time></trkpt><trkpt lat="45.767423" lon="8.7711539"><ele>307.0</ele><time>2026-04-24T08:34:18.818Z</time></trkpt><trkpt lat="45.767294" lon="8.7710469"><ele>307.0</ele><time>2026-04-24T08:34:19.812Z</time></trkpt><trkpt lat="45.7671601" lon="8.7709395"><ele>307.0</ele><time>2026-04-24T08:34:20.811Z</time></trkpt><trkpt lat="45.7670145" lon="8.7708322"><ele>307.0</ele><time>2026-04-24T08:34:21.82Z</time></trkpt><trkpt lat="45.7668667" lon="8.7707134"><ele>307.0</ele><time>2026-04-24T08:34:22.818Z</time></trkpt><trkpt lat="45.7667379" lon="8.7706046"><ele>307.0</ele><time>2026-04-24T08:34:23.804Z</time></trkpt><trkpt lat="45.7666164" lon="8.7704948"><ele>307.0</ele><time>2026-04-24T08:34:24.814Z</time></trkpt><trkpt lat="45.7665031" lon="8.7703978"><ele>307.0</ele><time>2026-04-24T08:34:25.826Z</time></trkpt><trkpt lat="45.7664184" lon="8.7702722"><ele>306.8</ele><time>2026-04-24T08:34:26.818Z</time></trkpt><trkpt lat="45.7663357" lon="8.7701726"><ele>306.6</ele><time>2026-04-24T08:34:27.818Z</time></trkpt><trkpt lat="45.7662712" lon="8.7700835"><ele>306.40000000000003</ele><time>2026-04-24T08:34:28.816Z</time></trkpt><trkpt lat="45.7661872" lon="8.7699929"><ele>306.2</ele><time>2026-04-24T08:34:29.827Z</time></trkpt><trkpt lat="45.7661244" lon="8.7699386"><ele>306.0</ele><time>2026-04-24T08:34:30.829Z</time></trkpt><trkpt lat="45.7661007" lon="8.7698361"><ele>306.0</ele><time>2026-04-24T08:34:32.813Z</time></trkpt><trkpt lat="45.7661368" lon="8.7697576"><ele>306.0</ele><time>2026-04-24T08:34:33.812Z</time></trkpt><trkpt lat="45.7661814" lon="8.7696666"><ele>306.0</ele><time>2026-04-24T08:34:34.817Z</time></trkpt><trkpt lat="45.7662353" lon="8.769562"><ele>306.0</ele><time>2026-04-24T08:34:35.817Z</time></trkpt><trkpt lat="45.7662889" lon="8.7694408"><ele>306.0</ele><time>2026-04-24T08:34:36.821Z</time></trkpt><trkpt lat="45.7663269" lon="8.769329"><ele>306.0</ele><time>2026-04-24T08:34:37.815Z</time></trkpt><trkpt lat="45.766357" lon="8.7692138"><ele>305.5</ele><time>2026-04-24T08:34:38.823Z</time></trkpt><trkpt lat="45.7663887" lon="8.7691103"><ele>305.0</ele><time>2026-04-24T08:34:39.817Z</time></trkpt><trkpt lat="45.7664251" lon="8.7689908"><ele>304.5</ele><time>2026-04-24T08:34:40.847Z</time></trkpt><trkpt lat="45.7664424" lon="8.7688934"><ele>304.0</ele><time>2026-04-24T08:34:41.816Z</time></trkpt><trkpt lat="45.7664619" lon="8.7687945"><ele>303.5</ele><time>2026-04-24T08:34:42.816Z</time></trkpt><trkpt lat="45.7664827" lon="8.7687066"><ele>303.0</ele><time>2026-04-24T08:34:43.814Z</time></trkpt><trkpt lat="45.7665394" lon="8.7685594"><ele>302.6</ele><time>2026-04-24T08:34:45.812Z</time></trkpt><trkpt lat="45.7666079" lon="8.7684292"><ele>302.20000000000005</ele><time>2026-04-24T08:34:47.813Z</time></trkpt><trkpt lat="45.7666518" lon="8.7683145"><ele>301.8</ele><time>2026-04-24T08:34:49.813Z</time></trkpt><trkpt lat="45.7666923" lon="8.7682111"><ele>301.40000000000003</ele><time>2026-04-24T08:34:52.816Z</time></trkpt><trkpt lat="45.7667402" lon="8.7681016"><ele>301.0</ele><time>2026-04-24T08:34:54.819Z</time></trkpt><trkpt lat="45.7668189" lon="8.7679841"><ele>301.0</ele><time>2026-04-24T08:34:56.814Z</time></trkpt><trkpt lat="45.7668977" lon="8.7678328"><ele>301.0</ele><time>2026-04-24T08:34:58.82Z</time></trkpt><trkpt lat="45.766953" lon="8.7677305"><ele>301.0</ele><time>2026-04-24T08:34:59.825Z</time></trkpt><trkpt lat="45.7670142" lon="8.7676071"><ele>301.0</ele><time>2026-04-24T08:35:00.824Z</time></trkpt><trkpt lat="45.7670813" lon="8.7674613"><ele>301.0</ele><time>2026-04-24T08:35:01.815Z</time></trkpt><trkpt lat="45.7671419" lon="8.7673287"><ele>301.0</ele><time>2026-04-24T08:35:02.813Z</time></trkpt><trkpt lat="45.7671775" lon="8.7672271"><ele>301.0</ele><time>2026-04-24T08:35:03.818Z</time></trkpt><trkpt lat="45.7672161" lon="8.7671264"><ele>301.0</ele><time>2026-04-24T08:35:04.812Z</time></trkpt><trkpt lat="45.767266" lon="8.7670271"><ele>301.0</ele><time>2026-04-24T08:35:05.809Z</time></trkpt><trkpt lat="45.7673167" lon="8.7669475"><ele>301.0</ele><time>2026-04-24T08:35:06.821Z</time></trkpt><trkpt lat="45.7673624" lon="8.7668394"><ele>301.0</ele><time>2026-04-24T08:35:07.814Z</time></trkpt><trkpt lat="45.7674179" lon="8.7667338"><ele>301.0</ele><time>2026-04-24T08:35:08.815Z</time></trkpt><trkpt lat="45.7674802" lon="8.7666226"><ele>301.0</ele><time>2026-04-24T08:35:09.812Z</time></trkpt><trkpt lat="45.7675652" lon="8.7665451"><ele>301.0</ele><time>2026-04-24T08:35:10.832Z</time></trkpt><trkpt lat="45.767669" lon="8.7664935"><ele>301.0</ele><time>2026-04-24T08:35:11.818Z</time></trkpt><trkpt lat="45.7677827" lon="8.7664577"><ele>301.0</ele><time>2026-04-24T08:35:12.811Z</time></trkpt><trkpt lat="45.7679113" lon="8.7664258"><ele>301.0</ele><time>2026-04-24T08:35:13.801Z</time></trkpt><trkpt lat="45.7680452" lon="8.7664059"><ele>301.0</ele><time>2026-04-24T08:35:14.823Z</time></trkpt><trkpt lat="45.7681768" lon="8.7663964"><ele>301.0</ele><time>2026-04-24T08:35:15.826Z</time></trkpt><trkpt lat="45.7683067" lon="8.7664224"><ele>301.0</ele><time>2026-04-24T08:35:16.823Z</time></trkpt><trkpt lat="45.7684352" lon="8.7664622"><ele>302.5</ele><time>2026-04-24T08:35:17.825Z</time></trkpt><trkpt lat="45.7685665" lon="8.7665043"><ele>304.0</ele><time>2026-04-24T08:35:18.828Z</time></trkpt><trkpt lat="45.7686875" lon="8.766546"><ele>305.5</ele><time>2026-04-24T08:35:19.83Z</time></trkpt><trkpt lat="45.7688065" lon="8.7665856"><ele>307.0</ele><time>2026-04-24T08:35:20.819Z</time></trkpt><trkpt lat="45.7689197" lon="8.7666154"><ele>307.0</ele><time>2026-04-24T08:35:21.81Z</time></trkpt><trkpt lat="45.769038" lon="8.7666413"><ele>307.0</ele><time>2026-04-24T08:35:22.816Z</time></trkpt><trkpt lat="45.7691562" lon="8.7666731"><ele>307.0</ele><time>2026-04-24T08:35:23.815Z</time></trkpt><trkpt lat="45.7692764" lon="8.7667179"><ele>307.0</ele><time>2026-04-24T08:35:24.816Z</time></trkpt><trkpt lat="45.7693946" lon="8.7667638"><ele>307.66666666666663</ele><time>2026-04-24T08:35:25.813Z</time></trkpt><trkpt lat="45.7695018" lon="8.7667889"><ele>308.3333333333333</ele><time>2026-04-24T08:35:26.81Z</time></trkpt><trkpt lat="45.7695895" lon="8.7668218"><ele>309.0</ele><time>2026-04-24T08:35:27.81Z</time></trkpt><trkpt lat="45.769667" lon="8.7668447"><ele>309.6666666666667</ele><time>2026-04-24T08:35:28.813Z</time></trkpt><trkpt lat="45.7697396" lon="8.7668427"><ele>310.33333333333337</ele><time>2026-04-24T08:35:30.839Z</time></trkpt><trkpt lat="45.7696936" lon="8.766735"><ele>311.0</ele><time>2026-04-24T08:35:32.826Z</time></trkpt><trkpt lat="45.7696489" lon="8.7666521"><ele>311.0</ele><time>2026-04-24T08:35:34.821Z</time></trkpt><trkpt lat="45.7695933" lon="8.7665271"><ele>311.0</ele><time>2026-04-24T08:35:36.831Z</time></trkpt><trkpt lat="45.7695707" lon="8.7664254"><ele>311.0</ele><time>2026-04-24T08:35:37.827Z</time></trkpt><trkpt lat="45.7695493" lon="8.7663203"><ele>311.0</ele><time>2026-04-24T08:35:38.821Z</time></trkpt><trkpt lat="45.7695299" lon="8.7662102"><ele>311.0</ele><time>2026-04-24T08:35:39.816Z</time></trkpt><trkpt lat="45.7695142" lon="8.7660896"><ele>311.0</ele><time>2026-04-24T08:35:40.828Z</time></trkpt><trkpt lat="45.7694926" lon="8.7659198"><ele>311.0</ele><time>2026-04-24T08:35:41.836Z</time></trkpt><trkpt lat="45.7694698" lon="8.7657339"><ele>311.0</ele><time>2026-04-24T08:35:42.818Z</time></trkpt><trkpt lat="45.7694519" lon="8.7655386"><ele>311.0</ele><time>2026-04-24T08:35:43.807Z</time></trkpt><trkpt lat="45.7694522" lon="8.7653448"><ele>311.0</ele><time>2026-04-24T08:35:44.825Z</time></trkpt><trkpt lat="45.7694706" lon="8.7651439"><ele>309.0</ele><time>2026-04-24T08:35:45.808Z</time></trkpt><trkpt lat="45.7695147" lon="8.7649255"><ele>307.0</ele><time>2026-04-24T08:35:46.823Z</time></trkpt><trkpt lat="45.7695574" lon="8.7647273"><ele>305.0</ele><time>2026-04-24T08:35:47.818Z</time></trkpt><trkpt lat="45.7695947" lon="8.7645424"><ele>303.0</ele><time>2026-04-24T08:35:48.813Z</time></trkpt><trkpt lat="45.7696178" lon="8.7643794"><ele>302.5</ele><time>2026-04-24T08:35:49.817Z</time></trkpt><trkpt lat="45.7696216" lon="8.7642294"><ele>302.0</ele><time>2026-04-24T08:35:50.829Z</time></trkpt><trkpt lat="45.7696209" lon="8.7641136"><ele>301.5</ele><time>2026-04-24T08:35:51.821Z</time></trkpt><trkpt lat="45.7696194" lon="8.764009"><ele>301.0</ele><time>2026-04-24T08:35:52.829Z</time></trkpt><trkpt lat="45.769633" lon="8.7638769"><ele>300.5</ele><time>2026-04-24T08:35:54.815Z</time></trkpt><trkpt lat="45.7696902" lon="8.7638152"><ele>300.0</ele><time>2026-04-24T08:35:56.825Z</time></trkpt><trkpt lat="45.7697984" lon="8.7637779"><ele>300.0</ele><time>2026-04-24T08:35:58.823Z</time></trkpt><trkpt lat="45.7698715" lon="8.7636156"><ele>300.0</ele><time>2026-04-24T08:36:00.831Z</time></trkpt><trkpt lat="45.7698962" lon="8.7634713"><ele>300.0</ele><time>2026-04-24T08:36:01.813Z</time></trkpt><trkpt lat="45.7699118" lon="8.7633158"><ele>300.0</ele><time>2026-04-24T08:36:02.807Z</time></trkpt><trkpt lat="45.7699253" lon="8.7631456"><ele>298.25</ele><time>2026-04-24T08:36:03.812Z</time></trkpt><trkpt lat="45.7699387" lon="8.7629715"><ele>296.5</ele><time>2026-04-24T08:36:04.821Z</time></trkpt><trkpt lat="45.7699619" lon="8.762799"><ele>294.75</ele><time>2026-04-24T08:36:05.821Z</time></trkpt><trkpt lat="45.7700035" lon="8.7626346"><ele>293.0</ele><time>2026-04-24T08:36:06.833Z</time></trkpt><trkpt lat="45.7700474" lon="8.7624636"><ele>292.25</ele><time>2026-04-24T08:36:07.829Z</time></trkpt><trkpt lat="45.7700934" lon="8.7622834"><ele>291.5</ele><time>2026-04-24T08:36:08.831Z</time></trkpt><trkpt lat="45.7701413" lon="8.7620964"><ele>290.75</ele><time>2026-04-24T08:36:09.824Z</time></trkpt><trkpt lat="45.770188" lon="8.7619101"><ele>290.0</ele><time>2026-04-24T08:36:10.832Z</time></trkpt><trkpt lat="45.7702327" lon="8.7617211"><ele>290.0</ele><time>2026-04-24T08:36:11.831Z</time></trkpt><trkpt lat="45.7702844" lon="8.761532"><ele>290.0</ele><time>2026-04-24T08:36:12.848Z</time></trkpt><trkpt lat="45.7703319" lon="8.761362"><ele>290.0</ele><time>2026-04-24T08:36:13.825Z</time></trkpt><trkpt lat="45.7703705" lon="8.7612138"><ele>290.0</ele><time>2026-04-24T08:36:14.831Z</time></trkpt><trkpt lat="45.7703947" lon="8.76109"><ele>290.6</ele><time>2026-04-24T08:36:15.832Z</time></trkpt><trkpt lat="45.7703784" lon="8.7609935"><ele>291.2</ele><time>2026-04-24T08:36:16.829Z</time></trkpt><trkpt lat="45.7703491" lon="8.7609004"><ele>291.8</ele><time>2026-04-24T08:36:17.824Z</time></trkpt><trkpt lat="45.7702817" lon="8.7608056"><ele>292.4</ele><time>2026-04-24T08:36:18.826Z</time></trkpt><trkpt lat="45.7701475" lon="8.7607324"><ele>293.0</ele><time>2026-04-24T08:36:19.807Z</time></trkpt><trkpt lat="45.7700101" lon="8.7606708"><ele>293.0</ele><time>2026-04-24T08:36:20.82Z</time></trkpt><trkpt lat="45.7698852" lon="8.7606267"><ele>293.0</ele><time>2026-04-24T08:36:21.814Z</time></trkpt><trkpt lat="45.7697937" lon="8.7605826"><ele>293.0</ele><time>2026-04-24T08:36:22.821Z</time></trkpt><trkpt lat="45.7697358" lon="8.7605139"><ele>293.0</ele><time>2026-04-24T08:36:23.818Z</time></trkpt><trkpt lat="45.7697959" lon="8.7603826"><ele>293.0</ele><time>2026-04-24T08:36:25.805Z</time></trkpt><trkpt lat="45.7698757" lon="8.7603109"><ele>293.0</ele><time>2026-04-24T08:36:26.815Z</time></trkpt><trkpt lat="45.7699728" lon="8.7602393"><ele>293.0</ele><time>2026-04-24T08:36:27.815Z</time></trkpt><trkpt lat="45.7700834" lon="8.760145"><ele>293.0</ele><time>2026-04-24T08:36:28.813Z</time></trkpt><trkpt lat="45.7701986" lon="8.7600402"><ele>293.0</ele><time>2026-04-24T08:36:29.809Z</time></trkpt><trkpt lat="45.770319" lon="8.7599223"><ele>294.0</ele><time>2026-04-24T08:36:30.825Z</time></trkpt><trkpt lat="45.7704381" lon="8.7598"><ele>295.0</ele><time>2026-04-24T08:36:31.813Z</time></trkpt><trkpt lat="45.7705392" lon="8.7596834"><ele>296.0</ele><time>2026-04-24T08:36:32.815Z</time></trkpt><trkpt lat="45.770658" lon="8.7595565"><ele>297.0</ele><time>2026-04-24T08:36:33.809Z</time></trkpt><trkpt lat="45.77078" lon="8.7594183"><ele>296.4</ele><time>2026-04-24T08:36:34.807Z</time></trkpt><trkpt lat="45.7708898" lon="8.75932"><ele>295.79999999999995</ele><time>2026-04-24T08:36:35.808Z</time></trkpt><trkpt lat="45.7709908" lon="8.7592443"><ele>295.2</ele><time>2026-04-24T08:36:36.817Z</time></trkpt><trkpt lat="45.7710766" lon="8.7591851"><ele>294.59999999999997</ele><time>2026-04-24T08:36:37.804Z</time></trkpt><trkpt lat="45.7711395" lon="8.7591138"><ele>294.0</ele><time>2026-04-24T08:36:38.814Z</time></trkpt><trkpt lat="45.7711997" lon="8.7590266"><ele>295.2</ele><time>2026-04-24T08:36:39.809Z</time></trkpt><trkpt lat="45.7712707" lon="8.758953"><ele>296.4</ele><time>2026-04-24T08:36:40.823Z</time></trkpt><trkpt lat="45.7713592" lon="8.7588774"><ele>297.6</ele><time>2026-04-24T08:36:41.818Z</time></trkpt><trkpt lat="45.7714563" lon="8.7588318"><ele>298.8</ele><time>2026-04-24T08:36:42.81Z</time></trkpt><trkpt lat="45.7715466" lon="8.7588038"><ele>300.0</ele><time>2026-04-24T08:36:43.825Z</time></trkpt><trkpt lat="45.7716266" lon="8.7587847"><ele>300.0</ele><time>2026-04-24T08:36:44.812Z</time></trkpt><trkpt lat="45.7717056" lon="8.758767"><ele>300.0</ele><time>2026-04-24T08:36:45.803Z</time></trkpt><trkpt lat="45.7717802" lon="8.7587401"><ele>300.0</ele><time>2026-04-24T08:36:46.8Z</time></trkpt><trkpt lat="45.7718677" lon="8.7587053"><ele>300.0</ele><time>2026-04-24T08:36:48.798Z</time></trkpt><trkpt lat="45.7718059" lon="8.758603"><ele>300.0</ele><time>2026-04-24T08:36:54.808Z</time></trkpt><trkpt lat="45.7717423" lon="8.7585477"><ele>300.0</ele><time>2026-04-24T08:36:55.807Z</time></trkpt><trkpt lat="45.7716769" lon="8.7584731"><ele>300.6</ele><time>2026-04-24T08:36:56.803Z</time></trkpt><trkpt lat="45.7716108" lon="8.7583903"><ele>301.2</ele><time>2026-04-24T08:36:57.8Z</time></trkpt><trkpt lat="45.7715635" lon="8.7582941"><ele>301.8</ele><time>2026-04-24T08:36:58.814Z</time></trkpt><trkpt lat="45.7715164" lon="8.7581733"><ele>302.4</ele><time>2026-04-24T08:36:59.802Z</time></trkpt><trkpt lat="45.7714731" lon="8.7580451"><ele>303.0</ele><time>2026-04-24T08:37:00.806Z</time></trkpt><trkpt lat="45.771429" lon="8.7579071"><ele>303.0</ele><time>2026-04-24T08:37:01.798Z</time></trkpt><trkpt lat="45.771385" lon="8.7577603"><ele>303.0</ele><time>2026-04-24T08:37:02.804Z</time></trkpt><trkpt lat="45.7713431" lon="8.757618"><ele>303.0</ele><time>2026-04-24T08:37:03.795Z</time></trkpt><trkpt lat="45.771299" lon="8.7574625"><ele>303.0</ele><time>2026-04-24T08:37:04.802Z</time></trkpt><trkpt lat="45.7712482" lon="8.7573062"><ele>303.6</ele><time>2026-04-24T08:37:05.798Z</time></trkpt><trkpt lat="45.7711956" lon="8.7571678"><ele>304.20000000000005</ele><time>2026-04-24T08:37:06.801Z</time></trkpt><trkpt lat="45.7711445" lon="8.7570264"><ele>304.8</ele><time>2026-04-24T08:37:07.805Z</time></trkpt><trkpt lat="45.7710928" lon="8.7568935"><ele>305.40000000000003</ele><time>2026-04-24T08:37:08.805Z</time></trkpt><trkpt lat="45.7710479" lon="8.756756"><ele>306.0</ele><time>2026-04-24T08:37:09.801Z</time></trkpt><trkpt lat="45.7710065" lon="8.7566283"><ele>304.2</ele><time>2026-04-24T08:37:10.807Z</time></trkpt><trkpt lat="45.7709524" lon="8.7565143"><ele>302.40000000000003</ele><time>2026-04-24T08:37:11.804Z</time></trkpt><trkpt lat="45.7708828" lon="8.7564058"><ele>300.6</ele><time>2026-04-24T08:37:12.805Z</time></trkpt><trkpt lat="45.7708022" lon="8.7563175"><ele>298.8</ele><time>2026-04-24T08:37:13.805Z</time></trkpt><trkpt lat="45.7707113" lon="8.7562507"><ele>297.0</ele><time>2026-04-24T08:37:14.824Z</time></trkpt><trkpt lat="45.7706379" lon="8.7561876"><ele>297.0</ele><time>2026-04-24T08:37:15.806Z</time></trkpt><trkpt lat="45.7705722" lon="8.756114"><ele>297.0</ele><time>2026-04-24T08:37:16.814Z</time></trkpt><trkpt lat="45.7705169" lon="8.7560528"><ele>297.0</ele><time>2026-04-24T08:37:17.802Z</time></trkpt><trkpt lat="45.7704598" lon="8.7559891"><ele>297.0</ele><time>2026-04-24T08:37:18.808Z</time></trkpt><trkpt lat="45.7704123" lon="8.7559021"><ele>297.0</ele><time>2026-04-24T08:37:19.807Z</time></trkpt><trkpt lat="45.7703823" lon="8.7557975"><ele>297.0</ele><time>2026-04-24T08:37:20.804Z</time></trkpt><trkpt lat="45.7703584" lon="8.755707"><ele>297.0</ele><time>2026-04-24T08:37:21.804Z</time></trkpt><trkpt lat="45.7703426" lon="8.7555909"><ele>299.3333333333333</ele><time>2026-04-24T08:37:22.806Z</time></trkpt><trkpt lat="45.7703289" lon="8.7554563"><ele>301.6666666666667</ele><time>2026-04-24T08:37:23.801Z</time></trkpt><trkpt lat="45.7703139" lon="8.7553275"><ele>304.0</ele><time>2026-04-24T08:37:24.792Z</time></trkpt><trkpt lat="45.7702997" lon="8.7551967"><ele>306.33333333333337</ele><time>2026-04-24T08:37:25.786Z</time></trkpt><trkpt lat="45.7702936" lon="8.755076"><ele>308.6666666666667</ele><time>2026-04-24T08:37:26.796Z</time></trkpt><trkpt lat="45.7702996" lon="8.7549625"><ele>311.0</ele><time>2026-04-24T08:37:27.789Z</time></trkpt><trkpt lat="45.7702734" lon="8.7548315"><ele>311.0</ele><time>2026-04-24T08:37:28.797Z</time></trkpt><trkpt lat="45.7702531" lon="8.7547152"><ele>311.0</ele><time>2026-04-24T08:37:29.802Z</time></trkpt><trkpt lat="45.7702612" lon="8.7546015"><ele>311.0</ele><time>2026-04-24T08:37:30.807Z</time></trkpt><trkpt lat="45.7702622" lon="8.7544921"><ele>311.0</ele><time>2026-04-24T08:37:31.797Z</time></trkpt><trkpt lat="45.7702471" lon="8.7543279"><ele>311.0</ele><time>2026-04-24T08:37:33.797Z</time></trkpt><trkpt lat="45.7702519" lon="8.7542299"><ele>311.0</ele><time>2026-04-24T08:37:34.807Z</time></trkpt><trkpt lat="45.7703011" lon="8.7540647"><ele>311.0</ele><time>2026-04-24T08:37:36.805Z</time></trkpt><trkpt lat="45.7703699" lon="8.7540021"><ele>311.0</ele><time>2026-04-24T08:37:37.793Z</time></trkpt><trkpt lat="45.770453" lon="8.7539516"><ele>311.0</ele><time>2026-04-24T08:37:38.804Z</time></trkpt><trkpt lat="45.7705323" lon="8.753877"><ele>311.0</ele><time>2026-04-24T08:37:39.798Z</time></trkpt><trkpt lat="45.7706322" lon="8.7537829"><ele>311.0</ele><time>2026-04-24T08:37:40.802Z</time></trkpt><trkpt lat="45.770737" lon="8.75369"><ele>311.0</ele><time>2026-04-24T08:37:41.8Z</time></trkpt><trkpt lat="45.7708331" lon="8.7536384"><ele>311.0</ele><time>2026-04-24T08:37:42.804Z</time></trkpt><trkpt lat="45.770909" lon="8.7535911"><ele>311.0</ele><time>2026-04-24T08:37:43.805Z</time></trkpt><trkpt lat="45.7709705" lon="8.7535478"><ele>311.0</ele><time>2026-04-24T08:37:44.804Z</time></trkpt><trkpt lat="45.7710353" lon="8.7534135"><ele>311.0</ele><time>2026-04-24T08:37:46.817Z</time></trkpt><trkpt lat="45.7710541" lon="8.7533248"><ele>311.0</ele><time>2026-04-24T08:37:47.807Z</time></trkpt><trkpt lat="45.7710691" lon="8.7532205"><ele>310.8</ele><time>2026-04-24T08:37:48.809Z</time></trkpt><trkpt lat="45.771085" lon="8.7530991"><ele>310.6</ele><time>2026-04-24T08:37:49.806Z</time></trkpt><trkpt lat="45.7710985" lon="8.7529633"><ele>310.4</ele><time>2026-04-24T08:37:50.812Z</time></trkpt><trkpt lat="45.7711013" lon="8.7528086"><ele>310.2</ele><time>2026-04-24T08:37:51.815Z</time></trkpt><trkpt lat="45.7710989" lon="8.7526313"><ele>310.0</ele><time>2026-04-24T08:37:52.81Z</time></trkpt><trkpt lat="45.7710887" lon="8.7524289"><ele>307.0</ele><time>2026-04-24T08:37:53.806Z</time></trkpt><trkpt lat="45.7710749" lon="8.7522306"><ele>304.0</ele><time>2026-04-24T08:37:54.807Z</time></trkpt><trkpt lat="45.771059" lon="8.7520353"><ele>301.0</ele><time>2026-04-24T08:37:55.809Z</time></trkpt><trkpt lat="45.7710479" lon="8.7518632"><ele>298.0</ele><time>2026-04-24T08:37:56.807Z</time></trkpt><trkpt lat="45.7710375" lon="8.7517133"><ele>298.0</ele><time>2026-04-24T08:37:57.812Z</time></trkpt><trkpt lat="45.7710261" lon="8.7515857"><ele>298.0</ele><time>2026-04-24T08:37:58.816Z</time></trkpt><trkpt lat="45.7710159" lon="8.7514752"><ele>298.0</ele><time>2026-04-24T08:37:59.806Z</time></trkpt><trkpt lat="45.771018" lon="8.7513608"><ele>298.0</ele><time>2026-04-24T08:38:00.816Z</time></trkpt><trkpt lat="45.7710483" lon="8.7512519"><ele>298.0</ele><time>2026-04-24T08:38:01.803Z</time></trkpt><trkpt lat="45.7711018" lon="8.7511686"><ele>298.0</ele><time>2026-04-24T08:38:02.808Z</time></trkpt><trkpt lat="45.7711799" lon="8.7510812"><ele>301.5</ele><time>2026-04-24T08:38:03.797Z</time></trkpt><trkpt lat="45.7712841" lon="8.7509829"><ele>305.0</ele><time>2026-04-24T08:38:04.802Z</time></trkpt><trkpt lat="45.7713922" lon="8.7508772"><ele>308.5</ele><time>2026-04-24T08:38:05.796Z</time></trkpt><trkpt lat="45.7714968" lon="8.750766"><ele>312.0</ele><time>2026-04-24T08:38:06.803Z</time></trkpt><trkpt lat="45.771587" lon="8.7506805"><ele>312.0</ele><time>2026-04-24T08:38:07.795Z</time></trkpt><trkpt lat="45.7716731" lon="8.7505808"><ele>312.0</ele><time>2026-04-24T08:38:08.796Z</time></trkpt><trkpt lat="45.7717595" lon="8.7504882"><ele>312.0</ele><time>2026-04-24T08:38:09.794Z</time></trkpt><trkpt lat="45.771848" lon="8.7503922"><ele>312.0</ele><time>2026-04-24T08:38:10.797Z</time></trkpt><trkpt lat="45.7719426" lon="8.7503056"><ele>312.0</ele><time>2026-04-24T08:38:11.796Z</time></trkpt><trkpt lat="45.77204" lon="8.7502208"><ele>311.0</ele><time>2026-04-24T08:38:12.796Z</time></trkpt><trkpt lat="45.7721443" lon="8.750149"><ele>310.0</ele><time>2026-04-24T08:38:13.798Z</time></trkpt><trkpt lat="45.7722545" lon="8.7500897"><ele>309.0</ele><time>2026-04-24T08:38:14.798Z</time></trkpt><trkpt lat="45.7723687" lon="8.750029"><ele>308.0</ele><time>2026-04-24T08:38:15.795Z</time></trkpt><trkpt lat="45.7724974" lon="8.7499678"><ele>308.0</ele><time>2026-04-24T08:38:16.809Z</time></trkpt><trkpt lat="45.7726138" lon="8.7499084"><ele>308.0</ele><time>2026-04-24T08:38:17.793Z</time></trkpt><trkpt lat="45.7727362" lon="8.7498526"><ele>308.0</ele><time>2026-04-24T08:38:18.799Z</time></trkpt><trkpt lat="45.7728513" lon="8.7498198"><ele>308.0</ele><time>2026-04-24T08:38:19.803Z</time></trkpt><trkpt lat="45.7729585" lon="8.7497802"><ele>308.6666666666667</ele><time>2026-04-24T08:38:20.801Z</time></trkpt><trkpt lat="45.7730474" lon="8.7497464"><ele>309.33333333333337</ele><time>2026-04-24T08:38:21.794Z</time></trkpt><trkpt lat="45.7731325" lon="8.7497022"><ele>310.0</ele><time>2026-04-24T08:38:22.798Z</time></trkpt><trkpt lat="45.7732047" lon="8.7496562"><ele>310.6666666666667</ele><time>2026-04-24T08:38:23.796Z</time></trkpt><trkpt lat="45.7732722" lon="8.7495789"><ele>311.3333333333333</ele><time>2026-04-24T08:38:24.798Z</time></trkpt><trkpt lat="45.7733442" lon="8.7494811"><ele>312.0</ele><time>2026-04-24T08:38:25.791Z</time></trkpt><trkpt lat="45.7734225" lon="8.7493571"><ele>312.0</ele><time>2026-04-24T08:38:26.792Z</time></trkpt><trkpt lat="45.7735076" lon="8.7492291"><ele>312.0</ele><time>2026-04-24T08:38:27.789Z</time></trkpt><trkpt lat="45.7735972" lon="8.7490977"><ele>312.0</ele><time>2026-04-24T08:38:28.795Z</time></trkpt><trkpt lat="45.7736811" lon="8.7489779"><ele>312.0</ele><time>2026-04-24T08:38:29.79Z</time></trkpt><trkpt lat="45.7737636" lon="8.7488679"><ele>312.5</ele><time>2026-04-24T08:38:30.799Z</time></trkpt><trkpt lat="45.773854" lon="8.7487648"><ele>313.0</ele><time>2026-04-24T08:38:31.794Z</time></trkpt><trkpt lat="45.7739485" lon="8.7486622"><ele>313.5</ele><time>2026-04-24T08:38:32.799Z</time></trkpt><trkpt lat="45.7740408" lon="8.7485574"><ele>314.0</ele><time>2026-04-24T08:38:33.792Z</time></trkpt><trkpt lat="45.7741347" lon="8.7484554"><ele>314.0</ele><time>2026-04-24T08:38:34.793Z</time></trkpt><trkpt lat="45.7742281" lon="8.7483474"><ele>314.0</ele><time>2026-04-24T08:38:35.792Z</time></trkpt><trkpt lat="45.7743221" lon="8.7482337"><ele>314.0</ele><time>2026-04-24T08:38:36.792Z</time></trkpt><trkpt lat="45.7744097" lon="8.7481272"><ele>314.0</ele><time>2026-04-24T08:38:37.789Z</time></trkpt><trkpt lat="45.7744934" lon="8.7480254"><ele>313.5</ele><time>2026-04-24T08:38:38.789Z</time></trkpt><trkpt lat="45.7745729" lon="8.7479314"><ele>313.0</ele><time>2026-04-24T08:38:39.791Z</time></trkpt><trkpt lat="45.7746396" lon="8.7478432"><ele>312.5</ele><time>2026-04-24T08:38:40.791Z</time></trkpt><trkpt lat="45.7746983" lon="8.7477544"><ele>312.0</ele><time>2026-04-24T08:38:41.791Z</time></trkpt><trkpt lat="45.7747494" lon="8.7476557"><ele>311.5</ele><time>2026-04-24T08:38:42.791Z</time></trkpt><trkpt lat="45.7747988" lon="8.7475725"><ele>311.0</ele><time>2026-04-24T08:38:43.787Z</time></trkpt><trkpt lat="45.7748593" lon="8.7474862"><ele>311.0</ele><time>2026-04-24T08:38:44.795Z</time></trkpt><trkpt lat="45.7749191" lon="8.7474211"><ele>311.0</ele><time>2026-04-24T08:38:45.789Z</time></trkpt><trkpt lat="45.7749894" lon="8.7473946"><ele>311.0</ele><time>2026-04-24T08:38:46.792Z</time></trkpt><trkpt lat="45.7750702" lon="8.7474008"><ele>311.0</ele><time>2026-04-24T08:38:47.807Z</time></trkpt><trkpt lat="45.7751489" lon="8.747415"><ele>311.0</ele><time>2026-04-24T08:38:48.797Z</time></trkpt><trkpt lat="45.7752377" lon="8.7474339"><ele>311.0</ele><time>2026-04-24T08:38:49.795Z</time></trkpt><trkpt lat="45.7753337" lon="8.7474488"><ele>313.8</ele><time>2026-04-24T08:38:50.787Z</time></trkpt><trkpt lat="45.7754288" lon="8.7474752"><ele>316.6</ele><time>2026-04-24T08:38:51.792Z</time></trkpt><trkpt lat="45.7755252" lon="8.7474958"><ele>319.4</ele><time>2026-04-24T08:38:52.796Z</time></trkpt><trkpt lat="45.7756204" lon="8.747518"><ele>322.2</ele><time>2026-04-24T08:38:53.793Z</time></trkpt><trkpt lat="45.7757107" lon="8.7475433"><ele>325.0</ele><time>2026-04-24T08:38:54.795Z</time></trkpt><trkpt lat="45.7757885" lon="8.747598"><ele>325.0</ele><time>2026-04-24T08:38:55.796Z</time></trkpt><trkpt lat="45.7758564" lon="8.7477099"><ele>325.0</ele><time>2026-04-24T08:38:56.794Z</time></trkpt><trkpt lat="45.7759292" lon="8.7478447"><ele>325.0</ele><time>2026-04-24T08:38:57.794Z</time></trkpt><trkpt lat="45.7759872" lon="8.7479884"><ele>325.0</ele><time>2026-04-24T08:38:58.794Z</time></trkpt><trkpt lat="45.7760314" lon="8.7481426"><ele>327.5</ele><time>2026-04-24T08:38:59.79Z</time></trkpt><trkpt lat="45.7760473" lon="8.7483202"><ele>330.0</ele><time>2026-04-24T08:39:00.81Z</time></trkpt><trkpt lat="45.7760594" lon="8.7484956"><ele>332.5</ele><time>2026-04-24T08:39:01.798Z</time></trkpt><trkpt lat="45.7760724" lon="8.7486841"><ele>335.0</ele><time>2026-04-24T08:39:02.801Z</time></trkpt><trkpt lat="45.7760873" lon="8.7488427"><ele>335.0</ele><time>2026-04-24T08:39:03.798Z</time></trkpt><trkpt lat="45.7760989" lon="8.7489535"><ele>335.0</ele><time>2026-04-24T08:39:04.8Z</time></trkpt><trkpt lat="45.7761338" lon="8.7490821"><ele>335.0</ele><time>2026-04-24T08:39:06.802Z</time></trkpt><trkpt lat="45.7760856" lon="8.7490091"><ele>335.0</ele><time>2026-04-24T08:39:35.798Z</time></trkpt><trkpt lat="45.7761112" lon="8.7489245"><ele>335.0</ele><time>2026-04-24T08:39:43.79Z</time></trkpt><trkpt lat="45.7762146" lon="8.7489077"><ele>335.0</ele><time>2026-04-24T08:39:47.801Z</time></trkpt><trkpt lat="45.7762799" lon="8.7489303"><ele>335.0</ele><time>2026-04-24T08:39:49.8Z</time></trkpt><trkpt lat="45.7762205" lon="8.748965"><ele>335.0</ele><time>2026-04-24T08:40:06.81Z</time></trkpt><trkpt lat="45.7761362" lon="8.7489688"><ele>335.0</ele><time>2026-04-24T08:40:13.792Z</time></trkpt><trkpt lat="45.7760575" lon="8.7489702"><ele>335.0</ele><time>2026-04-24T08:40:16.807Z</time></trkpt><trkpt lat="45.7759937" lon="8.7489541"><ele>335.0</ele><time>2026-04-24T08:40:21.79Z</time></trkpt><trkpt lat="45.7760565" lon="8.7490168"><ele>335.0</ele><time>2026-04-24T08:40:23.794Z</time></trkpt><trkpt lat="45.7761455" lon="8.7491438"><ele>335.0</ele><time>2026-04-24T08:40:25.798Z</time></trkpt><trkpt lat="45.7762175" lon="8.7492344"><ele>335.0</ele><time>2026-04-24T08:40:26.806Z</time></trkpt><trkpt lat="45.7762778" lon="8.7493098"><ele>335.0</ele><time>2026-04-24T08:40:27.803Z</time></trkpt><trkpt lat="45.776336" lon="8.7494095"><ele>335.0</ele><time>2026-04-24T08:40:28.802Z</time></trkpt><trkpt lat="45.7763893" lon="8.7495067"><ele>335.0</ele><time>2026-04-24T08:40:29.8Z</time></trkpt><trkpt lat="45.776449" lon="8.7496001"><ele>335.0</ele><time>2026-04-24T08:40:30.819Z</time></trkpt><trkpt lat="45.7765099" lon="8.7496804"><ele>333.4</ele><time>2026-04-24T08:40:31.803Z</time></trkpt><trkpt lat="45.776573" lon="8.7497852"><ele>331.8</ele><time>2026-04-24T08:40:32.811Z</time></trkpt><trkpt lat="45.7766382" lon="8.7498884"><ele>330.20000000000005</ele><time>2026-04-24T08:40:33.804Z</time></trkpt><trkpt lat="45.7767038" lon="8.749969"><ele>328.6</ele><time>2026-04-24T08:40:34.806Z</time></trkpt><trkpt lat="45.7767719" lon="8.7500426"><ele>327.0</ele><time>2026-04-24T08:40:35.804Z</time></trkpt><trkpt lat="45.7768483" lon="8.7501156"><ele>326.0</ele><time>2026-04-24T08:40:36.804Z</time></trkpt><trkpt lat="45.7769238" lon="8.7501952"><ele>325.0</ele><time>2026-04-24T08:40:37.796Z</time></trkpt><trkpt lat="45.7770078" lon="8.750287"><ele>324.0</ele><time>2026-04-24T08:40:38.806Z</time></trkpt><trkpt lat="45.7770924" lon="8.7503752"><ele>323.0</ele><time>2026-04-24T08:40:39.804Z</time></trkpt><trkpt lat="45.7771727" lon="8.7504602"><ele>322.0</ele><time>2026-04-24T08:40:40.807Z</time></trkpt><trkpt lat="45.7772603" lon="8.7505455"><ele>322.0</ele><time>2026-04-24T08:40:41.8Z</time></trkpt><trkpt lat="45.7773483" lon="8.7506347"><ele>322.0</ele><time>2026-04-24T08:40:42.809Z</time></trkpt><trkpt lat="45.7774197" lon="8.7507163"><ele>322.0</ele><time>2026-04-24T08:40:43.8Z</time></trkpt><trkpt lat="45.7774894" lon="8.7508019"><ele>322.0</ele><time>2026-04-24T08:40:44.809Z</time></trkpt><trkpt lat="45.7775547" lon="8.7508666"><ele>322.0</ele><time>2026-04-24T08:40:45.798Z</time></trkpt><trkpt lat="45.7776212" lon="8.7509206"><ele>322.0</ele><time>2026-04-24T08:40:46.803Z</time></trkpt><trkpt lat="45.7776861" lon="8.7509682"><ele>321.0</ele><time>2026-04-24T08:40:47.807Z</time></trkpt><trkpt lat="45.7778139" lon="8.7510266"><ele>320.0</ele><time>2026-04-24T08:40:49.804Z</time></trkpt><trkpt lat="45.7778909" lon="8.7510502"><ele>319.0</ele><time>2026-04-24T08:40:50.825Z</time></trkpt><trkpt lat="45.777975" lon="8.7510727"><ele>318.0</ele><time>2026-04-24T08:40:51.806Z</time></trkpt><trkpt lat="45.7780606" lon="8.7510995"><ele>317.0</ele><time>2026-04-24T08:40:52.808Z</time></trkpt><trkpt lat="45.7781426" lon="8.7511407"><ele>317.0</ele><time>2026-04-24T08:40:53.798Z</time></trkpt><trkpt lat="45.778218" lon="8.751195"><ele>317.0</ele><time>2026-04-24T08:40:54.804Z</time></trkpt><trkpt lat="45.7782903" lon="8.7512568"><ele>317.0</ele><time>2026-04-24T08:40:55.807Z</time></trkpt><trkpt lat="45.7783537" lon="8.7513421"><ele>317.0</ele><time>2026-04-24T08:40:56.813Z</time></trkpt><trkpt lat="45.7784077" lon="8.7514368"><ele>317.0</ele><time>2026-04-24T08:40:57.807Z</time></trkpt><trkpt lat="45.7784459" lon="8.7515641"><ele>317.0</ele><time>2026-04-24T08:40:58.813Z</time></trkpt><trkpt lat="45.7784826" lon="8.7517141"><ele>317.0</ele><time>2026-04-24T08:40:59.815Z</time></trkpt><trkpt lat="45.7785132" lon="8.7518539"><ele>317.0</ele><time>2026-04-24T08:41:00.819Z</time></trkpt><trkpt lat="45.7785484" lon="8.7520121"><ele>317.0</ele><time>2026-04-24T08:41:01.805Z</time></trkpt><trkpt lat="45.7785871" lon="8.7521567"><ele>317.0</ele><time>2026-04-24T08:41:02.809Z</time></trkpt><trkpt lat="45.7786179" lon="8.752303"><ele>317.0</ele><time>2026-04-24T08:41:03.802Z</time></trkpt><trkpt lat="45.7786336" lon="8.75243"><ele>317.8</ele><time>2026-04-24T08:41:04.811Z</time></trkpt><trkpt lat="45.778643" lon="8.7525443"><ele>318.6</ele><time>2026-04-24T08:41:05.802Z</time></trkpt><trkpt lat="45.7786687" lon="8.7526354"><ele>319.40000000000003</ele><time>2026-04-24T08:41:06.81Z</time></trkpt><trkpt lat="45.7787404" lon="8.7527508"><ele>320.2</ele><time>2026-04-24T08:41:08.809Z</time></trkpt><trkpt lat="45.7788386" lon="8.752856"><ele>321.0</ele><time>2026-04-24T08:41:10.806Z</time></trkpt><trkpt lat="45.7788941" lon="8.7529181"><ele>321.0</ele><time>2026-04-24T08:41:11.802Z</time></trkpt><trkpt lat="45.7789503" lon="8.7529858"><ele>321.0</ele><time>2026-04-24T08:41:12.813Z</time></trkpt><trkpt lat="45.7790066" lon="8.7530749"><ele>321.0</ele><time>2026-04-24T08:41:13.8Z</time></trkpt><trkpt lat="45.7790679" lon="8.7531757"><ele>321.0</ele><time>2026-04-24T08:41:14.808Z</time></trkpt><trkpt lat="45.7791122" lon="8.7532926"><ele>321.0</ele><time>2026-04-24T08:41:15.809Z</time></trkpt><trkpt lat="45.7791436" lon="8.7534109"><ele>321.0</ele><time>2026-04-24T08:41:16.813Z</time></trkpt><trkpt lat="45.7791788" lon="8.7535121"><ele>320.1666666666667</ele><time>2026-04-24T08:41:17.816Z</time></trkpt><trkpt lat="45.7792173" lon="8.7535899"><ele>319.3333333333333</ele><time>2026-04-24T08:41:18.817Z</time></trkpt><trkpt lat="45.7793195" lon="8.753672"><ele>318.5</ele><time>2026-04-24T08:41:20.825Z</time></trkpt><trkpt lat="45.7793884" lon="8.7536594"><ele>317.66666666666663</ele><time>2026-04-24T08:41:21.824Z</time></trkpt><trkpt lat="45.7794782" lon="8.753629"><ele>316.8333333333333</ele><time>2026-04-24T08:41:22.815Z</time></trkpt><trkpt lat="45.7795685" lon="8.7536128"><ele>316.0</ele><time>2026-04-24T08:41:23.81Z</time></trkpt><trkpt lat="45.7796592" lon="8.7535931"><ele>315.75</ele><time>2026-04-24T08:41:24.81Z</time></trkpt><trkpt lat="45.7797665" lon="8.7535635"><ele>315.5</ele><time>2026-04-24T08:41:25.809Z</time></trkpt><trkpt lat="45.7798818" lon="8.7535257"><ele>315.25</ele><time>2026-04-24T08:41:26.811Z</time></trkpt><trkpt lat="45.7800011" lon="8.7534809"><ele>315.0</ele><time>2026-04-24T08:41:27.815Z</time></trkpt><trkpt lat="45.7801181" lon="8.7534314"><ele>315.75</ele><time>2026-04-24T08:41:28.815Z</time></trkpt><trkpt lat="45.7802363" lon="8.7533603"><ele>316.5</ele><time>2026-04-24T08:41:29.814Z</time></trkpt><trkpt lat="45.7803491" lon="8.7532655"><ele>317.25</ele><time>2026-04-24T08:41:30.826Z</time></trkpt><trkpt lat="45.7804513" lon="8.7531628"><ele>318.0</ele><time>2026-04-24T08:41:31.809Z</time></trkpt><trkpt lat="45.7805565" lon="8.7530602"><ele>318.0</ele><time>2026-04-24T08:41:32.811Z</time></trkpt><trkpt lat="45.7806539" lon="8.7529607"><ele>318.0</ele><time>2026-04-24T08:41:33.805Z</time></trkpt><trkpt lat="45.7807403" lon="8.7528622"><ele>318.0</ele><time>2026-04-24T08:41:34.803Z</time></trkpt><trkpt lat="45.7808137" lon="8.752764"><ele>318.0</ele><time>2026-04-24T08:41:35.797Z</time></trkpt><trkpt lat="45.7808837" lon="8.7526681"><ele>318.0</ele><time>2026-04-24T08:41:36.806Z</time></trkpt><trkpt lat="45.7809511" lon="8.7525748"><ele>317.6666666666667</ele><time>2026-04-24T08:41:37.804Z</time></trkpt><trkpt lat="45.7810079" lon="8.7524962"><ele>317.3333333333333</ele><time>2026-04-24T08:41:38.806Z</time></trkpt><trkpt lat="45.7810611" lon="8.7524275"><ele>317.0</ele><time>2026-04-24T08:41:39.801Z</time></trkpt><trkpt lat="45.7811103" lon="8.7523568"><ele>316.66666666666663</ele><time>2026-04-24T08:41:40.802Z</time></trkpt><trkpt lat="45.7811672" lon="8.7523018"><ele>316.3333333333333</ele><time>2026-04-24T08:41:41.809Z</time></trkpt><trkpt lat="45.7812864" lon="8.752309"><ele>316.0</ele><time>2026-04-24T08:41:43.82Z</time></trkpt><trkpt lat="45.7813782" lon="8.752331"><ele>316.0</ele><time>2026-04-24T08:41:45.818Z</time></trkpt><trkpt lat="45.7814341" lon="8.7522533"><ele>316.0</ele><time>2026-04-24T08:41:49.827Z</time></trkpt><trkpt lat="45.781383" lon="8.7520776"><ele>316.0</ele><time>2026-04-24T08:41:51.819Z</time></trkpt><trkpt lat="45.7813446" lon="8.7519752"><ele>316.0</ele><time>2026-04-24T08:41:52.829Z</time></trkpt><trkpt lat="45.7813099" lon="8.7518638"><ele>316.0</ele><time>2026-04-24T08:41:53.806Z</time></trkpt><trkpt lat="45.781279" lon="8.7517374"><ele>316.0</ele><time>2026-04-24T08:41:54.814Z</time></trkpt><trkpt lat="45.7812492" lon="8.7515981"><ele>316.0</ele><time>2026-04-24T08:41:55.804Z</time></trkpt><trkpt lat="45.7812208" lon="8.7514265"><ele>316.0</ele><time>2026-04-24T08:41:56.811Z</time></trkpt><trkpt lat="45.781195" lon="8.7512459"><ele>316.0</ele><time>2026-04-24T08:41:57.808Z</time></trkpt><trkpt lat="45.7811709" lon="8.7510693"><ele>315.75</ele><time>2026-04-24T08:41:58.809Z</time></trkpt><trkpt lat="45.7811416" lon="8.7508879"><ele>315.5</ele><time>2026-04-24T08:41:59.812Z</time></trkpt><trkpt lat="45.7811081" lon="8.7507113"><ele>315.25</ele><time>2026-04-24T08:42:00.818Z</time></trkpt><trkpt lat="45.7810737" lon="8.7505293"><ele>315.0</ele><time>2026-04-24T08:42:01.809Z</time></trkpt><trkpt lat="45.7810417" lon="8.7503332"><ele>317.25</ele><time>2026-04-24T08:42:02.817Z</time></trkpt><trkpt lat="45.7810118" lon="8.7501312"><ele>319.5</ele><time>2026-04-24T08:42:03.805Z</time></trkpt><trkpt lat="45.780982" lon="8.7499272"><ele>321.75</ele><time>2026-04-24T08:42:04.809Z</time></trkpt><trkpt lat="45.7809538" lon="8.7497199"><ele>324.0</ele><time>2026-04-24T08:42:05.808Z</time></trkpt><trkpt lat="45.7809325" lon="8.7495126"><ele>323.6666666666667</ele><time>2026-04-24T08:42:06.812Z</time></trkpt><trkpt lat="45.780915" lon="8.7493063"><ele>323.33333333333337</ele><time>2026-04-24T08:42:07.804Z</time></trkpt><trkpt lat="45.7808742" lon="8.7490863"><ele>323.0</ele><time>2026-04-24T08:42:08.813Z</time></trkpt><trkpt lat="45.7808158" lon="8.7488793"><ele>323.0</ele><time>2026-04-24T08:42:09.809Z</time></trkpt><trkpt lat="45.7807291" lon="8.7486967"><ele>323.0</ele><time>2026-04-24T08:42:10.817Z</time></trkpt><trkpt lat="45.7806378" lon="8.7485372"><ele>323.0</ele><time>2026-04-24T08:42:11.811Z</time></trkpt><trkpt lat="45.7805433" lon="8.7483945"><ele>323.0</ele><time>2026-04-24T08:42:12.811Z</time></trkpt><trkpt lat="45.7804641" lon="8.7482505"><ele>322.4</ele><time>2026-04-24T08:42:13.801Z</time></trkpt><trkpt lat="45.7803924" lon="8.7481113"><ele>321.79999999999995</ele><time>2026-04-24T08:42:14.806Z</time></trkpt><trkpt lat="45.7803265" lon="8.7480052"><ele>321.2</ele><time>2026-04-24T08:42:15.797Z</time></trkpt><trkpt lat="45.7802636" lon="8.7479073"><ele>320.6</ele><time>2026-04-24T08:42:16.807Z</time></trkpt><trkpt lat="45.7802089" lon="8.747846"><ele>320.0</ele><time>2026-04-24T08:42:17.807Z</time></trkpt><trkpt lat="45.7801549" lon="8.7479719"><ele>325.25</ele><time>2026-04-24T08:42:20.801Z</time></trkpt><trkpt lat="45.7801566" lon="8.7481752"><ele>330.5</ele><time>2026-04-24T08:42:22.813Z</time></trkpt><trkpt lat="45.7801507" lon="8.7483256"><ele>335.75</ele><time>2026-04-24T08:42:23.814Z</time></trkpt><trkpt lat="45.7801441" lon="8.7484814"><ele>341.0</ele><time>2026-04-24T08:42:24.799Z</time></trkpt><trkpt lat="45.7801386" lon="8.748648"><ele>341.75</ele><time>2026-04-24T08:42:25.8Z</time></trkpt><trkpt lat="45.7801468" lon="8.748823"><ele>342.5</ele><time>2026-04-24T08:42:26.802Z</time></trkpt><trkpt lat="45.7801573" lon="8.749014"><ele>343.25</ele><time>2026-04-24T08:42:27.8Z</time></trkpt><trkpt lat="45.7801677" lon="8.7491866"><ele>344.0</ele><time>2026-04-24T08:42:28.8Z</time></trkpt><trkpt lat="45.7801718" lon="8.7493445"><ele>344.0</ele><time>2026-04-24T08:42:29.79Z</time></trkpt><trkpt lat="45.780155" lon="8.7494548"><ele>344.0</ele><time>2026-04-24T08:42:30.807Z</time></trkpt><trkpt lat="45.7800875" lon="8.7495589"><ele>344.0</ele><time>2026-04-24T08:42:32.802Z</time></trkpt><trkpt lat="45.7799829" lon="8.7494556"><ele>344.0</ele><time>2026-04-24T08:42:34.803Z</time></trkpt><trkpt lat="45.7799455" lon="8.7493382"><ele>344.0</ele><time>2026-04-24T08:42:35.805Z</time></trkpt><trkpt lat="45.7799074" lon="8.7491914"><ele>344.0</ele><time>2026-04-24T08:42:36.805Z</time></trkpt><trkpt lat="45.7798534" lon="8.7490328"><ele>344.0</ele><time>2026-04-24T08:42:37.799Z</time></trkpt><trkpt lat="45.779783" lon="8.748865"><ele>344.0</ele><time>2026-04-24T08:42:38.798Z</time></trkpt><trkpt lat="45.7797321" lon="8.7487077"><ele>344.0</ele><time>2026-04-24T08:42:39.8Z</time></trkpt><trkpt lat="45.7796929" lon="8.7485409"><ele>343.25</ele><time>2026-04-24T08:42:40.803Z</time></trkpt><trkpt lat="45.7796637" lon="8.748357"><ele>342.5</ele><time>2026-04-24T08:42:41.8Z</time></trkpt><trkpt lat="45.7796407" lon="8.748164"><ele>341.75</ele><time>2026-04-24T08:42:42.803Z</time></trkpt><trkpt lat="45.779615" lon="8.7479683"><ele>341.0</ele><time>2026-04-24T08:42:43.797Z</time></trkpt><trkpt lat="45.7795876" lon="8.7477808"><ele>339.25</ele><time>2026-04-24T08:42:44.812Z</time></trkpt><trkpt lat="45.7795417" lon="8.7476277"><ele>337.5</ele><time>2026-04-24T08:42:45.809Z</time></trkpt><trkpt lat="45.7794806" lon="8.7474916"><ele>335.75</ele><time>2026-04-24T08:42:46.806Z</time></trkpt><trkpt lat="45.7794011" lon="8.7473595"><ele>334.0</ele><time>2026-04-24T08:42:47.812Z</time></trkpt><trkpt lat="45.7793036" lon="8.7472218"><ele>342.0</ele><time>2026-04-24T08:42:48.81Z</time></trkpt><trkpt lat="45.779204" lon="8.7470585"><ele>350.0</ele><time>2026-04-24T08:42:49.81Z</time></trkpt><trkpt lat="45.7791178" lon="8.7468746"><ele>358.0</ele><time>2026-04-24T08:42:50.805Z</time></trkpt><trkpt lat="45.7790515" lon="8.7466872"><ele>358.0</ele><time>2026-04-24T08:42:51.807Z</time></trkpt><trkpt lat="45.7790001" lon="8.7465108"><ele>358.0</ele><time>2026-04-24T08:42:52.803Z</time></trkpt><trkpt lat="45.7789715" lon="8.7463292"><ele>358.0</ele><time>2026-04-24T08:42:53.806Z</time></trkpt><trkpt lat="45.7789574" lon="8.7461402"><ele>358.0</ele><time>2026-04-24T08:42:54.821Z</time></trkpt><trkpt lat="45.7789512" lon="8.7459423"><ele>356.5</ele><time>2026-04-24T08:42:55.808Z</time></trkpt><trkpt lat="45.7789467" lon="8.7457336"><ele>355.0</ele><time>2026-04-24T08:42:56.811Z</time></trkpt><trkpt lat="45.7789394" lon="8.7455307"><ele>353.5</ele><time>2026-04-24T08:42:57.806Z</time></trkpt><trkpt lat="45.7789401" lon="8.7453254"><ele>352.0</ele><time>2026-04-24T08:42:58.802Z</time></trkpt><trkpt lat="45.7789266" lon="8.7451526"><ele>351.75</ele><time>2026-04-24T08:42:59.797Z</time></trkpt><trkpt lat="45.7789035" lon="8.7449886"><ele>351.5</ele><time>2026-04-24T08:43:00.804Z</time></trkpt><trkpt lat="45.7788565" lon="8.7448469"><ele>351.25</ele><time>2026-04-24T08:43:01.796Z</time></trkpt><trkpt lat="45.7787985" lon="8.74471"><ele>351.0</ele><time>2026-04-24T08:43:02.802Z</time></trkpt><trkpt lat="45.7787193" lon="8.744554"><ele>351.0</ele><time>2026-04-24T08:43:03.794Z</time></trkpt><trkpt lat="45.7786337" lon="8.7443952"><ele>351.0</ele><time>2026-04-24T08:43:04.793Z</time></trkpt><trkpt lat="45.778556" lon="8.7442476"><ele>351.0</ele><time>2026-04-24T08:43:05.803Z</time></trkpt><trkpt lat="45.7784665" lon="8.7441085"><ele>351.0</ele><time>2026-04-24T08:43:06.802Z</time></trkpt><trkpt lat="45.7783654" lon="8.7439703"><ele>354.25</ele><time>2026-04-24T08:43:07.818Z</time></trkpt><trkpt lat="45.7782561" lon="8.7438342"><ele>357.5</ele><time>2026-04-24T08:43:08.806Z</time></trkpt><trkpt lat="45.7781387" lon="8.7437001"><ele>360.75</ele><time>2026-04-24T08:43:09.803Z</time></trkpt><trkpt lat="45.7780239" lon="8.7435871"><ele>364.0</ele><time>2026-04-24T08:43:10.804Z</time></trkpt><trkpt lat="45.7779182" lon="8.7435031"><ele>364.0</ele><time>2026-04-24T08:43:11.8Z</time></trkpt><trkpt lat="45.7778158" lon="8.7434168"><ele>364.0</ele><time>2026-04-24T08:43:12.803Z</time></trkpt><trkpt lat="45.7777095" lon="8.7433268"><ele>364.0</ele><time>2026-04-24T08:43:13.802Z</time></trkpt><trkpt lat="45.7776006" lon="8.7432416"><ele>364.0</ele><time>2026-04-24T08:43:14.808Z</time></trkpt><trkpt lat="45.777506" lon="8.7431717"><ele>367.4</ele><time>2026-04-24T08:43:15.806Z</time></trkpt><trkpt lat="45.7774159" lon="8.7431012"><ele>370.79999999999995</ele><time>2026-04-24T08:43:16.802Z</time></trkpt><trkpt lat="45.777341" lon="8.7430482"><ele>374.20000000000005</ele><time>2026-04-24T08:43:17.797Z</time></trkpt><trkpt lat="45.7772829" lon="8.7429989"><ele>377.6</ele><time>2026-04-24T08:43:18.802Z</time></trkpt><trkpt lat="45.777186" lon="8.7428969"><ele>381.0</ele><time>2026-04-24T08:43:20.817Z</time></trkpt><trkpt lat="45.7771048" lon="8.7428199"><ele>381.0</ele><time>2026-04-24T08:43:22.813Z</time></trkpt><trkpt lat="45.7770012" lon="8.7427528"><ele>381.0</ele><time>2026-04-24T08:43:24.817Z</time></trkpt><trkpt lat="45.7769362" lon="8.7426973"><ele>381.0</ele><time>2026-04-24T08:43:25.83Z</time></trkpt><trkpt lat="45.7768601" lon="8.7426334"><ele>381.0</ele><time>2026-04-24T08:43:26.81Z</time></trkpt><trkpt lat="45.7767933" lon="8.7425587"><ele>381.0</ele><time>2026-04-24T08:43:27.807Z</time></trkpt><trkpt lat="45.7767342" lon="8.7424633"><ele>380.8</ele><time>2026-04-24T08:43:28.815Z</time></trkpt><trkpt lat="45.7766964" lon="8.7423332"><ele>380.6</ele><time>2026-04-24T08:43:29.812Z</time></trkpt><trkpt lat="45.7766649" lon="8.7421855"><ele>380.4</ele><time>2026-04-24T08:43:30.82Z</time></trkpt><trkpt lat="45.7766441" lon="8.7420407"><ele>380.2</ele><time>2026-04-24T08:43:31.81Z</time></trkpt><trkpt lat="45.7766382" lon="8.7419083"><ele>380.0</ele><time>2026-04-24T08:43:32.812Z</time></trkpt><trkpt lat="45.7766446" lon="8.7417814"><ele>381.2</ele><time>2026-04-24T08:43:33.809Z</time></trkpt><trkpt lat="45.7766584" lon="8.7416371"><ele>382.4</ele><time>2026-04-24T08:43:34.807Z</time></trkpt><trkpt lat="45.7766655" lon="8.7415039"><ele>383.6</ele><time>2026-04-24T08:43:35.805Z</time></trkpt><trkpt lat="45.7766542" lon="8.7413836"><ele>384.8</ele><time>2026-04-24T08:43:36.814Z</time></trkpt><trkpt lat="45.7766324" lon="8.7412703"><ele>386.0</ele><time>2026-04-24T08:43:38.812Z</time></trkpt><trkpt lat="45.7765114" lon="8.7412042"><ele>386.0</ele><time>2026-04-24T08:44:14.813Z</time></trkpt><trkpt lat="45.7764239" lon="8.7411786"><ele>386.0</ele><time>2026-04-24T08:44:15.81Z</time></trkpt><trkpt lat="45.7763312" lon="8.7411551"><ele>386.0</ele><time>2026-04-24T08:44:16.817Z</time></trkpt><trkpt lat="45.7762391" lon="8.7411413"><ele>386.0</ele><time>2026-04-24T08:44:17.816Z</time></trkpt><trkpt lat="45.776157" lon="8.7411335"><ele>386.0</ele><time>2026-04-24T08:44:18.81Z</time></trkpt><trkpt lat="45.7760634" lon="8.7411291"><ele>386.6</ele><time>2026-04-24T08:44:19.816Z</time></trkpt><trkpt lat="45.7759548" lon="8.7411514"><ele>387.20000000000005</ele><time>2026-04-24T08:44:20.815Z</time></trkpt><trkpt lat="45.7758446" lon="8.7412"><ele>387.79999999999995</ele><time>2026-04-24T08:44:21.816Z</time></trkpt><trkpt lat="45.7757388" lon="8.7412512"><ele>388.4</ele><time>2026-04-24T08:44:22.812Z</time></trkpt><trkpt lat="45.7756471" lon="8.7412957"><ele>389.0</ele><time>2026-04-24T08:44:23.812Z</time></trkpt><trkpt lat="45.775565" lon="8.7413298"><ele>389.0</ele><time>2026-04-24T08:44:24.817Z</time></trkpt><trkpt lat="45.7754873" lon="8.7413676"><ele>389.0</ele><time>2026-04-24T08:44:25.809Z</time></trkpt><trkpt lat="45.7754035" lon="8.7414135"><ele>389.0</ele><time>2026-04-24T08:44:26.808Z</time></trkpt><trkpt lat="45.7753103" lon="8.7414572"><ele>389.0</ele><time>2026-04-24T08:44:27.826Z</time></trkpt><trkpt lat="45.7752246" lon="8.7415009"><ele>389.0</ele><time>2026-04-24T08:44:28.807Z</time></trkpt><trkpt lat="45.7751384" lon="8.7415402"><ele>389.99999999999994</ele><time>2026-04-24T08:44:29.811Z</time></trkpt><trkpt lat="45.7750488" lon="8.7415734"><ele>391.0</ele><time>2026-04-24T08:44:30.82Z</time></trkpt><trkpt lat="45.7749568" lon="8.7416047"><ele>392.0</ele><time>2026-04-24T08:44:31.817Z</time></trkpt><trkpt lat="45.7748738" lon="8.7416239"><ele>393.0</ele><time>2026-04-24T08:44:32.816Z</time></trkpt><trkpt lat="45.7747954" lon="8.74164"><ele>393.99999999999994</ele><time>2026-04-24T08:44:33.814Z</time></trkpt><trkpt lat="45.7747158" lon="8.7416513"><ele>395.0</ele><time>2026-04-24T08:44:34.813Z</time></trkpt><trkpt lat="45.7746256" lon="8.7416413"><ele>394.99999999999994</ele><time>2026-04-24T08:44:35.813Z</time></trkpt><trkpt lat="45.7745499" lon="8.7415981"><ele>395.0</ele><time>2026-04-24T08:44:36.82Z</time></trkpt><trkpt lat="45.7744943" lon="8.7415275"><ele>395.0</ele><time>2026-04-24T08:44:37.808Z</time></trkpt><trkpt lat="45.7744512" lon="8.741439"><ele>395.0</ele><time>2026-04-24T08:44:38.812Z</time></trkpt><trkpt lat="45.7744081" lon="8.7413476"><ele>394.99999999999994</ele><time>2026-04-24T08:44:39.82Z</time></trkpt><trkpt lat="45.7743696" lon="8.7412401"><ele>395.0</ele><time>2026-04-24T08:44:40.818Z</time></trkpt><trkpt lat="45.7743595" lon="8.7411362"><ele>395.0</ele><time>2026-04-24T08:44:41.818Z</time></trkpt><trkpt lat="45.7743491" lon="8.74101"><ele>395.0</ele><time>2026-04-24T08:44:42.814Z</time></trkpt><trkpt lat="45.7743482" lon="8.7408745"><ele>395.0</ele><time>2026-04-24T08:44:43.813Z</time></trkpt><trkpt lat="45.7743586" lon="8.7407275"><ele>395.0</ele><time>2026-04-24T08:44:44.825Z</time></trkpt><trkpt lat="45.7743752" lon="8.7405618"><ele>395.0</ele><time>2026-04-24T08:44:45.821Z</time></trkpt><trkpt lat="45.7743891" lon="8.7404311"><ele>394.99999999999994</ele><time>2026-04-24T08:44:46.827Z</time></trkpt><trkpt lat="45.7744" lon="8.7403076"><ele>395.0</ele><time>2026-04-24T08:44:47.821Z</time></trkpt><trkpt lat="45.7744289" lon="8.740196"><ele>395.0</ele><time>2026-04-24T08:44:48.821Z</time></trkpt><trkpt lat="45.7744674" lon="8.7401205"><ele>395.0</ele><time>2026-04-24T08:44:49.817Z</time></trkpt><trkpt lat="45.7744948" lon="8.740024"><ele>394.99999999999994</ele><time>2026-04-24T08:44:50.818Z</time></trkpt><trkpt lat="45.7745261" lon="8.7399046"><ele>395.0</ele><time>2026-04-24T08:44:51.812Z</time></trkpt><trkpt lat="45.7745559" lon="8.7398022"><ele>394.99999999999994</ele><time>2026-04-24T08:44:52.823Z</time></trkpt><trkpt lat="45.7745599" lon="8.739698"><ele>395.0</ele><time>2026-04-24T08:44:53.82Z</time></trkpt><trkpt lat="45.7745636" lon="8.7395842"><ele>395.0</ele><time>2026-04-24T08:44:54.816Z</time></trkpt><trkpt lat="45.7745625" lon="8.7394776"><ele>395.0</ele><time>2026-04-24T08:44:55.819Z</time></trkpt><trkpt lat="45.7745635" lon="8.7393829"><ele>394.99999999999994</ele><time>2026-04-24T08:44:56.821Z</time></trkpt><trkpt lat="45.7745677" lon="8.7392058"><ele>395.0</ele><time>2026-04-24T08:44:58.834Z</time></trkpt><trkpt lat="45.7745366" lon="8.7390412"><ele>395.4</ele><time>2026-04-24T08:45:00.803Z</time></trkpt><trkpt lat="45.7745124" lon="8.738957"><ele>395.8</ele><time>2026-04-24T08:45:01.787Z</time></trkpt><trkpt lat="45.7744728" lon="8.7387942"><ele>396.20000000000005</ele><time>2026-04-24T08:45:03.791Z</time></trkpt><trkpt lat="45.7744414" lon="8.7386042"><ele>396.6</ele><time>2026-04-24T08:45:05.79Z</time></trkpt><trkpt lat="45.7744081" lon="8.7385005"><ele>397.0</ele><time>2026-04-24T08:45:06.791Z</time></trkpt><trkpt lat="45.774373" lon="8.7384027"><ele>397.6666666666667</ele><time>2026-04-24T08:45:07.79Z</time></trkpt><trkpt lat="45.7743576" lon="8.7383031"><ele>398.33333333333337</ele><time>2026-04-24T08:45:08.79Z</time></trkpt><trkpt lat="45.7743567" lon="8.7381952"><ele>399.0</ele><time>2026-04-24T08:45:09.794Z</time></trkpt><trkpt lat="45.7743579" lon="8.7380978"><ele>399.66666666666663</ele><time>2026-04-24T08:45:10.798Z</time></trkpt><trkpt lat="45.7743131" lon="8.7379378"><ele>400.3333333333333</ele><time>2026-04-24T08:45:12.796Z</time></trkpt><trkpt lat="45.7742544" lon="8.7378735"><ele>401.0</ele><time>2026-04-24T08:45:13.796Z</time></trkpt><trkpt lat="45.774179" lon="8.7378131"><ele>400.99999999999994</ele><time>2026-04-24T08:45:14.801Z</time></trkpt><trkpt lat="45.7741016" lon="8.7377595"><ele>401.0</ele><time>2026-04-24T08:45:15.796Z</time></trkpt><trkpt lat="45.7740197" lon="8.7377135"><ele>401.0</ele><time>2026-04-24T08:45:16.801Z</time></trkpt><trkpt lat="45.7739456" lon="8.7376739"><ele>401.0</ele><time>2026-04-24T08:45:17.796Z</time></trkpt><trkpt lat="45.773874" lon="8.7376431"><ele>400.99999999999994</ele><time>2026-04-24T08:45:18.8Z</time></trkpt><trkpt lat="45.7738086" lon="8.737605"><ele>401.0</ele><time>2026-04-24T08:45:19.797Z</time></trkpt><trkpt lat="45.7737466" lon="8.7375527"><ele>400.99999999999994</ele><time>2026-04-24T08:45:20.802Z</time></trkpt><trkpt lat="45.7736781" lon="8.7375028"><ele>401.0</ele><time>2026-04-24T08:45:21.792Z</time></trkpt><trkpt lat="45.7736057" lon="8.7374492"><ele>401.0</ele><time>2026-04-24T08:45:22.793Z</time></trkpt><trkpt lat="45.7735353" lon="8.7373848"><ele>401.0</ele><time>2026-04-24T08:45:23.796Z</time></trkpt><trkpt lat="45.7734742" lon="8.7373256"><ele>400.99999999999994</ele><time>2026-04-24T08:45:24.794Z</time></trkpt><trkpt lat="45.7734087" lon="8.7372507"><ele>401.0</ele><time>2026-04-24T08:45:25.792Z</time></trkpt><trkpt lat="45.7733604" lon="8.7371902"><ele>400.6</ele><time>2026-04-24T08:45:26.795Z</time></trkpt><trkpt lat="45.773291" lon="8.7370537"><ele>400.20000000000005</ele><time>2026-04-24T08:45:28.798Z</time></trkpt><trkpt lat="45.7732998" lon="8.7369167"><ele>399.79999999999995</ele><time>2026-04-24T08:45:30.786Z</time></trkpt><trkpt lat="45.773366" lon="8.7368324"><ele>399.4</ele><time>2026-04-24T08:45:32.791Z</time></trkpt><trkpt lat="45.7734212" lon="8.7367866"><ele>399.0</ele><time>2026-04-24T08:45:33.792Z</time></trkpt><trkpt lat="45.7735486" lon="8.7367078"><ele>398.0</ele><time>2026-04-24T08:45:35.799Z</time></trkpt><trkpt lat="45.7736507" lon="8.7366798"><ele>397.0</ele><time>2026-04-24T08:45:36.791Z</time></trkpt><trkpt lat="45.7737728" lon="8.7366455"><ele>396.0</ele><time>2026-04-24T08:45:37.786Z</time></trkpt><trkpt lat="45.7738694" lon="8.7366347"><ele>395.0</ele><time>2026-04-24T08:45:38.788Z</time></trkpt><trkpt lat="45.7739885" lon="8.7366121"><ele>394.0</ele><time>2026-04-24T08:45:40.789Z</time></trkpt><trkpt lat="45.7740632" lon="8.7366001"><ele>394.0</ele><time>2026-04-24T08:45:41.784Z</time></trkpt><trkpt lat="45.7741752" lon="8.7365794"><ele>394.0</ele><time>2026-04-24T08:45:43.791Z</time></trkpt><trkpt lat="45.7742036" lon="8.7364943"><ele>394.0</ele><time>2026-04-24T08:45:47.79Z</time></trkpt><trkpt lat="45.7741686" lon="8.7363926"><ele>394.0</ele><time>2026-04-24T08:45:49.79Z</time></trkpt><trkpt lat="45.7741281" lon="8.736284"><ele>394.0</ele><time>2026-04-24T08:45:51.783Z</time></trkpt><trkpt lat="45.7741295" lon="8.7361293"><ele>393.50000000000006</ele><time>2026-04-24T08:45:53.785Z</time></trkpt><trkpt lat="45.7741697" lon="8.735974"><ele>393.0</ele><time>2026-04-24T08:45:55.786Z</time></trkpt><trkpt lat="45.7742181" lon="8.7358733"><ele>392.5</ele><time>2026-04-24T08:45:57.786Z</time></trkpt><trkpt lat="45.7742796" lon="8.7358043"><ele>392.0</ele><time>2026-04-24T08:46:00.787Z</time></trkpt><trkpt lat="45.7743458" lon="8.7358032"><ele>391.50000000000006</ele><time>2026-04-24T08:46:02.79Z</time></trkpt><trkpt lat="45.7744364" lon="8.7358175"><ele>391.0</ele><time>2026-04-24T08:46:04.788Z</time></trkpt><trkpt lat="45.774511" lon="8.7358498"><ele>390.50000000000006</ele><time>2026-04-24T08:46:06.79Z</time></trkpt><trkpt lat="45.774587" lon="8.7359335"><ele>390.0</ele><time>2026-04-24T08:46:08.792Z</time></trkpt><trkpt lat="45.7746827" lon="8.736021"><ele>389.5</ele><time>2026-04-24T08:46:10.792Z</time></trkpt><trkpt lat="45.7747457" lon="8.7360841"><ele>389.0</ele><time>2026-04-24T08:46:11.788Z</time></trkpt><trkpt lat="45.7748144" lon="8.7361403"><ele>388.50000000000006</ele><time>2026-04-24T08:46:12.787Z</time></trkpt><trkpt lat="45.7748718" lon="8.7361969"><ele>388.0</ele><time>2026-04-24T08:46:13.782Z</time></trkpt><trkpt lat="45.7749314" lon="8.7362409"><ele>388.00000000000006</ele><time>2026-04-24T08:46:14.79Z</time></trkpt><trkpt lat="45.7750267" lon="8.736272"><ele>388.0</ele><time>2026-04-24T08:46:16.793Z</time></trkpt><trkpt lat="45.7750893" lon="8.7362553"><ele>388.0</ele><time>2026-04-24T08:46:18.783Z</time></trkpt><trkpt lat="45.7751257" lon="8.7360983"><ele>388.0</ele><time>2026-04-24T08:46:21.783Z</time></trkpt><trkpt lat="45.7751083" lon="8.7359965"><ele>388.00000000000006</ele><time>2026-04-24T08:46:22.782Z</time></trkpt><trkpt lat="45.7750917" lon="8.7359088"><ele>388.0</ele><time>2026-04-24T08:46:23.784Z</time></trkpt><trkpt lat="45.7750711" lon="8.7358173"><ele>387.00000000000006</ele><time>2026-04-24T08:46:24.786Z</time></trkpt><trkpt lat="45.7750498" lon="8.7357181"><ele>386.0</ele><time>2026-04-24T08:46:25.782Z</time></trkpt><trkpt lat="45.7750396" lon="8.7356221"><ele>385.0</ele><time>2026-04-24T08:46:26.786Z</time></trkpt><trkpt lat="45.775014" lon="8.7354483"><ele>384.0</ele><time>2026-04-24T08:46:28.781Z</time></trkpt><trkpt lat="45.774987" lon="8.7353523"><ele>383.0</ele><time>2026-04-24T08:46:29.781Z</time></trkpt><trkpt lat="45.7749568" lon="8.7352426"><ele>382.0</ele><time>2026-04-24T08:46:30.798Z</time></trkpt><trkpt lat="45.7749266" lon="8.7351392"><ele>380.6</ele><time>2026-04-24T08:46:31.791Z</time></trkpt><trkpt lat="45.7748924" lon="8.7349803"><ele>379.20000000000005</ele><time>2026-04-24T08:46:33.783Z</time></trkpt><trkpt lat="45.7748582" lon="8.7348593"><ele>377.8</ele><time>2026-04-24T08:46:35.786Z</time></trkpt><trkpt lat="45.774804" lon="8.7347528"><ele>376.4</ele><time>2026-04-24T08:46:37.784Z</time></trkpt><trkpt lat="45.7747397" lon="8.7346265"><ele>375.0</ele><time>2026-04-24T08:46:39.782Z</time></trkpt><trkpt lat="45.774663" lon="8.7345308"><ele>375.0</ele><time>2026-04-24T08:46:40.787Z</time></trkpt><trkpt lat="45.7745924" lon="8.7344552"><ele>375.0</ele><time>2026-04-24T08:46:41.784Z</time></trkpt><trkpt lat="45.7745487" lon="8.7343691"><ele>375.0</ele><time>2026-04-24T08:46:42.782Z</time></trkpt><trkpt lat="45.7745013" lon="8.7342607"><ele>375.0</ele><time>2026-04-24T08:46:43.783Z</time></trkpt><trkpt lat="45.77447" lon="8.7341692"><ele>375.0</ele><time>2026-04-24T08:46:44.783Z</time></trkpt><trkpt lat="45.7744404" lon="8.7340782"><ele>375.0</ele><time>2026-04-24T08:46:45.779Z</time></trkpt><trkpt lat="45.7743971" lon="8.7339714"><ele>374.4</ele><time>2026-04-24T08:46:46.786Z</time></trkpt><trkpt lat="45.7743489" lon="8.7338448"><ele>373.8</ele><time>2026-04-24T08:46:47.782Z</time></trkpt><trkpt lat="45.774305" lon="8.733743"><ele>373.20000000000005</ele><time>2026-04-24T08:46:48.786Z</time></trkpt><trkpt lat="45.7742673" lon="8.7336307"><ele>372.6</ele><time>2026-04-24T08:46:49.785Z</time></trkpt><trkpt lat="45.7742182" lon="8.7335126"><ele>372.0</ele><time>2026-04-24T08:46:50.783Z</time></trkpt><trkpt lat="45.7741597" lon="8.7334025"><ele>372.00000000000006</ele><time>2026-04-24T08:46:51.785Z</time></trkpt><trkpt lat="45.7741075" lon="8.7333243"><ele>372.0</ele><time>2026-04-24T08:46:52.783Z</time></trkpt><trkpt lat="45.7740689" lon="8.7332507"><ele>372.0</ele><time>2026-04-24T08:46:53.786Z</time></trkpt><trkpt lat="45.7740196" lon="8.7331918"><ele>372.0</ele><time>2026-04-24T08:46:54.788Z</time></trkpt><trkpt lat="45.7739596" lon="8.733129"><ele>372.0</ele><time>2026-04-24T08:46:55.787Z</time></trkpt><trkpt lat="45.7738897" lon="8.733078"><ele>372.00000000000006</ele><time>2026-04-24T08:46:56.794Z</time></trkpt><trkpt lat="45.7738175" lon="8.7330402"><ele>372.0</ele><time>2026-04-24T08:46:57.789Z</time></trkpt><trkpt lat="45.7737466" lon="8.7330042"><ele>372.0</ele><time>2026-04-24T08:46:58.788Z</time></trkpt><trkpt lat="45.7736727" lon="8.732974"><ele>372.0</ele><time>2026-04-24T08:46:59.785Z</time></trkpt><trkpt lat="45.7736051" lon="8.7329325"><ele>372.0</ele><time>2026-04-24T08:47:00.789Z</time></trkpt><trkpt lat="45.7735424" lon="8.7328985"><ele>372.0</ele><time>2026-04-24T08:47:01.813Z</time></trkpt><trkpt lat="45.7734552" lon="8.7328679"><ele>372.0</ele><time>2026-04-24T08:47:03.789Z</time></trkpt><trkpt lat="45.7733859" lon="8.7328363"><ele>372.0</ele><time>2026-04-24T08:47:06.786Z</time></trkpt><trkpt lat="45.7733132" lon="8.7328541"><ele>372.0</ele><time>2026-04-24T08:47:09.79Z</time></trkpt><trkpt lat="45.7732806" lon="8.7327549"><ele>372.0</ele><time>2026-04-24T08:47:13.793Z</time></trkpt><trkpt lat="45.7733294" lon="8.7326128"><ele>372.0</ele><time>2026-04-24T08:47:15.789Z</time></trkpt><trkpt lat="45.7733634" lon="8.7325244"><ele>372.0</ele><time>2026-04-24T08:47:16.79Z</time></trkpt><trkpt lat="45.7734145" lon="8.7324511"><ele>372.0</ele><time>2026-04-24T08:47:17.786Z</time></trkpt><trkpt lat="45.7734697" lon="8.7323739"><ele>372.0</ele><time>2026-04-24T08:47:18.789Z</time></trkpt><trkpt lat="45.773511" lon="8.7322877"><ele>369.40000000000003</ele><time>2026-04-24T08:47:19.789Z</time></trkpt><trkpt lat="45.7735575" lon="8.7321637"><ele>366.8</ele><time>2026-04-24T08:47:20.788Z</time></trkpt><trkpt lat="45.773619" lon="8.7320231"><ele>364.2</ele><time>2026-04-24T08:47:21.786Z</time></trkpt><trkpt lat="45.7736884" lon="8.7318992"><ele>361.6</ele><time>2026-04-24T08:47:22.78Z</time></trkpt><trkpt lat="45.773776" lon="8.7317754"><ele>359.0</ele><time>2026-04-24T08:47:23.786Z</time></trkpt><trkpt lat="45.7738629" lon="8.7316701"><ele>358.4</ele><time>2026-04-24T08:47:24.785Z</time></trkpt><trkpt lat="45.773923" lon="8.7315873"><ele>357.79999999999995</ele><time>2026-04-24T08:47:25.784Z</time></trkpt><trkpt lat="45.7739714" lon="8.7315137"><ele>357.20000000000005</ele><time>2026-04-24T08:47:26.785Z</time></trkpt><trkpt lat="45.7740831" lon="8.7314651"><ele>356.6</ele><time>2026-04-24T08:47:28.788Z</time></trkpt><trkpt lat="45.7741978" lon="8.7314858"><ele>356.0</ele><time>2026-04-24T08:47:30.777Z</time></trkpt><trkpt lat="45.7742872" lon="8.7315675"><ele>356.0</ele><time>2026-04-24T08:47:32.799Z</time></trkpt><trkpt lat="45.7743458" lon="8.7316864"><ele>356.0</ele><time>2026-04-24T08:47:34.78Z</time></trkpt><trkpt lat="45.7743861" lon="8.7318221"><ele>356.0</ele><time>2026-04-24T08:47:36.782Z</time></trkpt><trkpt lat="45.7744642" lon="8.7317469"><ele>356.0</ele><time>2026-04-24T08:47:42.788Z</time></trkpt><trkpt lat="45.7744881" lon="8.7316598"><ele>356.0</ele><time>2026-04-24T08:47:43.78Z</time></trkpt><trkpt lat="45.7744986" lon="8.7315397"><ele>356.0</ele><time>2026-04-24T08:47:44.786Z</time></trkpt><trkpt lat="45.7745071" lon="8.7314136"><ele>351.20000000000005</ele><time>2026-04-24T08:47:45.784Z</time></trkpt><trkpt lat="45.7745143" lon="8.7312643"><ele>346.40000000000003</ele><time>2026-04-24T08:47:46.786Z</time></trkpt><trkpt lat="45.7745018" lon="8.7311234"><ele>341.6</ele><time>2026-04-24T08:47:47.783Z</time></trkpt><trkpt lat="45.7744859" lon="8.7309792"><ele>336.8</ele><time>2026-04-24T08:47:48.779Z</time></trkpt><trkpt lat="45.7744766" lon="8.7308417"><ele>332.0</ele><time>2026-04-24T08:47:49.781Z</time></trkpt><trkpt lat="45.7744455" lon="8.7306673"><ele>330.6666666666667</ele><time>2026-04-24T08:47:50.792Z</time></trkpt><trkpt lat="45.7744195" lon="8.7305022"><ele>329.33333333333337</ele><time>2026-04-24T08:47:51.786Z</time></trkpt><trkpt lat="45.7744107" lon="8.7303835"><ele>328.0</ele><time>2026-04-24T08:47:52.791Z</time></trkpt><trkpt lat="45.7744337" lon="8.7302946"><ele>326.6666666666667</ele><time>2026-04-24T08:47:55.79Z</time></trkpt><trkpt lat="45.7744588" lon="8.7304265"><ele>325.3333333333333</ele><time>2026-04-24T08:47:57.783Z</time></trkpt><trkpt lat="45.7744803" lon="8.7305345"><ele>324.0</ele><time>2026-04-24T08:47:58.79Z</time></trkpt><trkpt lat="45.7745096" lon="8.7306648"><ele>324.0</ele><time>2026-04-24T08:47:59.78Z</time></trkpt><trkpt lat="45.7745404" lon="8.730798"><ele>324.0</ele><time>2026-04-24T08:48:00.78Z</time></trkpt><trkpt lat="45.7745675" lon="8.730936"><ele>324.0</ele><time>2026-04-24T08:48:01.794Z</time></trkpt><trkpt lat="45.7745804" lon="8.7310857"><ele>324.0</ele><time>2026-04-24T08:48:02.79Z</time></trkpt><trkpt lat="45.774576" lon="8.7312664"><ele>324.0</ele><time>2026-04-24T08:48:03.797Z</time></trkpt><trkpt lat="45.7745597" lon="8.731436"><ele>325.6</ele><time>2026-04-24T08:48:04.783Z</time></trkpt><trkpt lat="45.7745401" lon="8.7315858"><ele>327.2</ele><time>2026-04-24T08:48:05.787Z</time></trkpt><trkpt lat="45.7745348" lon="8.7317056"><ele>328.8</ele><time>2026-04-24T08:48:06.782Z</time></trkpt><trkpt lat="45.7745906" lon="8.7318279"><ele>330.40000000000003</ele><time>2026-04-24T08:48:08.783Z</time></trkpt><trkpt lat="45.7746423" lon="8.7318884"><ele>332.0</ele><time>2026-04-24T08:48:10.79Z</time></trkpt><trkpt lat="45.7746843" lon="8.7317386"><ele>332.0</ele><time>2026-04-24T08:48:14.789Z</time></trkpt><trkpt lat="45.7746996" lon="8.731639"><ele>332.0</ele><time>2026-04-24T08:48:15.786Z</time></trkpt><trkpt lat="45.7747209" lon="8.7315525"><ele>332.0</ele><time>2026-04-24T08:48:16.784Z</time></trkpt><trkpt lat="45.7748061" lon="8.7314618"><ele>332.0</ele><time>2026-04-24T08:48:18.785Z</time></trkpt><trkpt lat="45.7748717" lon="8.7315417"><ele>332.0</ele><time>2026-04-24T08:48:20.787Z</time></trkpt><trkpt lat="45.7748961" lon="8.7316428"><ele>332.0</ele><time>2026-04-24T08:48:21.786Z</time></trkpt><trkpt lat="45.7749137" lon="8.7317552"><ele>332.0</ele><time>2026-04-24T08:48:22.788Z</time></trkpt><trkpt lat="45.7749468" lon="8.7318546"><ele>332.0</ele><time>2026-04-24T08:48:23.788Z</time></trkpt><trkpt lat="45.774973" lon="8.7319455"><ele>332.0</ele><time>2026-04-24T08:48:24.785Z</time></trkpt><trkpt lat="45.7750361" lon="8.7320362"><ele>332.0</ele><time>2026-04-24T08:48:26.792Z</time></trkpt><trkpt lat="45.7751254" lon="8.7319678"><ele>332.0</ele><time>2026-04-24T08:48:28.793Z</time></trkpt><trkpt lat="45.7751783" lon="8.7318756"><ele>332.0</ele><time>2026-04-24T08:48:29.787Z</time></trkpt><trkpt lat="45.7752211" lon="8.7317541"><ele>327.6</ele><time>2026-04-24T08:48:30.793Z</time></trkpt><trkpt lat="45.7752682" lon="8.7316297"><ele>323.20000000000005</ele><time>2026-04-24T08:48:31.797Z</time></trkpt><trkpt lat="45.7753152" lon="8.7315423"><ele>318.8</ele><time>2026-04-24T08:48:32.79Z</time></trkpt><trkpt lat="45.7753952" lon="8.7314466"><ele>314.4</ele><time>2026-04-24T08:48:34.802Z</time></trkpt><trkpt lat="45.775497" lon="8.7314741"><ele>310.0</ele><time>2026-04-24T08:48:36.783Z</time></trkpt><trkpt lat="45.7755661" lon="8.7315013"><ele>310.0</ele><time>2026-04-24T08:48:37.786Z</time></trkpt><trkpt lat="45.7756559" lon="8.7315417"><ele>310.0</ele><time>2026-04-24T08:48:38.796Z</time></trkpt><trkpt lat="45.7757715" lon="8.7316195"><ele>310.0</ele><time>2026-04-24T08:48:39.789Z</time></trkpt><trkpt lat="45.7759031" lon="8.7317068"><ele>310.0</ele><time>2026-04-24T08:48:40.79Z</time></trkpt><trkpt lat="45.7760185" lon="8.7317875"><ele>307.75</ele><time>2026-04-24T08:48:41.787Z</time></trkpt><trkpt lat="45.7761401" lon="8.7318628"><ele>305.5</ele><time>2026-04-24T08:48:42.787Z</time></trkpt><trkpt lat="45.7762568" lon="8.7319292"><ele>303.25</ele><time>2026-04-24T08:48:43.785Z</time></trkpt><trkpt lat="45.7763698" lon="8.731983"><ele>301.0</ele><time>2026-04-24T08:48:44.786Z</time></trkpt><trkpt lat="45.7764755" lon="8.732016"><ele>301.0</ele><time>2026-04-24T08:48:45.786Z</time></trkpt><trkpt lat="45.7765892" lon="8.7320435"><ele>301.0</ele><time>2026-04-24T08:48:46.79Z</time></trkpt><trkpt lat="45.7767035" lon="8.7320511"><ele>301.0</ele><time>2026-04-24T08:48:47.787Z</time></trkpt><trkpt lat="45.7768098" lon="8.7320403"><ele>301.0</ele><time>2026-04-24T08:48:48.787Z</time></trkpt><trkpt lat="45.7769035" lon="8.732032"><ele>301.0</ele><time>2026-04-24T08:48:49.788Z</time></trkpt><trkpt lat="45.7769851" lon="8.7320444"><ele>300.16666666666663</ele><time>2026-04-24T08:48:50.794Z</time></trkpt><trkpt lat="45.7770957" lon="8.7320433"><ele>299.3333333333333</ele><time>2026-04-24T08:48:52.797Z</time></trkpt><trkpt lat="45.7771711" lon="8.7320487"><ele>298.5</ele><time>2026-04-24T08:48:55.791Z</time></trkpt><trkpt lat="45.7771367" lon="8.731965"><ele>297.6666666666667</ele><time>2026-04-24T08:49:10.783Z</time></trkpt><trkpt lat="45.7770941" lon="8.7320319"><ele>296.83333333333337</ele><time>2026-04-24T08:49:16.796Z</time></trkpt><trkpt lat="45.777175" lon="8.7320863"><ele>296.0</ele><time>2026-04-24T08:49:26.789Z</time></trkpt><trkpt lat="45.777171" lon="8.7319925"><ele>296.0</ele><time>2026-04-24T08:50:11.798Z</time></trkpt><trkpt lat="45.7772375" lon="8.7319258"><ele>296.0</ele><time>2026-04-24T08:50:14.791Z</time></trkpt><trkpt lat="45.7773229" lon="8.7319088"><ele>296.0</ele><time>2026-04-24T08:50:16.771Z</time></trkpt><trkpt lat="45.7774288" lon="8.7319352"><ele>296.0</ele><time>2026-04-24T08:50:18.773Z</time></trkpt><trkpt lat="45.7775019" lon="8.7319341"><ele>296.0</ele><time>2026-04-24T08:50:19.768Z</time></trkpt><trkpt lat="45.7775812" lon="8.7318761"><ele>296.0</ele><time>2026-04-24T08:50:20.772Z</time></trkpt><trkpt lat="45.7776546" lon="8.7318401"><ele>295.6</ele><time>2026-04-24T08:50:21.768Z</time></trkpt><trkpt lat="45.7777885" lon="8.7318751"><ele>295.20000000000005</ele><time>2026-04-24T08:50:23.777Z</time></trkpt><trkpt lat="45.7778574" lon="8.731855"><ele>294.79999999999995</ele><time>2026-04-24T08:50:24.783Z</time></trkpt><trkpt lat="45.7779371" lon="8.7318455"><ele>294.4</ele><time>2026-04-24T08:50:26.776Z</time></trkpt><trkpt lat="45.7779219" lon="8.731706"><ele>294.0</ele><time>2026-04-24T08:50:32.787Z</time></trkpt><trkpt lat="45.7778925" lon="8.7316035"><ele>294.0</ele><time>2026-04-24T08:50:33.786Z</time></trkpt><trkpt lat="45.777823" lon="8.7314945"><ele>294.0</ele><time>2026-04-24T08:50:34.792Z</time></trkpt><trkpt lat="45.7777502" lon="8.7313988"><ele>294.0</ele><time>2026-04-24T08:50:35.79Z</time></trkpt><trkpt lat="45.7776835" lon="8.7313406"><ele>294.0</ele><time>2026-04-24T08:50:36.789Z</time></trkpt><trkpt lat="45.7776042" lon="8.7313261"><ele>294.0</ele><time>2026-04-24T08:50:37.779Z</time></trkpt><trkpt lat="45.7775336" lon="8.7313307"><ele>294.0</ele><time>2026-04-24T08:50:38.812Z</time></trkpt><trkpt lat="45.7774443" lon="8.7313468"><ele>294.5</ele><time>2026-04-24T08:50:39.788Z</time></trkpt><trkpt lat="45.777363" lon="8.7314057"><ele>295.0</ele><time>2026-04-24T08:50:40.781Z</time></trkpt><trkpt lat="45.7772793" lon="8.7314517"><ele>295.5</ele><time>2026-04-24T08:50:41.777Z</time></trkpt><trkpt lat="45.7772032" lon="8.7314923"><ele>296.0</ele><time>2026-04-24T08:50:42.774Z</time></trkpt><trkpt lat="45.7771224" lon="8.7315247"><ele>296.5</ele><time>2026-04-24T08:50:43.773Z</time></trkpt><trkpt lat="45.7770515" lon="8.7315169"><ele>297.0</ele><time>2026-04-24T08:50:44.772Z</time></trkpt><trkpt lat="45.7769883" lon="8.7314899"><ele>297.0</ele><time>2026-04-24T08:50:45.769Z</time></trkpt><trkpt lat="45.7769306" lon="8.731422"><ele>297.0</ele><time>2026-04-24T08:50:46.775Z</time></trkpt><trkpt lat="45.77688" lon="8.7313143"><ele>297.0</ele><time>2026-04-24T08:50:47.772Z</time></trkpt><trkpt lat="45.7768315" lon="8.7311682"><ele>297.0</ele><time>2026-04-24T08:50:48.775Z</time></trkpt><trkpt lat="45.7767858" lon="8.730943"><ele>297.0</ele><time>2026-04-24T08:50:49.776Z</time></trkpt><trkpt lat="45.7767216" lon="8.7306728"><ele>296.0</ele><time>2026-04-24T08:50:50.772Z</time></trkpt><trkpt lat="45.7766514" lon="8.730388"><ele>295.0</ele><time>2026-04-24T08:50:51.775Z</time></trkpt><trkpt lat="45.7765378" lon="8.7300425"><ele>291.0</ele><time>2026-04-24T08:50:52.782Z</time></trkpt><trkpt lat="45.7764196" lon="8.7296782"><ele>287.0</ele><time>2026-04-24T08:50:53.784Z</time></trkpt><trkpt lat="45.7763287" lon="8.7294166"><ele>287.33333333333337</ele><time>2026-04-24T08:50:54.781Z</time></trkpt><trkpt lat="45.776271" lon="8.7291656"><ele>287.6666666666667</ele><time>2026-04-24T08:50:55.785Z</time></trkpt><trkpt lat="45.7762343" lon="8.7289269"><ele>288.0</ele><time>2026-04-24T08:50:56.783Z</time></trkpt><trkpt lat="45.7762089" lon="8.7286957"><ele>288.25</ele><time>2026-04-24T08:50:57.784Z</time></trkpt><trkpt lat="45.7762136" lon="8.7284523"><ele>288.5</ele><time>2026-04-24T08:50:58.787Z</time></trkpt><trkpt lat="45.7762143" lon="8.7282458"><ele>288.75</ele><time>2026-04-24T08:50:59.783Z</time></trkpt><trkpt lat="45.7762537" lon="8.7280872"><ele>289.0</ele><time>2026-04-24T08:51:00.788Z</time></trkpt><trkpt lat="45.7763388" lon="8.7279593"><ele>289.0</ele><time>2026-04-24T08:51:01.786Z</time></trkpt><trkpt lat="45.7764743" lon="8.7278508"><ele>289.0</ele><time>2026-04-24T08:51:02.798Z</time></trkpt><trkpt lat="45.7766231" lon="8.7277312"><ele>289.0</ele><time>2026-04-24T08:51:03.789Z</time></trkpt><trkpt lat="45.7767826" lon="8.7276237"><ele>286.5</ele><time>2026-04-24T08:51:04.79Z</time></trkpt><trkpt lat="45.7769308" lon="8.7275119"><ele>284.0</ele><time>2026-04-24T08:51:05.788Z</time></trkpt><trkpt lat="45.7770418" lon="8.727433"><ele>281.5</ele><time>2026-04-24T08:51:06.79Z</time></trkpt><trkpt lat="45.7771374" lon="8.7273527"><ele>279.0</ele><time>2026-04-24T08:51:07.788Z</time></trkpt><trkpt lat="45.7772154" lon="8.7272668"><ele>279.0</ele><time>2026-04-24T08:51:08.785Z</time></trkpt><trkpt lat="45.7772487" lon="8.727173"><ele>279.0</ele><time>2026-04-24T08:51:09.79Z</time></trkpt><trkpt lat="45.7772739" lon="8.7270562"><ele>279.0</ele><time>2026-04-24T08:51:10.787Z</time></trkpt><trkpt lat="45.7772945" lon="8.7269067"><ele>279.0</ele><time>2026-04-24T08:51:11.782Z</time></trkpt><trkpt lat="45.7772976" lon="8.7267194"><ele>279.0</ele><time>2026-04-24T08:51:12.777Z</time></trkpt><trkpt lat="45.7772871" lon="8.7265297"><ele>278.25</ele><time>2026-04-24T08:51:13.779Z</time></trkpt><trkpt lat="45.7772668" lon="8.726352"><ele>277.5</ele><time>2026-04-24T08:51:14.783Z</time></trkpt><trkpt lat="45.7772418" lon="8.7261795"><ele>276.75</ele><time>2026-04-24T08:51:15.778Z</time></trkpt><trkpt lat="45.7772124" lon="8.7260345"><ele>276.0</ele><time>2026-04-24T08:51:16.779Z</time></trkpt><trkpt lat="45.7771796" lon="8.7259009"><ele>275.25</ele><time>2026-04-24T08:51:17.781Z</time></trkpt><trkpt lat="45.7771394" lon="8.7257832"><ele>274.5</ele><time>2026-04-24T08:51:18.78Z</time></trkpt><trkpt lat="45.777078" lon="8.7256706"><ele>273.75</ele><time>2026-04-24T08:51:19.781Z</time></trkpt><trkpt lat="45.7769672" lon="8.7255529"><ele>273.0</ele><time>2026-04-24T08:51:20.786Z</time></trkpt><trkpt lat="45.7768417" lon="8.7254213"><ele>273.0</ele><time>2026-04-24T08:51:21.782Z</time></trkpt><trkpt lat="45.7766866" lon="8.7252776"><ele>273.0</ele><time>2026-04-24T08:51:22.791Z</time></trkpt><trkpt lat="45.7765314" lon="8.7251212"><ele>273.0</ele><time>2026-04-24T08:51:23.792Z</time></trkpt><trkpt lat="45.7763721" lon="8.7249705"><ele>269.6666666666667</ele><time>2026-04-24T08:51:24.796Z</time></trkpt><trkpt lat="45.7762161" lon="8.7248301"><ele>266.33333333333337</ele><time>2026-04-24T08:51:25.797Z</time></trkpt><trkpt lat="45.7760865" lon="8.7246753"><ele>263.0</ele><time>2026-04-24T08:51:26.799Z</time></trkpt><trkpt lat="45.7759713" lon="8.7245383"><ele>263.0</ele><time>2026-04-24T08:51:27.791Z</time></trkpt><trkpt lat="45.7758553" lon="8.7244032"><ele>263.0</ele><time>2026-04-24T08:51:28.798Z</time></trkpt><trkpt lat="45.7757437" lon="8.7242487"><ele>263.0</ele><time>2026-04-24T08:51:29.79Z</time></trkpt><trkpt lat="45.7756213" lon="8.7240876"><ele>263.25</ele><time>2026-04-24T08:51:30.799Z</time></trkpt><trkpt lat="45.7755227" lon="8.7239289"><ele>263.5</ele><time>2026-04-24T08:51:31.802Z</time></trkpt><trkpt lat="45.7754208" lon="8.7238017"><ele>263.75</ele><time>2026-04-24T08:51:32.811Z</time></trkpt><trkpt lat="45.7753162" lon="8.7236824"><ele>264.0</ele><time>2026-04-24T08:51:33.799Z</time></trkpt><trkpt lat="45.7751855" lon="8.7236204"><ele>264.0</ele><time>2026-04-24T08:51:34.789Z</time></trkpt><trkpt lat="45.7750427" lon="8.723577"><ele>264.0</ele><time>2026-04-24T08:51:35.793Z</time></trkpt><trkpt lat="45.7749091" lon="8.7235277"><ele>264.0</ele><time>2026-04-24T08:51:36.786Z</time></trkpt><trkpt lat="45.77477" lon="8.7234554"><ele>264.0</ele><time>2026-04-24T08:51:37.783Z</time></trkpt><trkpt lat="45.7746235" lon="8.7233592"><ele>261.6666666666667</ele><time>2026-04-24T08:51:38.779Z</time></trkpt><trkpt lat="45.7744685" lon="8.7232493"><ele>259.33333333333337</ele><time>2026-04-24T08:51:39.79Z</time></trkpt><trkpt lat="45.7742909" lon="8.7231134"><ele>257.0</ele><time>2026-04-24T08:51:40.805Z</time></trkpt><trkpt lat="45.7741473" lon="8.7229217"><ele>255.66666666666669</ele><time>2026-04-24T08:51:41.784Z</time></trkpt><trkpt lat="45.7740404" lon="8.7227032"><ele>254.33333333333331</ele><time>2026-04-24T08:51:42.781Z</time></trkpt><trkpt lat="45.7739484" lon="8.7224925"><ele>253.0</ele><time>2026-04-24T08:51:43.779Z</time></trkpt><trkpt lat="45.773872" lon="8.7223121"><ele>253.0</ele><time>2026-04-24T08:51:44.782Z</time></trkpt><trkpt lat="45.773794" lon="8.7221567"><ele>253.0</ele><time>2026-04-24T08:51:45.781Z</time></trkpt><trkpt lat="45.7736886" lon="8.7220247"><ele>253.0</ele><time>2026-04-24T08:51:46.783Z</time></trkpt><trkpt lat="45.7735669" lon="8.7219086"><ele>253.0</ele><time>2026-04-24T08:51:47.781Z</time></trkpt><trkpt lat="45.7734198" lon="8.7217991"><ele>251.66666666666666</ele><time>2026-04-24T08:51:48.783Z</time></trkpt><trkpt lat="45.7732512" lon="8.7216856"><ele>250.33333333333331</ele><time>2026-04-24T08:51:49.778Z</time></trkpt><trkpt lat="45.7730565" lon="8.7215658"><ele>249.0</ele><time>2026-04-24T08:51:50.783Z</time></trkpt><trkpt lat="45.7728645" lon="8.7214508"><ele>251.5</ele><time>2026-04-24T08:51:51.782Z</time></trkpt><trkpt lat="45.7726532" lon="8.7213623"><ele>254.0</ele><time>2026-04-24T08:51:52.782Z</time></trkpt><trkpt lat="45.7724298" lon="8.7212742"><ele>254.0</ele><time>2026-04-24T08:51:53.78Z</time></trkpt><trkpt lat="45.7721949" lon="8.7211847"><ele>254.0</ele><time>2026-04-24T08:51:54.779Z</time></trkpt><trkpt lat="45.7719458" lon="8.7210783"><ele>251.0</ele><time>2026-04-24T08:51:55.777Z</time></trkpt><trkpt lat="45.7717006" lon="8.720977"><ele>248.0</ele><time>2026-04-24T08:51:56.781Z</time></trkpt><trkpt lat="45.7714724" lon="8.7208836"><ele>248.0</ele><time>2026-04-24T08:51:57.785Z</time></trkpt><trkpt lat="45.7712475" lon="8.7208029"><ele>248.0</ele><time>2026-04-24T08:51:58.788Z</time></trkpt><trkpt lat="45.7710389" lon="8.720711"><ele>255.5</ele><time>2026-04-24T08:51:59.794Z</time></trkpt><trkpt lat="45.7708319" lon="8.7205773"><ele>263.0</ele><time>2026-04-24T08:52:00.793Z</time></trkpt><trkpt lat="45.7706312" lon="8.7204102"><ele>254.5</ele><time>2026-04-24T08:52:01.788Z</time></trkpt><trkpt lat="45.7704289" lon="8.7201922"><ele>246.0</ele><time>2026-04-24T08:52:02.794Z</time></trkpt><trkpt lat="45.770214" lon="8.7199892"><ele>254.0</ele><time>2026-04-24T08:52:03.781Z</time></trkpt><trkpt lat="45.7700149" lon="8.7197851"><ele>262.0</ele><time>2026-04-24T08:52:04.784Z</time></trkpt><trkpt lat="45.76982" lon="8.7195818"><ele>259.66666666666663</ele><time>2026-04-24T08:52:05.783Z</time></trkpt><trkpt lat="45.7696317" lon="8.7193957"><ele>257.3333333333333</ele><time>2026-04-24T08:52:06.784Z</time></trkpt><trkpt lat="45.7694687" lon="8.7192316"><ele>255.0</ele><time>2026-04-24T08:52:07.783Z</time></trkpt><trkpt lat="45.7693587" lon="8.7190985"><ele>255.0</ele><time>2026-04-24T08:52:08.783Z</time></trkpt><trkpt lat="45.769265" lon="8.7189497"><ele>255.0</ele><time>2026-04-24T08:52:09.787Z</time></trkpt><trkpt lat="45.769174" lon="8.7187904"><ele>255.0</ele><time>2026-04-24T08:52:10.787Z</time></trkpt><trkpt lat="45.7690837" lon="8.7186122"><ele>255.0</ele><time>2026-04-24T08:52:11.809Z</time></trkpt><trkpt lat="45.7689975" lon="8.7184206"><ele>254.33333333333331</ele><time>2026-04-24T08:52:12.793Z</time></trkpt><trkpt lat="45.7689101" lon="8.7182338"><ele>253.66666666666666</ele><time>2026-04-24T08:52:13.788Z</time></trkpt><trkpt lat="45.768819" lon="8.718033"><ele>253.0</ele><time>2026-04-24T08:52:14.791Z</time></trkpt><trkpt lat="45.7687212" lon="8.717832"><ele>253.0</ele><time>2026-04-24T08:52:15.793Z</time></trkpt><trkpt lat="45.7686141" lon="8.7176221"><ele>253.0</ele><time>2026-04-24T08:52:16.793Z</time></trkpt><trkpt lat="45.7685138" lon="8.7174125"><ele>253.0</ele><time>2026-04-24T08:52:17.794Z</time></trkpt><trkpt lat="45.768401" lon="8.7171898"><ele>253.0</ele><time>2026-04-24T08:52:18.782Z</time></trkpt><trkpt lat="45.7682889" lon="8.716981"><ele>253.0</ele><time>2026-04-24T08:52:19.781Z</time></trkpt><trkpt lat="45.7681869" lon="8.7167953"><ele>253.0</ele><time>2026-04-24T08:52:20.777Z</time></trkpt><trkpt lat="45.7681257" lon="8.716667"><ele>251.4</ele><time>2026-04-24T08:52:21.779Z</time></trkpt><trkpt lat="45.7680815" lon="8.7165496"><ele>249.8</ele><time>2026-04-24T08:52:22.777Z</time></trkpt><trkpt lat="45.7680399" lon="8.7164302"><ele>248.2</ele><time>2026-04-24T08:52:23.779Z</time></trkpt><trkpt lat="45.7680481" lon="8.7163324"><ele>246.6</ele><time>2026-04-24T08:52:24.781Z</time></trkpt><trkpt lat="45.7680537" lon="8.7161625"><ele>245.0</ele><time>2026-04-24T08:52:25.784Z</time></trkpt><trkpt lat="45.7681568" lon="8.7160039"><ele>244.0</ele><time>2026-04-24T08:52:26.786Z</time></trkpt><trkpt lat="45.7682764" lon="8.7157929"><ele>243.0</ele><time>2026-04-24T08:52:27.784Z</time></trkpt><trkpt lat="45.7683489" lon="8.715574"><ele>242.0</ele><time>2026-04-24T08:52:28.783Z</time></trkpt><trkpt lat="45.768463" lon="8.7153355"><ele>241.33333333333334</ele><time>2026-04-24T08:52:29.781Z</time></trkpt><trkpt lat="45.7685664" lon="8.7150535"><ele>240.66666666666669</ele><time>2026-04-24T08:52:30.783Z</time></trkpt><trkpt lat="45.768678" lon="8.7148271"><ele>240.0</ele><time>2026-04-24T08:52:31.785Z</time></trkpt><trkpt lat="45.7687549" lon="8.714603"><ele>240.25</ele><time>2026-04-24T08:52:32.79Z</time></trkpt><trkpt lat="45.7688227" lon="8.714382"><ele>240.5</ele><time>2026-04-24T08:52:33.777Z</time></trkpt><trkpt lat="45.7688645" lon="8.7141811"><ele>240.75</ele><time>2026-04-24T08:52:34.777Z</time></trkpt><trkpt lat="45.7689194" lon="8.7140055"><ele>241.0</ele><time>2026-04-24T08:52:35.772Z</time></trkpt><trkpt lat="45.7689836" lon="8.7138335"><ele>241.0</ele><time>2026-04-24T08:52:36.775Z</time></trkpt><trkpt lat="45.7690212" lon="8.7136514"><ele>241.0</ele><time>2026-04-24T08:52:37.773Z</time></trkpt><trkpt lat="45.7690704" lon="8.7134584"><ele>241.0</ele><time>2026-04-24T08:52:38.776Z</time></trkpt><trkpt lat="45.7690925" lon="8.7132635"><ele>241.0</ele><time>2026-04-24T08:52:39.772Z</time></trkpt><trkpt lat="45.7691218" lon="8.7130395"><ele>241.33333333333331</ele><time>2026-04-24T08:52:40.776Z</time></trkpt><trkpt lat="45.7691376" lon="8.7127813"><ele>241.66666666666669</ele><time>2026-04-24T08:52:41.779Z</time></trkpt><trkpt lat="45.7691553" lon="8.7125069"><ele>242.0</ele><time>2026-04-24T08:52:42.791Z</time></trkpt><trkpt lat="45.7691923" lon="8.7122215"><ele>242.0</ele><time>2026-04-24T08:52:43.777Z</time></trkpt><trkpt lat="45.7692161" lon="8.7119457"><ele>242.0</ele><time>2026-04-24T08:52:44.786Z</time></trkpt><trkpt lat="45.7692457" lon="8.7117002"><ele>242.0</ele><time>2026-04-24T08:52:45.783Z</time></trkpt><trkpt lat="45.7692744" lon="8.7114501"><ele>242.0</ele><time>2026-04-24T08:52:46.786Z</time></trkpt><trkpt lat="45.7692739" lon="8.711209"><ele>242.0</ele><time>2026-04-24T08:52:47.782Z</time></trkpt><trkpt lat="45.7692771" lon="8.7110126"><ele>242.0</ele><time>2026-04-24T08:52:48.782Z</time></trkpt><trkpt lat="45.7693179" lon="8.7108008"><ele>242.0</ele><time>2026-04-24T08:52:49.783Z</time></trkpt><trkpt lat="45.7693372" lon="8.7105885"><ele>242.0</ele><time>2026-04-24T08:52:50.787Z</time></trkpt><trkpt lat="45.7693519" lon="8.7103716"><ele>242.0</ele><time>2026-04-24T08:52:51.784Z</time></trkpt><trkpt lat="45.7693599" lon="8.7101391"><ele>242.0</ele><time>2026-04-24T08:52:52.783Z</time></trkpt><trkpt lat="45.7693518" lon="8.7099319"><ele>242.0</ele><time>2026-04-24T08:52:53.782Z</time></trkpt><trkpt lat="45.769406" lon="8.7097791"><ele>242.0</ele><time>2026-04-24T08:52:54.785Z</time></trkpt><trkpt lat="45.7694432" lon="8.7096552"><ele>242.0</ele><time>2026-04-24T08:52:55.777Z</time></trkpt><trkpt lat="45.7694436" lon="8.7095091"><ele>242.00000000000003</ele><time>2026-04-24T08:52:56.77Z</time></trkpt><trkpt lat="45.7694518" lon="8.7094137"><ele>242.0</ele><time>2026-04-24T08:52:57.781Z</time></trkpt><trkpt lat="45.7694314" lon="8.7093182"><ele>242.0</ele><time>2026-04-24T08:52:58.783Z</time></trkpt><trkpt lat="45.7694184" lon="8.7092256"><ele>242.0</ele><time>2026-04-24T08:52:59.781Z</time></trkpt><trkpt lat="45.7693875" lon="8.709131"><ele>242.00000000000003</ele><time>2026-04-24T08:53:00.779Z</time></trkpt><trkpt lat="45.7693432" lon="8.7090094"><ele>242.0</ele><time>2026-04-24T08:53:01.79Z</time></trkpt><trkpt lat="45.769264" lon="8.7088847"><ele>242.2</ele><time>2026-04-24T08:53:02.792Z</time></trkpt><trkpt lat="45.7691865" lon="8.7087723"><ele>242.39999999999998</ele><time>2026-04-24T08:53:03.788Z</time></trkpt><trkpt lat="45.7691088" lon="8.7086491"><ele>242.60000000000002</ele><time>2026-04-24T08:53:04.784Z</time></trkpt><trkpt lat="45.769042" lon="8.7085402"><ele>242.8</ele><time>2026-04-24T08:53:05.778Z</time></trkpt><trkpt lat="45.7689728" lon="8.7084449"><ele>243.0</ele><time>2026-04-24T08:53:06.788Z</time></trkpt><trkpt lat="45.7689178" lon="8.7083468"><ele>243.5</ele><time>2026-04-24T08:53:07.779Z</time></trkpt><trkpt lat="45.7688604" lon="8.7082583"><ele>244.0</ele><time>2026-04-24T08:53:08.788Z</time></trkpt><trkpt lat="45.7687981" lon="8.7081755"><ele>244.5</ele><time>2026-04-24T08:53:09.79Z</time></trkpt><trkpt lat="45.7687378" lon="8.7080837"><ele>245.0</ele><time>2026-04-24T08:53:10.792Z</time></trkpt><trkpt lat="45.7686844" lon="8.7079715"><ele>245.5</ele><time>2026-04-24T08:53:11.791Z</time></trkpt><trkpt lat="45.7686301" lon="8.7078935"><ele>246.0</ele><time>2026-04-24T08:53:12.791Z</time></trkpt><trkpt lat="45.7685801" lon="8.7078201"><ele>246.5</ele><time>2026-04-24T08:53:13.807Z</time></trkpt><trkpt lat="45.7685325" lon="8.7077351"><ele>247.0</ele><time>2026-04-24T08:53:14.794Z</time></trkpt><trkpt lat="45.7684895" lon="8.7076456"><ele>247.5</ele><time>2026-04-24T08:53:15.793Z</time></trkpt><trkpt lat="45.7684461" lon="8.707571"><ele>248.0</ele><time>2026-04-24T08:53:16.786Z</time></trkpt><trkpt lat="45.76837" lon="8.7074454"><ele>248.5</ele><time>2026-04-24T08:53:18.787Z</time></trkpt><trkpt lat="45.7683204" lon="8.7073611"><ele>249.0</ele><time>2026-04-24T08:53:20.788Z</time></trkpt><trkpt lat="45.768361" lon="8.7074668"><ele>249.39999999999998</ele><time>2026-04-24T08:53:34.783Z</time></trkpt><trkpt lat="45.7683304" lon="8.7073602"><ele>249.79999999999998</ele><time>2026-04-24T08:53:39.78Z</time></trkpt><trkpt lat="45.7683089" lon="8.7072641"><ele>250.20000000000002</ele><time>2026-04-24T08:53:52.78Z</time></trkpt><trkpt lat="45.7682464" lon="8.7071968"><ele>250.60000000000002</ele><time>2026-04-24T08:53:53.782Z</time></trkpt><trkpt lat="45.7681373" lon="8.7070564"><ele>251.0</ele><time>2026-04-24T08:53:55.797Z</time></trkpt><trkpt lat="45.7680629" lon="8.7069664"><ele>251.0</ele><time>2026-04-24T08:53:56.793Z</time></trkpt><trkpt lat="45.7679913" lon="8.7068632"><ele>251.0</ele><time>2026-04-24T08:53:57.789Z</time></trkpt><trkpt lat="45.7679279" lon="8.7067171"><ele>251.0</ele><time>2026-04-24T08:53:58.781Z</time></trkpt><trkpt lat="45.7678661" lon="8.7065492"><ele>251.0</ele><time>2026-04-24T08:53:59.788Z</time></trkpt><trkpt lat="45.7678228" lon="8.7064102"><ele>251.0</ele><time>2026-04-24T08:54:00.779Z</time></trkpt><trkpt lat="45.7677826" lon="8.706277"><ele>251.00000000000003</ele><time>2026-04-24T08:54:01.779Z</time></trkpt><trkpt lat="45.7677425" lon="8.7061794"><ele>251.00000000000003</ele><time>2026-04-24T08:54:02.793Z</time></trkpt><trkpt lat="45.7676671" lon="8.7060739"><ele>251.0</ele><time>2026-04-24T08:54:04.782Z</time></trkpt><trkpt lat="45.7675913" lon="8.7060876"><ele>251.0</ele><time>2026-04-24T08:54:06.786Z</time></trkpt><trkpt lat="45.7675225" lon="8.7062085"><ele>252.0</ele><time>2026-04-24T08:54:08.786Z</time></trkpt><trkpt lat="45.7674756" lon="8.706384"><ele>253.00000000000003</ele><time>2026-04-24T08:54:10.789Z</time></trkpt><trkpt lat="45.7674222" lon="8.7064681"><ele>254.00000000000003</ele><time>2026-04-24T08:54:11.793Z</time></trkpt><trkpt lat="45.7673299" lon="8.7065538"><ele>255.0</ele><time>2026-04-24T08:54:13.787Z</time></trkpt><trkpt lat="45.7672627" lon="8.7066159"><ele>256.0</ele><time>2026-04-24T08:54:15.793Z</time></trkpt><trkpt lat="45.7671864" lon="8.7066873"><ele>256.0</ele><time>2026-04-24T08:54:17.784Z</time></trkpt><trkpt lat="45.7670921" lon="8.7067616"><ele>256.0</ele><time>2026-04-24T08:54:19.781Z</time></trkpt><trkpt lat="45.7670293" lon="8.7068247"><ele>256.0</ele><time>2026-04-24T08:54:20.787Z</time></trkpt><trkpt lat="45.7669704" lon="8.7069409"><ele>256.0</ele><time>2026-04-24T08:54:21.789Z</time></trkpt><trkpt lat="45.7668855" lon="8.7070702"><ele>256.0</ele><time>2026-04-24T08:54:22.788Z</time></trkpt><trkpt lat="45.7668147" lon="8.7071739"><ele>256.0</ele><time>2026-04-24T08:54:23.787Z</time></trkpt><trkpt lat="45.7667492" lon="8.707273"><ele>256.0</ele><time>2026-04-24T08:54:24.789Z</time></trkpt><trkpt lat="45.7666616" lon="8.7073683"><ele>256.0</ele><time>2026-04-24T08:54:25.787Z</time></trkpt><trkpt lat="45.7665883" lon="8.7074785"><ele>256.0</ele><time>2026-04-24T08:54:26.79Z</time></trkpt><trkpt lat="45.7665041" lon="8.7075796"><ele>256.0</ele><time>2026-04-24T08:54:27.787Z</time></trkpt><trkpt lat="45.7664115" lon="8.7076937"><ele>256.25</ele><time>2026-04-24T08:54:28.785Z</time></trkpt><trkpt lat="45.7662983" lon="8.7078026"><ele>256.5</ele><time>2026-04-24T08:54:29.781Z</time></trkpt><trkpt lat="45.7661792" lon="8.7079217"><ele>256.75</ele><time>2026-04-24T08:54:30.785Z</time></trkpt><trkpt lat="45.7660574" lon="8.708061"><ele>257.0</ele><time>2026-04-24T08:54:31.787Z</time></trkpt><trkpt lat="45.7659318" lon="8.7081992"><ele>257.0</ele><time>2026-04-24T08:54:32.801Z</time></trkpt><trkpt lat="45.7658194" lon="8.7083253"><ele>257.0</ele><time>2026-04-24T08:54:33.785Z</time></trkpt><trkpt lat="45.7657067" lon="8.7084245"><ele>257.0</ele><time>2026-04-24T08:54:34.789Z</time></trkpt><trkpt lat="45.7655642" lon="8.7085087"><ele>257.0</ele><time>2026-04-24T08:54:35.787Z</time></trkpt><trkpt lat="45.7654574" lon="8.7085592"><ele>257.0</ele><time>2026-04-24T08:54:36.79Z</time></trkpt><trkpt lat="45.765327" lon="8.7086549"><ele>257.0</ele><time>2026-04-24T08:54:37.785Z</time></trkpt><trkpt lat="45.7652128" lon="8.7087542"><ele>257.0</ele><time>2026-04-24T08:54:38.781Z</time></trkpt><trkpt lat="45.7650837" lon="8.7088709"><ele>257.0</ele><time>2026-04-24T08:54:39.777Z</time></trkpt><trkpt lat="45.7649722" lon="8.7089465"><ele>257.0</ele><time>2026-04-24T08:54:40.782Z</time></trkpt><trkpt lat="45.7648634" lon="8.7090538"><ele>257.0</ele><time>2026-04-24T08:54:41.774Z</time></trkpt><trkpt lat="45.764756" lon="8.7091487"><ele>257.0</ele><time>2026-04-24T08:54:42.775Z</time></trkpt><trkpt lat="45.7646548" lon="8.7092247"><ele>257.0</ele><time>2026-04-24T08:54:43.778Z</time></trkpt><trkpt lat="45.7645701" lon="8.7092939"><ele>257.0</ele><time>2026-04-24T08:54:44.781Z</time></trkpt><trkpt lat="45.7644716" lon="8.7093745"><ele>257.0</ele><time>2026-04-24T08:54:45.792Z</time></trkpt><trkpt lat="45.7643649" lon="8.7094731"><ele>257.0</ele><time>2026-04-24T08:54:46.778Z</time></trkpt><trkpt lat="45.7642675" lon="8.7095638"><ele>257.0</ele><time>2026-04-24T08:54:47.778Z</time></trkpt><trkpt lat="45.7641497" lon="8.7096567"><ele>256.25</ele><time>2026-04-24T08:54:48.771Z</time></trkpt><trkpt lat="45.7640376" lon="8.7097162"><ele>255.5</ele><time>2026-04-24T08:54:49.773Z</time></trkpt><trkpt lat="45.7639302" lon="8.7098053"><ele>254.75</ele><time>2026-04-24T08:54:50.78Z</time></trkpt><trkpt lat="45.7637969" lon="8.7098497"><ele>254.0</ele><time>2026-04-24T08:54:51.778Z</time></trkpt><trkpt lat="45.763638" lon="8.7098914"><ele>253.75</ele><time>2026-04-24T08:54:52.784Z</time></trkpt><trkpt lat="45.763492" lon="8.7099363"><ele>253.5</ele><time>2026-04-24T08:54:53.784Z</time></trkpt><trkpt lat="45.7633895" lon="8.7099508"><ele>253.25</ele><time>2026-04-24T08:54:54.788Z</time></trkpt><trkpt lat="45.76328" lon="8.7099685"><ele>253.0</ele><time>2026-04-24T08:54:55.784Z</time></trkpt><trkpt lat="45.7631561" lon="8.7099839"><ele>253.0</ele><time>2026-04-24T08:54:56.782Z</time></trkpt><trkpt lat="45.7630252" lon="8.7100048"><ele>253.0</ele><time>2026-04-24T08:54:57.784Z</time></trkpt><trkpt lat="45.7628731" lon="8.7100463"><ele>253.0</ele><time>2026-04-24T08:54:58.78Z</time></trkpt><trkpt lat="45.7627214" lon="8.7100976"><ele>253.0</ele><time>2026-04-24T08:54:59.777Z</time></trkpt><trkpt lat="45.7625538" lon="8.7101674"><ele>254.0</ele><time>2026-04-24T08:55:00.782Z</time></trkpt><trkpt lat="45.7624176" lon="8.7102102"><ele>255.0</ele><time>2026-04-24T08:55:01.782Z</time></trkpt><trkpt lat="45.7622766" lon="8.7102595"><ele>256.0</ele><time>2026-04-24T08:55:02.799Z</time></trkpt><trkpt lat="45.7621433" lon="8.7103098"><ele>257.0</ele><time>2026-04-24T08:55:03.78Z</time></trkpt><trkpt lat="45.7620189" lon="8.7103237"><ele>254.66666666666669</ele><time>2026-04-24T08:55:04.79Z</time></trkpt><trkpt lat="45.7618489" lon="8.7103469"><ele>252.33333333333331</ele><time>2026-04-24T08:55:05.785Z</time></trkpt><trkpt lat="45.7617162" lon="8.7103717"><ele>250.0</ele><time>2026-04-24T08:55:06.787Z</time></trkpt><trkpt lat="45.7615639" lon="8.7103694"><ele>250.0</ele><time>2026-04-24T08:55:07.778Z</time></trkpt><trkpt lat="45.761445" lon="8.7103697"><ele>250.0</ele><time>2026-04-24T08:55:08.785Z</time></trkpt><trkpt lat="45.7613199" lon="8.7103855"><ele>250.0</ele><time>2026-04-24T08:55:09.777Z</time></trkpt><trkpt lat="45.7611984" lon="8.710389"><ele>250.0</ele><time>2026-04-24T08:55:10.784Z</time></trkpt><trkpt lat="45.761079" lon="8.7103915"><ele>250.66666666666666</ele><time>2026-04-24T08:55:11.784Z</time></trkpt><trkpt lat="45.7609852" lon="8.7103984"><ele>251.33333333333331</ele><time>2026-04-24T08:55:12.784Z</time></trkpt><trkpt lat="45.7609027" lon="8.7104044"><ele>252.0</ele><time>2026-04-24T08:55:13.773Z</time></trkpt><trkpt lat="45.7608077" lon="8.7103899"><ele>252.66666666666669</ele><time>2026-04-24T08:55:14.776Z</time></trkpt><trkpt lat="45.7607395" lon="8.7103695"><ele>253.33333333333334</ele><time>2026-04-24T08:55:15.773Z</time></trkpt><trkpt lat="45.7606662" lon="8.710317"><ele>254.0</ele><time>2026-04-24T08:55:16.79Z</time></trkpt><trkpt lat="45.7606753" lon="8.710217"><ele>256.4</ele><time>2026-04-24T08:55:17.775Z</time></trkpt><trkpt lat="45.7606793" lon="8.7101207"><ele>258.79999999999995</ele><time>2026-04-24T08:55:18.777Z</time></trkpt><trkpt lat="45.760643" lon="8.7099819"><ele>261.20000000000005</ele><time>2026-04-24T08:55:20.782Z</time></trkpt><trkpt lat="45.7605358" lon="8.7099302"><ele>263.6</ele><time>2026-04-24T08:55:22.783Z</time></trkpt><trkpt lat="45.7604332" lon="8.7098898"><ele>266.0</ele><time>2026-04-24T08:55:24.78Z</time></trkpt><trkpt lat="45.7603706" lon="8.7098557"><ele>266.0</ele><time>2026-04-24T08:55:26.787Z</time></trkpt><trkpt lat="45.7602855" lon="8.7097989"><ele>266.0</ele><time>2026-04-24T08:55:29.791Z</time></trkpt><trkpt lat="45.7602012" lon="8.7097421"><ele>266.0</ele><time>2026-04-24T08:55:31.785Z</time></trkpt><trkpt lat="45.7601269" lon="8.7096501"><ele>266.0</ele><time>2026-04-24T08:55:33.798Z</time></trkpt><trkpt lat="45.7600484" lon="8.7095533"><ele>266.0</ele><time>2026-04-24T08:55:35.787Z</time></trkpt><trkpt lat="45.7599602" lon="8.7094675"><ele>265.40000000000003</ele><time>2026-04-24T08:55:37.786Z</time></trkpt><trkpt lat="45.7598817" lon="8.709384"><ele>264.8</ele><time>2026-04-24T08:55:39.78Z</time></trkpt><trkpt lat="45.7598064" lon="8.7093349"><ele>264.20000000000005</ele><time>2026-04-24T08:55:41.779Z</time></trkpt><trkpt lat="45.7597291" lon="8.7093422"><ele>263.6</ele><time>2026-04-24T08:55:43.782Z</time></trkpt><trkpt lat="45.7596584" lon="8.7093377"><ele>263.0</ele><time>2026-04-24T08:55:51.8Z</time></trkpt><trkpt lat="45.7595945" lon="8.7094857"><ele>263.0</ele><time>2026-04-24T08:55:53.788Z</time></trkpt><trkpt lat="45.7595538" lon="8.7095582"><ele>263.0</ele><time>2026-04-24T08:55:55.791Z</time></trkpt><trkpt lat="45.7596114" lon="8.7095039"><ele>263.0</ele><time>2026-04-24T08:55:59.801Z</time></trkpt><trkpt lat="45.7596745" lon="8.709505"><ele>263.0</ele><time>2026-04-24T08:56:03.79Z</time></trkpt><trkpt lat="45.7597324" lon="8.7095724"><ele>263.0</ele><time>2026-04-24T08:56:10.802Z</time></trkpt><trkpt lat="45.7597846" lon="8.7095048"><ele>263.0</ele><time>2026-04-24T08:56:17.789Z</time></trkpt><trkpt lat="45.7597912" lon="8.7094145"><ele>263.0</ele><time>2026-04-24T08:56:25.806Z</time></trkpt><trkpt lat="45.7597238" lon="8.7093843"><ele>263.0</ele><time>2026-04-24T08:56:29.797Z</time></trkpt><trkpt lat="45.7597056" lon="8.7092735"><ele>263.0</ele><time>2026-04-24T08:56:35.791Z</time></trkpt><trkpt lat="45.7596347" lon="8.709415"><ele>263.0</ele><time>2026-04-24T08:57:02.806Z</time></trkpt><trkpt lat="45.7595858" lon="8.7093495"><ele>263.0</ele><time>2026-04-24T08:57:17.783Z</time></trkpt><trkpt lat="45.7596575" lon="8.709362"><ele>263.0</ele><time>2026-04-24T08:57:27.799Z</time></trkpt><trkpt lat="45.7597238" lon="8.7093481"><ele>263.0</ele><time>2026-04-24T08:57:32.815Z</time></trkpt><trkpt lat="45.7597415" lon="8.7094368"><ele>266.6</ele><time>2026-04-24T08:57:37.782Z</time></trkpt><trkpt lat="45.7597954" lon="8.7092529"><ele>270.20000000000005</ele><time>2026-04-24T08:57:47.791Z</time></trkpt><trkpt lat="45.759868" lon="8.7091913"><ele>273.8</ele><time>2026-04-24T08:57:53.778Z</time></trkpt><trkpt lat="45.7597842" lon="8.7092044"><ele>277.40000000000003</ele><time>2026-04-24T08:58:01.798Z</time></trkpt><trkpt lat="45.7597237" lon="8.7092905"><ele>281.0</ele><time>2026-04-24T08:58:14.79Z</time></trkpt><trkpt lat="45.7597071" lon="8.7091873"><ele>281.00000000000006</ele><time>2026-04-24T08:58:46.797Z</time></trkpt><trkpt lat="45.7596766" lon="8.7092813"><ele>281.0</ele><time>2026-04-24T08:58:55.803Z</time></trkpt><trkpt lat="45.7596898" lon="8.7091718"><ele>281.0</ele><time>2026-04-24T08:59:07.788Z</time></trkpt><trkpt lat="45.7596692" lon="8.7092573"><ele>281.0</ele><time>2026-04-24T08:59:13.791Z</time></trkpt><trkpt lat="45.7596418" lon="8.7093518"><ele>281.0</ele><time>2026-04-24T08:59:18.8Z</time></trkpt><trkpt lat="45.7597075" lon="8.7092801"><ele>281.00000000000006</ele><time>2026-04-24T08:59:32.794Z</time></trkpt><trkpt lat="45.7597669" lon="8.7092457"><ele>281.0</ele><time>2026-04-24T08:59:37.781Z</time></trkpt><trkpt lat="45.7597186" lon="8.7093141"><ele>281.0</ele><time>2026-04-24T08:59:39.786Z</time></trkpt><trkpt lat="45.7596248" lon="8.7093546"><ele>281.0</ele><time>2026-04-24T09:00:04.793Z</time></trkpt><trkpt lat="45.7596909" lon="8.7093057"><ele>281.0</ele><time>2026-04-24T09:00:13.789Z</time></trkpt><trkpt lat="45.7596012" lon="8.7092741"><ele>281.0</ele><time>2026-04-24T09:05:57.816Z</time></trkpt><trkpt lat="45.7595286" lon="8.7092653"><ele>281.0</ele><time>2026-04-24T09:05:58.818Z</time></trkpt><trkpt lat="45.7594399" lon="8.7092659"><ele>281.0</ele><time>2026-04-24T09:05:59.818Z</time></trkpt><trkpt lat="45.759347" lon="8.7092533"><ele>281.40000000000003</ele><time>2026-04-24T09:06:00.824Z</time></trkpt><trkpt lat="45.7592648" lon="8.709235"><ele>281.8</ele><time>2026-04-24T09:06:01.814Z</time></trkpt><trkpt lat="45.7591644" lon="8.7092126"><ele>282.20000000000005</ele><time>2026-04-24T09:06:02.819Z</time></trkpt><trkpt lat="45.7590682" lon="8.709179"><ele>282.6</ele><time>2026-04-24T09:06:03.817Z</time></trkpt><trkpt lat="45.75896" lon="8.7091425"><ele>283.0</ele><time>2026-04-24T09:06:04.824Z</time></trkpt><trkpt lat="45.7588643" lon="8.7090987"><ele>283.0</ele><time>2026-04-24T09:06:05.826Z</time></trkpt><trkpt lat="45.7587637" lon="8.7090539"><ele>283.0</ele><time>2026-04-24T09:06:06.842Z</time></trkpt><trkpt lat="45.7586552" lon="8.7090046"><ele>283.0</ele><time>2026-04-24T09:06:07.825Z</time></trkpt><trkpt lat="45.7585574" lon="8.708973"><ele>283.0</ele><time>2026-04-24T09:06:08.824Z</time></trkpt><trkpt lat="45.7584581" lon="8.7089556"><ele>283.0</ele><time>2026-04-24T09:06:09.82Z</time></trkpt><trkpt lat="45.7583527" lon="8.708937"><ele>284.25</ele><time>2026-04-24T09:06:10.82Z</time></trkpt><trkpt lat="45.7582366" lon="8.7089283"><ele>285.5</ele><time>2026-04-24T09:06:11.814Z</time></trkpt><trkpt lat="45.758118" lon="8.7089415"><ele>286.75</ele><time>2026-04-24T09:06:12.817Z</time></trkpt><trkpt lat="45.7579908" lon="8.7089498"><ele>288.0</ele><time>2026-04-24T09:06:13.816Z</time></trkpt><trkpt lat="45.7578742" lon="8.708977"><ele>288.0</ele><time>2026-04-24T09:06:14.817Z</time></trkpt><trkpt lat="45.7577532" lon="8.7090202"><ele>288.0</ele><time>2026-04-24T09:06:15.818Z</time></trkpt><trkpt lat="45.757639" lon="8.709087"><ele>288.0</ele><time>2026-04-24T09:06:16.815Z</time></trkpt><trkpt lat="45.7575354" lon="8.7091716"><ele>288.0</ele><time>2026-04-24T09:06:17.82Z</time></trkpt><trkpt lat="45.7574368" lon="8.7092538"><ele>287.0</ele><time>2026-04-24T09:06:18.818Z</time></trkpt><trkpt lat="45.757338" lon="8.7093258"><ele>286.0</ele><time>2026-04-24T09:06:19.817Z</time></trkpt><trkpt lat="45.7572406" lon="8.709381"><ele>285.0</ele><time>2026-04-24T09:06:20.818Z</time></trkpt><trkpt lat="45.7571329" lon="8.7094177"><ele>284.0</ele><time>2026-04-24T09:06:21.819Z</time></trkpt><trkpt lat="45.7570319" lon="8.709433"><ele>283.0</ele><time>2026-04-24T09:06:22.816Z</time></trkpt><trkpt lat="45.7569298" lon="8.7094176"><ele>286.6</ele><time>2026-04-24T09:06:23.817Z</time></trkpt><trkpt lat="45.7568295" lon="8.7093998"><ele>290.20000000000005</ele><time>2026-04-24T09:06:24.812Z</time></trkpt><trkpt lat="45.7567276" lon="8.7093506"><ele>293.8</ele><time>2026-04-24T09:06:25.815Z</time></trkpt><trkpt lat="45.7566367" lon="8.7092881"><ele>297.40000000000003</ele><time>2026-04-24T09:06:26.807Z</time></trkpt><trkpt lat="45.7565439" lon="8.7092068"><ele>301.0</ele><time>2026-04-24T09:06:27.813Z</time></trkpt><trkpt lat="45.756447" lon="8.7091135"><ele>301.0</ele><time>2026-04-24T09:06:28.806Z</time></trkpt><trkpt lat="45.7563657" lon="8.7090249"><ele>301.0</ele><time>2026-04-24T09:06:29.81Z</time></trkpt><trkpt lat="45.7562818" lon="8.7089455"><ele>301.0</ele><time>2026-04-24T09:06:30.812Z</time></trkpt><trkpt lat="45.7561952" lon="8.7088629"><ele>301.0</ele><time>2026-04-24T09:06:31.811Z</time></trkpt><trkpt lat="45.7561118" lon="8.7087812"><ele>301.0</ele><time>2026-04-24T09:06:32.817Z</time></trkpt><trkpt lat="45.7560265" lon="8.7087109"><ele>301.3333333333333</ele><time>2026-04-24T09:06:33.808Z</time></trkpt><trkpt lat="45.7559588" lon="8.7086486"><ele>301.66666666666663</ele><time>2026-04-24T09:06:34.81Z</time></trkpt><trkpt lat="45.7558951" lon="8.7085813"><ele>302.0</ele><time>2026-04-24T09:06:35.809Z</time></trkpt><trkpt lat="45.7558304" lon="8.7084742"><ele>302.3333333333333</ele><time>2026-04-24T09:06:37.82Z</time></trkpt><trkpt lat="45.7558926" lon="8.7083954"><ele>302.6666666666667</ele><time>2026-04-24T09:06:40.799Z</time></trkpt><trkpt lat="45.7559578" lon="8.7083731"><ele>303.0</ele><time>2026-04-24T09:06:41.811Z</time></trkpt><trkpt lat="45.7560495" lon="8.7083642"><ele>305.75</ele><time>2026-04-24T09:06:42.809Z</time></trkpt><trkpt lat="45.7561538" lon="8.7083385"><ele>308.5</ele><time>2026-04-24T09:06:43.811Z</time></trkpt><trkpt lat="45.7562812" lon="8.7083189"><ele>311.25</ele><time>2026-04-24T09:06:44.802Z</time></trkpt><trkpt lat="45.756417" lon="8.7082946"><ele>314.0</ele><time>2026-04-24T09:06:45.809Z</time></trkpt><trkpt lat="45.7565456" lon="8.708289"><ele>314.0</ele><time>2026-04-24T09:06:46.81Z</time></trkpt><trkpt lat="45.756643" lon="8.7082881"><ele>314.0</ele><time>2026-04-24T09:06:47.808Z</time></trkpt><trkpt lat="45.7567475" lon="8.7082734"><ele>314.0</ele><time>2026-04-24T09:06:48.809Z</time></trkpt><trkpt lat="45.7568369" lon="8.7082513"><ele>314.0</ele><time>2026-04-24T09:06:49.807Z</time></trkpt><trkpt lat="45.7569329" lon="8.7082193"><ele>314.0</ele><time>2026-04-24T09:06:50.804Z</time></trkpt><trkpt lat="45.757002" lon="8.708198"><ele>314.0</ele><time>2026-04-24T09:06:51.8Z</time></trkpt><trkpt lat="45.7570638" lon="8.7081445"><ele>314.0</ele><time>2026-04-24T09:06:53.805Z</time></trkpt><trkpt lat="45.7569231" lon="8.7080687"><ele>314.0</ele><time>2026-04-24T09:06:56.809Z</time></trkpt><trkpt lat="45.7567728" lon="8.7080082"><ele>314.0</ele><time>2026-04-24T09:06:57.807Z</time></trkpt><trkpt lat="45.7566069" lon="8.7079436"><ele>314.0</ele><time>2026-04-24T09:06:58.804Z</time></trkpt><trkpt lat="45.7564446" lon="8.7078881"><ele>314.0</ele><time>2026-04-24T09:06:59.808Z</time></trkpt><trkpt lat="45.7562769" lon="8.7078073"><ele>314.0</ele><time>2026-04-24T09:07:00.807Z</time></trkpt><trkpt lat="45.7560989" lon="8.7077326"><ele>318.0</ele><time>2026-04-24T09:07:01.803Z</time></trkpt><trkpt lat="45.7559235" lon="8.7076493"><ele>322.0</ele><time>2026-04-24T09:07:02.806Z</time></trkpt><trkpt lat="45.755758" lon="8.7075664"><ele>326.0</ele><time>2026-04-24T09:07:03.808Z</time></trkpt><trkpt lat="45.7555858" lon="8.7074727"><ele>326.0</ele><time>2026-04-24T09:07:04.809Z</time></trkpt><trkpt lat="45.7553905" lon="8.7073987"><ele>326.0</ele><time>2026-04-24T09:07:05.804Z</time></trkpt><trkpt lat="45.7552131" lon="8.7073216"><ele>326.0</ele><time>2026-04-24T09:07:06.813Z</time></trkpt><trkpt lat="45.7550545" lon="8.7072641"><ele>324.6666666666667</ele><time>2026-04-24T09:07:07.807Z</time></trkpt><trkpt lat="45.7549025" lon="8.7071935"><ele>323.3333333333333</ele><time>2026-04-24T09:07:08.821Z</time></trkpt><trkpt lat="45.7547509" lon="8.7071217"><ele>322.0</ele><time>2026-04-24T09:07:09.806Z</time></trkpt><trkpt lat="45.7546151" lon="8.70704"><ele>322.0</ele><time>2026-04-24T09:07:10.81Z</time></trkpt><trkpt lat="45.7544788" lon="8.7069651"><ele>322.0</ele><time>2026-04-24T09:07:11.811Z</time></trkpt><trkpt lat="45.7543675" lon="8.7068815"><ele>322.0</ele><time>2026-04-24T09:07:12.803Z</time></trkpt><trkpt lat="45.7542425" lon="8.7068035"><ele>322.0</ele><time>2026-04-24T09:07:13.813Z</time></trkpt><trkpt lat="45.7541141" lon="8.706719"><ele>325.75</ele><time>2026-04-24T09:07:14.812Z</time></trkpt><trkpt lat="45.7539724" lon="8.706645"><ele>329.5</ele><time>2026-04-24T09:07:15.807Z</time></trkpt><trkpt lat="45.753843" lon="8.7065712"><ele>333.25</ele><time>2026-04-24T09:07:16.811Z</time></trkpt><trkpt lat="45.7536953" lon="8.7065151"><ele>337.0</ele><time>2026-04-24T09:07:17.803Z</time></trkpt><trkpt lat="45.7535455" lon="8.7064291"><ele>335.3333333333333</ele><time>2026-04-24T09:07:18.809Z</time></trkpt><trkpt lat="45.7533993" lon="8.7063447"><ele>333.6666666666667</ele><time>2026-04-24T09:07:19.808Z</time></trkpt><trkpt lat="45.7532557" lon="8.7062522"><ele>332.0</ele><time>2026-04-24T09:07:20.809Z</time></trkpt><trkpt lat="45.7531097" lon="8.7061748"><ele>332.0</ele><time>2026-04-24T09:07:21.809Z</time></trkpt><trkpt lat="45.7529576" lon="8.7061146"><ele>332.0</ele><time>2026-04-24T09:07:22.807Z</time></trkpt><trkpt lat="45.7528164" lon="8.7060649"><ele>332.0</ele><time>2026-04-24T09:07:23.804Z</time></trkpt><trkpt lat="45.7527114" lon="8.7060107"><ele>332.0</ele><time>2026-04-24T09:07:24.807Z</time></trkpt><trkpt lat="45.7526121" lon="8.705995"><ele>329.75</ele><time>2026-04-24T09:07:25.813Z</time></trkpt><trkpt lat="45.7525231" lon="8.7060122"><ele>327.5</ele><time>2026-04-24T09:07:26.819Z</time></trkpt><trkpt lat="45.7524075" lon="8.7060634"><ele>325.25</ele><time>2026-04-24T09:07:27.815Z</time></trkpt><trkpt lat="45.7522975" lon="8.7061519"><ele>323.0</ele><time>2026-04-24T09:07:28.816Z</time></trkpt><trkpt lat="45.7521563" lon="8.7062513"><ele>323.0</ele><time>2026-04-24T09:07:29.806Z</time></trkpt><trkpt lat="45.7520111" lon="8.7063487"><ele>323.0</ele><time>2026-04-24T09:07:30.811Z</time></trkpt><trkpt lat="45.751876" lon="8.7064155"><ele>323.0</ele><time>2026-04-24T09:07:31.806Z</time></trkpt><trkpt lat="45.7517387" lon="8.7064499"><ele>323.0</ele><time>2026-04-24T09:07:32.811Z</time></trkpt><trkpt lat="45.7516084" lon="8.7064981"><ele>325.0</ele><time>2026-04-24T09:07:33.807Z</time></trkpt><trkpt lat="45.7514967" lon="8.7065071"><ele>327.0</ele><time>2026-04-24T09:07:34.81Z</time></trkpt><trkpt lat="45.7513709" lon="8.706502"><ele>329.0</ele><time>2026-04-24T09:07:35.807Z</time></trkpt><trkpt lat="45.751248" lon="8.7064461"><ele>331.0</ele><time>2026-04-24T09:07:36.814Z</time></trkpt><trkpt lat="45.7511076" lon="8.7063927"><ele>332.66666666666663</ele><time>2026-04-24T09:07:37.814Z</time></trkpt><trkpt lat="45.7509604" lon="8.706337"><ele>334.3333333333333</ele><time>2026-04-24T09:07:38.814Z</time></trkpt><trkpt lat="45.7508067" lon="8.7062858"><ele>336.0</ele><time>2026-04-24T09:07:39.824Z</time></trkpt><trkpt lat="45.7506389" lon="8.7062439"><ele>336.0</ele><time>2026-04-24T09:07:40.809Z</time></trkpt><trkpt lat="45.7504519" lon="8.7062174"><ele>336.0</ele><time>2026-04-24T09:07:41.808Z</time></trkpt><trkpt lat="45.7502527" lon="8.7061815"><ele>336.0</ele><time>2026-04-24T09:07:42.803Z</time></trkpt><trkpt lat="45.7500391" lon="8.7061442"><ele>335.6666666666667</ele><time>2026-04-24T09:07:43.814Z</time></trkpt><trkpt lat="45.7498248" lon="8.7060853"><ele>335.33333333333337</ele><time>2026-04-24T09:07:44.813Z</time></trkpt><trkpt lat="45.7496114" lon="8.7060308"><ele>335.0</ele><time>2026-04-24T09:07:45.813Z</time></trkpt><trkpt lat="45.7493966" lon="8.7060012"><ele>337.33333333333337</ele><time>2026-04-24T09:07:46.814Z</time></trkpt><trkpt lat="45.7491847" lon="8.7059632"><ele>339.6666666666667</ele><time>2026-04-24T09:07:47.815Z</time></trkpt><trkpt lat="45.7489745" lon="8.7059243"><ele>342.0</ele><time>2026-04-24T09:07:48.817Z</time></trkpt><trkpt lat="45.7487651" lon="8.7058877"><ele>342.0</ele><time>2026-04-24T09:07:49.816Z</time></trkpt><trkpt lat="45.7485504" lon="8.7058317"><ele>342.0</ele><time>2026-04-24T09:07:50.819Z</time></trkpt><trkpt lat="45.7483515" lon="8.7057644"><ele>342.0</ele><time>2026-04-24T09:07:51.816Z</time></trkpt><trkpt lat="45.748177" lon="8.7056929"><ele>343.3333333333333</ele><time>2026-04-24T09:07:52.816Z</time></trkpt><trkpt lat="45.7480092" lon="8.7056228"><ele>344.66666666666663</ele><time>2026-04-24T09:07:53.813Z</time></trkpt><trkpt lat="45.747842" lon="8.7055467"><ele>346.0</ele><time>2026-04-24T09:07:54.823Z</time></trkpt><trkpt lat="45.747668" lon="8.7054998"><ele>347.3333333333333</ele><time>2026-04-24T09:07:55.812Z</time></trkpt><trkpt lat="45.7475149" lon="8.7054065"><ele>348.6666666666667</ele><time>2026-04-24T09:07:56.815Z</time></trkpt><trkpt lat="45.7473399" lon="8.7053316"><ele>350.0</ele><time>2026-04-24T09:07:57.811Z</time></trkpt><trkpt lat="45.7471623" lon="8.7052263"><ele>353.33333333333337</ele><time>2026-04-24T09:07:58.814Z</time></trkpt><trkpt lat="45.746983" lon="8.7051556"><ele>356.6666666666667</ele><time>2026-04-24T09:07:59.81Z</time></trkpt><trkpt lat="45.7468256" lon="8.7050831"><ele>360.0</ele><time>2026-04-24T09:08:00.814Z</time></trkpt><trkpt lat="45.746682" lon="8.705029"><ele>360.0</ele><time>2026-04-24T09:08:01.802Z</time></trkpt><trkpt lat="45.7465421" lon="8.7049721"><ele>360.0</ele><time>2026-04-24T09:08:02.808Z</time></trkpt><trkpt lat="45.7464424" lon="8.7049059"><ele>360.0</ele><time>2026-04-24T09:08:03.811Z</time></trkpt><trkpt lat="45.7463326" lon="8.7048454"><ele>360.0</ele><time>2026-04-24T09:08:04.81Z</time></trkpt><trkpt lat="45.7462473" lon="8.7048106"><ele>360.0</ele><time>2026-04-24T09:08:05.81Z</time></trkpt><trkpt lat="45.7461705" lon="8.7047784"><ele>360.0</ele><time>2026-04-24T09:08:06.809Z</time></trkpt><trkpt lat="45.7460911" lon="8.7047332"><ele>360.0</ele><time>2026-04-24T09:08:07.806Z</time></trkpt><trkpt lat="45.7460222" lon="8.7046936"><ele>360.0</ele><time>2026-04-24T09:08:08.818Z</time></trkpt><trkpt lat="45.7459323" lon="8.7046018"><ele>360.0</ele><time>2026-04-24T09:08:10.82Z</time></trkpt><trkpt lat="45.7459216" lon="8.7044695"><ele>360.0</ele><time>2026-04-24T09:08:12.806Z</time></trkpt><trkpt lat="45.7459239" lon="8.7043715"><ele>360.0</ele><time>2026-04-24T09:08:13.806Z</time></trkpt><trkpt lat="45.7459363" lon="8.7042675"><ele>360.0</ele><time>2026-04-24T09:08:14.8Z</time></trkpt><trkpt lat="45.7459515" lon="8.7041603"><ele>360.0</ele><time>2026-04-24T09:08:15.807Z</time></trkpt><trkpt lat="45.7459436" lon="8.704048"><ele>360.0</ele><time>2026-04-24T09:08:16.813Z</time></trkpt><trkpt lat="45.745942" lon="8.7039457"><ele>360.0</ele><time>2026-04-24T09:08:17.808Z</time></trkpt><trkpt lat="45.7459128" lon="8.7037741"><ele>360.0</ele><time>2026-04-24T09:08:19.809Z</time></trkpt><trkpt lat="45.7458141" lon="8.7036464"><ele>361.8333333333333</ele><time>2026-04-24T09:08:21.814Z</time></trkpt><trkpt lat="45.7457486" lon="8.7035799"><ele>363.6666666666667</ele><time>2026-04-24T09:08:22.819Z</time></trkpt><trkpt lat="45.7456769" lon="8.70351"><ele>365.5</ele><time>2026-04-24T09:08:23.818Z</time></trkpt><trkpt lat="45.7456165" lon="8.703441"><ele>367.33333333333337</ele><time>2026-04-24T09:08:24.826Z</time></trkpt><trkpt lat="45.7455698" lon="8.7033729"><ele>369.1666666666667</ele><time>2026-04-24T09:08:25.823Z</time></trkpt><trkpt lat="45.7455081" lon="8.7033187"><ele>371.0</ele><time>2026-04-24T09:08:26.829Z</time></trkpt><trkpt lat="45.7454198" lon="8.7032142"><ele>371.0</ele><time>2026-04-24T09:08:28.827Z</time></trkpt><trkpt lat="45.745325" lon="8.7031192"><ele>371.0</ele><time>2026-04-24T09:08:30.824Z</time></trkpt><trkpt lat="45.7452172" lon="8.7030182"><ele>371.0</ele><time>2026-04-24T09:08:32.825Z</time></trkpt><trkpt lat="45.745163" lon="8.7029524"><ele>371.0</ele><time>2026-04-24T09:08:33.819Z</time></trkpt><trkpt lat="45.7451005" lon="8.7028789"><ele>371.0</ele><time>2026-04-24T09:08:34.817Z</time></trkpt><trkpt lat="45.7450396" lon="8.7027844"><ele>368.20000000000005</ele><time>2026-04-24T09:08:35.814Z</time></trkpt><trkpt lat="45.7449745" lon="8.7026783"><ele>365.40000000000003</ele><time>2026-04-24T09:08:36.818Z</time></trkpt><trkpt lat="45.7449249" lon="8.7025681"><ele>362.6</ele><time>2026-04-24T09:08:37.816Z</time></trkpt><trkpt lat="45.7448572" lon="8.7024614"><ele>359.8</ele><time>2026-04-24T09:08:38.821Z</time></trkpt><trkpt lat="45.7447896" lon="8.7023791"><ele>357.0</ele><time>2026-04-24T09:08:39.811Z</time></trkpt><trkpt lat="45.7447277" lon="8.702311"><ele>357.0</ele><time>2026-04-24T09:08:40.813Z</time></trkpt><trkpt lat="45.7446572" lon="8.7022614"><ele>357.0</ele><time>2026-04-24T09:08:41.826Z</time></trkpt><trkpt lat="45.7445784" lon="8.702221"><ele>357.0</ele><time>2026-04-24T09:08:42.82Z</time></trkpt><trkpt lat="45.7444803" lon="8.7021729"><ele>357.0</ele><time>2026-04-24T09:08:43.823Z</time></trkpt><trkpt lat="45.7443851" lon="8.702121"><ele>357.0</ele><time>2026-04-24T09:08:44.82Z</time></trkpt><trkpt lat="45.7442883" lon="8.7020686"><ele>355.20000000000005</ele><time>2026-04-24T09:08:45.814Z</time></trkpt><trkpt lat="45.7441887" lon="8.702017"><ele>353.4</ele><time>2026-04-24T09:08:46.818Z</time></trkpt><trkpt lat="45.7440817" lon="8.7019734"><ele>351.6</ele><time>2026-04-24T09:08:47.816Z</time></trkpt><trkpt lat="45.743973" lon="8.7019397"><ele>349.79999999999995</ele><time>2026-04-24T09:08:48.817Z</time></trkpt><trkpt lat="45.7438736" lon="8.7019093"><ele>348.0</ele><time>2026-04-24T09:08:49.811Z</time></trkpt><trkpt lat="45.7437726" lon="8.701929"><ele>346.2</ele><time>2026-04-24T09:08:50.81Z</time></trkpt><trkpt lat="45.7436741" lon="8.7019907"><ele>344.4</ele><time>2026-04-24T09:08:51.808Z</time></trkpt><trkpt lat="45.7435827" lon="8.7020732"><ele>342.59999999999997</ele><time>2026-04-24T09:08:52.812Z</time></trkpt><trkpt lat="45.7434897" lon="8.702161"><ele>340.79999999999995</ele><time>2026-04-24T09:08:53.805Z</time></trkpt><trkpt lat="45.7433981" lon="8.7022521"><ele>339.0</ele><time>2026-04-24T09:08:54.811Z</time></trkpt><trkpt lat="45.7433091" lon="8.7023484"><ele>338.79999999999995</ele><time>2026-04-24T09:08:55.809Z</time></trkpt><trkpt lat="45.7432144" lon="8.7024582"><ele>338.59999999999997</ele><time>2026-04-24T09:08:56.812Z</time></trkpt><trkpt lat="45.7431237" lon="8.7025482"><ele>338.4</ele><time>2026-04-24T09:08:57.817Z</time></trkpt><trkpt lat="45.7430467" lon="8.7026026"><ele>338.2</ele><time>2026-04-24T09:08:58.815Z</time></trkpt><trkpt lat="45.7429745" lon="8.7026632"><ele>338.0</ele><time>2026-04-24T09:08:59.817Z</time></trkpt><trkpt lat="45.742905" lon="8.7027422"><ele>336.6666666666667</ele><time>2026-04-24T09:09:00.814Z</time></trkpt><trkpt lat="45.7428415" lon="8.7028141"><ele>335.33333333333337</ele><time>2026-04-24T09:09:01.817Z</time></trkpt><trkpt lat="45.7427731" lon="8.7029146"><ele>334.0</ele><time>2026-04-24T09:09:02.824Z</time></trkpt><trkpt lat="45.7427225" lon="8.7030061"><ele>332.6666666666667</ele><time>2026-04-24T09:09:03.816Z</time></trkpt><trkpt lat="45.742671" lon="8.703087"><ele>331.3333333333333</ele><time>2026-04-24T09:09:04.82Z</time></trkpt><trkpt lat="45.7425994" lon="8.7031473"><ele>330.0</ele><time>2026-04-24T09:09:05.813Z</time></trkpt><trkpt lat="45.7425076" lon="8.703211"><ele>330.0</ele><time>2026-04-24T09:09:06.813Z</time></trkpt><trkpt lat="45.7424183" lon="8.7032801"><ele>330.0</ele><time>2026-04-24T09:09:07.809Z</time></trkpt><trkpt lat="45.7423298" lon="8.7033577"><ele>330.0</ele><time>2026-04-24T09:09:08.815Z</time></trkpt><trkpt lat="45.7422392" lon="8.7034306"><ele>330.0</ele><time>2026-04-24T09:09:09.814Z</time></trkpt><trkpt lat="45.7421557" lon="8.7035036"><ele>330.0</ele><time>2026-04-24T09:09:10.821Z</time></trkpt><trkpt lat="45.7420683" lon="8.703591"><ele>329.6</ele><time>2026-04-24T09:09:11.817Z</time></trkpt><trkpt lat="45.7419905" lon="8.7036787"><ele>329.2</ele><time>2026-04-24T09:09:12.835Z</time></trkpt><trkpt lat="45.7419154" lon="8.7037845"><ele>328.79999999999995</ele><time>2026-04-24T09:09:13.82Z</time></trkpt><trkpt lat="45.7418369" lon="8.7038957"><ele>328.4</ele><time>2026-04-24T09:09:14.818Z</time></trkpt><trkpt lat="45.741771" lon="8.704017"><ele>328.0</ele><time>2026-04-24T09:09:15.817Z</time></trkpt><trkpt lat="45.7417099" lon="8.7041433"><ele>326.59999999999997</ele><time>2026-04-24T09:09:16.815Z</time></trkpt><trkpt lat="45.7416487" lon="8.7042702"><ele>325.2</ele><time>2026-04-24T09:09:17.813Z</time></trkpt><trkpt lat="45.7415979" lon="8.7043834"><ele>323.8</ele><time>2026-04-24T09:09:18.806Z</time></trkpt><trkpt lat="45.7415486" lon="8.7044945"><ele>322.4</ele><time>2026-04-24T09:09:19.817Z</time></trkpt><trkpt lat="45.7415017" lon="8.7046128"><ele>321.0</ele><time>2026-04-24T09:09:20.816Z</time></trkpt><trkpt lat="45.7414578" lon="8.7047437"><ele>321.0</ele><time>2026-04-24T09:09:21.82Z</time></trkpt><trkpt lat="45.7414153" lon="8.7048821"><ele>321.0</ele><time>2026-04-24T09:09:22.823Z</time></trkpt><trkpt lat="45.7413834" lon="8.7050102"><ele>321.0</ele><time>2026-04-24T09:09:23.818Z</time></trkpt><trkpt lat="45.7413409" lon="8.7051419"><ele>321.0</ele><time>2026-04-24T09:09:24.821Z</time></trkpt><trkpt lat="45.7413033" lon="8.7052744"><ele>321.0</ele><time>2026-04-24T09:09:25.825Z</time></trkpt><trkpt lat="45.7412673" lon="8.7054108"><ele>321.0</ele><time>2026-04-24T09:09:26.83Z</time></trkpt><trkpt lat="45.7412306" lon="8.705552"><ele>321.0</ele><time>2026-04-24T09:09:27.834Z</time></trkpt><trkpt lat="45.7411993" lon="8.7056979"><ele>321.0</ele><time>2026-04-24T09:09:28.832Z</time></trkpt><trkpt lat="45.7411656" lon="8.7058436"><ele>321.0</ele><time>2026-04-24T09:09:29.829Z</time></trkpt><trkpt lat="45.7411273" lon="8.7059884"><ele>321.0</ele><time>2026-04-24T09:09:30.836Z</time></trkpt><trkpt lat="45.7410917" lon="8.7061328"><ele>318.25</ele><time>2026-04-24T09:09:31.831Z</time></trkpt><trkpt lat="45.7410471" lon="8.7062824"><ele>315.5</ele><time>2026-04-24T09:09:32.838Z</time></trkpt><trkpt lat="45.7409892" lon="8.7064304"><ele>312.75</ele><time>2026-04-24T09:09:33.827Z</time></trkpt><trkpt lat="45.7409179" lon="8.7065594"><ele>310.0</ele><time>2026-04-24T09:09:34.833Z</time></trkpt><trkpt lat="45.7408387" lon="8.7066872"><ele>310.0</ele><time>2026-04-24T09:09:35.835Z</time></trkpt><trkpt lat="45.7407601" lon="8.7068171"><ele>310.0</ele><time>2026-04-24T09:09:36.823Z</time></trkpt><trkpt lat="45.7406797" lon="8.7069459"><ele>310.0</ele><time>2026-04-24T09:09:37.824Z</time></trkpt><trkpt lat="45.7406092" lon="8.707068"><ele>310.0</ele><time>2026-04-24T09:09:38.827Z</time></trkpt><trkpt lat="45.7405481" lon="8.7071912"><ele>310.16666666666663</ele><time>2026-04-24T09:09:39.823Z</time></trkpt><trkpt lat="45.7404906" lon="8.7072951"><ele>310.3333333333333</ele><time>2026-04-24T09:09:40.826Z</time></trkpt><trkpt lat="45.7404423" lon="8.7073954"><ele>310.5</ele><time>2026-04-24T09:09:41.817Z</time></trkpt><trkpt lat="45.7403946" lon="8.7075012"><ele>310.6666666666667</ele><time>2026-04-24T09:09:42.822Z</time></trkpt><trkpt lat="45.7403495" lon="8.7075856"><ele>310.83333333333337</ele><time>2026-04-24T09:09:43.838Z</time></trkpt><trkpt lat="45.7403106" lon="8.7076668"><ele>311.0</ele><time>2026-04-24T09:09:44.824Z</time></trkpt><trkpt lat="45.7402554" lon="8.7077614"><ele>310.2</ele><time>2026-04-24T09:09:46.816Z</time></trkpt><trkpt lat="45.7401659" lon="8.7078075"><ele>309.40000000000003</ele><time>2026-04-24T09:09:51.819Z</time></trkpt><trkpt lat="45.740054" lon="8.7078335"><ele>308.6</ele><time>2026-04-24T09:09:53.824Z</time></trkpt><trkpt lat="45.739975" lon="8.7078646"><ele>307.8</ele><time>2026-04-24T09:09:54.816Z</time></trkpt><trkpt lat="45.7398865" lon="8.7079049"><ele>307.0</ele><time>2026-04-24T09:09:55.821Z</time></trkpt><trkpt lat="45.7397989" lon="8.707948"><ele>307.0</ele><time>2026-04-24T09:09:56.818Z</time></trkpt><trkpt lat="45.7396991" lon="8.7080007"><ele>307.0</ele><time>2026-04-24T09:09:57.815Z</time></trkpt><trkpt lat="45.7395924" lon="8.7080482"><ele>307.0</ele><time>2026-04-24T09:09:58.816Z</time></trkpt><trkpt lat="45.7394946" lon="8.7080987"><ele>307.0</ele><time>2026-04-24T09:09:59.821Z</time></trkpt><trkpt lat="45.7393948" lon="8.7081588"><ele>307.0</ele><time>2026-04-24T09:10:00.829Z</time></trkpt><trkpt lat="45.7392973" lon="8.7082232"><ele>306.2</ele><time>2026-04-24T09:10:01.828Z</time></trkpt><trkpt lat="45.7392022" lon="8.708289"><ele>305.4</ele><time>2026-04-24T09:10:02.83Z</time></trkpt><trkpt lat="45.7391064" lon="8.7083574"><ele>304.6</ele><time>2026-04-24T09:10:03.826Z</time></trkpt><trkpt lat="45.7390087" lon="8.7084403"><ele>303.8</ele><time>2026-04-24T09:10:04.828Z</time></trkpt><trkpt lat="45.7389127" lon="8.7085339"><ele>303.0</ele><time>2026-04-24T09:10:05.825Z</time></trkpt><trkpt lat="45.7388214" lon="8.7086457"><ele>303.0</ele><time>2026-04-24T09:10:06.832Z</time></trkpt><trkpt lat="45.7387379" lon="8.7087543"><ele>303.0</ele><time>2026-04-24T09:10:07.831Z</time></trkpt><trkpt lat="45.7386488" lon="8.7088662"><ele>303.0</ele><time>2026-04-24T09:10:08.83Z</time></trkpt><trkpt lat="45.7385552" lon="8.7089653"><ele>303.0</ele><time>2026-04-24T09:10:09.827Z</time></trkpt><trkpt lat="45.7384598" lon="8.7090728"><ele>302.5</ele><time>2026-04-24T09:10:10.834Z</time></trkpt><trkpt lat="45.7383594" lon="8.709181"><ele>302.0</ele><time>2026-04-24T09:10:11.827Z</time></trkpt><trkpt lat="45.7382571" lon="8.7092882"><ele>301.5</ele><time>2026-04-24T09:10:12.829Z</time></trkpt><trkpt lat="45.7381528" lon="8.7094103"><ele>301.0</ele><time>2026-04-24T09:10:13.832Z</time></trkpt><trkpt lat="45.7380427" lon="8.7095362"><ele>300.66666666666663</ele><time>2026-04-24T09:10:14.841Z</time></trkpt><trkpt lat="45.7379244" lon="8.7096686"><ele>300.3333333333333</ele><time>2026-04-24T09:10:15.828Z</time></trkpt><trkpt lat="45.737807" lon="8.7098048"><ele>300.0</ele><time>2026-04-24T09:10:16.834Z</time></trkpt><trkpt lat="45.7376849" lon="8.7099515"><ele>299.6666666666667</ele><time>2026-04-24T09:10:17.825Z</time></trkpt><trkpt lat="45.7375715" lon="8.7100928"><ele>299.33333333333337</ele><time>2026-04-24T09:10:18.83Z</time></trkpt><trkpt lat="45.7374425" lon="8.7102312"><ele>299.0</ele><time>2026-04-24T09:10:19.831Z</time></trkpt><trkpt lat="45.7373228" lon="8.710357"><ele>298.0</ele><time>2026-04-24T09:10:20.829Z</time></trkpt><trkpt lat="45.7372029" lon="8.7104827"><ele>297.0</ele><time>2026-04-24T09:10:21.83Z</time></trkpt><trkpt lat="45.7370731" lon="8.7105938"><ele>296.0</ele><time>2026-04-24T09:10:22.83Z</time></trkpt><trkpt lat="45.736947" lon="8.7107117"><ele>295.33333333333337</ele><time>2026-04-24T09:10:23.83Z</time></trkpt><trkpt lat="45.7368222" lon="8.7108281"><ele>294.6666666666667</ele><time>2026-04-24T09:10:24.83Z</time></trkpt><trkpt lat="45.7366912" lon="8.7109362"><ele>294.0</ele><time>2026-04-24T09:10:25.831Z</time></trkpt><trkpt lat="45.7365645" lon="8.7110569"><ele>294.3333333333333</ele><time>2026-04-24T09:10:26.833Z</time></trkpt><trkpt lat="45.7364339" lon="8.711175"><ele>294.66666666666663</ele><time>2026-04-24T09:10:27.833Z</time></trkpt><trkpt lat="45.7362988" lon="8.7112957"><ele>295.0</ele><time>2026-04-24T09:10:28.835Z</time></trkpt><trkpt lat="45.7361606" lon="8.7114377"><ele>293.3333333333333</ele><time>2026-04-24T09:10:29.829Z</time></trkpt><trkpt lat="45.7360331" lon="8.7115688"><ele>291.6666666666667</ele><time>2026-04-24T09:10:30.839Z</time></trkpt><trkpt lat="45.7359051" lon="8.7117053"><ele>290.0</ele><time>2026-04-24T09:10:31.828Z</time></trkpt><trkpt lat="45.7357749" lon="8.7118282"><ele>290.6666666666667</ele><time>2026-04-24T09:10:32.832Z</time></trkpt><trkpt lat="45.7356491" lon="8.7119538"><ele>291.3333333333333</ele><time>2026-04-24T09:10:33.821Z</time></trkpt><trkpt lat="45.7355086" lon="8.7120722"><ele>292.0</ele><time>2026-04-24T09:10:34.829Z</time></trkpt><trkpt lat="45.7353634" lon="8.7121842"><ele>292.0</ele><time>2026-04-24T09:10:35.825Z</time></trkpt><trkpt lat="45.7352228" lon="8.7122638"><ele>292.0</ele><time>2026-04-24T09:10:36.828Z</time></trkpt><trkpt lat="45.7350803" lon="8.7123504"><ele>292.0</ele><time>2026-04-24T09:10:37.823Z</time></trkpt><trkpt lat="45.7349395" lon="8.712437"><ele>292.0</ele><time>2026-04-24T09:10:38.83Z</time></trkpt><trkpt lat="45.7348069" lon="8.71252"><ele>292.0</ele><time>2026-04-24T09:10:39.825Z</time></trkpt><trkpt lat="45.7346753" lon="8.7125946"><ele>292.0</ele><time>2026-04-24T09:10:40.827Z</time></trkpt><trkpt lat="45.7345392" lon="8.7126784"><ele>292.0</ele><time>2026-04-24T09:10:41.822Z</time></trkpt><trkpt lat="45.73441" lon="8.712752"><ele>293.5</ele><time>2026-04-24T09:10:42.826Z</time></trkpt><trkpt lat="45.7342762" lon="8.7128331"><ele>295.0</ele><time>2026-04-24T09:10:43.828Z</time></trkpt><trkpt lat="45.7341464" lon="8.712916"><ele>296.5</ele><time>2026-04-24T09:10:44.824Z</time></trkpt><trkpt lat="45.7340138" lon="8.7129941"><ele>298.0</ele><time>2026-04-24T09:10:45.836Z</time></trkpt><trkpt lat="45.7338695" lon="8.7130679"><ele>298.0</ele><time>2026-04-24T09:10:46.819Z</time></trkpt><trkpt lat="45.7337259" lon="8.713128"><ele>298.0</ele><time>2026-04-24T09:10:47.82Z</time></trkpt><trkpt lat="45.7335774" lon="8.7131854"><ele>298.0</ele><time>2026-04-24T09:10:48.819Z</time></trkpt><trkpt lat="45.7334232" lon="8.7132318"><ele>296.75</ele><time>2026-04-24T09:10:49.821Z</time></trkpt><trkpt lat="45.7332795" lon="8.7132759"><ele>295.5</ele><time>2026-04-24T09:10:50.817Z</time></trkpt><trkpt lat="45.7331442" lon="8.7133134"><ele>294.25</ele><time>2026-04-24T09:10:51.818Z</time></trkpt><trkpt lat="45.7330012" lon="8.7133409"><ele>293.0</ele><time>2026-04-24T09:10:52.819Z</time></trkpt><trkpt lat="45.7328566" lon="8.7133679"><ele>290.75</ele><time>2026-04-24T09:10:53.821Z</time></trkpt><trkpt lat="45.7327165" lon="8.7133729"><ele>288.5</ele><time>2026-04-24T09:10:54.821Z</time></trkpt><trkpt lat="45.7325727" lon="8.7133686"><ele>286.25</ele><time>2026-04-24T09:10:55.826Z</time></trkpt><trkpt lat="45.7324353" lon="8.7133831"><ele>284.0</ele><time>2026-04-24T09:10:56.828Z</time></trkpt><trkpt lat="45.7323" lon="8.7134055"><ele>284.0</ele><time>2026-04-24T09:10:57.826Z</time></trkpt><trkpt lat="45.7321562" lon="8.7134306"><ele>284.0</ele><time>2026-04-24T09:10:58.83Z</time></trkpt><trkpt lat="45.732011" lon="8.7134416"><ele>284.0</ele><time>2026-04-24T09:10:59.824Z</time></trkpt><trkpt lat="45.7318678" lon="8.7134558"><ele>284.0</ele><time>2026-04-24T09:11:00.831Z</time></trkpt><trkpt lat="45.7317389" lon="8.7134785"><ele>284.0</ele><time>2026-04-24T09:11:01.822Z</time></trkpt><trkpt lat="45.731628" lon="8.7135216"><ele>284.0</ele><time>2026-04-24T09:11:02.827Z</time></trkpt><trkpt lat="45.7315066" lon="8.7135869"><ele>284.0</ele><time>2026-04-24T09:11:03.823Z</time></trkpt><trkpt lat="45.7313832" lon="8.7136658"><ele>284.0</ele><time>2026-04-24T09:11:04.826Z</time></trkpt><trkpt lat="45.7312673" lon="8.7137532"><ele>284.25</ele><time>2026-04-24T09:11:05.822Z</time></trkpt><trkpt lat="45.7311536" lon="8.7138492"><ele>284.5</ele><time>2026-04-24T09:11:06.825Z</time></trkpt><trkpt lat="45.731032" lon="8.7139461"><ele>284.75</ele><time>2026-04-24T09:11:07.825Z</time></trkpt><trkpt lat="45.73092" lon="8.7140477"><ele>285.0</ele><time>2026-04-24T09:11:08.829Z</time></trkpt><trkpt lat="45.7307951" lon="8.7141605"><ele>284.25</ele><time>2026-04-24T09:11:09.832Z</time></trkpt><trkpt lat="45.7306719" lon="8.7142781"><ele>283.5</ele><time>2026-04-24T09:11:10.827Z</time></trkpt><trkpt lat="45.7305501" lon="8.7143736"><ele>282.75</ele><time>2026-04-24T09:11:11.83Z</time></trkpt><trkpt lat="45.730435" lon="8.7144761"><ele>282.0</ele><time>2026-04-24T09:11:12.828Z</time></trkpt><trkpt lat="45.7303228" lon="8.7145759"><ele>281.5</ele><time>2026-04-24T09:11:13.836Z</time></trkpt><trkpt lat="45.7302044" lon="8.7146753"><ele>281.0</ele><time>2026-04-24T09:11:14.825Z</time></trkpt><trkpt lat="45.7300835" lon="8.7147758"><ele>280.5</ele><time>2026-04-24T09:11:15.827Z</time></trkpt><trkpt lat="45.7299646" lon="8.7148713"><ele>280.0</ele><time>2026-04-24T09:11:16.845Z</time></trkpt><trkpt lat="45.7298482" lon="8.7149606"><ele>280.0</ele><time>2026-04-24T09:11:17.824Z</time></trkpt><trkpt lat="45.7297185" lon="8.7150498"><ele>280.0</ele><time>2026-04-24T09:11:18.827Z</time></trkpt><trkpt lat="45.7295861" lon="8.7151477"><ele>280.0</ele><time>2026-04-24T09:11:19.829Z</time></trkpt><trkpt lat="45.7294655" lon="8.7152221"><ele>280.0</ele><time>2026-04-24T09:11:20.832Z</time></trkpt><trkpt lat="45.7293337" lon="8.715296"><ele>279.0</ele><time>2026-04-24T09:11:21.826Z</time></trkpt><trkpt lat="45.729206" lon="8.715375"><ele>278.0</ele><time>2026-04-24T09:11:22.831Z</time></trkpt><trkpt lat="45.7290765" lon="8.7154483"><ele>277.0</ele><time>2026-04-24T09:11:23.824Z</time></trkpt><trkpt lat="45.7289458" lon="8.7155326"><ele>276.0</ele><time>2026-04-24T09:11:24.828Z</time></trkpt><trkpt lat="45.7288114" lon="8.7156176"><ele>276.0</ele><time>2026-04-24T09:11:25.826Z</time></trkpt><trkpt lat="45.7286794" lon="8.7156983"><ele>276.0</ele><time>2026-04-24T09:11:26.829Z</time></trkpt><trkpt lat="45.7285443" lon="8.7157854"><ele>276.0</ele><time>2026-04-24T09:11:27.829Z</time></trkpt><trkpt lat="45.7284122" lon="8.7158687"><ele>276.0</ele><time>2026-04-24T09:11:28.827Z</time></trkpt><trkpt lat="45.7282738" lon="8.7159572"><ele>276.0</ele><time>2026-04-24T09:11:29.824Z</time></trkpt><trkpt lat="45.7281375" lon="8.716037"><ele>276.0</ele><time>2026-04-24T09:11:30.829Z</time></trkpt><trkpt lat="45.7279922" lon="8.7161157"><ele>276.0</ele><time>2026-04-24T09:11:31.821Z</time></trkpt><trkpt lat="45.7278505" lon="8.716186"><ele>275.75</ele><time>2026-04-24T09:11:32.834Z</time></trkpt><trkpt lat="45.7277104" lon="8.7162396"><ele>275.5</ele><time>2026-04-24T09:11:33.829Z</time></trkpt><trkpt lat="45.7275857" lon="8.7163039"><ele>275.25</ele><time>2026-04-24T09:11:34.826Z</time></trkpt><trkpt lat="45.7274571" lon="8.7163659"><ele>275.0</ele><time>2026-04-24T09:11:35.824Z</time></trkpt><trkpt lat="45.7273223" lon="8.7164362"><ele>275.0</ele><time>2026-04-24T09:11:36.829Z</time></trkpt><trkpt lat="45.7271827" lon="8.7165028"><ele>275.0</ele><time>2026-04-24T09:11:37.825Z</time></trkpt><trkpt lat="45.7270561" lon="8.71656"><ele>275.0</ele><time>2026-04-24T09:11:38.827Z</time></trkpt><trkpt lat="45.7269229" lon="8.7166015"><ele>275.0</ele><time>2026-04-24T09:11:39.826Z</time></trkpt><trkpt lat="45.7268019" lon="8.7166568"><ele>274.6</ele><time>2026-04-24T09:11:40.827Z</time></trkpt><trkpt lat="45.7266909" lon="8.7167007"><ele>274.2</ele><time>2026-04-24T09:11:41.825Z</time></trkpt><trkpt lat="45.7265961" lon="8.716748"><ele>273.8</ele><time>2026-04-24T09:11:42.822Z</time></trkpt><trkpt lat="45.7265057" lon="8.7167793"><ele>273.4</ele><time>2026-04-24T09:11:43.825Z</time></trkpt><trkpt lat="45.7264121" lon="8.7168147"><ele>273.0</ele><time>2026-04-24T09:11:44.821Z</time></trkpt><trkpt lat="45.7263307" lon="8.7168512"><ele>273.0</ele><time>2026-04-24T09:11:45.823Z</time></trkpt><trkpt lat="45.7262538" lon="8.7168797"><ele>273.0</ele><time>2026-04-24T09:11:46.824Z</time></trkpt><trkpt lat="45.7261801" lon="8.7169107"><ele>273.0</ele><time>2026-04-24T09:11:47.835Z</time></trkpt><trkpt lat="45.7261024" lon="8.7169442"><ele>273.0</ele><time>2026-04-24T09:11:48.821Z</time></trkpt><trkpt lat="45.7260371" lon="8.7169681"><ele>273.0</ele><time>2026-04-24T09:11:49.82Z</time></trkpt><trkpt lat="45.7259733" lon="8.7169893"><ele>273.0</ele><time>2026-04-24T09:11:50.817Z</time></trkpt><trkpt lat="45.7258707" lon="8.717004"><ele>273.0</ele><time>2026-04-24T09:11:52.818Z</time></trkpt><trkpt lat="45.7257801" lon="8.7169113"><ele>273.0</ele><time>2026-04-24T09:12:00.823Z</time></trkpt><trkpt lat="45.7257176" lon="8.7168994"><ele>273.0</ele><time>2026-04-24T09:12:01.811Z</time></trkpt><trkpt lat="45.7256223" lon="8.7169848"><ele>273.0</ele><time>2026-04-24T09:12:03.823Z</time></trkpt><trkpt lat="45.7256099" lon="8.717082"><ele>273.0</ele><time>2026-04-24T09:12:04.822Z</time></trkpt><trkpt lat="45.7256417" lon="8.7171945"><ele>273.0</ele><time>2026-04-24T09:12:05.826Z</time></trkpt><trkpt lat="45.7257007" lon="8.7172925"><ele>273.0</ele><time>2026-04-24T09:12:06.819Z</time></trkpt><trkpt lat="45.7257707" lon="8.717393"><ele>273.0</ele><time>2026-04-24T09:12:07.816Z</time></trkpt><trkpt lat="45.7258497" lon="8.7174977"><ele>273.0</ele><time>2026-04-24T09:12:08.815Z</time></trkpt><trkpt lat="45.7259337" lon="8.7176228"><ele>273.0</ele><time>2026-04-24T09:12:09.816Z</time></trkpt><trkpt lat="45.7260056" lon="8.7177573"><ele>273.0</ele><time>2026-04-24T09:12:10.812Z</time></trkpt><trkpt lat="45.7260698" lon="8.7179022"><ele>273.2</ele><time>2026-04-24T09:12:11.813Z</time></trkpt><trkpt lat="45.7261277" lon="8.7180477"><ele>273.4</ele><time>2026-04-24T09:12:12.81Z</time></trkpt><trkpt lat="45.7261763" lon="8.7181963"><ele>273.59999999999997</ele><time>2026-04-24T09:12:13.823Z</time></trkpt><trkpt lat="45.7262168" lon="8.71834"><ele>273.8</ele><time>2026-04-24T09:12:14.82Z</time></trkpt><trkpt lat="45.7262587" lon="8.7184754"><ele>274.0</ele><time>2026-04-24T09:12:15.819Z</time></trkpt><trkpt lat="45.7263078" lon="8.718596"><ele>274.2</ele><time>2026-04-24T09:12:16.814Z</time></trkpt><trkpt lat="45.7263598" lon="8.7187098"><ele>274.4</ele><time>2026-04-24T09:12:17.819Z</time></trkpt><trkpt lat="45.7264147" lon="8.7188304"><ele>274.6</ele><time>2026-04-24T09:12:18.829Z</time></trkpt><trkpt lat="45.7264693" lon="8.7189561"><ele>274.8</ele><time>2026-04-24T09:12:19.814Z</time></trkpt><trkpt lat="45.7265136" lon="8.7191016"><ele>275.0</ele><time>2026-04-24T09:12:20.817Z</time></trkpt><trkpt lat="45.7265528" lon="8.7192555"><ele>275.5</ele><time>2026-04-24T09:12:21.817Z</time></trkpt><trkpt lat="45.72659" lon="8.7194137"><ele>276.0</ele><time>2026-04-24T09:12:22.819Z</time></trkpt><trkpt lat="45.7266295" lon="8.7195819"><ele>276.5</ele><time>2026-04-24T09:12:23.818Z</time></trkpt><trkpt lat="45.7266651" lon="8.7197535"><ele>277.0</ele><time>2026-04-24T09:12:24.819Z</time></trkpt><trkpt lat="45.7267004" lon="8.7199327"><ele>277.0</ele><time>2026-04-24T09:12:25.813Z</time></trkpt><trkpt lat="45.7267396" lon="8.7201038"><ele>277.0</ele><time>2026-04-24T09:12:26.818Z</time></trkpt><trkpt lat="45.7267754" lon="8.7202781"><ele>277.0</ele><time>2026-04-24T09:12:27.817Z</time></trkpt><trkpt lat="45.7268102" lon="8.720456"><ele>277.0</ele><time>2026-04-24T09:12:28.815Z</time></trkpt><trkpt lat="45.7268435" lon="8.7206285"><ele>277.0</ele><time>2026-04-24T09:12:29.811Z</time></trkpt><trkpt lat="45.7268764" lon="8.720806"><ele>277.0</ele><time>2026-04-24T09:12:30.816Z</time></trkpt><trkpt lat="45.7269223" lon="8.7209756"><ele>277.0</ele><time>2026-04-24T09:12:31.811Z</time></trkpt><trkpt lat="45.7269621" lon="8.7211626"><ele>277.0</ele><time>2026-04-24T09:12:32.813Z</time></trkpt><trkpt lat="45.7270105" lon="8.7213609"><ele>277.3333333333333</ele><time>2026-04-24T09:12:33.807Z</time></trkpt><trkpt lat="45.727057" lon="8.7215553"><ele>277.6666666666667</ele><time>2026-04-24T09:12:34.81Z</time></trkpt><trkpt lat="45.7271032" lon="8.7217587"><ele>278.0</ele><time>2026-04-24T09:12:35.807Z</time></trkpt><trkpt lat="45.7271514" lon="8.7219735"><ele>278.0</ele><time>2026-04-24T09:12:36.808Z</time></trkpt><trkpt lat="45.7271926" lon="8.7221885"><ele>278.0</ele><time>2026-04-24T09:12:37.812Z</time></trkpt><trkpt lat="45.7272406" lon="8.7223843"><ele>278.0</ele><time>2026-04-24T09:12:38.813Z</time></trkpt><trkpt lat="45.7272912" lon="8.7225757"><ele>278.0</ele><time>2026-04-24T09:12:39.821Z</time></trkpt><trkpt lat="45.7273477" lon="8.7227693"><ele>277.25</ele><time>2026-04-24T09:12:40.819Z</time></trkpt><trkpt lat="45.7273952" lon="8.7229454"><ele>276.5</ele><time>2026-04-24T09:12:41.815Z</time></trkpt><trkpt lat="45.7274413" lon="8.7231169"><ele>275.75</ele><time>2026-04-24T09:12:42.816Z</time></trkpt><trkpt lat="45.727475" lon="8.7233118"><ele>275.0</ele><time>2026-04-24T09:12:43.819Z</time></trkpt><trkpt lat="45.727518" lon="8.7235093"><ele>274.33333333333337</ele><time>2026-04-24T09:12:44.824Z</time></trkpt><trkpt lat="45.7275595" lon="8.7237128"><ele>273.6666666666667</ele><time>2026-04-24T09:12:45.819Z</time></trkpt><trkpt lat="45.7275981" lon="8.7239212"><ele>273.0</ele><time>2026-04-24T09:12:46.823Z</time></trkpt><trkpt lat="45.7276389" lon="8.7241374"><ele>273.0</ele><time>2026-04-24T09:12:47.821Z</time></trkpt><trkpt lat="45.7276816" lon="8.7243479"><ele>273.0</ele><time>2026-04-24T09:12:48.825Z</time></trkpt><trkpt lat="45.7277271" lon="8.7245594"><ele>273.0</ele><time>2026-04-24T09:12:49.835Z</time></trkpt><trkpt lat="45.7277696" lon="8.724779"><ele>273.3333333333333</ele><time>2026-04-24T09:12:50.823Z</time></trkpt><trkpt lat="45.7278082" lon="8.7249925"><ele>273.66666666666663</ele><time>2026-04-24T09:12:51.817Z</time></trkpt><trkpt lat="45.7278511" lon="8.7252178"><ele>274.0</ele><time>2026-04-24T09:12:52.818Z</time></trkpt><trkpt lat="45.7278938" lon="8.7254344"><ele>274.25</ele><time>2026-04-24T09:12:53.816Z</time></trkpt><trkpt lat="45.7279437" lon="8.7256425"><ele>274.5</ele><time>2026-04-24T09:12:54.818Z</time></trkpt><trkpt lat="45.7279866" lon="8.72584"><ele>274.75</ele><time>2026-04-24T09:12:55.812Z</time></trkpt><trkpt lat="45.7280205" lon="8.7260174"><ele>275.0</ele><time>2026-04-24T09:12:56.815Z</time></trkpt><trkpt lat="45.7280619" lon="8.7261709"><ele>274.33333333333337</ele><time>2026-04-24T09:12:57.809Z</time></trkpt><trkpt lat="45.7280969" lon="8.7263166"><ele>273.6666666666667</ele><time>2026-04-24T09:12:58.809Z</time></trkpt><trkpt lat="45.7281474" lon="8.7264391"><ele>273.0</ele><time>2026-04-24T09:12:59.804Z</time></trkpt><trkpt lat="45.72819" lon="8.7265403"><ele>272.3333333333333</ele><time>2026-04-24T09:13:00.817Z</time></trkpt><trkpt lat="45.7282293" lon="8.7266323"><ele>271.66666666666663</ele><time>2026-04-24T09:13:01.809Z</time></trkpt><trkpt lat="45.7282702" lon="8.7267127"><ele>271.0</ele><time>2026-04-24T09:13:02.823Z</time></trkpt><trkpt lat="45.7283031" lon="8.7267958"><ele>271.2</ele><time>2026-04-24T09:13:03.815Z</time></trkpt><trkpt lat="45.7283252" lon="8.7269507"><ele>271.40000000000003</ele><time>2026-04-24T09:13:05.813Z</time></trkpt><trkpt lat="45.728271" lon="8.7270654"><ele>271.6</ele><time>2026-04-24T09:13:07.818Z</time></trkpt><trkpt lat="45.728189" lon="8.7270647"><ele>271.8</ele><time>2026-04-24T09:13:08.813Z</time></trkpt><trkpt lat="45.7280994" lon="8.7270251"><ele>272.0</ele><time>2026-04-24T09:13:09.809Z</time></trkpt><trkpt lat="45.728009" lon="8.7269535"><ele>271.75</ele><time>2026-04-24T09:13:10.816Z</time></trkpt><trkpt lat="45.7279354" lon="8.7268507"><ele>271.5</ele><time>2026-04-24T09:13:11.81Z</time></trkpt><trkpt lat="45.7278406" lon="8.7267377"><ele>271.25</ele><time>2026-04-24T09:13:12.812Z</time></trkpt><trkpt lat="45.7277392" lon="8.7266278"><ele>271.0</ele><time>2026-04-24T09:13:13.81Z</time></trkpt><trkpt lat="45.7276408" lon="8.7265265"><ele>272.0</ele><time>2026-04-24T09:13:14.811Z</time></trkpt><trkpt lat="45.7275291" lon="8.7264258"><ele>273.0</ele><time>2026-04-24T09:13:15.809Z</time></trkpt><trkpt lat="45.7274233" lon="8.7263277"><ele>274.0</ele><time>2026-04-24T09:13:16.811Z</time></trkpt><trkpt lat="45.7273162" lon="8.7262195"><ele>275.0</ele><time>2026-04-24T09:13:17.807Z</time></trkpt><trkpt lat="45.7272028" lon="8.7260954"><ele>275.0</ele><time>2026-04-24T09:13:18.816Z</time></trkpt><trkpt lat="45.7270955" lon="8.7259684"><ele>275.0</ele><time>2026-04-24T09:13:19.811Z</time></trkpt><trkpt lat="45.7269894" lon="8.7258454"><ele>275.0</ele><time>2026-04-24T09:13:20.846Z</time></trkpt><trkpt lat="45.7268865" lon="8.7257174"><ele>275.0</ele><time>2026-04-24T09:13:21.811Z</time></trkpt><trkpt lat="45.7267904" lon="8.7255893"><ele>275.0</ele><time>2026-04-24T09:13:22.814Z</time></trkpt><trkpt lat="45.7267" lon="8.7254585"><ele>275.0</ele><time>2026-04-24T09:13:23.819Z</time></trkpt><trkpt lat="45.7266027" lon="8.725324"><ele>275.0</ele><time>2026-04-24T09:13:24.818Z</time></trkpt><trkpt lat="45.7265101" lon="8.7251836"><ele>275.0</ele><time>2026-04-24T09:13:25.819Z</time></trkpt><trkpt lat="45.7264149" lon="8.7250465"><ele>274.5</ele><time>2026-04-24T09:13:26.831Z</time></trkpt><trkpt lat="45.7263267" lon="8.7249041"><ele>274.0</ele><time>2026-04-24T09:13:27.834Z</time></trkpt><trkpt lat="45.7262383" lon="8.7247694"><ele>273.5</ele><time>2026-04-24T09:13:28.823Z</time></trkpt><trkpt lat="45.7261481" lon="8.7246292"><ele>273.0</ele><time>2026-04-24T09:13:29.823Z</time></trkpt><trkpt lat="45.7260649" lon="8.7244889"><ele>272.25</ele><time>2026-04-24T09:13:30.832Z</time></trkpt><trkpt lat="45.7259768" lon="8.7243452"><ele>271.5</ele><time>2026-04-24T09:13:31.829Z</time></trkpt><trkpt lat="45.7258908" lon="8.7242044"><ele>270.75</ele><time>2026-04-24T09:13:32.831Z</time></trkpt><trkpt lat="45.7258017" lon="8.7240658"><ele>270.0</ele><time>2026-04-24T09:13:33.827Z</time></trkpt><trkpt lat="45.7257131" lon="8.7239181"><ele>270.0</ele><time>2026-04-24T09:13:34.828Z</time></trkpt><trkpt lat="45.7256249" lon="8.7237745"><ele>270.0</ele><time>2026-04-24T09:13:35.826Z</time></trkpt><trkpt lat="45.7255328" lon="8.7236332"><ele>270.0</ele><time>2026-04-24T09:13:36.829Z</time></trkpt><trkpt lat="45.7254432" lon="8.723488"><ele>270.0</ele><time>2026-04-24T09:13:37.83Z</time></trkpt><trkpt lat="45.7253481" lon="8.7233481"><ele>270.5</ele><time>2026-04-24T09:13:38.825Z</time></trkpt><trkpt lat="45.7252347" lon="8.7232187"><ele>271.0</ele><time>2026-04-24T09:13:39.822Z</time></trkpt><trkpt lat="45.7251191" lon="8.7231157"><ele>271.5</ele><time>2026-04-24T09:13:40.826Z</time></trkpt><trkpt lat="45.7249801" lon="8.7229993"><ele>272.0</ele><time>2026-04-24T09:13:41.826Z</time></trkpt><trkpt lat="45.7248361" lon="8.722914"><ele>272.0</ele><time>2026-04-24T09:13:42.827Z</time></trkpt><trkpt lat="45.7247045" lon="8.7228222"><ele>272.0</ele><time>2026-04-24T09:13:43.831Z</time></trkpt><trkpt lat="45.7245646" lon="8.7227235"><ele>272.0</ele><time>2026-04-24T09:13:44.826Z</time></trkpt><trkpt lat="45.7244378" lon="8.7226223"><ele>272.0</ele><time>2026-04-24T09:13:45.825Z</time></trkpt><trkpt lat="45.7243002" lon="8.7225394"><ele>274.6666666666667</ele><time>2026-04-24T09:13:46.818Z</time></trkpt><trkpt lat="45.7241503" lon="8.7224291"><ele>277.3333333333333</ele><time>2026-04-24T09:13:47.818Z</time></trkpt><trkpt lat="45.724004" lon="8.7223319"><ele>280.0</ele><time>2026-04-24T09:13:48.819Z</time></trkpt><trkpt lat="45.7238728" lon="8.7222203"><ele>280.0</ele><time>2026-04-24T09:13:49.82Z</time></trkpt><trkpt lat="45.723743" lon="8.7221147"><ele>280.0</ele><time>2026-04-24T09:13:50.832Z</time></trkpt><trkpt lat="45.7235999" lon="8.7220149"><ele>280.0</ele><time>2026-04-24T09:13:51.818Z</time></trkpt><trkpt lat="45.7234669" lon="8.7218997"><ele>279.66666666666663</ele><time>2026-04-24T09:13:52.819Z</time></trkpt><trkpt lat="45.7233268" lon="8.7217858"><ele>279.3333333333333</ele><time>2026-04-24T09:13:53.818Z</time></trkpt><trkpt lat="45.7231894" lon="8.7216786"><ele>279.0</ele><time>2026-04-24T09:13:54.819Z</time></trkpt><trkpt lat="45.7230312" lon="8.7215544"><ele>279.0</ele><time>2026-04-24T09:13:55.818Z</time></trkpt><trkpt lat="45.7228823" lon="8.721425"><ele>279.0</ele><time>2026-04-24T09:13:56.818Z</time></trkpt><trkpt lat="45.7227204" lon="8.7213106"><ele>279.0</ele><time>2026-04-24T09:13:57.816Z</time></trkpt><trkpt lat="45.7225691" lon="8.7211831"><ele>278.0</ele><time>2026-04-24T09:13:58.816Z</time></trkpt><trkpt lat="45.7224128" lon="8.7210601"><ele>277.0</ele><time>2026-04-24T09:13:59.811Z</time></trkpt><trkpt lat="45.7222446" lon="8.7209441"><ele>276.0</ele><time>2026-04-24T09:14:00.82Z</time></trkpt><trkpt lat="45.722088" lon="8.7208211"><ele>276.0</ele><time>2026-04-24T09:14:01.813Z</time></trkpt><trkpt lat="45.7219296" lon="8.7206874"><ele>276.0</ele><time>2026-04-24T09:14:02.821Z</time></trkpt><trkpt lat="45.7217818" lon="8.7205453"><ele>276.0</ele><time>2026-04-24T09:14:03.81Z</time></trkpt><trkpt lat="45.7216219" lon="8.7204144"><ele>276.6666666666667</ele><time>2026-04-24T09:14:04.815Z</time></trkpt><trkpt lat="45.7214602" lon="8.7202786"><ele>277.33333333333337</ele><time>2026-04-24T09:14:05.81Z</time></trkpt><trkpt lat="45.7212977" lon="8.7201452"><ele>278.0</ele><time>2026-04-24T09:14:06.813Z</time></trkpt><trkpt lat="45.7211435" lon="8.7199988"><ele>277.33333333333337</ele><time>2026-04-24T09:14:07.812Z</time></trkpt><trkpt lat="45.7209649" lon="8.7198867"><ele>276.6666666666667</ele><time>2026-04-24T09:14:08.814Z</time></trkpt><trkpt lat="45.7207999" lon="8.719764"><ele>276.0</ele><time>2026-04-24T09:14:09.816Z</time></trkpt><trkpt lat="45.7206313" lon="8.719629"><ele>276.0</ele><time>2026-04-24T09:14:10.814Z</time></trkpt><trkpt lat="45.7204631" lon="8.7194979"><ele>276.0</ele><time>2026-04-24T09:14:11.812Z</time></trkpt><trkpt lat="45.7202846" lon="8.7193743"><ele>276.0</ele><time>2026-04-24T09:14:12.812Z</time></trkpt><trkpt lat="45.720116" lon="8.7192632"><ele>276.6666666666667</ele><time>2026-04-24T09:14:13.817Z</time></trkpt><trkpt lat="45.7199791" lon="8.7191586"><ele>277.33333333333337</ele><time>2026-04-24T09:14:14.814Z</time></trkpt><trkpt lat="45.7198468" lon="8.7190497"><ele>278.0</ele><time>2026-04-24T09:14:15.814Z</time></trkpt><trkpt lat="45.7197095" lon="8.7189226"><ele>278.0</ele><time>2026-04-24T09:14:16.812Z</time></trkpt><trkpt lat="45.7195671" lon="8.7188001"><ele>278.0</ele><time>2026-04-24T09:14:17.812Z</time></trkpt><trkpt lat="45.7194292" lon="8.7186804"><ele>278.0</ele><time>2026-04-24T09:14:18.816Z</time></trkpt><trkpt lat="45.7192817" lon="8.7185514"><ele>277.0</ele><time>2026-04-24T09:14:19.817Z</time></trkpt><trkpt lat="45.7191334" lon="8.7184196"><ele>276.0</ele><time>2026-04-24T09:14:20.819Z</time></trkpt><trkpt lat="45.7189926" lon="8.7183145"><ele>275.0</ele><time>2026-04-24T09:14:21.828Z</time></trkpt><trkpt lat="45.7188583" lon="8.7182444"><ele>275.0</ele><time>2026-04-24T09:14:22.815Z</time></trkpt><trkpt lat="45.7187275" lon="8.7181839"><ele>275.0</ele><time>2026-04-24T09:14:23.817Z</time></trkpt><trkpt lat="45.7185969" lon="8.7181544"><ele>275.0</ele><time>2026-04-24T09:14:24.818Z</time></trkpt><trkpt lat="45.7184939" lon="8.7181364"><ele>275.0</ele><time>2026-04-24T09:14:25.816Z</time></trkpt><trkpt lat="45.7183961" lon="8.7181182"><ele>274.4</ele><time>2026-04-24T09:14:26.82Z</time></trkpt><trkpt lat="45.7183165" lon="8.7181089"><ele>273.8</ele><time>2026-04-24T09:14:27.815Z</time></trkpt><trkpt lat="45.7182385" lon="8.7180902"><ele>273.2</ele><time>2026-04-24T09:14:28.816Z</time></trkpt><trkpt lat="45.7181177" lon="8.7180625"><ele>272.6</ele><time>2026-04-24T09:14:30.819Z</time></trkpt><trkpt lat="45.7180029" lon="8.7180876"><ele>272.0</ele><time>2026-04-24T09:14:32.823Z</time></trkpt><trkpt lat="45.7178988" lon="8.7181012"><ele>272.0</ele><time>2026-04-24T09:14:34.819Z</time></trkpt><trkpt lat="45.7178028" lon="8.7180904"><ele>272.0</ele><time>2026-04-24T09:14:36.813Z</time></trkpt><trkpt lat="45.7176853" lon="8.7180949"><ele>272.0</ele><time>2026-04-24T09:14:38.82Z</time></trkpt><trkpt lat="45.7175768" lon="8.7180979"><ele>272.0</ele><time>2026-04-24T09:14:40.817Z</time></trkpt><trkpt lat="45.717451" lon="8.7181271"><ele>272.6666666666667</ele><time>2026-04-24T09:14:42.821Z</time></trkpt><trkpt lat="45.7173369" lon="8.7181398"><ele>273.33333333333337</ele><time>2026-04-24T09:14:44.814Z</time></trkpt><trkpt lat="45.7172721" lon="8.7181429"><ele>274.0</ele><time>2026-04-24T09:14:45.812Z</time></trkpt><trkpt lat="45.7172047" lon="8.7181476"><ele>274.6666666666667</ele><time>2026-04-24T09:14:46.814Z</time></trkpt><trkpt lat="45.7171391" lon="8.7181511"><ele>275.3333333333333</ele><time>2026-04-24T09:14:47.809Z</time></trkpt><trkpt lat="45.717041" lon="8.718186"><ele>276.0</ele><time>2026-04-24T09:14:49.81Z</time></trkpt><trkpt lat="45.7169238" lon="8.7181966"><ele>275.8</ele><time>2026-04-24T09:14:51.81Z</time></trkpt><trkpt lat="45.7168076" lon="8.7181846"><ele>275.6</ele><time>2026-04-24T09:14:53.801Z</time></trkpt><trkpt lat="45.7167299" lon="8.7181789"><ele>275.4</ele><time>2026-04-24T09:14:54.806Z</time></trkpt><trkpt lat="45.7166393" lon="8.7181648"><ele>275.2</ele><time>2026-04-24T09:14:55.804Z</time></trkpt><trkpt lat="45.7165494" lon="8.7181784"><ele>275.0</ele><time>2026-04-24T09:14:56.81Z</time></trkpt><trkpt lat="45.7164462" lon="8.7182008"><ele>275.0</ele><time>2026-04-24T09:14:57.813Z</time></trkpt><trkpt lat="45.716359" lon="8.718239"><ele>275.0</ele><time>2026-04-24T09:14:58.814Z</time></trkpt><trkpt lat="45.7162825" lon="8.7182657"><ele>275.0</ele><time>2026-04-24T09:14:59.811Z</time></trkpt><trkpt lat="45.7162077" lon="8.7182956"><ele>275.0</ele><time>2026-04-24T09:15:00.815Z</time></trkpt><trkpt lat="45.7161367" lon="8.7183189"><ele>275.0</ele><time>2026-04-24T09:15:01.814Z</time></trkpt><trkpt lat="45.7160695" lon="8.7183465"><ele>275.0</ele><time>2026-04-24T09:15:02.822Z</time></trkpt><trkpt lat="45.7160037" lon="8.7183655"><ele>275.1666666666667</ele><time>2026-04-24T09:15:03.82Z</time></trkpt><trkpt lat="45.7159395" lon="8.7183773"><ele>275.33333333333337</ele><time>2026-04-24T09:15:04.819Z</time></trkpt><trkpt lat="45.7158622" lon="8.7184068"><ele>275.5</ele><time>2026-04-24T09:15:05.821Z</time></trkpt><trkpt lat="45.7157844" lon="8.7184271"><ele>275.6666666666667</ele><time>2026-04-24T09:15:06.827Z</time></trkpt><trkpt lat="45.7156983" lon="8.718445"><ele>275.8333333333333</ele><time>2026-04-24T09:15:07.826Z</time></trkpt><trkpt lat="45.7156082" lon="8.7184463"><ele>276.0</ele><time>2026-04-24T09:15:08.826Z</time></trkpt><trkpt lat="45.7155128" lon="8.7184329"><ele>276.0</ele><time>2026-04-24T09:15:09.821Z</time></trkpt><trkpt lat="45.7153876" lon="8.7184017"><ele>276.0</ele><time>2026-04-24T09:15:10.827Z</time></trkpt><trkpt lat="45.7152633" lon="8.7183521"><ele>276.0</ele><time>2026-04-24T09:15:11.826Z</time></trkpt><trkpt lat="45.7151446" lon="8.7182889"><ele>276.0</ele><time>2026-04-24T09:15:12.82Z</time></trkpt><trkpt lat="45.7150173" lon="8.7182168"><ele>274.40000000000003</ele><time>2026-04-24T09:15:13.822Z</time></trkpt><trkpt lat="45.7149042" lon="8.7181295"><ele>272.8</ele><time>2026-04-24T09:15:14.825Z</time></trkpt><trkpt lat="45.7148174" lon="8.7180474"><ele>271.20000000000005</ele><time>2026-04-24T09:15:15.821Z</time></trkpt><trkpt lat="45.7147362" lon="8.7179873"><ele>269.6</ele><time>2026-04-24T09:15:16.827Z</time></trkpt><trkpt lat="45.7146705" lon="8.7179477"><ele>268.0</ele><time>2026-04-24T09:15:17.827Z</time></trkpt><trkpt lat="45.7146" lon="8.7179567"><ele>268.0</ele><time>2026-04-24T09:15:18.822Z</time></trkpt><trkpt lat="45.7145084" lon="8.7180009"><ele>268.0</ele><time>2026-04-24T09:15:19.821Z</time></trkpt><trkpt lat="45.7144027" lon="8.71806"><ele>268.0</ele><time>2026-04-24T09:15:20.819Z</time></trkpt><trkpt lat="45.7142964" lon="8.7181299"><ele>268.0</ele><time>2026-04-24T09:15:21.818Z</time></trkpt><trkpt lat="45.7141782" lon="8.7181818"><ele>267.5</ele><time>2026-04-24T09:15:22.817Z</time></trkpt><trkpt lat="45.7140629" lon="8.7182421"><ele>267.0</ele><time>2026-04-24T09:15:23.832Z</time></trkpt><trkpt lat="45.7139588" lon="8.7182895"><ele>266.5</ele><time>2026-04-24T09:15:24.814Z</time></trkpt><trkpt lat="45.7138463" lon="8.7183462"><ele>266.0</ele><time>2026-04-24T09:15:25.818Z</time></trkpt><trkpt lat="45.7137318" lon="8.7183941"><ele>266.0</ele><time>2026-04-24T09:15:26.82Z</time></trkpt><trkpt lat="45.7136211" lon="8.7184581"><ele>266.0</ele><time>2026-04-24T09:15:27.823Z</time></trkpt><trkpt lat="45.7135204" lon="8.7185148"><ele>266.0</ele><time>2026-04-24T09:15:28.82Z</time></trkpt><trkpt lat="45.7134173" lon="8.7185687"><ele>266.0</ele><time>2026-04-24T09:15:29.817Z</time></trkpt><trkpt lat="45.7133151" lon="8.7186142"><ele>266.0</ele><time>2026-04-24T09:15:30.824Z</time></trkpt><trkpt lat="45.7132151" lon="8.7186609"><ele>267.8</ele><time>2026-04-24T09:15:31.819Z</time></trkpt><trkpt lat="45.713111" lon="8.7187197"><ele>269.6</ele><time>2026-04-24T09:15:32.823Z</time></trkpt><trkpt lat="45.7130161" lon="8.7187771"><ele>271.4</ele><time>2026-04-24T09:15:33.813Z</time></trkpt><trkpt lat="45.7129303" lon="8.7188385"><ele>273.2</ele><time>2026-04-24T09:15:34.816Z</time></trkpt><trkpt lat="45.7128509" lon="8.7189033"><ele>275.0</ele><time>2026-04-24T09:15:35.809Z</time></trkpt><trkpt lat="45.7127839" lon="8.7189466"><ele>275.2</ele><time>2026-04-24T09:15:36.817Z</time></trkpt><trkpt lat="45.7126645" lon="8.7189955"><ele>275.4</ele><time>2026-04-24T09:15:38.818Z</time></trkpt><trkpt lat="45.7125705" lon="8.7189598"><ele>275.6</ele><time>2026-04-24T09:15:40.816Z</time></trkpt><trkpt lat="45.7124891" lon="8.7188452"><ele>275.8</ele><time>2026-04-24T09:15:42.82Z</time></trkpt><trkpt lat="45.7124676" lon="8.718751"><ele>276.0</ele><time>2026-04-24T09:15:43.828Z</time></trkpt><trkpt lat="45.712447" lon="8.7185875"><ele>275.6</ele><time>2026-04-24T09:15:44.82Z</time></trkpt><trkpt lat="45.7124481" lon="8.7184154"><ele>275.20000000000005</ele><time>2026-04-24T09:15:45.821Z</time></trkpt><trkpt lat="45.7124389" lon="8.7182666"><ele>274.79999999999995</ele><time>2026-04-24T09:15:46.817Z</time></trkpt><trkpt lat="45.7124165" lon="8.7181191"><ele>274.4</ele><time>2026-04-24T09:15:47.82Z</time></trkpt><trkpt lat="45.7124068" lon="8.7179838"><ele>274.0</ele><time>2026-04-24T09:15:48.819Z</time></trkpt><trkpt lat="45.7123894" lon="8.7178491"><ele>274.0</ele><time>2026-04-24T09:15:49.824Z</time></trkpt><trkpt lat="45.7123716" lon="8.7177448"><ele>274.0</ele><time>2026-04-24T09:15:50.822Z</time></trkpt><trkpt lat="45.7123612" lon="8.7176252"><ele>274.0</ele><time>2026-04-24T09:15:52.82Z</time></trkpt><trkpt lat="45.7123118" lon="8.7175655"><ele>274.0</ele><time>2026-04-24T09:15:55.818Z</time></trkpt><trkpt lat="45.7122986" lon="8.7174483"><ele>274.0</ele><time>2026-04-24T09:16:13.817Z</time></trkpt><trkpt lat="45.7122493" lon="8.7172557"><ele>273.4</ele><time>2026-04-24T09:16:15.81Z</time></trkpt><trkpt lat="45.7122101" lon="8.7171425"><ele>272.79999999999995</ele><time>2026-04-24T09:16:16.809Z</time></trkpt><trkpt lat="45.7121847" lon="8.7170272"><ele>272.20000000000005</ele><time>2026-04-24T09:16:17.816Z</time></trkpt><trkpt lat="45.712134" lon="8.7169053"><ele>271.6</ele><time>2026-04-24T09:16:18.81Z</time></trkpt><trkpt lat="45.712074" lon="8.7167673"><ele>271.0</ele><time>2026-04-24T09:16:19.815Z</time></trkpt><trkpt lat="45.7120074" lon="8.7166324"><ele>270.8</ele><time>2026-04-24T09:16:20.814Z</time></trkpt><trkpt lat="45.7119466" lon="8.7165085"><ele>270.6</ele><time>2026-04-24T09:16:21.81Z</time></trkpt><trkpt lat="45.7118852" lon="8.7163964"><ele>270.4</ele><time>2026-04-24T09:16:22.816Z</time></trkpt><trkpt lat="45.711825" lon="8.7162992"><ele>270.2</ele><time>2026-04-24T09:16:23.816Z</time></trkpt><trkpt lat="45.7117735" lon="8.7162126"><ele>270.0</ele><time>2026-04-24T09:16:24.822Z</time></trkpt><trkpt lat="45.7117836" lon="8.7160282"><ele>269.6</ele><time>2026-04-24T09:16:26.814Z</time></trkpt><trkpt lat="45.7118259" lon="8.7159262"><ele>269.2</ele><time>2026-04-24T09:16:27.819Z</time></trkpt><trkpt lat="45.7118882" lon="8.7158078"><ele>268.8</ele><time>2026-04-24T09:16:28.82Z</time></trkpt><trkpt lat="45.7119577" lon="8.715682"><ele>268.4</ele><time>2026-04-24T09:16:29.813Z</time></trkpt><trkpt lat="45.7120366" lon="8.7155524"><ele>268.0</ele><time>2026-04-24T09:16:30.817Z</time></trkpt><trkpt lat="45.7121138" lon="8.7154402"><ele>267.0</ele><time>2026-04-24T09:16:31.817Z</time></trkpt><trkpt lat="45.712173" lon="8.7153598"><ele>266.0</ele><time>2026-04-24T09:16:32.815Z</time></trkpt><trkpt lat="45.7122399" lon="8.7153195"><ele>265.0</ele><time>2026-04-24T09:16:33.821Z</time></trkpt><trkpt lat="45.7123225" lon="8.7153084"><ele>264.0</ele><time>2026-04-24T09:16:34.821Z</time></trkpt><trkpt lat="45.7124184" lon="8.7152915"><ele>263.0</ele><time>2026-04-24T09:16:35.831Z</time></trkpt><trkpt lat="45.7125395" lon="8.7152765"><ele>263.0</ele><time>2026-04-24T09:16:36.825Z</time></trkpt><trkpt lat="45.7126669" lon="8.7152431"><ele>263.0</ele><time>2026-04-24T09:16:37.831Z</time></trkpt><trkpt lat="45.7127934" lon="8.7152018"><ele>263.0</ele><time>2026-04-24T09:16:38.827Z</time></trkpt><trkpt lat="45.7129009" lon="8.7151558"><ele>263.0</ele><time>2026-04-24T09:16:39.832Z</time></trkpt><trkpt lat="45.7130059" lon="8.7151328"><ele>263.0</ele><time>2026-04-24T09:16:40.831Z</time></trkpt><trkpt lat="45.7130998" lon="8.715125"><ele>263.0</ele><time>2026-04-24T09:16:41.826Z</time></trkpt><trkpt lat="45.7131669" lon="8.7151577"><ele>263.0</ele><time>2026-04-24T09:16:42.822Z</time></trkpt><trkpt lat="45.7132121" lon="8.7152293"><ele>263.0</ele><time>2026-04-24T09:16:43.826Z</time></trkpt><trkpt lat="45.7132692" lon="8.7153475"><ele>263.0</ele><time>2026-04-24T09:16:44.826Z</time></trkpt><trkpt lat="45.7133263" lon="8.7154762"><ele>263.0</ele><time>2026-04-24T09:16:45.823Z</time></trkpt><trkpt lat="45.7133789" lon="8.7156069"><ele>263.0</ele><time>2026-04-24T09:16:46.827Z</time></trkpt><trkpt lat="45.7134229" lon="8.7157193"><ele>263.0</ele><time>2026-04-24T09:16:47.823Z</time></trkpt><trkpt lat="45.7134512" lon="8.7158119"><ele>263.0</ele><time>2026-04-24T09:16:48.83Z</time></trkpt><trkpt lat="45.7134652" lon="8.7159035"><ele>263.0</ele><time>2026-04-24T09:16:49.823Z</time></trkpt><trkpt lat="45.7135026" lon="8.7160693"><ele>263.0</ele><time>2026-04-24T09:16:51.816Z</time></trkpt><trkpt lat="45.7135448" lon="8.716161"><ele>263.0</ele><time>2026-04-24T09:16:52.821Z</time></trkpt><trkpt lat="45.7135888" lon="8.7162617"><ele>263.1666666666667</ele><time>2026-04-24T09:16:53.819Z</time></trkpt><trkpt lat="45.7136208" lon="8.7163601"><ele>263.33333333333337</ele><time>2026-04-24T09:16:54.825Z</time></trkpt><trkpt lat="45.7136533" lon="8.7164611"><ele>263.5</ele><time>2026-04-24T09:16:55.826Z</time></trkpt><trkpt lat="45.7136857" lon="8.71657"><ele>263.6666666666667</ele><time>2026-04-24T09:16:56.839Z</time></trkpt><trkpt lat="45.7137115" lon="8.7166862"><ele>263.8333333333333</ele><time>2026-04-24T09:16:57.823Z</time></trkpt><trkpt lat="45.7137183" lon="8.7168043"><ele>264.0</ele><time>2026-04-24T09:16:58.819Z</time></trkpt><trkpt lat="45.7137068" lon="8.7169189"><ele>264.0</ele><time>2026-04-24T09:16:59.818Z</time></trkpt><trkpt lat="45.7136731" lon="8.7170253"><ele>264.0</ele><time>2026-04-24T09:17:00.823Z</time></trkpt><trkpt lat="45.7136282" lon="8.7171275"><ele>264.0</ele><time>2026-04-24T09:17:01.818Z</time></trkpt><trkpt lat="45.7135799" lon="8.7172334"><ele>264.0</ele><time>2026-04-24T09:17:02.821Z</time></trkpt><trkpt lat="45.7135172" lon="8.7173496"><ele>264.0</ele><time>2026-04-24T09:17:03.819Z</time></trkpt><trkpt lat="45.7134369" lon="8.7174657"><ele>265.25</ele><time>2026-04-24T09:17:04.812Z</time></trkpt><trkpt lat="45.7133412" lon="8.7175738"><ele>266.5</ele><time>2026-04-24T09:17:05.82Z</time></trkpt><trkpt lat="45.7132468" lon="8.7176702"><ele>267.75</ele><time>2026-04-24T09:17:06.824Z</time></trkpt><trkpt lat="45.7131592" lon="8.7177452"><ele>269.0</ele><time>2026-04-24T09:17:07.819Z</time></trkpt><trkpt lat="45.713055" lon="8.7177945"><ele>269.0</ele><time>2026-04-24T09:17:08.825Z</time></trkpt><trkpt lat="45.7129428" lon="8.7178118"><ele>269.0</ele><time>2026-04-24T09:17:09.825Z</time></trkpt><trkpt lat="45.7128221" lon="8.7177987"><ele>269.0</ele><time>2026-04-24T09:17:10.829Z</time></trkpt><trkpt lat="45.7127043" lon="8.7177724"><ele>269.0</ele><time>2026-04-24T09:17:11.817Z</time></trkpt><trkpt lat="45.7125944" lon="8.7177526"><ele>269.33333333333337</ele><time>2026-04-24T09:17:12.816Z</time></trkpt><trkpt lat="45.7124933" lon="8.7177335"><ele>269.6666666666667</ele><time>2026-04-24T09:17:13.82Z</time></trkpt><trkpt lat="45.7124094" lon="8.7177207"><ele>270.0</ele><time>2026-04-24T09:17:14.821Z</time></trkpt><trkpt lat="45.7123417" lon="8.7177355"><ele>270.3333333333333</ele><time>2026-04-24T09:17:16.822Z</time></trkpt><trkpt lat="45.7122952" lon="8.7176498"><ele>270.66666666666663</ele><time>2026-04-24T09:17:30.814Z</time></trkpt><trkpt lat="45.7122478" lon="8.7175553"><ele>271.0</ele><time>2026-04-24T09:17:31.816Z</time></trkpt><trkpt lat="45.7122045" lon="8.7174384"><ele>271.0</ele><time>2026-04-24T09:17:32.815Z</time></trkpt><trkpt lat="45.7121648" lon="8.7172979"><ele>271.0</ele><time>2026-04-24T09:17:33.815Z</time></trkpt><trkpt lat="45.7121328" lon="8.7171389"><ele>271.0</ele><time>2026-04-24T09:17:34.809Z</time></trkpt><trkpt lat="45.7120818" lon="8.7169485"><ele>271.0</ele><time>2026-04-24T09:17:35.82Z</time></trkpt><trkpt lat="45.7120098" lon="8.7167599"><ele>270.8</ele><time>2026-04-24T09:17:36.819Z</time></trkpt><trkpt lat="45.7119492" lon="8.716588"><ele>270.6</ele><time>2026-04-24T09:17:37.82Z</time></trkpt><trkpt lat="45.7118877" lon="8.7164425"><ele>270.4</ele><time>2026-04-24T09:17:38.815Z</time></trkpt><trkpt lat="45.7118377" lon="8.7163203"><ele>270.2</ele><time>2026-04-24T09:17:39.817Z</time></trkpt><trkpt lat="45.7118047" lon="8.7162127"><ele>270.0</ele><time>2026-04-24T09:17:40.82Z</time></trkpt><trkpt lat="45.7117848" lon="8.7161238"><ele>269.6</ele><time>2026-04-24T09:17:41.819Z</time></trkpt><trkpt lat="45.7118306" lon="8.71596"><ele>269.2</ele><time>2026-04-24T09:17:43.821Z</time></trkpt><trkpt lat="45.7118767" lon="8.7158552"><ele>268.8</ele><time>2026-04-24T09:17:44.82Z</time></trkpt><trkpt lat="45.7119342" lon="8.7157392"><ele>268.4</ele><time>2026-04-24T09:17:45.814Z</time></trkpt><trkpt lat="45.7120062" lon="8.715611"><ele>268.0</ele><time>2026-04-24T09:17:46.809Z</time></trkpt><trkpt lat="45.7120821" lon="8.715489"><ele>266.75</ele><time>2026-04-24T09:17:47.816Z</time></trkpt><trkpt lat="45.7121587" lon="8.7154095"><ele>265.5</ele><time>2026-04-24T09:17:48.824Z</time></trkpt><trkpt lat="45.7122491" lon="8.7153595"><ele>264.25</ele><time>2026-04-24T09:17:49.817Z</time></trkpt><trkpt lat="45.7123678" lon="8.7153348"><ele>263.0</ele><time>2026-04-24T09:17:50.832Z</time></trkpt><trkpt lat="45.7125111" lon="8.7153142"><ele>263.0</ele><time>2026-04-24T09:17:51.824Z</time></trkpt><trkpt lat="45.7126703" lon="8.7152829"><ele>263.0</ele><time>2026-04-24T09:17:52.828Z</time></trkpt><trkpt lat="45.7128221" lon="8.7152373"><ele>263.0</ele><time>2026-04-24T09:17:53.828Z</time></trkpt><trkpt lat="45.7129506" lon="8.715179"><ele>263.0</ele><time>2026-04-24T09:17:54.832Z</time></trkpt><trkpt lat="45.7130689" lon="8.7151261"><ele>263.0</ele><time>2026-04-24T09:17:55.821Z</time></trkpt><trkpt lat="45.7131735" lon="8.7151037"><ele>263.0</ele><time>2026-04-24T09:17:56.824Z</time></trkpt><trkpt lat="45.7132639" lon="8.7151233"><ele>263.0</ele><time>2026-04-24T09:17:57.826Z</time></trkpt><trkpt lat="45.7133463" lon="8.7151758"><ele>263.0</ele><time>2026-04-24T09:17:58.851Z</time></trkpt><trkpt lat="45.7134209" lon="8.7152551"><ele>263.0</ele><time>2026-04-24T09:17:59.831Z</time></trkpt><trkpt lat="45.7134842" lon="8.7153889"><ele>263.0</ele><time>2026-04-24T09:18:00.828Z</time></trkpt><trkpt lat="45.7135343" lon="8.7155383"><ele>263.0</ele><time>2026-04-24T09:18:01.822Z</time></trkpt><trkpt lat="45.7135646" lon="8.7156631"><ele>263.0</ele><time>2026-04-24T09:18:02.832Z</time></trkpt><trkpt lat="45.7135816" lon="8.715762"><ele>263.0</ele><time>2026-04-24T09:18:03.824Z</time></trkpt><trkpt lat="45.7135798" lon="8.7158682"><ele>262.83333333333337</ele><time>2026-04-24T09:18:04.825Z</time></trkpt><trkpt lat="45.7135862" lon="8.7159678"><ele>262.6666666666667</ele><time>2026-04-24T09:18:05.822Z</time></trkpt><trkpt lat="45.7136059" lon="8.7160662"><ele>262.5</ele><time>2026-04-24T09:18:06.826Z</time></trkpt><trkpt lat="45.7136296" lon="8.716171"><ele>262.3333333333333</ele><time>2026-04-24T09:18:07.831Z</time></trkpt><trkpt lat="45.7136548" lon="8.7162863"><ele>262.16666666666663</ele><time>2026-04-24T09:18:08.822Z</time></trkpt><trkpt lat="45.7136785" lon="8.7164041"><ele>262.0</ele><time>2026-04-24T09:18:09.823Z</time></trkpt><trkpt lat="45.7136958" lon="8.7165304"><ele>262.3333333333333</ele><time>2026-04-24T09:18:10.819Z</time></trkpt><trkpt lat="45.713715" lon="8.7166573"><ele>262.66666666666663</ele><time>2026-04-24T09:18:11.814Z</time></trkpt><trkpt lat="45.7137284" lon="8.7167766"><ele>263.0</ele><time>2026-04-24T09:18:12.813Z</time></trkpt><trkpt lat="45.7137239" lon="8.7168883"><ele>263.3333333333333</ele><time>2026-04-24T09:18:13.816Z</time></trkpt><trkpt lat="45.7137158" lon="8.716987"><ele>263.6666666666667</ele><time>2026-04-24T09:18:14.821Z</time></trkpt><trkpt lat="45.7136898" lon="8.7170707"><ele>264.0</ele><time>2026-04-24T09:18:15.816Z</time></trkpt><trkpt lat="45.7136515" lon="8.7171597"><ele>264.0</ele><time>2026-04-24T09:18:16.819Z</time></trkpt><trkpt lat="45.7135746" lon="8.7172545"><ele>264.0</ele><time>2026-04-24T09:18:17.808Z</time></trkpt><trkpt lat="45.7134642" lon="8.7173688"><ele>264.0</ele><time>2026-04-24T09:18:18.822Z</time></trkpt><trkpt lat="45.7133396" lon="8.7174875"><ele>264.0</ele><time>2026-04-24T09:18:19.818Z</time></trkpt><trkpt lat="45.7132146" lon="8.7176117"><ele>265.25</ele><time>2026-04-24T09:18:20.822Z</time></trkpt><trkpt lat="45.7131107" lon="8.717711"><ele>266.5</ele><time>2026-04-24T09:18:21.814Z</time></trkpt><trkpt lat="45.7130096" lon="8.7177815"><ele>267.75</ele><time>2026-04-24T09:18:22.82Z</time></trkpt><trkpt lat="45.7129022" lon="8.717825"><ele>269.0</ele><time>2026-04-24T09:18:23.813Z</time></trkpt><trkpt lat="45.7127884" lon="8.7178461"><ele>269.4</ele><time>2026-04-24T09:18:24.815Z</time></trkpt><trkpt lat="45.7126699" lon="8.7178547"><ele>269.79999999999995</ele><time>2026-04-24T09:18:25.814Z</time></trkpt><trkpt lat="45.7125536" lon="8.717845"><ele>270.20000000000005</ele><time>2026-04-24T09:18:26.813Z</time></trkpt><trkpt lat="45.7124477" lon="8.7178131"><ele>270.6</ele><time>2026-04-24T09:18:27.813Z</time></trkpt><trkpt lat="45.7123506" lon="8.7177592"><ele>271.0</ele><time>2026-04-24T09:18:28.831Z</time></trkpt><trkpt lat="45.7122668" lon="8.7176954"><ele>271.0</ele><time>2026-04-24T09:18:29.812Z</time></trkpt><trkpt lat="45.7121864" lon="8.7176017"><ele>271.0</ele><time>2026-04-24T09:18:30.82Z</time></trkpt><trkpt lat="45.712118" lon="8.7174899"><ele>271.0</ele><time>2026-04-24T09:18:31.815Z</time></trkpt><trkpt lat="45.7120557" lon="8.7173489"><ele>271.0</ele><time>2026-04-24T09:18:32.826Z</time></trkpt><trkpt lat="45.7119903" lon="8.7171828"><ele>271.0</ele><time>2026-04-24T09:18:33.805Z</time></trkpt><trkpt lat="45.7119332" lon="8.7169954"><ele>271.0</ele><time>2026-04-24T09:18:34.809Z</time></trkpt><trkpt lat="45.711877" lon="8.7168061"><ele>271.0</ele><time>2026-04-24T09:18:35.817Z</time></trkpt><trkpt lat="45.711821" lon="8.7166304"><ele>271.0</ele><time>2026-04-24T09:18:36.81Z</time></trkpt><trkpt lat="45.7117785" lon="8.716464"><ele>270.8</ele><time>2026-04-24T09:18:37.815Z</time></trkpt><trkpt lat="45.7117447" lon="8.7163365"><ele>270.6</ele><time>2026-04-24T09:18:38.816Z</time></trkpt><trkpt lat="45.7117426" lon="8.7162245"><ele>270.4</ele><time>2026-04-24T09:18:39.819Z</time></trkpt><trkpt lat="45.7117592" lon="8.7161046"><ele>270.2</ele><time>2026-04-24T09:18:40.821Z</time></trkpt><trkpt lat="45.7118046" lon="8.715967"><ele>270.0</ele><time>2026-04-24T09:18:41.817Z</time></trkpt><trkpt lat="45.7118685" lon="8.7158135"><ele>268.25</ele><time>2026-04-24T09:18:42.815Z</time></trkpt><trkpt lat="45.7119403" lon="8.7156622"><ele>266.5</ele><time>2026-04-24T09:18:43.822Z</time></trkpt><trkpt lat="45.7120171" lon="8.715527"><ele>264.75</ele><time>2026-04-24T09:18:44.828Z</time></trkpt><trkpt lat="45.7121019" lon="8.715434"><ele>263.0</ele><time>2026-04-24T09:18:45.817Z</time></trkpt><trkpt lat="45.7122064" lon="8.7153729"><ele>263.0</ele><time>2026-04-24T09:18:46.829Z</time></trkpt><trkpt lat="45.7123103" lon="8.7153607"><ele>263.0</ele><time>2026-04-24T09:18:47.818Z</time></trkpt><trkpt lat="45.7124276" lon="8.7153649"><ele>263.0</ele><time>2026-04-24T09:18:48.819Z</time></trkpt><trkpt lat="45.7125465" lon="8.7153615"><ele>263.0</ele><time>2026-04-24T09:18:49.817Z</time></trkpt><trkpt lat="45.7126674" lon="8.7153288"><ele>263.0</ele><time>2026-04-24T09:18:50.829Z</time></trkpt><trkpt lat="45.7127928" lon="8.7152714"><ele>263.0</ele><time>2026-04-24T09:18:51.822Z</time></trkpt><trkpt lat="45.7129187" lon="8.715209"><ele>263.0</ele><time>2026-04-24T09:18:52.824Z</time></trkpt><trkpt lat="45.7130344" lon="8.7151602"><ele>263.0</ele><time>2026-04-24T09:18:53.809Z</time></trkpt><trkpt lat="45.7131403" lon="8.7151354"><ele>263.0</ele><time>2026-04-24T09:18:54.819Z</time></trkpt><trkpt lat="45.7132303" lon="8.7151468"><ele>263.0</ele><time>2026-04-24T09:18:55.819Z</time></trkpt><trkpt lat="45.7133082" lon="8.7152184"><ele>263.0</ele><time>2026-04-24T09:18:56.83Z</time></trkpt><trkpt lat="45.7133721" lon="8.7153669"><ele>263.0</ele><time>2026-04-24T09:18:57.819Z</time></trkpt><trkpt lat="45.7134279" lon="8.7155292"><ele>263.0</ele><time>2026-04-24T09:18:58.821Z</time></trkpt><trkpt lat="45.7134762" lon="8.7156671"><ele>263.0</ele><time>2026-04-24T09:18:59.835Z</time></trkpt><trkpt lat="45.7135116" lon="8.7157833"><ele>263.0</ele><time>2026-04-24T09:19:00.818Z</time></trkpt><trkpt lat="45.7135323" lon="8.7158913"><ele>263.0</ele><time>2026-04-24T09:19:01.819Z</time></trkpt><trkpt lat="45.713548" lon="8.7159925"><ele>263.0</ele><time>2026-04-24T09:19:02.817Z</time></trkpt><trkpt lat="45.7135665" lon="8.7160872"><ele>263.0</ele><time>2026-04-24T09:19:03.821Z</time></trkpt><trkpt lat="45.7135981" lon="8.7161888"><ele>263.0</ele><time>2026-04-24T09:19:04.815Z</time></trkpt><trkpt lat="45.7136229" lon="8.7163033"><ele>263.1666666666667</ele><time>2026-04-24T09:19:05.813Z</time></trkpt><trkpt lat="45.7136627" lon="8.7164164"><ele>263.33333333333337</ele><time>2026-04-24T09:19:06.821Z</time></trkpt><trkpt lat="45.7136966" lon="8.7165356"><ele>263.5</ele><time>2026-04-24T09:19:07.816Z</time></trkpt><trkpt lat="45.7137284" lon="8.7166482"><ele>263.6666666666667</ele><time>2026-04-24T09:19:08.822Z</time></trkpt><trkpt lat="45.7137311" lon="8.7167613"><ele>263.8333333333333</ele><time>2026-04-24T09:19:09.816Z</time></trkpt><trkpt lat="45.7137322" lon="8.7168783"><ele>264.0</ele><time>2026-04-24T09:19:10.817Z</time></trkpt><trkpt lat="45.713709" lon="8.7169902"><ele>264.0</ele><time>2026-04-24T09:19:11.819Z</time></trkpt><trkpt lat="45.7136653" lon="8.7170838"><ele>264.0</ele><time>2026-04-24T09:19:12.82Z</time></trkpt><trkpt lat="45.7135945" lon="8.7171704"><ele>264.0</ele><time>2026-04-24T09:19:13.817Z</time></trkpt><trkpt lat="45.7135158" lon="8.7172568"><ele>264.0</ele><time>2026-04-24T09:19:14.818Z</time></trkpt><trkpt lat="45.713428" lon="8.7173538"><ele>264.0</ele><time>2026-04-24T09:19:15.821Z</time></trkpt><trkpt lat="45.7133404" lon="8.7174611"><ele>265.0</ele><time>2026-04-24T09:19:16.819Z</time></trkpt><trkpt lat="45.713251" lon="8.7175605"><ele>266.0</ele><time>2026-04-24T09:19:17.818Z</time></trkpt><trkpt lat="45.7131673" lon="8.7176437"><ele>267.0</ele><time>2026-04-24T09:19:18.816Z</time></trkpt><trkpt lat="45.7130757" lon="8.717706"><ele>268.0</ele><time>2026-04-24T09:19:19.816Z</time></trkpt><trkpt lat="45.7129853" lon="8.7177569"><ele>269.0</ele><time>2026-04-24T09:19:20.818Z</time></trkpt><trkpt lat="45.7128807" lon="8.7177934"><ele>269.0</ele><time>2026-04-24T09:19:21.814Z</time></trkpt><trkpt lat="45.7127683" lon="8.7178136"><ele>269.0</ele><time>2026-04-24T09:19:22.823Z</time></trkpt><trkpt lat="45.7126545" lon="8.7178193"><ele>269.0</ele><time>2026-04-24T09:19:23.818Z</time></trkpt><trkpt lat="45.7125534" lon="8.7178103"><ele>269.0</ele><time>2026-04-24T09:19:24.815Z</time></trkpt><trkpt lat="45.7124586" lon="8.717795"><ele>269.0</ele><time>2026-04-24T09:19:25.812Z</time></trkpt><trkpt lat="45.7123942" lon="8.7177955"><ele>270.0</ele><time>2026-04-24T09:19:26.811Z</time></trkpt><trkpt lat="45.7124739" lon="8.7179264"><ele>271.0</ele><time>2026-04-24T09:22:10.827Z</time></trkpt><trkpt lat="45.7125208" lon="8.7180249"><ele>272.0</ele><time>2026-04-24T09:22:11.824Z</time></trkpt><trkpt lat="45.7125736" lon="8.7181353"><ele>273.0</ele><time>2026-04-24T09:22:12.819Z</time></trkpt><trkpt lat="45.7126238" lon="8.7182731"><ele>274.0</ele><time>2026-04-24T09:22:13.821Z</time></trkpt><trkpt lat="45.7126752" lon="8.7184217"><ele>274.2</ele><time>2026-04-24T09:22:14.815Z</time></trkpt><trkpt lat="45.7127258" lon="8.7185702"><ele>274.4</ele><time>2026-04-24T09:22:15.816Z</time></trkpt><trkpt lat="45.7127683" lon="8.7187077"><ele>274.6</ele><time>2026-04-24T09:22:16.821Z</time></trkpt><trkpt lat="45.7128124" lon="8.7188172"><ele>274.8</ele><time>2026-04-24T09:22:17.813Z</time></trkpt><trkpt lat="45.7128497" lon="8.7189129"><ele>275.0</ele><time>2026-04-24T09:22:18.815Z</time></trkpt><trkpt lat="45.7128784" lon="8.7190166"><ele>275.0</ele><time>2026-04-24T09:22:20.814Z</time></trkpt><trkpt lat="45.712807" lon="8.7191323"><ele>275.0</ele><time>2026-04-24T09:22:23.816Z</time></trkpt><trkpt lat="45.7127348" lon="8.7191734"><ele>275.0</ele><time>2026-04-24T09:22:24.818Z</time></trkpt><trkpt lat="45.7126457" lon="8.7192187"><ele>275.0</ele><time>2026-04-24T09:22:25.823Z</time></trkpt><trkpt lat="45.7125476" lon="8.7192771"><ele>275.0</ele><time>2026-04-24T09:22:26.824Z</time></trkpt><trkpt lat="45.7124349" lon="8.7193705"><ele>276.33333333333337</ele><time>2026-04-24T09:22:27.819Z</time></trkpt><trkpt lat="45.7123097" lon="8.7194779"><ele>277.6666666666667</ele><time>2026-04-24T09:22:28.817Z</time></trkpt><trkpt lat="45.7121756" lon="8.719604"><ele>279.0</ele><time>2026-04-24T09:22:29.808Z</time></trkpt><trkpt lat="45.7120315" lon="8.7197351"><ele>278.6666666666667</ele><time>2026-04-24T09:22:30.82Z</time></trkpt><trkpt lat="45.7118674" lon="8.719882"><ele>278.33333333333337</ele><time>2026-04-24T09:22:31.816Z</time></trkpt><trkpt lat="45.7117034" lon="8.7200265"><ele>278.0</ele><time>2026-04-24T09:22:32.822Z</time></trkpt><trkpt lat="45.7115365" lon="8.7201701"><ele>277.6666666666667</ele><time>2026-04-24T09:22:33.81Z</time></trkpt><trkpt lat="45.711363" lon="8.7203328"><ele>277.3333333333333</ele><time>2026-04-24T09:22:34.819Z</time></trkpt><trkpt lat="45.7111921" lon="8.7204901"><ele>277.0</ele><time>2026-04-24T09:22:35.811Z</time></trkpt><trkpt lat="45.711027" lon="8.7206427"><ele>276.66666666666663</ele><time>2026-04-24T09:22:36.833Z</time></trkpt><trkpt lat="45.7108813" lon="8.7207796"><ele>276.3333333333333</ele><time>2026-04-24T09:22:37.815Z</time></trkpt><trkpt lat="45.7107356" lon="8.720923"><ele>276.0</ele><time>2026-04-24T09:22:38.817Z</time></trkpt><trkpt lat="45.7105874" lon="8.721059"><ele>276.3333333333333</ele><time>2026-04-24T09:22:39.814Z</time></trkpt><trkpt lat="45.7104404" lon="8.7211886"><ele>276.66666666666663</ele><time>2026-04-24T09:22:40.815Z</time></trkpt><trkpt lat="45.7102869" lon="8.7213391"><ele>277.0</ele><time>2026-04-24T09:22:41.809Z</time></trkpt><trkpt lat="45.7101575" lon="8.7214772"><ele>277.0</ele><time>2026-04-24T09:22:42.814Z</time></trkpt><trkpt lat="45.7100325" lon="8.7215933"><ele>277.0</ele><time>2026-04-24T09:22:43.814Z</time></trkpt><trkpt lat="45.7099186" lon="8.7217016"><ele>277.0</ele><time>2026-04-24T09:22:44.816Z</time></trkpt><trkpt lat="45.7098127" lon="8.7218003"><ele>277.0</ele><time>2026-04-24T09:22:45.813Z</time></trkpt><trkpt lat="45.7097136" lon="8.7219007"><ele>279.25</ele><time>2026-04-24T09:22:46.81Z</time></trkpt><trkpt lat="45.7096167" lon="8.7220152"><ele>281.5</ele><time>2026-04-24T09:22:47.803Z</time></trkpt><trkpt lat="45.7095367" lon="8.7221542"><ele>283.75</ele><time>2026-04-24T09:22:48.815Z</time></trkpt><trkpt lat="45.7094881" lon="8.722299"><ele>286.0</ele><time>2026-04-24T09:22:49.813Z</time></trkpt><trkpt lat="45.7094403" lon="8.7224924"><ele>284.3333333333333</ele><time>2026-04-24T09:22:50.816Z</time></trkpt><trkpt lat="45.7094053" lon="8.7227068"><ele>282.6666666666667</ele><time>2026-04-24T09:22:51.811Z</time></trkpt><trkpt lat="45.7093815" lon="8.722911"><ele>281.0</ele><time>2026-04-24T09:22:52.821Z</time></trkpt><trkpt lat="45.7093336" lon="8.7231307"><ele>280.6666666666667</ele><time>2026-04-24T09:22:53.811Z</time></trkpt><trkpt lat="45.709281" lon="8.7233561"><ele>280.3333333333333</ele><time>2026-04-24T09:22:54.811Z</time></trkpt><trkpt lat="45.7092193" lon="8.7236019"><ele>280.0</ele><time>2026-04-24T09:22:55.81Z</time></trkpt><trkpt lat="45.7091537" lon="8.7238651"><ele>282.0</ele><time>2026-04-24T09:22:56.818Z</time></trkpt><trkpt lat="45.7090732" lon="8.724144"><ele>284.0</ele><time>2026-04-24T09:22:57.812Z</time></trkpt><trkpt lat="45.708989" lon="8.7244319"><ele>286.0</ele><time>2026-04-24T09:22:58.815Z</time></trkpt><trkpt lat="45.7089047" lon="8.7247252"><ele>289.0</ele><time>2026-04-24T09:22:59.814Z</time></trkpt><trkpt lat="45.7088102" lon="8.7250367"><ele>292.0</ele><time>2026-04-24T09:23:00.814Z</time></trkpt><trkpt lat="45.7087079" lon="8.72535"><ele>291.5</ele><time>2026-04-24T09:23:01.803Z</time></trkpt><trkpt lat="45.7086147" lon="8.7256666"><ele>291.0</ele><time>2026-04-24T09:23:02.811Z</time></trkpt><trkpt lat="45.7085242" lon="8.7259451"><ele>292.0</ele><time>2026-04-24T09:23:03.8Z</time></trkpt><trkpt lat="45.7084352" lon="8.7261957"><ele>293.0</ele><time>2026-04-24T09:23:04.802Z</time></trkpt><trkpt lat="45.7083395" lon="8.7263966"><ele>294.0</ele><time>2026-04-24T09:23:05.798Z</time></trkpt><trkpt lat="45.708249" lon="8.7265707"><ele>294.0</ele><time>2026-04-24T09:23:06.797Z</time></trkpt><trkpt lat="45.7081668" lon="8.7266984"><ele>294.0</ele><time>2026-04-24T09:23:07.813Z</time></trkpt><trkpt lat="45.7081021" lon="8.7268206"><ele>294.0</ele><time>2026-04-24T09:23:08.804Z</time></trkpt><trkpt lat="45.7080602" lon="8.7269355"><ele>294.0</ele><time>2026-04-24T09:23:09.802Z</time></trkpt><trkpt lat="45.7080395" lon="8.7270429"><ele>294.0</ele><time>2026-04-24T09:23:10.8Z</time></trkpt><trkpt lat="45.7080036" lon="8.7271526"><ele>293.4</ele><time>2026-04-24T09:23:11.805Z</time></trkpt><trkpt lat="45.707921" lon="8.7272795"><ele>292.79999999999995</ele><time>2026-04-24T09:23:13.808Z</time></trkpt><trkpt lat="45.7078383" lon="8.7272956"><ele>292.20000000000005</ele><time>2026-04-24T09:23:14.806Z</time></trkpt><trkpt lat="45.7077345" lon="8.7272638"><ele>291.6</ele><time>2026-04-24T09:23:15.808Z</time></trkpt><trkpt lat="45.7076472" lon="8.7271795"><ele>291.0</ele><time>2026-04-24T09:23:16.811Z</time></trkpt><trkpt lat="45.7075855" lon="8.7270653"><ele>291.0</ele><time>2026-04-24T09:23:17.815Z</time></trkpt><trkpt lat="45.707549" lon="8.726929"><ele>291.0</ele><time>2026-04-24T09:23:18.821Z</time></trkpt><trkpt lat="45.7075453" lon="8.7267743"><ele>291.0</ele><time>2026-04-24T09:23:19.82Z</time></trkpt><trkpt lat="45.7075924" lon="8.7266037"><ele>291.0</ele><time>2026-04-24T09:23:20.818Z</time></trkpt><trkpt lat="45.7076811" lon="8.7264182"><ele>291.0</ele><time>2026-04-24T09:23:21.816Z</time></trkpt><trkpt lat="45.707772" lon="8.7262539"><ele>291.0</ele><time>2026-04-24T09:23:22.813Z</time></trkpt><trkpt lat="45.7078485" lon="8.7261046"><ele>291.0</ele><time>2026-04-24T09:23:23.815Z</time></trkpt><trkpt lat="45.7079191" lon="8.7259643"><ele>291.0</ele><time>2026-04-24T09:23:24.814Z</time></trkpt><trkpt lat="45.7079655" lon="8.7258351"><ele>291.0</ele><time>2026-04-24T09:23:25.82Z</time></trkpt><trkpt lat="45.7079868" lon="8.7257133"><ele>291.0</ele><time>2026-04-24T09:23:26.821Z</time></trkpt><trkpt lat="45.7079905" lon="8.725606"><ele>291.0</ele><time>2026-04-24T09:23:27.821Z</time></trkpt><trkpt lat="45.7079734" lon="8.7255056"><ele>291.0</ele><time>2026-04-24T09:23:28.825Z</time></trkpt><trkpt lat="45.7079266" lon="8.7254253"><ele>291.0</ele><time>2026-04-24T09:23:29.824Z</time></trkpt><trkpt lat="45.7078444" lon="8.7253568"><ele>291.0</ele><time>2026-04-24T09:23:30.826Z</time></trkpt><trkpt lat="45.7077403" lon="8.7252937"><ele>291.5</ele><time>2026-04-24T09:23:31.829Z</time></trkpt><trkpt lat="45.7076302" lon="8.7252342"><ele>292.0</ele><time>2026-04-24T09:23:32.835Z</time></trkpt><trkpt lat="45.7075198" lon="8.7251674"><ele>292.5</ele><time>2026-04-24T09:23:33.829Z</time></trkpt><trkpt lat="45.7074177" lon="8.7250986"><ele>293.0</ele><time>2026-04-24T09:23:34.834Z</time></trkpt><trkpt lat="45.7073203" lon="8.7250268"><ele>293.6666666666667</ele><time>2026-04-24T09:23:35.827Z</time></trkpt><trkpt lat="45.7072268" lon="8.7249602"><ele>294.33333333333337</ele><time>2026-04-24T09:23:36.828Z</time></trkpt><trkpt lat="45.707143" lon="8.7249122"><ele>295.0</ele><time>2026-04-24T09:23:37.82Z</time></trkpt><trkpt lat="45.7070633" lon="8.7248779"><ele>295.6666666666667</ele><time>2026-04-24T09:23:38.835Z</time></trkpt><trkpt lat="45.7069878" lon="8.7248667"><ele>296.3333333333333</ele><time>2026-04-24T09:23:39.816Z</time></trkpt><trkpt lat="45.7069159" lon="8.7248786"><ele>297.0</ele><time>2026-04-24T09:23:40.815Z</time></trkpt><trkpt lat="45.7068414" lon="8.7249037"><ele>299.75</ele><time>2026-04-24T09:23:41.808Z</time></trkpt><trkpt lat="45.7067782" lon="8.7249711"><ele>302.5</ele><time>2026-04-24T09:23:42.81Z</time></trkpt><trkpt lat="45.7067126" lon="8.7250999"><ele>305.25</ele><time>2026-04-24T09:23:43.809Z</time></trkpt><trkpt lat="45.7066464" lon="8.7252692"><ele>308.0</ele><time>2026-04-24T09:23:44.808Z</time></trkpt><trkpt lat="45.7065599" lon="8.7254628"><ele>308.0</ele><time>2026-04-24T09:23:45.809Z</time></trkpt><trkpt lat="45.7064566" lon="8.7256795"><ele>308.0</ele><time>2026-04-24T09:23:46.81Z</time></trkpt><trkpt lat="45.7063396" lon="8.7258979"><ele>308.0</ele><time>2026-04-24T09:23:47.813Z</time></trkpt><trkpt lat="45.7062051" lon="8.7261218"><ele>307.6666666666667</ele><time>2026-04-24T09:23:48.815Z</time></trkpt><trkpt lat="45.7060701" lon="8.7263324"><ele>307.3333333333333</ele><time>2026-04-24T09:23:49.817Z</time></trkpt><trkpt lat="45.7059403" lon="8.7265216"><ele>307.0</ele><time>2026-04-24T09:23:50.819Z</time></trkpt><trkpt lat="45.7058197" lon="8.726698"><ele>307.0</ele><time>2026-04-24T09:23:51.817Z</time></trkpt><trkpt lat="45.7057019" lon="8.726866"><ele>307.0</ele><time>2026-04-24T09:23:52.815Z</time></trkpt><trkpt lat="45.7055937" lon="8.7270447"><ele>307.0</ele><time>2026-04-24T09:23:53.812Z</time></trkpt><trkpt lat="45.7054988" lon="8.7272176"><ele>307.0</ele><time>2026-04-24T09:23:54.811Z</time></trkpt><trkpt lat="45.7054164" lon="8.7273718"><ele>307.0</ele><time>2026-04-24T09:23:55.81Z</time></trkpt><trkpt lat="45.7053384" lon="8.7275192"><ele>307.0</ele><time>2026-04-24T09:23:56.807Z</time></trkpt><trkpt lat="45.7052656" lon="8.7276518"><ele>307.0</ele><time>2026-04-24T09:23:57.815Z</time></trkpt><trkpt lat="45.7051882" lon="8.7277498"><ele>307.0</ele><time>2026-04-24T09:23:58.808Z</time></trkpt><trkpt lat="45.7051146" lon="8.727804"><ele>307.0</ele><time>2026-04-24T09:23:59.815Z</time></trkpt><trkpt lat="45.7050383" lon="8.7278281"><ele>307.0</ele><time>2026-04-24T09:24:00.813Z</time></trkpt><trkpt lat="45.7049505" lon="8.7278243"><ele>307.0</ele><time>2026-04-24T09:24:01.807Z</time></trkpt><trkpt lat="45.7048469" lon="8.7277891"><ele>307.0</ele><time>2026-04-24T09:24:02.814Z</time></trkpt><trkpt lat="45.7047379" lon="8.7277376"><ele>307.75</ele><time>2026-04-24T09:24:03.811Z</time></trkpt><trkpt lat="45.704616" lon="8.7276728"><ele>308.5</ele><time>2026-04-24T09:24:04.808Z</time></trkpt><trkpt lat="45.7044897" lon="8.7275858"><ele>309.25</ele><time>2026-04-24T09:24:05.809Z</time></trkpt><trkpt lat="45.7043531" lon="8.7274909"><ele>310.0</ele><time>2026-04-24T09:24:06.806Z</time></trkpt><trkpt lat="45.704201" lon="8.7273871"><ele>310.66666666666663</ele><time>2026-04-24T09:24:07.805Z</time></trkpt><trkpt lat="45.7040458" lon="8.7272761"><ele>311.3333333333333</ele><time>2026-04-24T09:24:08.808Z</time></trkpt><trkpt lat="45.7038945" lon="8.7271602"><ele>312.0</ele><time>2026-04-24T09:24:09.816Z</time></trkpt><trkpt lat="45.7037734" lon="8.7270682"><ele>312.0</ele><time>2026-04-24T09:24:10.805Z</time></trkpt><trkpt lat="45.7036726" lon="8.7270183"><ele>312.0</ele><time>2026-04-24T09:24:11.804Z</time></trkpt><trkpt lat="45.7035773" lon="8.7269888"><ele>312.0</ele><time>2026-04-24T09:24:12.805Z</time></trkpt><trkpt lat="45.7034757" lon="8.7269792"><ele>312.0</ele><time>2026-04-24T09:24:13.814Z</time></trkpt><trkpt lat="45.7033994" lon="8.7270284"><ele>312.0</ele><time>2026-04-24T09:24:14.803Z</time></trkpt><trkpt lat="45.7033134" lon="8.7271038"><ele>313.0</ele><time>2026-04-24T09:24:15.807Z</time></trkpt><trkpt lat="45.7032001" lon="8.7271834"><ele>314.0</ele><time>2026-04-24T09:24:16.803Z</time></trkpt><trkpt lat="45.703071" lon="8.7272768"><ele>315.0</ele><time>2026-04-24T09:24:17.803Z</time></trkpt><trkpt lat="45.7029256" lon="8.7273783"><ele>316.0</ele><time>2026-04-24T09:24:18.811Z</time></trkpt><trkpt lat="45.7027709" lon="8.7274899"><ele>316.0</ele><time>2026-04-24T09:24:19.812Z</time></trkpt><trkpt lat="45.7026087" lon="8.7275944"><ele>316.0</ele><time>2026-04-24T09:24:20.816Z</time></trkpt><trkpt lat="45.7024472" lon="8.7276885"><ele>316.0</ele><time>2026-04-24T09:24:21.806Z</time></trkpt><trkpt lat="45.7022933" lon="8.7277785"><ele>316.3333333333333</ele><time>2026-04-24T09:24:22.815Z</time></trkpt><trkpt lat="45.70215" lon="8.7278617"><ele>316.6666666666667</ele><time>2026-04-24T09:24:23.805Z</time></trkpt><trkpt lat="45.7020103" lon="8.7279682"><ele>317.0</ele><time>2026-04-24T09:24:24.809Z</time></trkpt><trkpt lat="45.7018794" lon="8.7280749"><ele>318.25</ele><time>2026-04-24T09:24:25.808Z</time></trkpt><trkpt lat="45.701751" lon="8.7281702"><ele>319.5</ele><time>2026-04-24T09:24:26.81Z</time></trkpt><trkpt lat="45.7016379" lon="8.7282642"><ele>320.75</ele><time>2026-04-24T09:24:27.812Z</time></trkpt><trkpt lat="45.7015476" lon="8.7283398"><ele>322.0</ele><time>2026-04-24T09:24:28.813Z</time></trkpt><trkpt lat="45.7014757" lon="8.7283848"><ele>322.0</ele><time>2026-04-24T09:24:29.815Z</time></trkpt><trkpt lat="45.7014017" lon="8.7284413"><ele>322.0</ele><time>2026-04-24T09:24:30.815Z</time></trkpt><trkpt lat="45.7013062" lon="8.7284634"><ele>322.0</ele><time>2026-04-24T09:24:31.813Z</time></trkpt><trkpt lat="45.7011949" lon="8.7284606"><ele>322.0</ele><time>2026-04-24T09:24:32.818Z</time></trkpt><trkpt lat="45.7010915" lon="8.7284181"><ele>322.0</ele><time>2026-04-24T09:24:33.817Z</time></trkpt><trkpt lat="45.7009978" lon="8.7283773"><ele>321.20000000000005</ele><time>2026-04-24T09:24:34.816Z</time></trkpt><trkpt lat="45.7009052" lon="8.7283389"><ele>320.40000000000003</ele><time>2026-04-24T09:24:35.817Z</time></trkpt><trkpt lat="45.7008075" lon="8.7283056"><ele>319.6</ele><time>2026-04-24T09:24:36.813Z</time></trkpt><trkpt lat="45.7007177" lon="8.7282709"><ele>318.8</ele><time>2026-04-24T09:24:37.817Z</time></trkpt><trkpt lat="45.7006091" lon="8.7282355"><ele>318.0</ele><time>2026-04-24T09:24:38.807Z</time></trkpt><trkpt lat="45.7004855" lon="8.7281987"><ele>318.0</ele><time>2026-04-24T09:24:39.81Z</time></trkpt><trkpt lat="45.7003747" lon="8.7281529"><ele>318.0</ele><time>2026-04-24T09:24:40.824Z</time></trkpt><trkpt lat="45.7002638" lon="8.7281091"><ele>318.0</ele><time>2026-04-24T09:24:41.812Z</time></trkpt><trkpt lat="45.7001544" lon="8.7280733"><ele>318.0</ele><time>2026-04-24T09:24:42.809Z</time></trkpt><trkpt lat="45.7000568" lon="8.7280429"><ele>318.0</ele><time>2026-04-24T09:24:43.819Z</time></trkpt><trkpt lat="45.699964" lon="8.7280211"><ele>318.0</ele><time>2026-04-24T09:24:44.814Z</time></trkpt><trkpt lat="45.6998799" lon="8.7280105"><ele>318.0</ele><time>2026-04-24T09:24:45.816Z</time></trkpt><trkpt lat="45.6998024" lon="8.7280178"><ele>318.0</ele><time>2026-04-24T09:24:46.813Z</time></trkpt><trkpt lat="45.6997301" lon="8.7280273"><ele>318.0</ele><time>2026-04-24T09:24:47.819Z</time></trkpt><trkpt lat="45.6996564" lon="8.7280426"><ele>318.0</ele><time>2026-04-24T09:24:48.819Z</time></trkpt><trkpt lat="45.6995806" lon="8.7280673"><ele>318.0</ele><time>2026-04-24T09:24:49.812Z</time></trkpt><trkpt lat="45.699508" lon="8.7280939"><ele>318.0</ele><time>2026-04-24T09:24:50.816Z</time></trkpt><trkpt lat="45.6994362" lon="8.7281289"><ele>318.0</ele><time>2026-04-24T09:24:51.82Z</time></trkpt><trkpt lat="45.6993682" lon="8.728169"><ele>318.0</ele><time>2026-04-24T09:24:52.824Z</time></trkpt><trkpt lat="45.6993037" lon="8.7282101"><ele>318.0</ele><time>2026-04-24T09:24:53.826Z</time></trkpt><trkpt lat="45.6992429" lon="8.7282485"><ele>318.0</ele><time>2026-04-24T09:24:54.818Z</time></trkpt><trkpt lat="45.6991505" lon="8.7282981"><ele>318.0</ele><time>2026-04-24T09:24:56.819Z</time></trkpt><trkpt lat="45.6992524" lon="8.7282777"><ele>318.0</ele><time>2026-04-24T09:25:11.834Z</time></trkpt><trkpt lat="45.6993183" lon="8.7282467"><ele>318.0</ele><time>2026-04-24T09:25:12.819Z</time></trkpt><trkpt lat="45.6994125" lon="8.7282059"><ele>318.0</ele><time>2026-04-24T09:25:13.822Z</time></trkpt><trkpt lat="45.6995209" lon="8.7281461"><ele>318.0</ele><time>2026-04-24T09:25:14.81Z</time></trkpt><trkpt lat="45.6996363" lon="8.7280963"><ele>318.0</ele><time>2026-04-24T09:25:15.807Z</time></trkpt><trkpt lat="45.6997723" lon="8.7280595"><ele>318.0</ele><time>2026-04-24T09:25:16.814Z</time></trkpt><trkpt lat="45.6999077" lon="8.728045"><ele>318.0</ele><time>2026-04-24T09:25:17.813Z</time></trkpt><trkpt lat="45.700051" lon="8.7280473"><ele>318.0</ele><time>2026-04-24T09:25:18.809Z</time></trkpt><trkpt lat="45.7002078" lon="8.7280745"><ele>318.0</ele><time>2026-04-24T09:25:19.809Z</time></trkpt><trkpt lat="45.7003812" lon="8.7281108"><ele>318.0</ele><time>2026-04-24T09:25:20.81Z</time></trkpt><trkpt lat="45.7005539" lon="8.7281575"><ele>318.0</ele><time>2026-04-24T09:25:21.807Z</time></trkpt><trkpt lat="45.7007417" lon="8.7282065"><ele>318.0</ele><time>2026-04-24T09:25:22.819Z</time></trkpt><trkpt lat="45.7009276" lon="8.7282365"><ele>318.0</ele><time>2026-04-24T09:25:23.816Z</time></trkpt><trkpt lat="45.7010795" lon="8.7282679"><ele>318.0</ele><time>2026-04-24T09:25:24.815Z</time></trkpt><trkpt lat="45.7012182" lon="8.7283011"><ele>318.0</ele><time>2026-04-24T09:25:25.81Z</time></trkpt><trkpt lat="45.7013493" lon="8.7283288"><ele>318.0</ele><time>2026-04-24T09:25:26.808Z</time></trkpt><trkpt lat="45.7014644" lon="8.7283378"><ele>317.8</ele><time>2026-04-24T09:25:27.815Z</time></trkpt><trkpt lat="45.7015679" lon="8.7283156"><ele>317.6</ele><time>2026-04-24T09:25:28.809Z</time></trkpt><trkpt lat="45.7016681" lon="8.7282697"><ele>317.4</ele><time>2026-04-24T09:25:29.812Z</time></trkpt><trkpt lat="45.7017715" lon="8.7282136"><ele>317.2</ele><time>2026-04-24T09:25:30.813Z</time></trkpt><trkpt lat="45.7018843" lon="8.7281326"><ele>317.0</ele><time>2026-04-24T09:25:31.811Z</time></trkpt><trkpt lat="45.7020173" lon="8.7280297"><ele>317.0</ele><time>2026-04-24T09:25:32.813Z</time></trkpt><trkpt lat="45.7021614" lon="8.7279022"><ele>317.0</ele><time>2026-04-24T09:25:33.809Z</time></trkpt><trkpt lat="45.7023143" lon="8.7277739"><ele>317.0</ele><time>2026-04-24T09:25:34.818Z</time></trkpt><trkpt lat="45.7024805" lon="8.727637"><ele>316.6666666666667</ele><time>2026-04-24T09:25:35.812Z</time></trkpt><trkpt lat="45.7026553" lon="8.7275138"><ele>316.3333333333333</ele><time>2026-04-24T09:25:36.819Z</time></trkpt><trkpt lat="45.7028244" lon="8.727402"><ele>316.0</ele><time>2026-04-24T09:25:37.815Z</time></trkpt><trkpt lat="45.7029894" lon="8.7272943"><ele>316.0</ele><time>2026-04-24T09:25:38.817Z</time></trkpt><trkpt lat="45.7031449" lon="8.7271798"><ele>316.0</ele><time>2026-04-24T09:25:39.814Z</time></trkpt><trkpt lat="45.7032761" lon="8.7270725"><ele>316.0</ele><time>2026-04-24T09:25:40.81Z</time></trkpt><trkpt lat="45.7033744" lon="8.7270154"><ele>316.0</ele><time>2026-04-24T09:25:41.81Z</time></trkpt><trkpt lat="45.7034776" lon="8.7269544"><ele>315.0</ele><time>2026-04-24T09:25:42.823Z</time></trkpt><trkpt lat="45.7035856" lon="8.7269235"><ele>314.0</ele><time>2026-04-24T09:25:43.81Z</time></trkpt><trkpt lat="45.7037158" lon="8.7269255"><ele>313.0</ele><time>2026-04-24T09:25:44.802Z</time></trkpt><trkpt lat="45.7038255" lon="8.7269942"><ele>312.0</ele><time>2026-04-24T09:25:45.8Z</time></trkpt><trkpt lat="45.7038985" lon="8.7271825"><ele>312.0</ele><time>2026-04-24T09:25:46.806Z</time></trkpt><trkpt lat="45.7039941" lon="8.7272828"><ele>312.0</ele><time>2026-04-24T09:25:47.805Z</time></trkpt><trkpt lat="45.7041061" lon="8.7273634"><ele>312.0</ele><time>2026-04-24T09:25:48.806Z</time></trkpt><trkpt lat="45.7042412" lon="8.7274332"><ele>312.0</ele><time>2026-04-24T09:25:49.813Z</time></trkpt><trkpt lat="45.7043894" lon="8.7275205"><ele>311.5</ele><time>2026-04-24T09:25:50.811Z</time></trkpt><trkpt lat="45.7045353" lon="8.7276091"><ele>311.0</ele><time>2026-04-24T09:25:51.811Z</time></trkpt><trkpt lat="45.7046736" lon="8.7276813"><ele>310.5</ele><time>2026-04-24T09:25:52.816Z</time></trkpt><trkpt lat="45.7047981" lon="8.7277493"><ele>310.0</ele><time>2026-04-24T09:25:53.815Z</time></trkpt><trkpt lat="45.7048934" lon="8.7277961"><ele>310.0</ele><time>2026-04-24T09:25:54.811Z</time></trkpt><trkpt lat="45.7050127" lon="8.7277819"><ele>310.0</ele><time>2026-04-24T09:25:56.815Z</time></trkpt><trkpt lat="45.7051174" lon="8.7277075"><ele>310.0</ele><time>2026-04-24T09:25:58.822Z</time></trkpt><trkpt lat="45.7051834" lon="8.727667"><ele>310.0</ele><time>2026-04-24T09:26:05.839Z</time></trkpt><trkpt lat="45.7052256" lon="8.7275934"><ele>310.0</ele><time>2026-04-24T09:26:25.819Z</time></trkpt><trkpt lat="45.705282" lon="8.7274691"><ele>309.0</ele><time>2026-04-24T09:26:27.825Z</time></trkpt><trkpt lat="45.7053249" lon="8.7273938"><ele>308.0</ele><time>2026-04-24T09:26:28.822Z</time></trkpt><trkpt lat="45.7053742" lon="8.7273232"><ele>307.0</ele><time>2026-04-24T09:26:29.82Z</time></trkpt><trkpt lat="45.7054171" lon="8.7272551"><ele>306.0</ele><time>2026-04-24T09:26:30.826Z</time></trkpt><trkpt lat="45.7054606" lon="8.7271873"><ele>305.0</ele><time>2026-04-24T09:26:31.819Z</time></trkpt><trkpt lat="45.7055073" lon="8.7271134"><ele>304.0</ele><time>2026-04-24T09:26:32.828Z</time></trkpt><trkpt lat="45.7055543" lon="8.7270503"><ele>303.0</ele><time>2026-04-24T09:26:33.822Z</time></trkpt><trkpt lat="45.7056058" lon="8.7269861"><ele>303.0</ele><time>2026-04-24T09:26:34.823Z</time></trkpt><trkpt lat="45.7056554" lon="8.7269082"><ele>303.0</ele><time>2026-04-24T09:26:35.829Z</time></trkpt><trkpt lat="45.7057142" lon="8.7268244"><ele>303.0</ele><time>2026-04-24T09:26:36.828Z</time></trkpt><trkpt lat="45.7057825" lon="8.7267262"><ele>303.0</ele><time>2026-04-24T09:26:37.818Z</time></trkpt><trkpt lat="45.7058629" lon="8.7266199"><ele>303.0</ele><time>2026-04-24T09:26:38.823Z</time></trkpt><trkpt lat="45.705945" lon="8.7265061"><ele>302.75</ele><time>2026-04-24T09:26:39.823Z</time></trkpt><trkpt lat="45.7060242" lon="8.7263788"><ele>302.5</ele><time>2026-04-24T09:26:40.827Z</time></trkpt><trkpt lat="45.7061126" lon="8.726241"><ele>302.25</ele><time>2026-04-24T09:26:41.823Z</time></trkpt><trkpt lat="45.7062001" lon="8.7260957"><ele>302.0</ele><time>2026-04-24T09:26:42.817Z</time></trkpt><trkpt lat="45.7062967" lon="8.7259331"><ele>304.0</ele><time>2026-04-24T09:26:43.818Z</time></trkpt><trkpt lat="45.7063998" lon="8.7257658"><ele>306.0</ele><time>2026-04-24T09:26:44.829Z</time></trkpt><trkpt lat="45.7065009" lon="8.7256083"><ele>308.0</ele><time>2026-04-24T09:26:45.815Z</time></trkpt><trkpt lat="45.7066095" lon="8.7254625"><ele>308.0</ele><time>2026-04-24T09:26:46.819Z</time></trkpt><trkpt lat="45.706711" lon="8.7253452"><ele>308.0</ele><time>2026-04-24T09:26:47.816Z</time></trkpt><trkpt lat="45.7067994" lon="8.7252224"><ele>308.0</ele><time>2026-04-24T09:26:48.812Z</time></trkpt><trkpt lat="45.7068733" lon="8.7251072"><ele>308.0</ele><time>2026-04-24T09:26:49.813Z</time></trkpt><trkpt lat="45.706926" lon="8.7250134"><ele>308.0</ele><time>2026-04-24T09:26:50.817Z</time></trkpt><trkpt lat="45.7069959" lon="8.7249477"><ele>306.1666666666667</ele><time>2026-04-24T09:26:51.817Z</time></trkpt><trkpt lat="45.7070627" lon="8.7249034"><ele>304.33333333333337</ele><time>2026-04-24T09:26:52.825Z</time></trkpt><trkpt lat="45.7071401" lon="8.7248892"><ele>302.5</ele><time>2026-04-24T09:26:53.819Z</time></trkpt><trkpt lat="45.7072138" lon="8.7249095"><ele>300.6666666666667</ele><time>2026-04-24T09:26:54.824Z</time></trkpt><trkpt lat="45.7072985" lon="8.7249753"><ele>298.8333333333333</ele><time>2026-04-24T09:26:55.822Z</time></trkpt><trkpt lat="45.7073886" lon="8.7250646"><ele>297.0</ele><time>2026-04-24T09:26:56.821Z</time></trkpt><trkpt lat="45.7074852" lon="8.7251662"><ele>296.2</ele><time>2026-04-24T09:26:57.822Z</time></trkpt><trkpt lat="45.7075734" lon="8.7252687"><ele>295.4</ele><time>2026-04-24T09:26:58.819Z</time></trkpt><trkpt lat="45.7076588" lon="8.7253667"><ele>294.6</ele><time>2026-04-24T09:26:59.824Z</time></trkpt><trkpt lat="45.7077447" lon="8.7254583"><ele>293.8</ele><time>2026-04-24T09:27:00.83Z</time></trkpt><trkpt lat="45.7078212" lon="8.7255403"><ele>293.0</ele><time>2026-04-24T09:27:01.825Z</time></trkpt><trkpt lat="45.707894" lon="8.7256254"><ele>293.1666666666667</ele><time>2026-04-24T09:27:02.832Z</time></trkpt><trkpt lat="45.7079595" lon="8.7257047"><ele>293.33333333333337</ele><time>2026-04-24T09:27:03.822Z</time></trkpt><trkpt lat="45.7080194" lon="8.7257835"><ele>293.5</ele><time>2026-04-24T09:27:04.823Z</time></trkpt><trkpt lat="45.7080738" lon="8.7258666"><ele>293.6666666666667</ele><time>2026-04-24T09:27:05.821Z</time></trkpt><trkpt lat="45.7081202" lon="8.725953"><ele>293.8333333333333</ele><time>2026-04-24T09:27:06.822Z</time></trkpt><trkpt lat="45.7081462" lon="8.7260502"><ele>294.0</ele><time>2026-04-24T09:27:07.819Z</time></trkpt><trkpt lat="45.7081386" lon="8.7261628"><ele>294.0</ele><time>2026-04-24T09:27:08.822Z</time></trkpt><trkpt lat="45.7081043" lon="8.7262843"><ele>294.0</ele><time>2026-04-24T09:27:09.818Z</time></trkpt><trkpt lat="45.7080466" lon="8.7264041"><ele>294.0</ele><time>2026-04-24T09:27:10.821Z</time></trkpt><trkpt lat="45.7079798" lon="8.7265211"><ele>294.0</ele><time>2026-04-24T09:27:11.821Z</time></trkpt><trkpt lat="45.7079161" lon="8.7266406"><ele>294.0</ele><time>2026-04-24T09:27:12.816Z</time></trkpt><trkpt lat="45.7078539" lon="8.7267604"><ele>294.0</ele><time>2026-04-24T09:27:13.819Z</time></trkpt><trkpt lat="45.7077906" lon="8.7268726"><ele>294.0</ele><time>2026-04-24T09:27:14.81Z</time></trkpt><trkpt lat="45.7077274" lon="8.7269922"><ele>294.0</ele><time>2026-04-24T09:27:15.822Z</time></trkpt><trkpt lat="45.7076783" lon="8.7271064"><ele>294.0</ele><time>2026-04-24T09:27:16.812Z</time></trkpt><trkpt lat="45.7076499" lon="8.7272003"><ele>294.0</ele><time>2026-04-24T09:27:17.81Z</time></trkpt><trkpt lat="45.7076769" lon="8.7273403"><ele>294.0</ele><time>2026-04-24T09:27:19.816Z</time></trkpt><trkpt lat="45.7078001" lon="8.7272489"><ele>294.0</ele><time>2026-04-24T09:27:21.814Z</time></trkpt><trkpt lat="45.7078558" lon="8.7271088"><ele>294.0</ele><time>2026-04-24T09:27:22.807Z</time></trkpt><trkpt lat="45.7079074" lon="8.726933"><ele>294.0</ele><time>2026-04-24T09:27:23.814Z</time></trkpt><trkpt lat="45.7079617" lon="8.7267318"><ele>294.0</ele><time>2026-04-24T09:27:24.814Z</time></trkpt><trkpt lat="45.7080132" lon="8.7265441"><ele>294.0</ele><time>2026-04-24T09:27:25.811Z</time></trkpt><trkpt lat="45.7080699" lon="8.726391"><ele>294.0</ele><time>2026-04-24T09:27:26.81Z</time></trkpt><trkpt lat="45.708124" lon="8.7262792"><ele>294.0</ele><time>2026-04-24T09:27:27.812Z</time></trkpt><trkpt lat="45.7081805" lon="8.7261868"><ele>294.0</ele><time>2026-04-24T09:27:28.819Z</time></trkpt><trkpt lat="45.7082401" lon="8.7261409"><ele>294.0</ele><time>2026-04-24T09:27:29.816Z</time></trkpt><trkpt lat="45.7083023" lon="8.7261234"><ele>294.0</ele><time>2026-04-24T09:27:30.821Z</time></trkpt><trkpt lat="45.7084166" lon="8.7261717"><ele>294.0</ele><time>2026-04-24T09:27:32.822Z</time></trkpt><trkpt lat="45.7085065" lon="8.7262309"><ele>294.0</ele><time>2026-04-24T09:27:34.818Z</time></trkpt><trkpt lat="45.708558" lon="8.7261786"><ele>294.0</ele><time>2026-04-24T09:27:45.812Z</time></trkpt><trkpt lat="45.7086052" lon="8.7260521"><ele>294.0</ele><time>2026-04-24T09:27:47.804Z</time></trkpt><trkpt lat="45.7086362" lon="8.7259599"><ele>294.0</ele><time>2026-04-24T09:27:48.807Z</time></trkpt><trkpt lat="45.7086835" lon="8.72586"><ele>294.0</ele><time>2026-04-24T09:27:49.803Z</time></trkpt><trkpt lat="45.708756" lon="8.7257396"><ele>294.0</ele><time>2026-04-24T09:27:50.812Z</time></trkpt><trkpt lat="45.7088283" lon="8.7256404"><ele>294.0</ele><time>2026-04-24T09:27:51.814Z</time></trkpt><trkpt lat="45.708897" lon="8.7255545"><ele>294.0</ele><time>2026-04-24T09:27:52.808Z</time></trkpt><trkpt lat="45.7089564" lon="8.7254659"><ele>294.0</ele><time>2026-04-24T09:27:53.812Z</time></trkpt><trkpt lat="45.7090075" lon="8.7253823"><ele>294.0</ele><time>2026-04-24T09:27:54.812Z</time></trkpt><trkpt lat="45.7090589" lon="8.7253178"><ele>294.0</ele><time>2026-04-24T09:27:55.803Z</time></trkpt><trkpt lat="45.7091589" lon="8.7252406"><ele>294.0</ele><time>2026-04-24T09:27:57.817Z</time></trkpt><trkpt lat="45.7092371" lon="8.7253148"><ele>294.0</ele><time>2026-04-24T09:27:59.81Z</time></trkpt><trkpt lat="45.7092578" lon="8.7254726"><ele>294.0</ele><time>2026-04-24T09:28:01.805Z</time></trkpt><trkpt lat="45.7092562" lon="8.7256101"><ele>294.0</ele><time>2026-04-24T09:28:03.805Z</time></trkpt><trkpt lat="45.7093113" lon="8.7256591"><ele>294.0</ele><time>2026-04-24T09:28:05.819Z</time></trkpt><trkpt lat="45.7093933" lon="8.7256495"><ele>294.0</ele><time>2026-04-24T09:28:07.817Z</time></trkpt><trkpt lat="45.7095202" lon="8.7256554"><ele>294.0</ele><time>2026-04-24T09:28:09.813Z</time></trkpt><trkpt lat="45.7095892" lon="8.7256617"><ele>294.0</ele><time>2026-04-24T09:28:10.816Z</time></trkpt><trkpt lat="45.7096831" lon="8.7256163"><ele>294.0</ele><time>2026-04-24T09:28:12.824Z</time></trkpt><trkpt lat="45.7097853" lon="8.7255076"><ele>294.0</ele><time>2026-04-24T09:28:14.818Z</time></trkpt><trkpt lat="45.7098439" lon="8.7254697"><ele>294.0</ele><time>2026-04-24T09:28:15.814Z</time></trkpt><trkpt lat="45.7099537" lon="8.7253959"><ele>294.0</ele><time>2026-04-24T09:28:17.815Z</time></trkpt><trkpt lat="45.7100152" lon="8.725359"><ele>294.0</ele><time>2026-04-24T09:28:18.816Z</time></trkpt><trkpt lat="45.7100826" lon="8.7253274"><ele>294.0</ele><time>2026-04-24T09:28:19.819Z</time></trkpt><trkpt lat="45.710154" lon="8.7253071"><ele>294.0</ele><time>2026-04-24T09:28:20.813Z</time></trkpt><trkpt lat="45.7102744" lon="8.7252927"><ele>294.0</ele><time>2026-04-24T09:28:22.82Z</time></trkpt><trkpt lat="45.710377" lon="8.7252732"><ele>294.0</ele><time>2026-04-24T09:28:24.812Z</time></trkpt><trkpt lat="45.7104475" lon="8.7252643"><ele>294.0</ele><time>2026-04-24T09:28:26.819Z</time></trkpt><trkpt lat="45.7105051" lon="8.725337"><ele>294.0</ele><time>2026-04-24T09:28:28.809Z</time></trkpt><trkpt lat="45.7105601" lon="8.7254594"><ele>294.8333333333333</ele><time>2026-04-24T09:28:30.817Z</time></trkpt><trkpt lat="45.7106028" lon="8.7255808"><ele>295.6666666666667</ele><time>2026-04-24T09:28:32.817Z</time></trkpt><trkpt lat="45.7106792" lon="8.7256659"><ele>296.5</ele><time>2026-04-24T09:28:34.811Z</time></trkpt><trkpt lat="45.7107845" lon="8.7257082"><ele>297.33333333333337</ele><time>2026-04-24T09:28:36.806Z</time></trkpt><trkpt lat="45.7108521" lon="8.7256999"><ele>298.1666666666667</ele><time>2026-04-24T09:28:37.811Z</time></trkpt><trkpt lat="45.7109219" lon="8.725675"><ele>299.0</ele><time>2026-04-24T09:28:38.805Z</time></trkpt><trkpt lat="45.7109846" lon="8.7256199"><ele>299.0</ele><time>2026-04-24T09:28:40.813Z</time></trkpt><trkpt lat="45.7109991" lon="8.7254606"><ele>299.0</ele><time>2026-04-24T09:28:43.804Z</time></trkpt><trkpt lat="45.7109867" lon="8.7252756"><ele>299.0</ele><time>2026-04-24T09:28:45.807Z</time></trkpt><trkpt lat="45.7109834" lon="8.7251692"><ele>299.0</ele><time>2026-04-24T09:28:46.805Z</time></trkpt><trkpt lat="45.7109754" lon="8.7250323"><ele>299.0</ele><time>2026-04-24T09:28:47.829Z</time></trkpt><trkpt lat="45.7109782" lon="8.7249125"><ele>299.0</ele><time>2026-04-24T09:28:48.816Z</time></trkpt><trkpt lat="45.7109831" lon="8.7248187"><ele>299.0</ele><time>2026-04-24T09:28:49.812Z</time></trkpt><trkpt lat="45.7110742" lon="8.7247744"><ele>299.0</ele><time>2026-04-24T09:28:51.811Z</time></trkpt><trkpt lat="45.7111851" lon="8.7247704"><ele>299.0</ele><time>2026-04-24T09:28:52.813Z</time></trkpt><trkpt lat="45.7112907" lon="8.7247665"><ele>299.0</ele><time>2026-04-24T09:28:53.807Z</time></trkpt><trkpt lat="45.7114157" lon="8.7247682"><ele>299.0</ele><time>2026-04-24T09:28:54.804Z</time></trkpt><trkpt lat="45.7115204" lon="8.7247792"><ele>299.0</ele><time>2026-04-24T09:28:55.806Z</time></trkpt><trkpt lat="45.711636" lon="8.7247818"><ele>299.0</ele><time>2026-04-24T09:28:56.806Z</time></trkpt><trkpt lat="45.7117681" lon="8.7247905"><ele>299.0</ele><time>2026-04-24T09:28:57.802Z</time></trkpt><trkpt lat="45.7118866" lon="8.7247996"><ele>299.0</ele><time>2026-04-24T09:28:58.809Z</time></trkpt><trkpt lat="45.7119894" lon="8.7247952"><ele>299.0</ele><time>2026-04-24T09:28:59.803Z</time></trkpt><trkpt lat="45.7120935" lon="8.7247759"><ele>299.0</ele><time>2026-04-24T09:29:00.807Z</time></trkpt><trkpt lat="45.7121806" lon="8.7247461"><ele>299.0</ele><time>2026-04-24T09:29:01.802Z</time></trkpt><trkpt lat="45.7122632" lon="8.724717"><ele>299.0</ele><time>2026-04-24T09:29:02.815Z</time></trkpt><trkpt lat="45.7123481" lon="8.7246858"><ele>299.0</ele><time>2026-04-24T09:29:03.807Z</time></trkpt><trkpt lat="45.7124267" lon="8.7246427"><ele>299.0</ele><time>2026-04-24T09:29:04.805Z</time></trkpt><trkpt lat="45.7124984" lon="8.7245908"><ele>299.0</ele><time>2026-04-24T09:29:05.805Z</time></trkpt><trkpt lat="45.7125802" lon="8.7245309"><ele>299.0</ele><time>2026-04-24T09:29:06.802Z</time></trkpt><trkpt lat="45.7126666" lon="8.7244582"><ele>299.0</ele><time>2026-04-24T09:29:07.803Z</time></trkpt><trkpt lat="45.7127378" lon="8.7243854"><ele>299.0</ele><time>2026-04-24T09:29:08.809Z</time></trkpt><trkpt lat="45.7127959" lon="8.7243105"><ele>298.0</ele><time>2026-04-24T09:29:09.805Z</time></trkpt><trkpt lat="45.7128495" lon="8.7242358"><ele>297.0</ele><time>2026-04-24T09:29:10.811Z</time></trkpt><trkpt lat="45.7129164" lon="8.7241583"><ele>296.0</ele><time>2026-04-24T09:29:11.807Z</time></trkpt><trkpt lat="45.7129698" lon="8.7240972"><ele>295.0</ele><time>2026-04-24T09:29:12.811Z</time></trkpt><trkpt lat="45.7130807" lon="8.7240278"><ele>294.0</ele><time>2026-04-24T09:29:14.805Z</time></trkpt><trkpt lat="45.7131959" lon="8.7239878"><ele>294.0</ele><time>2026-04-24T09:29:16.807Z</time></trkpt><trkpt lat="45.7132655" lon="8.7239642"><ele>294.0</ele><time>2026-04-24T09:29:17.808Z</time></trkpt><trkpt lat="45.7133737" lon="8.7239192"><ele>294.0</ele><time>2026-04-24T09:29:19.816Z</time></trkpt><trkpt lat="45.7134731" lon="8.723882"><ele>294.0</ele><time>2026-04-24T09:29:21.808Z</time></trkpt><trkpt lat="45.7135997" lon="8.7238404"><ele>294.0</ele><time>2026-04-24T09:29:23.818Z</time></trkpt><trkpt lat="45.7136658" lon="8.7238256"><ele>292.4</ele><time>2026-04-24T09:29:24.81Z</time></trkpt><trkpt lat="45.7137289" lon="8.7238186"><ele>290.79999999999995</ele><time>2026-04-24T09:29:25.815Z</time></trkpt><trkpt lat="45.7138464" lon="8.723831"><ele>289.20000000000005</ele><time>2026-04-24T09:29:27.816Z</time></trkpt><trkpt lat="45.7139678" lon="8.7238476"><ele>287.6</ele><time>2026-04-24T09:29:29.813Z</time></trkpt><trkpt lat="45.7140382" lon="8.7238471"><ele>286.0</ele><time>2026-04-24T09:29:30.816Z</time></trkpt><trkpt lat="45.7141195" lon="8.7238298"><ele>286.0</ele><time>2026-04-24T09:29:31.818Z</time></trkpt><trkpt lat="45.7141892" lon="8.7238058"><ele>286.0</ele><time>2026-04-24T09:29:32.816Z</time></trkpt><trkpt lat="45.7142623" lon="8.7237703"><ele>286.0</ele><time>2026-04-24T09:29:33.807Z</time></trkpt><trkpt lat="45.7143254" lon="8.7237453"><ele>286.0</ele><time>2026-04-24T09:29:34.818Z</time></trkpt><trkpt lat="45.7143851" lon="8.7237137"><ele>286.0</ele><time>2026-04-24T09:29:35.815Z</time></trkpt><trkpt lat="45.7144854" lon="8.7236733"><ele>286.0</ele><time>2026-04-24T09:29:37.816Z</time></trkpt><trkpt lat="45.714554" lon="8.7236526"><ele>284.8333333333333</ele><time>2026-04-24T09:29:39.817Z</time></trkpt><trkpt lat="45.7146133" lon="8.7237287"><ele>283.66666666666663</ele><time>2026-04-24T09:29:41.813Z</time></trkpt><trkpt lat="45.7146803" lon="8.7238664"><ele>282.5</ele><time>2026-04-24T09:29:43.811Z</time></trkpt><trkpt lat="45.7147189" lon="8.7239422"><ele>281.3333333333333</ele><time>2026-04-24T09:29:44.81Z</time></trkpt><trkpt lat="45.714781" lon="8.7240027"><ele>280.1666666666667</ele><time>2026-04-24T09:29:45.807Z</time></trkpt><trkpt lat="45.7148572" lon="8.7240552"><ele>279.0</ele><time>2026-04-24T09:29:46.815Z</time></trkpt><trkpt lat="45.7149412" lon="8.7241061"><ele>279.0</ele><time>2026-04-24T09:29:47.817Z</time></trkpt><trkpt lat="45.7150247" lon="8.7241526"><ele>279.0</ele><time>2026-04-24T09:29:48.815Z</time></trkpt><trkpt lat="45.7151124" lon="8.7241965"><ele>279.0</ele><time>2026-04-24T09:29:49.829Z</time></trkpt><trkpt lat="45.7151812" lon="8.7242406"><ele>279.0</ele><time>2026-04-24T09:29:50.815Z</time></trkpt><trkpt lat="45.7152428" lon="8.7242905"><ele>279.0</ele><time>2026-04-24T09:29:51.813Z</time></trkpt><trkpt lat="45.7152936" lon="8.7243439"><ele>279.0</ele><time>2026-04-24T09:29:52.816Z</time></trkpt><trkpt lat="45.7153453" lon="8.7244122"><ele>277.3333333333333</ele><time>2026-04-24T09:29:53.805Z</time></trkpt><trkpt lat="45.7153913" lon="8.7245017"><ele>275.6666666666667</ele><time>2026-04-24T09:29:54.811Z</time></trkpt><trkpt lat="45.7154309" lon="8.7246068"><ele>274.0</ele><time>2026-04-24T09:29:55.805Z</time></trkpt><trkpt lat="45.7154635" lon="8.7247135"><ele>272.33333333333337</ele><time>2026-04-24T09:29:56.814Z</time></trkpt><trkpt lat="45.7154928" lon="8.7248151"><ele>270.6666666666667</ele><time>2026-04-24T09:29:57.811Z</time></trkpt><trkpt lat="45.7155194" lon="8.724912"><ele>269.0</ele><time>2026-04-24T09:29:58.815Z</time></trkpt><trkpt lat="45.7155428" lon="8.7250577"><ele>269.0</ele><time>2026-04-24T09:30:00.82Z</time></trkpt><trkpt lat="45.7155122" lon="8.7251754"><ele>269.0</ele><time>2026-04-24T09:30:03.825Z</time></trkpt><trkpt lat="45.7154485" lon="8.7252701"><ele>269.0</ele><time>2026-04-24T09:30:05.823Z</time></trkpt><trkpt lat="45.7153892" lon="8.7253631"><ele>269.0</ele><time>2026-04-24T09:30:07.825Z</time></trkpt><trkpt lat="45.7153318" lon="8.7254597"><ele>269.0</ele><time>2026-04-24T09:30:09.825Z</time></trkpt><trkpt lat="45.7152583" lon="8.7256024"><ele>269.2</ele><time>2026-04-24T09:30:11.825Z</time></trkpt><trkpt lat="45.7152034" lon="8.7257443"><ele>269.4</ele><time>2026-04-24T09:30:13.835Z</time></trkpt><trkpt lat="45.7151413" lon="8.7258689"><ele>269.6</ele><time>2026-04-24T09:30:15.825Z</time></trkpt><trkpt lat="45.7150797" lon="8.7259955"><ele>269.8</ele><time>2026-04-24T09:30:17.824Z</time></trkpt><trkpt lat="45.7150347" lon="8.7260721"><ele>270.0</ele><time>2026-04-24T09:30:18.817Z</time></trkpt><trkpt lat="45.7149792" lon="8.7261485"><ele>269.0</ele><time>2026-04-24T09:30:19.823Z</time></trkpt><trkpt lat="45.7149297" lon="8.7262238"><ele>268.0</ele><time>2026-04-24T09:30:20.836Z</time></trkpt><trkpt lat="45.7148804" lon="8.7262962"><ele>267.0</ele><time>2026-04-24T09:30:21.817Z</time></trkpt><trkpt lat="45.7148327" lon="8.7263648"><ele>266.0</ele><time>2026-04-24T09:30:22.826Z</time></trkpt><trkpt lat="45.7147832" lon="8.7264333"><ele>265.0</ele><time>2026-04-24T09:30:23.82Z</time></trkpt><trkpt lat="45.7147279" lon="8.7265034"><ele>264.0</ele><time>2026-04-24T09:30:24.819Z</time></trkpt><trkpt lat="45.7146674" lon="8.7265915"><ele>263.0</ele><time>2026-04-24T09:30:25.817Z</time></trkpt><trkpt lat="45.7146037" lon="8.7266811"><ele>263.0</ele><time>2026-04-24T09:30:26.821Z</time></trkpt><trkpt lat="45.7145298" lon="8.7267667"><ele>263.0</ele><time>2026-04-24T09:30:27.826Z</time></trkpt><trkpt lat="45.7144549" lon="8.7268532"><ele>263.0</ele><time>2026-04-24T09:30:28.825Z</time></trkpt><trkpt lat="45.7143773" lon="8.7269429"><ele>263.0</ele><time>2026-04-24T09:30:29.816Z</time></trkpt><trkpt lat="45.7143026" lon="8.7270364"><ele>263.0</ele><time>2026-04-24T09:30:30.823Z</time></trkpt><trkpt lat="45.7142356" lon="8.7271423"><ele>263.2</ele><time>2026-04-24T09:30:31.813Z</time></trkpt><trkpt lat="45.7141804" lon="8.727269"><ele>263.4</ele><time>2026-04-24T09:30:32.818Z</time></trkpt><trkpt lat="45.7141377" lon="8.727401"><ele>263.59999999999997</ele><time>2026-04-24T09:30:33.819Z</time></trkpt><trkpt lat="45.7140918" lon="8.7275487"><ele>263.8</ele><time>2026-04-24T09:30:34.819Z</time></trkpt><trkpt lat="45.7140438" lon="8.7276926"><ele>264.0</ele><time>2026-04-24T09:30:35.823Z</time></trkpt><trkpt lat="45.7139979" lon="8.7278317"><ele>263.2</ele><time>2026-04-24T09:30:36.821Z</time></trkpt><trkpt lat="45.7139593" lon="8.7279621"><ele>262.4</ele><time>2026-04-24T09:30:37.826Z</time></trkpt><trkpt lat="45.7139204" lon="8.728086"><ele>261.6</ele><time>2026-04-24T09:30:38.826Z</time></trkpt><trkpt lat="45.7138795" lon="8.72821"><ele>260.8</ele><time>2026-04-24T09:30:39.824Z</time></trkpt><trkpt lat="45.7138357" lon="8.7283452"><ele>260.0</ele><time>2026-04-24T09:30:40.826Z</time></trkpt><trkpt lat="45.7137844" lon="8.7284815"><ele>260.2</ele><time>2026-04-24T09:30:41.825Z</time></trkpt><trkpt lat="45.7137312" lon="8.7286113"><ele>260.4</ele><time>2026-04-24T09:30:42.832Z</time></trkpt><trkpt lat="45.7136822" lon="8.728741"><ele>260.6</ele><time>2026-04-24T09:30:43.825Z</time></trkpt><trkpt lat="45.7136357" lon="8.7288802"><ele>260.8</ele><time>2026-04-24T09:30:44.825Z</time></trkpt><trkpt lat="45.7135893" lon="8.729018"><ele>261.0</ele><time>2026-04-24T09:30:45.827Z</time></trkpt><trkpt lat="45.7135434" lon="8.7291549"><ele>261.8</ele><time>2026-04-24T09:30:46.826Z</time></trkpt><trkpt lat="45.7134941" lon="8.7292939"><ele>262.6</ele><time>2026-04-24T09:30:47.824Z</time></trkpt><trkpt lat="45.7134379" lon="8.7294242"><ele>263.4</ele><time>2026-04-24T09:30:48.818Z</time></trkpt><trkpt lat="45.7133819" lon="8.7295555"><ele>264.2</ele><time>2026-04-24T09:30:49.819Z</time></trkpt><trkpt lat="45.7133337" lon="8.7296892"><ele>265.0</ele><time>2026-04-24T09:30:50.824Z</time></trkpt><trkpt lat="45.7132904" lon="8.7298177"><ele>265.16666666666663</ele><time>2026-04-24T09:30:51.838Z</time></trkpt><trkpt lat="45.7132472" lon="8.7299387"><ele>265.3333333333333</ele><time>2026-04-24T09:30:52.823Z</time></trkpt><trkpt lat="45.7132085" lon="8.7300523"><ele>265.5</ele><time>2026-04-24T09:30:53.821Z</time></trkpt><trkpt lat="45.7131706" lon="8.7301617"><ele>265.6666666666667</ele><time>2026-04-24T09:30:54.824Z</time></trkpt><trkpt lat="45.7131302" lon="8.7302663"><ele>265.83333333333337</ele><time>2026-04-24T09:30:55.821Z</time></trkpt><trkpt lat="45.7130944" lon="8.7303552"><ele>266.0</ele><time>2026-04-24T09:30:56.825Z</time></trkpt><trkpt lat="45.7130471" lon="8.7304939"><ele>265.6</ele><time>2026-04-24T09:30:58.822Z</time></trkpt><trkpt lat="45.7131336" lon="8.7305802"><ele>265.20000000000005</ele><time>2026-04-24T09:31:01.819Z</time></trkpt><trkpt lat="45.7131988" lon="8.7306088"><ele>264.79999999999995</ele><time>2026-04-24T09:31:02.83Z</time></trkpt><trkpt lat="45.7132738" lon="8.730646"><ele>264.4</ele><time>2026-04-24T09:31:03.822Z</time></trkpt><trkpt lat="45.7133584" lon="8.730675"><ele>264.0</ele><time>2026-04-24T09:31:04.808Z</time></trkpt><trkpt lat="45.7134659" lon="8.7307194"><ele>264.0</ele><time>2026-04-24T09:31:05.815Z</time></trkpt><trkpt lat="45.7135896" lon="8.7307711"><ele>264.0</ele><time>2026-04-24T09:31:06.813Z</time></trkpt><trkpt lat="45.7137314" lon="8.7308309"><ele>264.0</ele><time>2026-04-24T09:31:07.817Z</time></trkpt><trkpt lat="45.7138579" lon="8.7308983"><ele>264.0</ele><time>2026-04-24T09:31:08.816Z</time></trkpt><trkpt lat="45.7139778" lon="8.730967"><ele>264.0</ele><time>2026-04-24T09:31:09.81Z</time></trkpt><trkpt lat="45.714092" lon="8.7310376"><ele>264.0</ele><time>2026-04-24T09:31:10.815Z</time></trkpt><trkpt lat="45.7141991" lon="8.731121"><ele>264.0</ele><time>2026-04-24T09:31:11.818Z</time></trkpt><trkpt lat="45.7143063" lon="8.7312069"><ele>264.0</ele><time>2026-04-24T09:31:12.816Z</time></trkpt><trkpt lat="45.7144091" lon="8.7312966"><ele>264.75</ele><time>2026-04-24T09:31:13.826Z</time></trkpt><trkpt lat="45.7145142" lon="8.7313852"><ele>265.5</ele><time>2026-04-24T09:31:14.826Z</time></trkpt><trkpt lat="45.7146192" lon="8.7314634"><ele>266.25</ele><time>2026-04-24T09:31:15.825Z</time></trkpt><trkpt lat="45.7147174" lon="8.7315376"><ele>267.0</ele><time>2026-04-24T09:31:16.822Z</time></trkpt><trkpt lat="45.7148057" lon="8.731604"><ele>267.0</ele><time>2026-04-24T09:31:17.823Z</time></trkpt><trkpt lat="45.714885" lon="8.7316638"><ele>267.0</ele><time>2026-04-24T09:31:18.819Z</time></trkpt><trkpt lat="45.7149589" lon="8.7317074"><ele>267.0</ele><time>2026-04-24T09:31:19.813Z</time></trkpt><trkpt lat="45.7150325" lon="8.7317209"><ele>267.0</ele><time>2026-04-24T09:31:20.814Z</time></trkpt><trkpt lat="45.7151045" lon="8.7317282"><ele>267.0</ele><time>2026-04-24T09:31:21.819Z</time></trkpt><trkpt lat="45.7151738" lon="8.7317338"><ele>267.0</ele><time>2026-04-24T09:31:22.829Z</time></trkpt><trkpt lat="45.715238" lon="8.7317536"><ele>267.0</ele><time>2026-04-24T09:31:23.817Z</time></trkpt><trkpt lat="45.7153018" lon="8.7317848"><ele>267.0</ele><time>2026-04-24T09:31:24.814Z</time></trkpt><trkpt lat="45.7153726" lon="8.731827"><ele>267.0</ele><time>2026-04-24T09:31:25.814Z</time></trkpt><trkpt lat="45.7154641" lon="8.7318938"><ele>267.0</ele><time>2026-04-24T09:31:26.815Z</time></trkpt><trkpt lat="45.7155598" lon="8.731974"><ele>267.0</ele><time>2026-04-24T09:31:27.817Z</time></trkpt><trkpt lat="45.7156645" lon="8.7320609"><ele>266.25</ele><time>2026-04-24T09:31:28.819Z</time></trkpt><trkpt lat="45.7157808" lon="8.7321664"><ele>265.5</ele><time>2026-04-24T09:31:29.809Z</time></trkpt><trkpt lat="45.715903" lon="8.7322794"><ele>264.75</ele><time>2026-04-24T09:31:30.82Z</time></trkpt><trkpt lat="45.7160285" lon="8.7323954"><ele>264.0</ele><time>2026-04-24T09:31:31.812Z</time></trkpt><trkpt lat="45.7161586" lon="8.732507"><ele>264.0</ele><time>2026-04-24T09:31:32.816Z</time></trkpt><trkpt lat="45.7162886" lon="8.7326148"><ele>264.0</ele><time>2026-04-24T09:31:33.818Z</time></trkpt><trkpt lat="45.7164239" lon="8.7327229"><ele>264.0</ele><time>2026-04-24T09:31:34.819Z</time></trkpt><trkpt lat="45.7165529" lon="8.7328339"><ele>264.25</ele><time>2026-04-24T09:31:35.822Z</time></trkpt><trkpt lat="45.7166735" lon="8.7329464"><ele>264.5</ele><time>2026-04-24T09:31:36.822Z</time></trkpt><trkpt lat="45.7167997" lon="8.7330612"><ele>264.75</ele><time>2026-04-24T09:31:37.82Z</time></trkpt><trkpt lat="45.7169284" lon="8.7331586"><ele>265.0</ele><time>2026-04-24T09:31:38.82Z</time></trkpt><trkpt lat="45.7170468" lon="8.7332575"><ele>265.0</ele><time>2026-04-24T09:31:39.816Z</time></trkpt><trkpt lat="45.7171729" lon="8.7333467"><ele>265.0</ele><time>2026-04-24T09:31:40.822Z</time></trkpt><trkpt lat="45.7172869" lon="8.7334269"><ele>265.0</ele><time>2026-04-24T09:31:41.822Z</time></trkpt><trkpt lat="45.7173973" lon="8.7334994"><ele>265.0</ele><time>2026-04-24T09:31:42.822Z</time></trkpt><trkpt lat="45.7174993" lon="8.7335696"><ele>265.6</ele><time>2026-04-24T09:31:43.826Z</time></trkpt><trkpt lat="45.7175903" lon="8.7336377"><ele>266.2</ele><time>2026-04-24T09:31:44.821Z</time></trkpt><trkpt lat="45.717675" lon="8.7336969"><ele>266.8</ele><time>2026-04-24T09:31:45.823Z</time></trkpt><trkpt lat="45.7177646" lon="8.7337536"><ele>267.4</ele><time>2026-04-24T09:31:46.81Z</time></trkpt><trkpt lat="45.7178518" lon="8.7338042"><ele>268.0</ele><time>2026-04-24T09:31:47.815Z</time></trkpt><trkpt lat="45.7179343" lon="8.7338569"><ele>269.0</ele><time>2026-04-24T09:31:48.818Z</time></trkpt><trkpt lat="45.7180128" lon="8.7339288"><ele>270.0</ele><time>2026-04-24T09:31:49.818Z</time></trkpt><trkpt lat="45.7180886" lon="8.7340063"><ele>271.0</ele><time>2026-04-24T09:31:50.812Z</time></trkpt><trkpt lat="45.7181569" lon="8.7340901"><ele>272.0</ele><time>2026-04-24T09:31:51.815Z</time></trkpt><trkpt lat="45.7182185" lon="8.7341746"><ele>273.0</ele><time>2026-04-24T09:31:52.814Z</time></trkpt><trkpt lat="45.7182652" lon="8.7342727"><ele>274.0</ele><time>2026-04-24T09:31:53.822Z</time></trkpt><trkpt lat="45.7183031" lon="8.7343823"><ele>274.2</ele><time>2026-04-24T09:31:54.814Z</time></trkpt><trkpt lat="45.7183197" lon="8.7345136"><ele>274.4</ele><time>2026-04-24T09:31:55.815Z</time></trkpt><trkpt lat="45.7183281" lon="8.7346558"><ele>274.6</ele><time>2026-04-24T09:31:56.818Z</time></trkpt><trkpt lat="45.7183292" lon="8.7347937"><ele>274.8</ele><time>2026-04-24T09:31:57.813Z</time></trkpt><trkpt lat="45.718342" lon="8.7349294"><ele>275.0</ele><time>2026-04-24T09:31:58.812Z</time></trkpt><trkpt lat="45.7183642" lon="8.7350522"><ele>275.0</ele><time>2026-04-24T09:31:59.816Z</time></trkpt><trkpt lat="45.7184035" lon="8.7351684"><ele>275.0</ele><time>2026-04-24T09:32:00.814Z</time></trkpt><trkpt lat="45.7184528" lon="8.7352725"><ele>275.0</ele><time>2026-04-24T09:32:01.813Z</time></trkpt><trkpt lat="45.7185136" lon="8.7353727"><ele>275.0</ele><time>2026-04-24T09:32:02.818Z</time></trkpt><trkpt lat="45.7185615" lon="8.7354786"><ele>275.0</ele><time>2026-04-24T09:32:03.811Z</time></trkpt><trkpt lat="45.7186097" lon="8.7355787"><ele>275.0</ele><time>2026-04-24T09:32:04.818Z</time></trkpt><trkpt lat="45.718643" lon="8.7356944"><ele>275.6</ele><time>2026-04-24T09:32:05.816Z</time></trkpt><trkpt lat="45.7186712" lon="8.735817"><ele>276.2</ele><time>2026-04-24T09:32:06.812Z</time></trkpt><trkpt lat="45.7186871" lon="8.7359512"><ele>276.8</ele><time>2026-04-24T09:32:07.815Z</time></trkpt><trkpt lat="45.7187011" lon="8.7361091"><ele>277.4</ele><time>2026-04-24T09:32:08.819Z</time></trkpt><trkpt lat="45.7187062" lon="8.7362668"><ele>278.0</ele><time>2026-04-24T09:32:09.81Z</time></trkpt><trkpt lat="45.7187038" lon="8.7364215"><ele>278.4</ele><time>2026-04-24T09:32:10.822Z</time></trkpt><trkpt lat="45.7186973" lon="8.736571"><ele>278.8</ele><time>2026-04-24T09:32:11.818Z</time></trkpt><trkpt lat="45.7186955" lon="8.7367161"><ele>279.2</ele><time>2026-04-24T09:32:12.822Z</time></trkpt><trkpt lat="45.7186928" lon="8.7368565"><ele>279.6</ele><time>2026-04-24T09:32:13.816Z</time></trkpt><trkpt lat="45.7186884" lon="8.7369974"><ele>280.0</ele><time>2026-04-24T09:32:14.816Z</time></trkpt><trkpt lat="45.7186879" lon="8.7371258"><ele>280.0</ele><time>2026-04-24T09:32:15.817Z</time></trkpt><trkpt lat="45.7186831" lon="8.7372535"><ele>280.0</ele><time>2026-04-24T09:32:16.818Z</time></trkpt><trkpt lat="45.7186815" lon="8.7373817"><ele>280.0</ele><time>2026-04-24T09:32:17.809Z</time></trkpt><trkpt lat="45.7186765" lon="8.7375028"><ele>280.0</ele><time>2026-04-24T09:32:18.816Z</time></trkpt><trkpt lat="45.7186663" lon="8.7376265"><ele>280.0</ele><time>2026-04-24T09:32:19.809Z</time></trkpt><trkpt lat="45.7186467" lon="8.7377527"><ele>280.0</ele><time>2026-04-24T09:32:20.809Z</time></trkpt><trkpt lat="45.7186261" lon="8.7378924"><ele>279.0</ele><time>2026-04-24T09:32:21.806Z</time></trkpt><trkpt lat="45.7186123" lon="8.7380324"><ele>278.0</ele><time>2026-04-24T09:32:22.81Z</time></trkpt><trkpt lat="45.7185992" lon="8.7381706"><ele>277.0</ele><time>2026-04-24T09:32:23.811Z</time></trkpt><trkpt lat="45.7185924" lon="8.7383189"><ele>276.0</ele><time>2026-04-24T09:32:24.843Z</time></trkpt><trkpt lat="45.718583" lon="8.7384717"><ele>275.0</ele><time>2026-04-24T09:32:25.815Z</time></trkpt><trkpt lat="45.718583" lon="8.7386076"><ele>274.83333333333337</ele><time>2026-04-24T09:32:26.815Z</time></trkpt><trkpt lat="45.7185824" lon="8.7387153"><ele>274.6666666666667</ele><time>2026-04-24T09:32:27.819Z</time></trkpt><trkpt lat="45.7185735" lon="8.7388176"><ele>274.5</ele><time>2026-04-24T09:32:28.813Z</time></trkpt><trkpt lat="45.7185574" lon="8.7389245"><ele>274.3333333333333</ele><time>2026-04-24T09:32:29.808Z</time></trkpt><trkpt lat="45.7185385" lon="8.7390435"><ele>274.16666666666663</ele><time>2026-04-24T09:32:30.812Z</time></trkpt><trkpt lat="45.7185176" lon="8.7391738"><ele>274.0</ele><time>2026-04-24T09:32:31.816Z</time></trkpt><trkpt lat="45.7184873" lon="8.7393118"><ele>274.0</ele><time>2026-04-24T09:32:32.812Z</time></trkpt><trkpt lat="45.7184518" lon="8.7394474"><ele>274.0</ele><time>2026-04-24T09:32:33.812Z</time></trkpt><trkpt lat="45.7184259" lon="8.739562"><ele>274.0</ele><time>2026-04-24T09:32:34.806Z</time></trkpt><trkpt lat="45.7183934" lon="8.7396644"><ele>274.0</ele><time>2026-04-24T09:32:35.813Z</time></trkpt><trkpt lat="45.7183566" lon="8.7397452"><ele>274.0</ele><time>2026-04-24T09:32:36.816Z</time></trkpt><trkpt lat="45.718312" lon="8.7398317"><ele>274.0</ele><time>2026-04-24T09:32:37.818Z</time></trkpt><trkpt lat="45.7182635" lon="8.739935"><ele>274.0</ele><time>2026-04-24T09:32:38.817Z</time></trkpt><trkpt lat="45.7182191" lon="8.7400438"><ele>274.0</ele><time>2026-04-24T09:32:39.815Z</time></trkpt><trkpt lat="45.7181684" lon="8.7401677"><ele>274.0</ele><time>2026-04-24T09:32:40.815Z</time></trkpt><trkpt lat="45.7181167" lon="8.7402886"><ele>274.0</ele><time>2026-04-24T09:32:41.811Z</time></trkpt><trkpt lat="45.7180546" lon="8.7404148"><ele>274.0</ele><time>2026-04-24T09:32:42.814Z</time></trkpt><trkpt lat="45.7179883" lon="8.740546"><ele>274.25</ele><time>2026-04-24T09:32:43.814Z</time></trkpt><trkpt lat="45.7179206" lon="8.7406903"><ele>274.5</ele><time>2026-04-24T09:32:44.812Z</time></trkpt><trkpt lat="45.7178657" lon="8.7408353"><ele>274.75</ele><time>2026-04-24T09:32:45.814Z</time></trkpt><trkpt lat="45.7178126" lon="8.7409897"><ele>275.0</ele><time>2026-04-24T09:32:46.817Z</time></trkpt><trkpt lat="45.7177565" lon="8.7411562"><ele>275.25</ele><time>2026-04-24T09:32:47.814Z</time></trkpt><trkpt lat="45.7176976" lon="8.7413283"><ele>275.5</ele><time>2026-04-24T09:32:48.816Z</time></trkpt><trkpt lat="45.7176357" lon="8.7414971"><ele>275.75</ele><time>2026-04-24T09:32:49.815Z</time></trkpt><trkpt lat="45.7175764" lon="8.741673"><ele>276.0</ele><time>2026-04-24T09:32:50.818Z</time></trkpt><trkpt lat="45.7175177" lon="8.7418431"><ele>275.75</ele><time>2026-04-24T09:32:51.811Z</time></trkpt><trkpt lat="45.7174656" lon="8.7420112"><ele>275.5</ele><time>2026-04-24T09:32:52.817Z</time></trkpt><trkpt lat="45.7174091" lon="8.7421743"><ele>275.25</ele><time>2026-04-24T09:32:53.817Z</time></trkpt><trkpt lat="45.7173621" lon="8.742326"><ele>275.0</ele><time>2026-04-24T09:32:54.825Z</time></trkpt><trkpt lat="45.7173235" lon="8.7424519"><ele>275.0</ele><time>2026-04-24T09:32:55.813Z</time></trkpt><trkpt lat="45.7172791" lon="8.742578"><ele>275.0</ele><time>2026-04-24T09:32:56.818Z</time></trkpt><trkpt lat="45.7172324" lon="8.7426842"><ele>275.0</ele><time>2026-04-24T09:32:57.815Z</time></trkpt><trkpt lat="45.7171988" lon="8.7427776"><ele>275.0</ele><time>2026-04-24T09:32:58.815Z</time></trkpt><trkpt lat="45.7171708" lon="8.7428602"><ele>275.0</ele><time>2026-04-24T09:32:59.816Z</time></trkpt><trkpt lat="45.7171443" lon="8.74299"><ele>275.0</ele><time>2026-04-24T09:33:01.818Z</time></trkpt><trkpt lat="45.7171653" lon="8.7430788"><ele>274.5</ele><time>2026-04-24T09:33:03.827Z</time></trkpt><trkpt lat="45.7172131" lon="8.7431468"><ele>274.0</ele><time>2026-04-24T09:33:05.828Z</time></trkpt><trkpt lat="45.7172737" lon="8.7431787"><ele>273.5</ele><time>2026-04-24T09:33:06.822Z</time></trkpt><trkpt lat="45.717351" lon="8.743221"><ele>273.0</ele><time>2026-04-24T09:33:07.823Z</time></trkpt><trkpt lat="45.7174445" lon="8.7432697"><ele>272.5</ele><time>2026-04-24T09:33:08.812Z</time></trkpt><trkpt lat="45.7175557" lon="8.7433155"><ele>272.0</ele><time>2026-04-24T09:33:09.822Z</time></trkpt><trkpt lat="45.7176588" lon="8.7433598"><ele>272.2</ele><time>2026-04-24T09:33:10.817Z</time></trkpt><trkpt lat="45.7177638" lon="8.7434108"><ele>272.4</ele><time>2026-04-24T09:33:11.815Z</time></trkpt><trkpt lat="45.7178674" lon="8.7434503"><ele>272.6</ele><time>2026-04-24T09:33:12.819Z</time></trkpt><trkpt lat="45.7179554" lon="8.743482"><ele>272.8</ele><time>2026-04-24T09:33:13.83Z</time></trkpt><trkpt lat="45.7180342" lon="8.7435093"><ele>273.0</ele><time>2026-04-24T09:33:14.826Z</time></trkpt><trkpt lat="45.718104" lon="8.7435419"><ele>273.4</ele><time>2026-04-24T09:33:15.816Z</time></trkpt><trkpt lat="45.7181945" lon="8.7436663"><ele>273.8</ele><time>2026-04-24T09:33:17.813Z</time></trkpt><trkpt lat="45.7182355" lon="8.7437732"><ele>274.2</ele><time>2026-04-24T09:33:18.815Z</time></trkpt><trkpt lat="45.718289" lon="8.7438852"><ele>274.6</ele><time>2026-04-24T09:33:19.809Z</time></trkpt><trkpt lat="45.7183606" lon="8.7439858"><ele>275.0</ele><time>2026-04-24T09:33:20.821Z</time></trkpt><trkpt lat="45.7184401" lon="8.7440664"><ele>275.0</ele><time>2026-04-24T09:33:21.814Z</time></trkpt><trkpt lat="45.7185312" lon="8.7441296"><ele>275.0</ele><time>2026-04-24T09:33:22.819Z</time></trkpt><trkpt lat="45.7186341" lon="8.7441832"><ele>275.0</ele><time>2026-04-24T09:33:23.815Z</time></trkpt><trkpt lat="45.7187386" lon="8.7442406"><ele>275.0</ele><time>2026-04-24T09:33:24.819Z</time></trkpt><trkpt lat="45.7188386" lon="8.7443084"><ele>275.0</ele><time>2026-04-24T09:33:25.836Z</time></trkpt><trkpt lat="45.7189368" lon="8.7443877"><ele>273.5</ele><time>2026-04-24T09:33:26.819Z</time></trkpt><trkpt lat="45.7190313" lon="8.7444811"><ele>272.0</ele><time>2026-04-24T09:33:27.821Z</time></trkpt><trkpt lat="45.719128" lon="8.7445759"><ele>270.5</ele><time>2026-04-24T09:33:28.825Z</time></trkpt><trkpt lat="45.7192262" lon="8.7446582"><ele>269.0</ele><time>2026-04-24T09:33:29.822Z</time></trkpt><trkpt lat="45.7193351" lon="8.7447344"><ele>269.25</ele><time>2026-04-24T09:33:30.824Z</time></trkpt><trkpt lat="45.7194455" lon="8.7448038"><ele>269.5</ele><time>2026-04-24T09:33:31.821Z</time></trkpt><trkpt lat="45.7195487" lon="8.744869"><ele>269.75</ele><time>2026-04-24T09:33:32.828Z</time></trkpt><trkpt lat="45.719651" lon="8.744929"><ele>270.0</ele><time>2026-04-24T09:33:33.822Z</time></trkpt><trkpt lat="45.7197617" lon="8.7449948"><ele>270.0</ele><time>2026-04-24T09:33:34.827Z</time></trkpt><trkpt lat="45.7198858" lon="8.7450583"><ele>270.0</ele><time>2026-04-24T09:33:35.824Z</time></trkpt><trkpt lat="45.7200129" lon="8.7451282"><ele>270.0</ele><time>2026-04-24T09:33:36.816Z</time></trkpt><trkpt lat="45.7201425" lon="8.7452076"><ele>270.0</ele><time>2026-04-24T09:33:37.821Z</time></trkpt><trkpt lat="45.7202816" lon="8.7452916"><ele>270.0</ele><time>2026-04-24T09:33:38.827Z</time></trkpt><trkpt lat="45.7204318" lon="8.7453945"><ele>270.0</ele><time>2026-04-24T09:33:39.822Z</time></trkpt><trkpt lat="45.7205798" lon="8.7455008"><ele>270.0</ele><time>2026-04-24T09:33:40.828Z</time></trkpt><trkpt lat="45.720723" lon="8.7456015"><ele>270.0</ele><time>2026-04-24T09:33:41.828Z</time></trkpt><trkpt lat="45.7208798" lon="8.7456964"><ele>270.0</ele><time>2026-04-24T09:33:42.833Z</time></trkpt><trkpt lat="45.7210325" lon="8.7457688"><ele>270.0</ele><time>2026-04-24T09:33:43.829Z</time></trkpt><trkpt lat="45.7211735" lon="8.7458299"><ele>270.3333333333333</ele><time>2026-04-24T09:33:44.834Z</time></trkpt><trkpt lat="45.7213158" lon="8.7458854"><ele>270.66666666666663</ele><time>2026-04-24T09:33:45.831Z</time></trkpt><trkpt lat="45.7214636" lon="8.7459467"><ele>271.0</ele><time>2026-04-24T09:33:46.837Z</time></trkpt><trkpt lat="45.7216146" lon="8.7460199"><ele>271.0</ele><time>2026-04-24T09:33:47.83Z</time></trkpt><trkpt lat="45.7217658" lon="8.7460921"><ele>271.0</ele><time>2026-04-24T09:33:48.834Z</time></trkpt><trkpt lat="45.721913" lon="8.746153"><ele>271.0</ele><time>2026-04-24T09:33:49.835Z</time></trkpt><trkpt lat="45.7220528" lon="8.7461998"><ele>271.25</ele><time>2026-04-24T09:33:50.834Z</time></trkpt><trkpt lat="45.7221948" lon="8.7462443"><ele>271.5</ele><time>2026-04-24T09:33:51.833Z</time></trkpt><trkpt lat="45.7223286" lon="8.7462965"><ele>271.75</ele><time>2026-04-24T09:33:52.83Z</time></trkpt><trkpt lat="45.7224555" lon="8.7463421"><ele>272.0</ele><time>2026-04-24T09:33:53.83Z</time></trkpt><trkpt lat="45.7225839" lon="8.7463903"><ele>272.0</ele><time>2026-04-24T09:33:54.826Z</time></trkpt><trkpt lat="45.7226991" lon="8.7464389"><ele>272.0</ele><time>2026-04-24T09:33:55.827Z</time></trkpt><trkpt lat="45.7228056" lon="8.7464804"><ele>272.0</ele><time>2026-04-24T09:33:56.846Z</time></trkpt><trkpt lat="45.7228937" lon="8.7465001"><ele>272.0</ele><time>2026-04-24T09:33:57.835Z</time></trkpt><trkpt lat="45.7229746" lon="8.7465043"><ele>272.0</ele><time>2026-04-24T09:33:58.838Z</time></trkpt><trkpt lat="45.7230561" lon="8.7465009"><ele>271.6</ele><time>2026-04-24T09:33:59.831Z</time></trkpt><trkpt lat="45.7231299" lon="8.7464797"><ele>271.2</ele><time>2026-04-24T09:34:00.83Z</time></trkpt><trkpt lat="45.7231955" lon="8.7464448"><ele>270.8</ele><time>2026-04-24T09:34:01.832Z</time></trkpt><trkpt lat="45.7232859" lon="8.7463557"><ele>270.4</ele><time>2026-04-24T09:34:03.831Z</time></trkpt><trkpt lat="45.7233514" lon="8.7463039"><ele>270.0</ele><time>2026-04-24T09:34:06.836Z</time></trkpt><trkpt lat="45.7234543" lon="8.7464073"><ele>270.0</ele><time>2026-04-24T09:35:37.831Z</time></trkpt><trkpt lat="45.7235232" lon="8.7464483"><ele>270.0</ele><time>2026-04-24T09:35:38.829Z</time></trkpt><trkpt lat="45.7235979" lon="8.7464885"><ele>270.0</ele><time>2026-04-24T09:35:39.83Z</time></trkpt><trkpt lat="45.7236842" lon="8.7465246"><ele>270.0</ele><time>2026-04-24T09:35:40.833Z</time></trkpt><trkpt lat="45.7237716" lon="8.7465507"><ele>270.0</ele><time>2026-04-24T09:35:41.833Z</time></trkpt><trkpt lat="45.7238644" lon="8.7465679"><ele>270.0</ele><time>2026-04-24T09:35:42.832Z</time></trkpt><trkpt lat="45.7239634" lon="8.7465805"><ele>270.8</ele><time>2026-04-24T09:35:43.828Z</time></trkpt><trkpt lat="45.724062" lon="8.7465963"><ele>271.6</ele><time>2026-04-24T09:35:44.832Z</time></trkpt><trkpt lat="45.7241667" lon="8.7466155"><ele>272.4</ele><time>2026-04-24T09:35:45.832Z</time></trkpt><trkpt lat="45.7242762" lon="8.7466408"><ele>273.2</ele><time>2026-04-24T09:35:46.837Z</time></trkpt><trkpt lat="45.7243831" lon="8.7466769"><ele>274.0</ele><time>2026-04-24T09:35:47.832Z</time></trkpt><trkpt lat="45.7244955" lon="8.7467131"><ele>274.5</ele><time>2026-04-24T09:35:48.831Z</time></trkpt><trkpt lat="45.7246104" lon="8.7467577"><ele>275.0</ele><time>2026-04-24T09:35:49.819Z</time></trkpt><trkpt lat="45.7247349" lon="8.7468112"><ele>275.5</ele><time>2026-04-24T09:35:50.829Z</time></trkpt><trkpt lat="45.7248643" lon="8.7468674"><ele>276.0</ele><time>2026-04-24T09:35:51.829Z</time></trkpt><trkpt lat="45.7250029" lon="8.7469261"><ele>276.5</ele><time>2026-04-24T09:35:52.834Z</time></trkpt><trkpt lat="45.7251361" lon="8.7469892"><ele>277.0</ele><time>2026-04-24T09:35:53.83Z</time></trkpt><trkpt lat="45.7252687" lon="8.7470576"><ele>277.5</ele><time>2026-04-24T09:35:54.832Z</time></trkpt><trkpt lat="45.7253971" lon="8.7471298"><ele>278.0</ele><time>2026-04-24T09:35:55.832Z</time></trkpt><trkpt lat="45.7255303" lon="8.7471986"><ele>278.0</ele><time>2026-04-24T09:35:56.837Z</time></trkpt><trkpt lat="45.7256544" lon="8.7472642"><ele>278.0</ele><time>2026-04-24T09:35:57.832Z</time></trkpt><trkpt lat="45.7257812" lon="8.7473265"><ele>278.0</ele><time>2026-04-24T09:35:58.83Z</time></trkpt><trkpt lat="45.7259071" lon="8.7473887"><ele>278.0</ele><time>2026-04-24T09:35:59.826Z</time></trkpt><trkpt lat="45.7260336" lon="8.7474418"><ele>278.25</ele><time>2026-04-24T09:36:00.843Z</time></trkpt><trkpt lat="45.7261565" lon="8.7474762"><ele>278.5</ele><time>2026-04-24T09:36:01.823Z</time></trkpt><trkpt lat="45.726285" lon="8.7474961"><ele>278.75</ele><time>2026-04-24T09:36:02.831Z</time></trkpt><trkpt lat="45.7264073" lon="8.7474949"><ele>279.0</ele><time>2026-04-24T09:36:03.822Z</time></trkpt><trkpt lat="45.7265275" lon="8.7474831"><ele>279.0</ele><time>2026-04-24T09:36:04.825Z</time></trkpt><trkpt lat="45.7266423" lon="8.7474757"><ele>279.0</ele><time>2026-04-24T09:36:05.816Z</time></trkpt><trkpt lat="45.7267571" lon="8.7474549"><ele>279.0</ele><time>2026-04-24T09:36:06.817Z</time></trkpt><trkpt lat="45.7268664" lon="8.7474277"><ele>279.0</ele><time>2026-04-24T09:36:07.818Z</time></trkpt><trkpt lat="45.7269658" lon="8.7474009"><ele>279.0</ele><time>2026-04-24T09:36:08.817Z</time></trkpt><trkpt lat="45.7270606" lon="8.747385"><ele>279.3333333333333</ele><time>2026-04-24T09:36:09.817Z</time></trkpt><trkpt lat="45.7271447" lon="8.7473803"><ele>279.6666666666667</ele><time>2026-04-24T09:36:10.816Z</time></trkpt><trkpt lat="45.7272281" lon="8.7473946"><ele>280.0</ele><time>2026-04-24T09:36:12.811Z</time></trkpt><trkpt lat="45.7272833" lon="8.7474728"><ele>280.33333333333337</ele><time>2026-04-24T09:36:16.824Z</time></trkpt><trkpt lat="45.7273735" lon="8.7475077"><ele>280.6666666666667</ele><time>2026-04-24T09:36:18.822Z</time></trkpt><trkpt lat="45.7274795" lon="8.7475425"><ele>281.0</ele><time>2026-04-24T09:36:20.822Z</time></trkpt><trkpt lat="45.7275564" lon="8.7476086"><ele>281.40000000000003</ele><time>2026-04-24T09:36:22.819Z</time></trkpt><trkpt lat="45.7276069" lon="8.7477734"><ele>281.8</ele><time>2026-04-24T09:36:24.817Z</time></trkpt><trkpt lat="45.7276232" lon="8.7478972"><ele>282.20000000000005</ele><time>2026-04-24T09:36:25.813Z</time></trkpt><trkpt lat="45.7276311" lon="8.7480341"><ele>282.6</ele><time>2026-04-24T09:36:26.816Z</time></trkpt><trkpt lat="45.7276341" lon="8.7481762"><ele>283.0</ele><time>2026-04-24T09:36:27.813Z</time></trkpt><trkpt lat="45.7276322" lon="8.7483124"><ele>283.0</ele><time>2026-04-24T09:36:28.818Z</time></trkpt><trkpt lat="45.7276333" lon="8.7484457"><ele>283.0</ele><time>2026-04-24T09:36:29.819Z</time></trkpt><trkpt lat="45.7276402" lon="8.7485765"><ele>283.0</ele><time>2026-04-24T09:36:30.821Z</time></trkpt><trkpt lat="45.7276542" lon="8.7487064"><ele>283.0</ele><time>2026-04-24T09:36:31.83Z</time></trkpt><trkpt lat="45.7276606" lon="8.748826"><ele>283.0</ele><time>2026-04-24T09:36:32.823Z</time></trkpt><trkpt lat="45.7276691" lon="8.7489257"><ele>283.0</ele><time>2026-04-24T09:36:33.82Z</time></trkpt><trkpt lat="45.7276775" lon="8.7490224"><ele>283.16666666666663</ele><time>2026-04-24T09:36:34.819Z</time></trkpt><trkpt lat="45.7276978" lon="8.7491137"><ele>283.3333333333333</ele><time>2026-04-24T09:36:35.815Z</time></trkpt><trkpt lat="45.7277038" lon="8.7492069"><ele>283.5</ele><time>2026-04-24T09:36:36.814Z</time></trkpt><trkpt lat="45.7276887" lon="8.7492992"><ele>283.6666666666667</ele><time>2026-04-24T09:36:37.818Z</time></trkpt><trkpt lat="45.7276501" lon="8.7493904"><ele>283.83333333333337</ele><time>2026-04-24T09:36:38.825Z</time></trkpt><trkpt lat="45.7276008" lon="8.7494929"><ele>284.0</ele><time>2026-04-24T09:36:39.829Z</time></trkpt><trkpt lat="45.7275492" lon="8.7496047"><ele>284.5</ele><time>2026-04-24T09:36:40.835Z</time></trkpt><trkpt lat="45.727499" lon="8.749733"><ele>285.0</ele><time>2026-04-24T09:36:41.829Z</time></trkpt><trkpt lat="45.7274402" lon="8.7498789"><ele>285.5</ele><time>2026-04-24T09:36:42.836Z</time></trkpt><trkpt lat="45.7273836" lon="8.7500334"><ele>286.0</ele><time>2026-04-24T09:36:43.84Z</time></trkpt><trkpt lat="45.7273309" lon="8.7502003"><ele>286.5</ele><time>2026-04-24T09:36:44.835Z</time></trkpt><trkpt lat="45.7272877" lon="8.7503746"><ele>287.0</ele><time>2026-04-24T09:36:45.831Z</time></trkpt><trkpt lat="45.7272544" lon="8.7505574"><ele>287.5</ele><time>2026-04-24T09:36:46.833Z</time></trkpt><trkpt lat="45.7272351" lon="8.750748"><ele>288.0</ele><time>2026-04-24T09:36:47.832Z</time></trkpt><trkpt lat="45.7272221" lon="8.7509412"><ele>289.0</ele><time>2026-04-24T09:36:48.833Z</time></trkpt><trkpt lat="45.7272118" lon="8.7511306"><ele>290.0</ele><time>2026-04-24T09:36:49.837Z</time></trkpt><trkpt lat="45.7272007" lon="8.7513143"><ele>291.0</ele><time>2026-04-24T09:36:50.839Z</time></trkpt><trkpt lat="45.7271923" lon="8.7514898"><ele>292.0</ele><time>2026-04-24T09:36:51.834Z</time></trkpt><trkpt lat="45.7271869" lon="8.7516636"><ele>292.0</ele><time>2026-04-24T09:36:52.837Z</time></trkpt><trkpt lat="45.7271852" lon="8.7518248"><ele>292.0</ele><time>2026-04-24T09:36:53.825Z</time></trkpt><trkpt lat="45.727176" lon="8.7519646"><ele>292.0</ele><time>2026-04-24T09:36:54.834Z</time></trkpt><trkpt lat="45.7271544" lon="8.7520855"><ele>292.0</ele><time>2026-04-24T09:36:55.826Z</time></trkpt><trkpt lat="45.7271196" lon="8.7521809"><ele>292.0</ele><time>2026-04-24T09:36:56.834Z</time></trkpt><trkpt lat="45.7270476" lon="8.7522511"><ele>293.0</ele><time>2026-04-24T09:36:57.83Z</time></trkpt><trkpt lat="45.7269531" lon="8.7522918"><ele>294.0</ele><time>2026-04-24T09:36:58.832Z</time></trkpt><trkpt lat="45.7268498" lon="8.7523137"><ele>295.0</ele><time>2026-04-24T09:36:59.834Z</time></trkpt><trkpt lat="45.7267497" lon="8.7523385"><ele>296.0</ele><time>2026-04-24T09:37:00.831Z</time></trkpt><trkpt lat="45.7266546" lon="8.7523743"><ele>297.0</ele><time>2026-04-24T09:37:01.834Z</time></trkpt><trkpt lat="45.726558" lon="8.7524232"><ele>297.0</ele><time>2026-04-24T09:37:02.858Z</time></trkpt><trkpt lat="45.7264643" lon="8.752489"><ele>297.0</ele><time>2026-04-24T09:37:03.838Z</time></trkpt><trkpt lat="45.7263719" lon="8.7525703"><ele>297.0</ele><time>2026-04-24T09:37:04.841Z</time></trkpt><trkpt lat="45.7262868" lon="8.7526787"><ele>297.0</ele><time>2026-04-24T09:37:05.839Z</time></trkpt><trkpt lat="45.7262085" lon="8.7528164"><ele>297.75</ele><time>2026-04-24T09:37:06.839Z</time></trkpt><trkpt lat="45.7261271" lon="8.7529772"><ele>298.5</ele><time>2026-04-24T09:37:07.84Z</time></trkpt><trkpt lat="45.7260461" lon="8.7531566"><ele>299.25</ele><time>2026-04-24T09:37:08.831Z</time></trkpt><trkpt lat="45.7259694" lon="8.7533389"><ele>300.0</ele><time>2026-04-24T09:37:09.838Z</time></trkpt><trkpt lat="45.7258934" lon="8.7535565"><ele>302.0</ele><time>2026-04-24T09:37:10.827Z</time></trkpt><trkpt lat="45.7258425" lon="8.7537789"><ele>304.0</ele><time>2026-04-24T09:37:11.823Z</time></trkpt><trkpt lat="45.7258146" lon="8.7539866"><ele>306.0</ele><time>2026-04-24T09:37:12.813Z</time></trkpt><trkpt lat="45.7257824" lon="8.7541741"><ele>308.0</ele><time>2026-04-24T09:37:13.82Z</time></trkpt><trkpt lat="45.7257543" lon="8.7543191"><ele>308.0</ele><time>2026-04-24T09:37:14.808Z</time></trkpt><trkpt lat="45.7257351" lon="8.7544454"><ele>308.0</ele><time>2026-04-24T09:37:15.814Z</time></trkpt><trkpt lat="45.7257246" lon="8.7545577"><ele>308.0</ele><time>2026-04-24T09:37:16.81Z</time></trkpt><trkpt lat="45.7257206" lon="8.7546554"><ele>308.0</ele><time>2026-04-24T09:37:17.812Z</time></trkpt><trkpt lat="45.7256978" lon="8.7547908"><ele>308.0</ele><time>2026-04-24T09:37:19.825Z</time></trkpt><trkpt lat="45.7256187" lon="8.7548004"><ele>308.0</ele><time>2026-04-24T09:37:21.819Z</time></trkpt><trkpt lat="45.7255543" lon="8.7547861"><ele>308.0</ele><time>2026-04-24T09:37:22.82Z</time></trkpt><trkpt lat="45.7254894" lon="8.754791"><ele>308.0</ele><time>2026-04-24T09:37:23.821Z</time></trkpt><trkpt lat="45.725367" lon="8.7548221"><ele>308.0</ele><time>2026-04-24T09:37:25.815Z</time></trkpt><trkpt lat="45.7253043" lon="8.7548548"><ele>308.0</ele><time>2026-04-24T09:37:26.826Z</time></trkpt><trkpt lat="45.7252377" lon="8.7548888"><ele>308.0</ele><time>2026-04-24T09:37:27.827Z</time></trkpt><trkpt lat="45.7251658" lon="8.7549325"><ele>308.0</ele><time>2026-04-24T09:37:28.827Z</time></trkpt><trkpt lat="45.7250967" lon="8.7549919"><ele>308.5</ele><time>2026-04-24T09:37:29.818Z</time></trkpt><trkpt lat="45.7250348" lon="8.7550735"><ele>309.0</ele><time>2026-04-24T09:37:30.834Z</time></trkpt><trkpt lat="45.7249724" lon="8.7551696"><ele>309.5</ele><time>2026-04-24T09:37:31.829Z</time></trkpt><trkpt lat="45.7249174" lon="8.7552587"><ele>310.0</ele><time>2026-04-24T09:37:32.83Z</time></trkpt><trkpt lat="45.7248614" lon="8.7553522"><ele>310.5</ele><time>2026-04-24T09:37:33.838Z</time></trkpt><trkpt lat="45.7247987" lon="8.7554111"><ele>311.0</ele><time>2026-04-24T09:37:34.821Z</time></trkpt><trkpt lat="45.7247279" lon="8.7554635"><ele>311.0</ele><time>2026-04-24T09:37:35.819Z</time></trkpt><trkpt lat="45.724664" lon="8.7555021"><ele>311.0</ele><time>2026-04-24T09:37:36.821Z</time></trkpt><trkpt lat="45.7245736" lon="8.7555642"><ele>311.0</ele><time>2026-04-24T09:37:38.826Z</time></trkpt><trkpt lat="45.7246282" lon="8.7556097"><ele>311.0</ele><time>2026-04-24T09:37:44.829Z</time></trkpt><trkpt lat="45.7246738" lon="8.7557104"><ele>311.0</ele><time>2026-04-24T09:37:47.812Z</time></trkpt><trkpt lat="45.7247014" lon="8.7558278"><ele>311.0</ele><time>2026-04-24T09:37:49.806Z</time></trkpt><trkpt lat="45.724706" lon="8.7559826"><ele>308.6666666666667</ele><time>2026-04-24T09:37:51.808Z</time></trkpt><trkpt lat="45.7247398" lon="8.7561056"><ele>306.33333333333337</ele><time>2026-04-24T09:37:53.803Z</time></trkpt><trkpt lat="45.7247993" lon="8.7561833"><ele>304.0</ele><time>2026-04-24T09:37:55.813Z</time></trkpt><trkpt lat="45.7248401" lon="8.7562836"><ele>301.6666666666667</ele><time>2026-04-24T09:37:58.82Z</time></trkpt><trkpt lat="45.7248196" lon="8.7563939"><ele>299.3333333333333</ele><time>2026-04-24T09:38:01.817Z</time></trkpt><trkpt lat="45.724811" lon="8.7564908"><ele>297.0</ele><time>2026-04-24T09:38:03.82Z</time></trkpt><trkpt lat="45.7248183" lon="8.7565893"><ele>297.0</ele><time>2026-04-24T09:38:05.828Z</time></trkpt><trkpt lat="45.7249242" lon="8.7565523"><ele>297.0</ele><time>2026-04-24T09:38:15.823Z</time></trkpt><trkpt lat="45.7249862" lon="8.7565295"><ele>297.0</ele><time>2026-04-24T09:38:16.82Z</time></trkpt><trkpt lat="45.7250551" lon="8.7564986"><ele>297.0</ele><time>2026-04-24T09:38:17.818Z</time></trkpt><trkpt lat="45.7251303" lon="8.7564692"><ele>297.0</ele><time>2026-04-24T09:38:18.816Z</time></trkpt><trkpt lat="45.7252237" lon="8.7564437"><ele>297.0</ele><time>2026-04-24T09:38:19.816Z</time></trkpt><trkpt lat="45.7253208" lon="8.7564178"><ele>296.4</ele><time>2026-04-24T09:38:20.815Z</time></trkpt><trkpt lat="45.7254143" lon="8.7563987"><ele>295.79999999999995</ele><time>2026-04-24T09:38:21.808Z</time></trkpt><trkpt lat="45.725517" lon="8.7563722"><ele>295.2</ele><time>2026-04-24T09:38:22.811Z</time></trkpt><trkpt lat="45.725617" lon="8.756352"><ele>294.59999999999997</ele><time>2026-04-24T09:38:23.811Z</time></trkpt><trkpt lat="45.7257117" lon="8.7563158"><ele>294.0</ele><time>2026-04-24T09:38:24.819Z</time></trkpt><trkpt lat="45.725803" lon="8.7562807"><ele>294.0</ele><time>2026-04-24T09:38:25.815Z</time></trkpt><trkpt lat="45.7258949" lon="8.7562608"><ele>294.0</ele><time>2026-04-24T09:38:26.809Z</time></trkpt><trkpt lat="45.725979" lon="8.7562362"><ele>294.0</ele><time>2026-04-24T09:38:27.816Z</time></trkpt><trkpt lat="45.7260531" lon="8.7562024"><ele>294.0</ele><time>2026-04-24T09:38:28.821Z</time></trkpt><trkpt lat="45.7261291" lon="8.7561789"><ele>294.0</ele><time>2026-04-24T09:38:29.817Z</time></trkpt><trkpt lat="45.7262013" lon="8.7561528"><ele>294.0</ele><time>2026-04-24T09:38:30.812Z</time></trkpt><trkpt lat="45.7262803" lon="8.7561316"><ele>294.59999999999997</ele><time>2026-04-24T09:38:31.807Z</time></trkpt><trkpt lat="45.7263561" lon="8.7561151"><ele>295.2</ele><time>2026-04-24T09:38:32.818Z</time></trkpt><trkpt lat="45.7264202" lon="8.7560992"><ele>295.79999999999995</ele><time>2026-04-24T09:38:33.815Z</time></trkpt><trkpt lat="45.726496" lon="8.7560917"><ele>296.4</ele><time>2026-04-24T09:38:35.82Z</time></trkpt><trkpt lat="45.7264887" lon="8.7562457"><ele>297.0</ele><time>2026-04-24T09:38:38.823Z</time></trkpt><trkpt lat="45.7264615" lon="8.7564331"><ele>297.0</ele><time>2026-04-24T09:38:40.818Z</time></trkpt><trkpt lat="45.7264411" lon="8.7565564"><ele>297.0</ele><time>2026-04-24T09:38:41.815Z</time></trkpt><trkpt lat="45.7264242" lon="8.7566652"><ele>297.0</ele><time>2026-04-24T09:38:42.823Z</time></trkpt><trkpt lat="45.7264077" lon="8.756775"><ele>297.0</ele><time>2026-04-24T09:38:43.822Z</time></trkpt><trkpt lat="45.7263699" lon="8.756939"><ele>297.0</ele><time>2026-04-24T09:38:44.816Z</time></trkpt><trkpt lat="45.7263145" lon="8.7571295"><ele>296.0</ele><time>2026-04-24T09:38:45.811Z</time></trkpt><trkpt lat="45.7262611" lon="8.7573411"><ele>295.0</ele><time>2026-04-24T09:38:46.817Z</time></trkpt><trkpt lat="45.7261964" lon="8.7575701"><ele>294.0</ele><time>2026-04-24T09:38:47.812Z</time></trkpt><trkpt lat="45.726128" lon="8.7578031"><ele>292.3333333333333</ele><time>2026-04-24T09:38:48.814Z</time></trkpt><trkpt lat="45.7260624" lon="8.7580365"><ele>290.66666666666663</ele><time>2026-04-24T09:38:49.807Z</time></trkpt><trkpt lat="45.7259952" lon="8.7582563"><ele>289.0</ele><time>2026-04-24T09:38:50.813Z</time></trkpt><trkpt lat="45.7259176" lon="8.7584855"><ele>288.3333333333333</ele><time>2026-04-24T09:38:51.805Z</time></trkpt><trkpt lat="45.7258205" lon="8.758708"><ele>287.6666666666667</ele><time>2026-04-24T09:38:52.81Z</time></trkpt><trkpt lat="45.7257079" lon="8.7589306"><ele>287.0</ele><time>2026-04-24T09:38:53.815Z</time></trkpt><trkpt lat="45.7255924" lon="8.7591368"><ele>287.0</ele><time>2026-04-24T09:38:54.818Z</time></trkpt><trkpt lat="45.7254837" lon="8.7593379"><ele>287.0</ele><time>2026-04-24T09:38:55.814Z</time></trkpt><trkpt lat="45.7253677" lon="8.759529"><ele>287.0</ele><time>2026-04-24T09:38:56.822Z</time></trkpt><trkpt lat="45.7252669" lon="8.7597234"><ele>284.6666666666667</ele><time>2026-04-24T09:38:57.825Z</time></trkpt><trkpt lat="45.7251851" lon="8.7599365"><ele>282.3333333333333</ele><time>2026-04-24T09:38:58.827Z</time></trkpt><trkpt lat="45.7251328" lon="8.760156"><ele>280.0</ele><time>2026-04-24T09:38:59.82Z</time></trkpt><trkpt lat="45.7250924" lon="8.7603906"><ele>280.0</ele><time>2026-04-24T09:39:00.825Z</time></trkpt><trkpt lat="45.7250495" lon="8.7606189"><ele>280.0</ele><time>2026-04-24T09:39:01.825Z</time></trkpt><trkpt lat="45.7250067" lon="8.7608516"><ele>280.0</ele><time>2026-04-24T09:39:02.836Z</time></trkpt><trkpt lat="45.7249505" lon="8.7610716"><ele>282.66666666666663</ele><time>2026-04-24T09:39:03.829Z</time></trkpt><trkpt lat="45.7248944" lon="8.7612955"><ele>285.3333333333333</ele><time>2026-04-24T09:39:04.831Z</time></trkpt><trkpt lat="45.7248405" lon="8.7615118"><ele>288.0</ele><time>2026-04-24T09:39:05.831Z</time></trkpt><trkpt lat="45.7247924" lon="8.7617246"><ele>290.5</ele><time>2026-04-24T09:39:06.849Z</time></trkpt><trkpt lat="45.7247466" lon="8.7619299"><ele>293.0</ele><time>2026-04-24T09:39:07.825Z</time></trkpt><trkpt lat="45.7247061" lon="8.7621205"><ele>295.5</ele><time>2026-04-24T09:39:08.827Z</time></trkpt><trkpt lat="45.7246689" lon="8.7622949"><ele>298.0</ele><time>2026-04-24T09:39:09.825Z</time></trkpt><trkpt lat="45.7246168" lon="8.7624569"><ele>298.0</ele><time>2026-04-24T09:39:10.824Z</time></trkpt><trkpt lat="45.7245534" lon="8.7625789"><ele>298.0</ele><time>2026-04-24T09:39:11.822Z</time></trkpt><trkpt lat="45.7244702" lon="8.7626614"><ele>298.0</ele><time>2026-04-24T09:39:12.822Z</time></trkpt><trkpt lat="45.7243746" lon="8.7627017"><ele>298.0</ele><time>2026-04-24T09:39:13.82Z</time></trkpt><trkpt lat="45.7242628" lon="8.7627209"><ele>298.0</ele><time>2026-04-24T09:39:14.814Z</time></trkpt><trkpt lat="45.7241359" lon="8.7627405"><ele>300.75</ele><time>2026-04-24T09:39:15.809Z</time></trkpt><trkpt lat="45.7240042" lon="8.7627531"><ele>303.5</ele><time>2026-04-24T09:39:16.809Z</time></trkpt><trkpt lat="45.723869" lon="8.7627712"><ele>306.25</ele><time>2026-04-24T09:39:17.804Z</time></trkpt><trkpt lat="45.7237347" lon="8.7628102"><ele>309.0</ele><time>2026-04-24T09:39:18.818Z</time></trkpt><trkpt lat="45.7236241" lon="8.762852"><ele>309.4</ele><time>2026-04-24T09:39:19.813Z</time></trkpt><trkpt lat="45.7235368" lon="8.7628948"><ele>309.79999999999995</ele><time>2026-04-24T09:39:20.806Z</time></trkpt><trkpt lat="45.7234622" lon="8.7629359"><ele>310.20000000000005</ele><time>2026-04-24T09:39:21.805Z</time></trkpt><trkpt lat="45.7233855" lon="8.7630456"><ele>310.6</ele><time>2026-04-24T09:39:23.805Z</time></trkpt><trkpt lat="45.7234271" lon="8.7632088"><ele>311.0</ele><time>2026-04-24T09:39:25.807Z</time></trkpt><trkpt lat="45.7235073" lon="8.7632903"><ele>310.5</ele><time>2026-04-24T09:39:26.814Z</time></trkpt><trkpt lat="45.723622" lon="8.7633759"><ele>310.0</ele><time>2026-04-24T09:39:27.82Z</time></trkpt><trkpt lat="45.7237599" lon="8.7634632"><ele>309.5</ele><time>2026-04-24T09:39:28.815Z</time></trkpt><trkpt lat="45.7238999" lon="8.7635529"><ele>309.0</ele><time>2026-04-24T09:39:29.818Z</time></trkpt><trkpt lat="45.7240326" lon="8.7636498"><ele>309.75</ele><time>2026-04-24T09:39:30.815Z</time></trkpt><trkpt lat="45.7241547" lon="8.7637558"><ele>310.5</ele><time>2026-04-24T09:39:31.811Z</time></trkpt><trkpt lat="45.724258" lon="8.7638689"><ele>311.25</ele><time>2026-04-24T09:39:32.814Z</time></trkpt><trkpt lat="45.7243523" lon="8.7639943"><ele>312.0</ele><time>2026-04-24T09:39:33.816Z</time></trkpt><trkpt lat="45.7244335" lon="8.7641246"><ele>312.0</ele><time>2026-04-24T09:39:34.819Z</time></trkpt><trkpt lat="45.724486" lon="8.7642386"><ele>312.0</ele><time>2026-04-24T09:39:35.814Z</time></trkpt><trkpt lat="45.7245222" lon="8.7643344"><ele>312.0</ele><time>2026-04-24T09:39:36.815Z</time></trkpt><trkpt lat="45.7245535" lon="8.7644324"><ele>312.0</ele><time>2026-04-24T09:39:38.82Z</time></trkpt><trkpt lat="45.7246361" lon="8.7643778"><ele>312.0</ele><time>2026-04-24T09:39:42.81Z</time></trkpt><trkpt lat="45.7247461" lon="8.7643396"><ele>312.0</ele><time>2026-04-24T09:39:44.807Z</time></trkpt><trkpt lat="45.7248199" lon="8.7643328"><ele>312.0</ele><time>2026-04-24T09:39:45.806Z</time></trkpt><trkpt lat="45.7249008" lon="8.7643358"><ele>312.0</ele><time>2026-04-24T09:39:46.806Z</time></trkpt><trkpt lat="45.7249832" lon="8.7643356"><ele>312.0</ele><time>2026-04-24T09:39:47.815Z</time></trkpt><trkpt lat="45.7250617" lon="8.7643278"><ele>312.0</ele><time>2026-04-24T09:39:48.809Z</time></trkpt><trkpt lat="45.7251458" lon="8.7643107"><ele>312.0</ele><time>2026-04-24T09:39:49.821Z</time></trkpt><trkpt lat="45.7252191" lon="8.764293"><ele>311.42857142857144</ele><time>2026-04-24T09:39:50.809Z</time></trkpt><trkpt lat="45.7252903" lon="8.7642684"><ele>310.85714285714283</ele><time>2026-04-24T09:39:51.815Z</time></trkpt><trkpt lat="45.7253557" lon="8.7642396"><ele>310.2857142857143</ele><time>2026-04-24T09:39:52.812Z</time></trkpt><trkpt lat="45.725419" lon="8.7642088"><ele>309.7142857142857</ele><time>2026-04-24T09:39:53.816Z</time></trkpt><trkpt lat="45.7254854" lon="8.7641809"><ele>309.1428571428571</ele><time>2026-04-24T09:39:54.815Z</time></trkpt><trkpt lat="45.7255516" lon="8.7641633"><ele>308.57142857142856</ele><time>2026-04-24T09:39:55.814Z</time></trkpt><trkpt lat="45.7256169" lon="8.7641548"><ele>308.0</ele><time>2026-04-24T09:39:56.81Z</time></trkpt><trkpt lat="45.7256854" lon="8.7641574"><ele>308.0</ele><time>2026-04-24T09:39:57.809Z</time></trkpt><trkpt lat="45.7257532" lon="8.7641614"><ele>308.0</ele><time>2026-04-24T09:39:58.813Z</time></trkpt><trkpt lat="45.725825" lon="8.7641675"><ele>308.0</ele><time>2026-04-24T09:39:59.809Z</time></trkpt><trkpt lat="45.7258898" lon="8.7641704"><ele>308.0</ele><time>2026-04-24T09:40:00.812Z</time></trkpt><trkpt lat="45.7260123" lon="8.7641658"><ele>308.0</ele><time>2026-04-24T09:40:02.811Z</time></trkpt><trkpt lat="45.7261305" lon="8.7641286"><ele>308.0</ele><time>2026-04-24T09:40:04.811Z</time></trkpt><trkpt lat="45.7262466" lon="8.7641353"><ele>307.33333333333337</ele><time>2026-04-24T09:40:06.808Z</time></trkpt><trkpt lat="45.7263104" lon="8.7641648"><ele>306.6666666666667</ele><time>2026-04-24T09:40:07.806Z</time></trkpt><trkpt lat="45.7263717" lon="8.7641904"><ele>306.0</ele><time>2026-04-24T09:40:08.822Z</time></trkpt><trkpt lat="45.7264725" lon="8.764214"><ele>305.3333333333333</ele><time>2026-04-24T09:40:10.802Z</time></trkpt><trkpt lat="45.7265513" lon="8.7641915"><ele>304.66666666666663</ele><time>2026-04-24T09:40:12.811Z</time></trkpt><trkpt lat="45.7265974" lon="8.7641287"><ele>304.0</ele><time>2026-04-24T09:40:14.807Z</time></trkpt><trkpt lat="45.7266672" lon="8.7640897"><ele>304.0</ele><time>2026-04-24T09:40:17.804Z</time></trkpt><trkpt lat="45.7267556" lon="8.7640847"><ele>304.0</ele><time>2026-04-24T09:40:36.815Z</time></trkpt><trkpt lat="45.7268414" lon="8.7640926"><ele>304.0</ele><time>2026-04-24T09:40:38.81Z</time></trkpt><trkpt lat="45.7269621" lon="8.7641048"><ele>304.0</ele><time>2026-04-24T09:40:40.806Z</time></trkpt><trkpt lat="45.7270389" lon="8.7641109"><ele>304.0</ele><time>2026-04-24T09:40:41.81Z</time></trkpt><trkpt lat="45.7271167" lon="8.7641212"><ele>303.5</ele><time>2026-04-24T09:40:42.805Z</time></trkpt><trkpt lat="45.727194" lon="8.7641272"><ele>303.0</ele><time>2026-04-24T09:40:43.81Z</time></trkpt><trkpt lat="45.7272654" lon="8.7641309"><ele>302.5</ele><time>2026-04-24T09:40:44.802Z</time></trkpt><trkpt lat="45.7273821" lon="8.7641117"><ele>302.0</ele><time>2026-04-24T09:40:46.81Z</time></trkpt><trkpt lat="45.7274551" lon="8.7640922"><ele>301.5</ele><time>2026-04-24T09:40:47.808Z</time></trkpt><trkpt lat="45.7275311" lon="8.7640765"><ele>301.0</ele><time>2026-04-24T09:40:48.807Z</time></trkpt><trkpt lat="45.7276245" lon="8.7640459"><ele>301.0</ele><time>2026-04-24T09:40:49.807Z</time></trkpt><trkpt lat="45.7277164" lon="8.7640023"><ele>301.0</ele><time>2026-04-24T09:40:50.799Z</time></trkpt><trkpt lat="45.7278084" lon="8.7639633"><ele>301.0</ele><time>2026-04-24T09:40:51.807Z</time></trkpt><trkpt lat="45.7279027" lon="8.76392"><ele>301.0</ele><time>2026-04-24T09:40:52.808Z</time></trkpt><trkpt lat="45.7280026" lon="8.7638748"><ele>301.0</ele><time>2026-04-24T09:40:53.815Z</time></trkpt><trkpt lat="45.7281047" lon="8.7638179"><ele>301.40000000000003</ele><time>2026-04-24T09:40:54.804Z</time></trkpt><trkpt lat="45.7282055" lon="8.7637584"><ele>301.8</ele><time>2026-04-24T09:40:55.813Z</time></trkpt><trkpt lat="45.7282972" lon="8.7636862"><ele>302.20000000000005</ele><time>2026-04-24T09:40:56.815Z</time></trkpt><trkpt lat="45.7283876" lon="8.7636092"><ele>302.6</ele><time>2026-04-24T09:40:57.814Z</time></trkpt><trkpt lat="45.7284687" lon="8.7635355"><ele>303.0</ele><time>2026-04-24T09:40:58.808Z</time></trkpt><trkpt lat="45.7285428" lon="8.7634614"><ele>303.6666666666667</ele><time>2026-04-24T09:40:59.817Z</time></trkpt><trkpt lat="45.7286122" lon="8.7633885"><ele>304.3333333333333</ele><time>2026-04-24T09:41:00.806Z</time></trkpt><trkpt lat="45.7286834" lon="8.7633296"><ele>305.0</ele><time>2026-04-24T09:41:01.808Z</time></trkpt><trkpt lat="45.7287606" lon="8.7633004"><ele>305.66666666666663</ele><time>2026-04-24T09:41:02.813Z</time></trkpt><trkpt lat="45.7288397" lon="8.7632826"><ele>306.3333333333333</ele><time>2026-04-24T09:41:03.81Z</time></trkpt><trkpt lat="45.7289174" lon="8.7632664"><ele>307.0</ele><time>2026-04-24T09:41:04.811Z</time></trkpt><trkpt lat="45.7289867" lon="8.7632661"><ele>306.99999999999994</ele><time>2026-04-24T09:41:05.81Z</time></trkpt><trkpt lat="45.7290491" lon="8.7632957"><ele>307.0</ele><time>2026-04-24T09:41:06.806Z</time></trkpt><trkpt lat="45.7291091" lon="8.7633369"><ele>307.0</ele><time>2026-04-24T09:41:07.811Z</time></trkpt><trkpt lat="45.7291745" lon="8.7633789"><ele>307.0</ele><time>2026-04-24T09:41:08.808Z</time></trkpt><trkpt lat="45.7292408" lon="8.763416"><ele>307.0</ele><time>2026-04-24T09:41:09.8Z</time></trkpt><trkpt lat="45.7293176" lon="8.7634501"><ele>306.99999999999994</ele><time>2026-04-24T09:41:10.816Z</time></trkpt><trkpt lat="45.7293988" lon="8.7634568"><ele>307.0</ele><time>2026-04-24T09:41:11.798Z</time></trkpt><trkpt lat="45.7294941" lon="8.763444"><ele>306.66666666666663</ele><time>2026-04-24T09:41:12.801Z</time></trkpt><trkpt lat="45.7295866" lon="8.7634273"><ele>306.3333333333333</ele><time>2026-04-24T09:41:13.8Z</time></trkpt><trkpt lat="45.729662" lon="8.7634181"><ele>306.0</ele><time>2026-04-24T09:41:14.798Z</time></trkpt><trkpt lat="45.7297567" lon="8.7633758"><ele>305.6666666666667</ele><time>2026-04-24T09:41:16.803Z</time></trkpt><trkpt lat="45.7298149" lon="8.7632945"><ele>305.33333333333337</ele><time>2026-04-24T09:41:20.811Z</time></trkpt><trkpt lat="45.729899" lon="8.7633014"><ele>305.0</ele><time>2026-04-24T09:41:23.802Z</time></trkpt><trkpt lat="45.730012" lon="8.7633305"><ele>305.0</ele><time>2026-04-24T09:41:25.806Z</time></trkpt><trkpt lat="45.7300788" lon="8.7633417"><ele>305.0</ele><time>2026-04-24T09:41:26.806Z</time></trkpt><trkpt lat="45.7301537" lon="8.763346"><ele>305.0</ele><time>2026-04-24T09:41:27.799Z</time></trkpt><trkpt lat="45.7302275" lon="8.7633515"><ele>305.0</ele><time>2026-04-24T09:41:28.806Z</time></trkpt><trkpt lat="45.7303045" lon="8.7633509"><ele>305.0</ele><time>2026-04-24T09:41:29.803Z</time></trkpt><trkpt lat="45.7303834" lon="8.7633452"><ele>305.0</ele><time>2026-04-24T09:41:30.811Z</time></trkpt><trkpt lat="45.7304695" lon="8.7633227"><ele>304.8</ele><time>2026-04-24T09:41:31.81Z</time></trkpt><trkpt lat="45.7305627" lon="8.7632891"><ele>304.6</ele><time>2026-04-24T09:41:32.812Z</time></trkpt><trkpt lat="45.7306658" lon="8.7632474"><ele>304.4</ele><time>2026-04-24T09:41:33.807Z</time></trkpt><trkpt lat="45.730767" lon="8.7632161"><ele>304.2</ele><time>2026-04-24T09:41:34.811Z</time></trkpt><trkpt lat="45.7308582" lon="8.7631954"><ele>304.0</ele><time>2026-04-24T09:41:35.801Z</time></trkpt><trkpt lat="45.73094" lon="8.7631634"><ele>304.0</ele><time>2026-04-24T09:41:36.804Z</time></trkpt><trkpt lat="45.7310179" lon="8.7631335"><ele>304.0</ele><time>2026-04-24T09:41:37.813Z</time></trkpt><trkpt lat="45.7310893" lon="8.7631103"><ele>304.0</ele><time>2026-04-24T09:41:38.819Z</time></trkpt><trkpt lat="45.7311603" lon="8.7630767"><ele>304.0</ele><time>2026-04-24T09:41:39.815Z</time></trkpt><trkpt lat="45.731234" lon="8.763039"><ele>304.0</ele><time>2026-04-24T09:41:40.82Z</time></trkpt><trkpt lat="45.7313085" lon="8.7629979"><ele>304.0</ele><time>2026-04-24T09:41:41.825Z</time></trkpt><trkpt lat="45.731385" lon="8.7629579"><ele>303.5</ele><time>2026-04-24T09:41:42.809Z</time></trkpt><trkpt lat="45.7314643" lon="8.762923"><ele>303.0</ele><time>2026-04-24T09:41:43.81Z</time></trkpt><trkpt lat="45.7315447" lon="8.7628853"><ele>302.5</ele><time>2026-04-24T09:41:44.806Z</time></trkpt><trkpt lat="45.7316276" lon="8.7628575"><ele>302.0</ele><time>2026-04-24T09:41:45.808Z</time></trkpt><trkpt lat="45.7317171" lon="8.7628292"><ele>301.5</ele><time>2026-04-24T09:41:46.806Z</time></trkpt><trkpt lat="45.7318119" lon="8.762794"><ele>301.0</ele><time>2026-04-24T09:41:47.805Z</time></trkpt><trkpt lat="45.7319038" lon="8.7627628"><ele>300.5</ele><time>2026-04-24T09:41:48.808Z</time></trkpt><trkpt lat="45.7319891" lon="8.762729"><ele>300.0</ele><time>2026-04-24T09:41:49.813Z</time></trkpt><trkpt lat="45.7320707" lon="8.7627005"><ele>299.5</ele><time>2026-04-24T09:41:50.818Z</time></trkpt><trkpt lat="45.7321426" lon="8.7626688"><ele>299.0</ele><time>2026-04-24T09:41:51.817Z</time></trkpt><trkpt lat="45.7322069" lon="8.762632"><ele>298.5</ele><time>2026-04-24T09:41:52.813Z</time></trkpt><trkpt lat="45.7323028" lon="8.7625632"><ele>298.0</ele><time>2026-04-24T09:41:54.816Z</time></trkpt><trkpt lat="45.7323699" lon="8.7624752"><ele>296.5</ele><time>2026-04-24T09:41:57.815Z</time></trkpt><trkpt lat="45.7323768" lon="8.7623376"><ele>295.0</ele><time>2026-04-24T09:41:59.816Z</time></trkpt><trkpt lat="45.7323731" lon="8.7622313"><ele>293.5</ele><time>2026-04-24T09:42:00.821Z</time></trkpt><trkpt lat="45.7323742" lon="8.7621072"><ele>292.0</ele><time>2026-04-24T09:42:01.815Z</time></trkpt><trkpt lat="45.7323799" lon="8.761984"><ele>290.5</ele><time>2026-04-24T09:42:02.821Z</time></trkpt><trkpt lat="45.7323932" lon="8.7618587"><ele>289.0</ele><time>2026-04-24T09:42:03.805Z</time></trkpt><trkpt lat="45.7324236" lon="8.7617415"><ele>288.2</ele><time>2026-04-24T09:42:04.817Z</time></trkpt><trkpt lat="45.7324751" lon="8.7616438"><ele>287.4</ele><time>2026-04-24T09:42:05.819Z</time></trkpt><trkpt lat="45.7325417" lon="8.7615524"><ele>286.6</ele><time>2026-04-24T09:42:06.821Z</time></trkpt><trkpt lat="45.7326139" lon="8.7614559"><ele>285.8</ele><time>2026-04-24T09:42:07.821Z</time></trkpt><trkpt lat="45.732688" lon="8.7613583"><ele>285.0</ele><time>2026-04-24T09:42:08.827Z</time></trkpt><trkpt lat="45.732768" lon="8.7612543"><ele>285.0</ele><time>2026-04-24T09:42:09.827Z</time></trkpt><trkpt lat="45.73285" lon="8.7611454"><ele>285.0</ele><time>2026-04-24T09:42:10.829Z</time></trkpt><trkpt lat="45.7329326" lon="8.7610381"><ele>285.0</ele><time>2026-04-24T09:42:11.825Z</time></trkpt><trkpt lat="45.7330171" lon="8.76093"><ele>285.0</ele><time>2026-04-24T09:42:12.85Z</time></trkpt><trkpt lat="45.7330984" lon="8.7608156"><ele>285.0</ele><time>2026-04-24T09:42:13.826Z</time></trkpt><trkpt lat="45.7331804" lon="8.7606967"><ele>285.0</ele><time>2026-04-24T09:42:14.82Z</time></trkpt><trkpt lat="45.7332608" lon="8.7605694"><ele>285.0</ele><time>2026-04-24T09:42:15.824Z</time></trkpt><trkpt lat="45.733348" lon="8.7604325"><ele>285.0</ele><time>2026-04-24T09:42:16.824Z</time></trkpt><trkpt lat="45.7334372" lon="8.760289"><ele>285.75</ele><time>2026-04-24T09:42:17.822Z</time></trkpt><trkpt lat="45.7335246" lon="8.7601361"><ele>286.5</ele><time>2026-04-24T09:42:18.82Z</time></trkpt><trkpt lat="45.7336124" lon="8.7599833"><ele>287.25</ele><time>2026-04-24T09:42:19.818Z</time></trkpt><trkpt lat="45.7337067" lon="8.7598315"><ele>288.0</ele><time>2026-04-24T09:42:20.817Z</time></trkpt><trkpt lat="45.7338052" lon="8.7596705"><ele>287.5</ele><time>2026-04-24T09:42:21.821Z</time></trkpt><trkpt lat="45.7339048" lon="8.7595091"><ele>287.0</ele><time>2026-04-24T09:42:22.822Z</time></trkpt><trkpt lat="45.7339979" lon="8.7593491"><ele>286.5</ele><time>2026-04-24T09:42:23.814Z</time></trkpt><trkpt lat="45.7340895" lon="8.7591978"><ele>286.0</ele><time>2026-04-24T09:42:24.808Z</time></trkpt><trkpt lat="45.7341715" lon="8.7590187"><ele>286.0</ele><time>2026-04-24T09:42:25.816Z</time></trkpt><trkpt lat="45.7342408" lon="8.7588387"><ele>286.0</ele><time>2026-04-24T09:42:26.824Z</time></trkpt><trkpt lat="45.7342987" lon="8.758653"><ele>286.0</ele><time>2026-04-24T09:42:27.825Z</time></trkpt><trkpt lat="45.7343501" lon="8.7584593"><ele>286.0</ele><time>2026-04-24T09:42:28.822Z</time></trkpt><trkpt lat="45.7343916" lon="8.7582633"><ele>286.25</ele><time>2026-04-24T09:42:29.825Z</time></trkpt><trkpt lat="45.7344269" lon="8.7580714"><ele>286.5</ele><time>2026-04-24T09:42:30.828Z</time></trkpt><trkpt lat="45.7344587" lon="8.7579028"><ele>286.75</ele><time>2026-04-24T09:42:31.827Z</time></trkpt><trkpt lat="45.7344973" lon="8.7577457"><ele>287.0</ele><time>2026-04-24T09:42:32.827Z</time></trkpt><trkpt lat="45.7345249" lon="8.7576104"><ele>287.0</ele><time>2026-04-24T09:42:33.83Z</time></trkpt><trkpt lat="45.734555" lon="8.7574842"><ele>287.0</ele><time>2026-04-24T09:42:34.824Z</time></trkpt><trkpt lat="45.7345889" lon="8.7573516"><ele>287.0</ele><time>2026-04-24T09:42:35.829Z</time></trkpt><trkpt lat="45.7346176" lon="8.7572335"><ele>287.0</ele><time>2026-04-24T09:42:36.824Z</time></trkpt><trkpt lat="45.7346437" lon="8.7571171"><ele>287.0</ele><time>2026-04-24T09:42:37.83Z</time></trkpt><trkpt lat="45.7346651" lon="8.7570053"><ele>287.0</ele><time>2026-04-24T09:42:38.824Z</time></trkpt><trkpt lat="45.7346879" lon="8.7569007"><ele>287.0</ele><time>2026-04-24T09:42:39.82Z</time></trkpt><trkpt lat="45.7347577" lon="8.7567988"><ele>287.0</ele><time>2026-04-24T09:42:41.826Z</time></trkpt><trkpt lat="45.734877" lon="8.7567984"><ele>287.0</ele><time>2026-04-24T09:42:43.819Z</time></trkpt><trkpt lat="45.7349419" lon="8.7568538"><ele>287.0</ele><time>2026-04-24T09:42:44.823Z</time></trkpt><trkpt lat="45.735013" lon="8.756939"><ele>287.0</ele><time>2026-04-24T09:42:45.823Z</time></trkpt><trkpt lat="45.7350822" lon="8.7570045"><ele>287.0</ele><time>2026-04-24T09:42:46.814Z</time></trkpt><trkpt lat="45.7351527" lon="8.7570647"><ele>287.0</ele><time>2026-04-24T09:42:47.818Z</time></trkpt><trkpt lat="45.7352244" lon="8.7571202"><ele>287.0</ele><time>2026-04-24T09:42:48.82Z</time></trkpt><trkpt lat="45.7352862" lon="8.7571953"><ele>287.0</ele><time>2026-04-24T09:42:49.817Z</time></trkpt><trkpt lat="45.735342" lon="8.7572866"><ele>287.0</ele><time>2026-04-24T09:42:50.826Z</time></trkpt><trkpt lat="45.7353903" lon="8.7574301"><ele>287.0</ele><time>2026-04-24T09:42:51.819Z</time></trkpt><trkpt lat="45.7354454" lon="8.7575909"><ele>286.6</ele><time>2026-04-24T09:42:52.826Z</time></trkpt><trkpt lat="45.7354943" lon="8.7577522"><ele>286.2</ele><time>2026-04-24T09:42:53.818Z</time></trkpt><trkpt lat="45.7355413" lon="8.7578978"><ele>285.8</ele><time>2026-04-24T09:42:54.823Z</time></trkpt><trkpt lat="45.7355922" lon="8.7580146"><ele>285.4</ele><time>2026-04-24T09:42:55.815Z</time></trkpt><trkpt lat="45.7356375" lon="8.7581061"><ele>285.0</ele><time>2026-04-24T09:42:56.822Z</time></trkpt><trkpt lat="45.7357371" lon="8.7581724"><ele>285.0</ele><time>2026-04-24T09:42:58.82Z</time></trkpt><trkpt lat="45.7358023" lon="8.7581686"><ele>285.0</ele><time>2026-04-24T09:42:59.818Z</time></trkpt><trkpt lat="45.7358974" lon="8.7581757"><ele>285.0</ele><time>2026-04-24T09:43:00.827Z</time></trkpt><trkpt lat="45.7360002" lon="8.7582081"><ele>285.0</ele><time>2026-04-24T09:43:01.826Z</time></trkpt><trkpt lat="45.7360957" lon="8.7582386"><ele>285.0</ele><time>2026-04-24T09:43:02.829Z</time></trkpt><trkpt lat="45.7361863" lon="8.7582663"><ele>284.6666666666667</ele><time>2026-04-24T09:43:03.819Z</time></trkpt><trkpt lat="45.7362467" lon="8.7583002"><ele>284.3333333333333</ele><time>2026-04-24T09:43:04.817Z</time></trkpt><trkpt lat="45.7363179" lon="8.7583749"><ele>284.0</ele><time>2026-04-24T09:43:06.819Z</time></trkpt><trkpt lat="45.7363344" lon="8.7585109"><ele>283.66666666666663</ele><time>2026-04-24T09:43:08.824Z</time></trkpt><trkpt lat="45.7363293" lon="8.7586193"><ele>283.3333333333333</ele><time>2026-04-24T09:43:09.815Z</time></trkpt><trkpt lat="45.7363115" lon="8.7587458"><ele>283.0</ele><time>2026-04-24T09:43:10.821Z</time></trkpt><trkpt lat="45.7363026" lon="8.7588645"><ele>284.5</ele><time>2026-04-24T09:43:11.813Z</time></trkpt><trkpt lat="45.7362818" lon="8.7589889"><ele>286.0</ele><time>2026-04-24T09:43:12.822Z</time></trkpt><trkpt lat="45.7362796" lon="8.7590897"><ele>287.5</ele><time>2026-04-24T09:43:13.824Z</time></trkpt><trkpt lat="45.7362883" lon="8.7591854"><ele>289.0</ele><time>2026-04-24T09:43:14.818Z</time></trkpt><trkpt lat="45.7363056" lon="8.7592818"><ele>290.5</ele><time>2026-04-24T09:43:15.82Z</time></trkpt><trkpt lat="45.7363495" lon="8.7593775"><ele>292.0</ele><time>2026-04-24T09:43:16.814Z</time></trkpt><trkpt lat="45.7363962" lon="8.7594605"><ele>292.8333333333333</ele><time>2026-04-24T09:43:17.814Z</time></trkpt><trkpt lat="45.7364532" lon="8.7595355"><ele>293.66666666666663</ele><time>2026-04-24T09:43:18.816Z</time></trkpt><trkpt lat="45.7365082" lon="8.7596035"><ele>294.5</ele><time>2026-04-24T09:43:19.818Z</time></trkpt><trkpt lat="45.736562" lon="8.7596579"><ele>295.3333333333333</ele><time>2026-04-24T09:43:20.816Z</time></trkpt><trkpt lat="45.7366129" lon="8.7597158"><ele>296.1666666666667</ele><time>2026-04-24T09:43:21.807Z</time></trkpt><trkpt lat="45.7366921" lon="8.7597803"><ele>297.0</ele><time>2026-04-24T09:43:23.813Z</time></trkpt><trkpt lat="45.7367765" lon="8.7598185"><ele>297.0</ele><time>2026-04-24T09:43:25.812Z</time></trkpt><trkpt lat="45.7368913" lon="8.7598456"><ele>297.0</ele><time>2026-04-24T09:43:27.808Z</time></trkpt><trkpt lat="45.7369688" lon="8.7598368"><ele>297.0</ele><time>2026-04-24T09:43:28.812Z</time></trkpt><trkpt lat="45.7370519" lon="8.7598237"><ele>297.0</ele><time>2026-04-24T09:43:29.816Z</time></trkpt><trkpt lat="45.7371537" lon="8.7598154"><ele>297.0</ele><time>2026-04-24T09:43:30.811Z</time></trkpt><trkpt lat="45.7372389" lon="8.7598153"><ele>297.0</ele><time>2026-04-24T09:43:31.809Z</time></trkpt><trkpt lat="45.7373149" lon="8.759831"><ele>297.0</ele><time>2026-04-24T09:43:32.814Z</time></trkpt><trkpt lat="45.7373755" lon="8.7598574"><ele>297.0</ele><time>2026-04-24T09:43:33.814Z</time></trkpt><trkpt lat="45.7374419" lon="8.7599138"><ele>297.0</ele><time>2026-04-24T09:43:34.802Z</time></trkpt><trkpt lat="45.7374994" lon="8.7599784"><ele>297.0</ele><time>2026-04-24T09:43:35.811Z</time></trkpt><trkpt lat="45.7375517" lon="8.7600783"><ele>297.0</ele><time>2026-04-24T09:43:36.805Z</time></trkpt><trkpt lat="45.7376015" lon="8.7602152"><ele>297.2</ele><time>2026-04-24T09:43:37.806Z</time></trkpt><trkpt lat="45.7376545" lon="8.760346"><ele>297.4</ele><time>2026-04-24T09:43:38.808Z</time></trkpt><trkpt lat="45.7377123" lon="8.7604626"><ele>297.6</ele><time>2026-04-24T09:43:39.809Z</time></trkpt><trkpt lat="45.7377651" lon="8.7605807"><ele>297.8</ele><time>2026-04-24T09:43:40.811Z</time></trkpt><trkpt lat="45.7378107" lon="8.7607058"><ele>298.0</ele><time>2026-04-24T09:43:41.81Z</time></trkpt><trkpt lat="45.7378452" lon="8.7608424"><ele>297.8</ele><time>2026-04-24T09:43:42.805Z</time></trkpt><trkpt lat="45.7378743" lon="8.7609888"><ele>297.6</ele><time>2026-04-24T09:43:43.812Z</time></trkpt><trkpt lat="45.737894" lon="8.7611416"><ele>297.4</ele><time>2026-04-24T09:43:44.815Z</time></trkpt><trkpt lat="45.7379207" lon="8.7612875"><ele>297.2</ele><time>2026-04-24T09:43:45.803Z</time></trkpt><trkpt lat="45.7379337" lon="8.7614149"><ele>297.0</ele><time>2026-04-24T09:43:46.811Z</time></trkpt><trkpt lat="45.737945" lon="8.7615336"><ele>297.0</ele><time>2026-04-24T09:43:47.803Z</time></trkpt><trkpt lat="45.7379419" lon="8.7617064"><ele>297.0</ele><time>2026-04-24T09:43:49.802Z</time></trkpt><trkpt lat="45.7379342" lon="8.7618195"><ele>297.0</ele><time>2026-04-24T09:43:52.81Z</time></trkpt><trkpt lat="45.7378654" lon="8.761863"><ele>297.0</ele><time>2026-04-24T09:43:54.813Z</time></trkpt><trkpt lat="45.7378087" lon="8.761966"><ele>297.0</ele><time>2026-04-24T09:43:56.805Z</time></trkpt><trkpt lat="45.7377667" lon="8.7621087"><ele>296.6666666666667</ele><time>2026-04-24T09:43:58.808Z</time></trkpt><trkpt lat="45.7377863" lon="8.762252"><ele>296.3333333333333</ele><time>2026-04-24T09:44:00.812Z</time></trkpt><trkpt lat="45.7378074" lon="8.7623565"><ele>296.0</ele><time>2026-04-24T09:44:01.815Z</time></trkpt><trkpt lat="45.7378398" lon="8.7624609"><ele>295.66666666666663</ele><time>2026-04-24T09:44:02.813Z</time></trkpt><trkpt lat="45.7378866" lon="8.7625642"><ele>295.3333333333333</ele><time>2026-04-24T09:44:03.812Z</time></trkpt><trkpt lat="45.7379404" lon="8.7626727"><ele>295.0</ele><time>2026-04-24T09:44:04.816Z</time></trkpt><trkpt lat="45.7380133" lon="8.7627984"><ele>294.75</ele><time>2026-04-24T09:44:05.819Z</time></trkpt><trkpt lat="45.7380978" lon="8.7629278"><ele>294.5</ele><time>2026-04-24T09:44:06.814Z</time></trkpt><trkpt lat="45.7381808" lon="8.7630556"><ele>294.25</ele><time>2026-04-24T09:44:07.814Z</time></trkpt><trkpt lat="45.7382601" lon="8.7631778"><ele>294.0</ele><time>2026-04-24T09:44:08.815Z</time></trkpt><trkpt lat="45.7383408" lon="8.7632901"><ele>294.0</ele><time>2026-04-24T09:44:09.818Z</time></trkpt><trkpt lat="45.7384096" lon="8.763388"><ele>294.0</ele><time>2026-04-24T09:44:10.815Z</time></trkpt><trkpt lat="45.7384767" lon="8.7634774"><ele>294.0</ele><time>2026-04-24T09:44:11.825Z</time></trkpt><trkpt lat="45.7385328" lon="8.7635522"><ele>294.0</ele><time>2026-04-24T09:44:12.814Z</time></trkpt><trkpt lat="45.7385993" lon="8.7636255"><ele>294.0</ele><time>2026-04-24T09:44:14.811Z</time></trkpt><trkpt lat="45.7386422" lon="8.7635189"><ele>294.0</ele><time>2026-04-24T09:44:16.815Z</time></trkpt><trkpt lat="45.7386856" lon="8.7634396"><ele>294.25</ele><time>2026-04-24T09:44:17.819Z</time></trkpt><trkpt lat="45.7387411" lon="8.7633291"><ele>294.5</ele><time>2026-04-24T09:44:18.818Z</time></trkpt><trkpt lat="45.7388071" lon="8.7631882"><ele>294.75</ele><time>2026-04-24T09:44:19.817Z</time></trkpt><trkpt lat="45.7388768" lon="8.7630123"><ele>295.0</ele><time>2026-04-24T09:44:20.826Z</time></trkpt><trkpt lat="45.738946" lon="8.76286"><ele>295.0</ele><time>2026-04-24T09:44:21.808Z</time></trkpt><trkpt lat="45.7390164" lon="8.7627266"><ele>295.0</ele><time>2026-04-24T09:44:22.816Z</time></trkpt><trkpt lat="45.7390827" lon="8.7626155"><ele>295.0</ele><time>2026-04-24T09:44:23.817Z</time></trkpt><trkpt lat="45.7391493" lon="8.7625263"><ele>295.0</ele><time>2026-04-24T09:44:24.824Z</time></trkpt><trkpt lat="45.739214" lon="8.7624482"><ele>295.0</ele><time>2026-04-24T09:44:25.819Z</time></trkpt><trkpt lat="45.73927" lon="8.7623606"><ele>295.16666666666663</ele><time>2026-04-24T09:44:26.831Z</time></trkpt><trkpt lat="45.7393169" lon="8.7622736"><ele>295.3333333333333</ele><time>2026-04-24T09:44:27.824Z</time></trkpt><trkpt lat="45.7393603" lon="8.7621791"><ele>295.5</ele><time>2026-04-24T09:44:28.822Z</time></trkpt><trkpt lat="45.7393929" lon="8.7620839"><ele>295.6666666666667</ele><time>2026-04-24T09:44:29.817Z</time></trkpt><trkpt lat="45.7394176" lon="8.7619836"><ele>295.83333333333337</ele><time>2026-04-24T09:44:30.823Z</time></trkpt><trkpt lat="45.7394435" lon="8.7618486"><ele>296.0</ele><time>2026-04-24T09:44:32.831Z</time></trkpt><trkpt lat="45.7395028" lon="8.7618934"><ele>296.0</ele><time>2026-04-24T09:44:34.834Z</time></trkpt><trkpt lat="45.7395614" lon="8.7619489"><ele>296.0</ele><time>2026-04-24T09:44:35.823Z</time></trkpt><trkpt lat="45.7396265" lon="8.7620306"><ele>296.0</ele><time>2026-04-24T09:44:36.819Z</time></trkpt><trkpt lat="45.7396934" lon="8.7621196"><ele>296.0</ele><time>2026-04-24T09:44:37.828Z</time></trkpt><trkpt lat="45.7397608" lon="8.7622179"><ele>296.0</ele><time>2026-04-24T09:44:38.827Z</time></trkpt><trkpt lat="45.7398387" lon="8.7623246"><ele>296.0</ele><time>2026-04-24T09:44:39.824Z</time></trkpt><trkpt lat="45.7399272" lon="8.7624332"><ele>296.0</ele><time>2026-04-24T09:44:40.827Z</time></trkpt><trkpt lat="45.7400176" lon="8.7625351"><ele>296.0</ele><time>2026-04-24T09:44:41.825Z</time></trkpt><trkpt lat="45.7401004" lon="8.7626295"><ele>296.0</ele><time>2026-04-24T09:44:42.829Z</time></trkpt><trkpt lat="45.7401872" lon="8.762732"><ele>295.40000000000003</ele><time>2026-04-24T09:44:43.828Z</time></trkpt><trkpt lat="45.7402691" lon="8.7628421"><ele>294.8</ele><time>2026-04-24T09:44:44.831Z</time></trkpt><trkpt lat="45.7403531" lon="8.7629451"><ele>294.20000000000005</ele><time>2026-04-24T09:44:45.823Z</time></trkpt><trkpt lat="45.7404386" lon="8.7630435"><ele>293.6</ele><time>2026-04-24T09:44:46.836Z</time></trkpt><trkpt lat="45.7405259" lon="8.7631296"><ele>293.0</ele><time>2026-04-24T09:44:47.825Z</time></trkpt><trkpt lat="45.7406173" lon="8.7632067"><ele>293.0</ele><time>2026-04-24T09:44:48.828Z</time></trkpt><trkpt lat="45.7407048" lon="8.7632784"><ele>293.0</ele><time>2026-04-24T09:44:49.82Z</time></trkpt><trkpt lat="45.7407931" lon="8.7633508"><ele>293.0</ele><time>2026-04-24T09:44:50.816Z</time></trkpt><trkpt lat="45.7408828" lon="8.7634261"><ele>293.0</ele><time>2026-04-24T09:44:51.816Z</time></trkpt><trkpt lat="45.7409698" lon="8.7635062"><ele>293.0</ele><time>2026-04-24T09:44:52.822Z</time></trkpt><trkpt lat="45.7410504" lon="8.7635948"><ele>292.6666666666667</ele><time>2026-04-24T09:44:53.819Z</time></trkpt><trkpt lat="45.7411204" lon="8.7636855"><ele>292.33333333333337</ele><time>2026-04-24T09:44:54.813Z</time></trkpt><trkpt lat="45.7411824" lon="8.7637741"><ele>292.0</ele><time>2026-04-24T09:44:55.816Z</time></trkpt><trkpt lat="45.7412301" lon="8.763853"><ele>291.6666666666667</ele><time>2026-04-24T09:44:56.813Z</time></trkpt><trkpt lat="45.7413039" lon="8.7639459"><ele>291.3333333333333</ele><time>2026-04-24T09:44:58.816Z</time></trkpt><trkpt lat="45.7413682" lon="8.7639331"><ele>291.0</ele><time>2026-04-24T09:45:01.817Z</time></trkpt><trkpt lat="45.7413641" lon="8.7638164"><ele>291.0</ele><time>2026-04-24T09:45:03.814Z</time></trkpt><trkpt lat="45.7413303" lon="8.7636684"><ele>291.0</ele><time>2026-04-24T09:45:05.821Z</time></trkpt><trkpt lat="45.7412925" lon="8.7635392"><ele>291.0</ele><time>2026-04-24T09:45:07.819Z</time></trkpt><trkpt lat="45.7412787" lon="8.7634395"><ele>291.0</ele><time>2026-04-24T09:45:11.827Z</time></trkpt><trkpt lat="45.7413061" lon="8.7633497"><ele>291.0</ele><time>2026-04-24T09:45:13.827Z</time></trkpt><trkpt lat="45.74134" lon="8.7632614"><ele>291.0</ele><time>2026-04-24T09:45:14.82Z</time></trkpt><trkpt lat="45.7413863" lon="8.7631524"><ele>291.2</ele><time>2026-04-24T09:45:15.819Z</time></trkpt><trkpt lat="45.7414354" lon="8.7630321"><ele>291.40000000000003</ele><time>2026-04-24T09:45:16.813Z</time></trkpt><trkpt lat="45.7414914" lon="8.762906"><ele>291.6</ele><time>2026-04-24T09:45:17.838Z</time></trkpt><trkpt lat="45.7415447" lon="8.7627767"><ele>291.8</ele><time>2026-04-24T09:45:18.819Z</time></trkpt><trkpt lat="45.7415953" lon="8.7626366"><ele>292.0</ele><time>2026-04-24T09:45:19.822Z</time></trkpt><trkpt lat="45.7416431" lon="8.7625014"><ele>292.0</ele><time>2026-04-24T09:45:20.816Z</time></trkpt><trkpt lat="45.7416921" lon="8.7623664"><ele>292.0</ele><time>2026-04-24T09:45:21.817Z</time></trkpt><trkpt lat="45.7417433" lon="8.7622336"><ele>292.0</ele><time>2026-04-24T09:45:22.814Z</time></trkpt><trkpt lat="45.7417943" lon="8.7620995"><ele>292.0</ele><time>2026-04-24T09:45:23.816Z</time></trkpt><trkpt lat="45.7418482" lon="8.7619618"><ele>292.0</ele><time>2026-04-24T09:45:24.809Z</time></trkpt><trkpt lat="45.7419036" lon="8.7618235"><ele>291.75</ele><time>2026-04-24T09:45:25.805Z</time></trkpt><trkpt lat="45.7419639" lon="8.7616887"><ele>291.5</ele><time>2026-04-24T09:45:26.807Z</time></trkpt><trkpt lat="45.7420239" lon="8.7615443"><ele>291.25</ele><time>2026-04-24T09:45:27.807Z</time></trkpt><trkpt lat="45.7420811" lon="8.7613984"><ele>291.0</ele><time>2026-04-24T09:45:28.805Z</time></trkpt><trkpt lat="45.7421424" lon="8.7612534"><ele>291.0</ele><time>2026-04-24T09:45:29.816Z</time></trkpt><trkpt lat="45.7422058" lon="8.7611224"><ele>291.0</ele><time>2026-04-24T09:45:30.821Z</time></trkpt><trkpt lat="45.7422686" lon="8.7609992"><ele>291.0</ele><time>2026-04-24T09:45:31.82Z</time></trkpt><trkpt lat="45.7423284" lon="8.7608855"><ele>291.0</ele><time>2026-04-24T09:45:32.827Z</time></trkpt><trkpt lat="45.7423814" lon="8.7607866"><ele>291.0</ele><time>2026-04-24T09:45:33.819Z</time></trkpt><trkpt lat="45.7424374" lon="8.7606905"><ele>290.6</ele><time>2026-04-24T09:45:34.822Z</time></trkpt><trkpt lat="45.7424928" lon="8.7605915"><ele>290.20000000000005</ele><time>2026-04-24T09:45:35.823Z</time></trkpt><trkpt lat="45.7425461" lon="8.760478"><ele>289.79999999999995</ele><time>2026-04-24T09:45:36.829Z</time></trkpt><trkpt lat="45.7425977" lon="8.7603605"><ele>289.4</ele><time>2026-04-24T09:45:37.825Z</time></trkpt><trkpt lat="45.7426487" lon="8.7602408"><ele>289.0</ele><time>2026-04-24T09:45:38.836Z</time></trkpt><trkpt lat="45.7426973" lon="8.7601285"><ele>289.3333333333333</ele><time>2026-04-24T09:45:39.832Z</time></trkpt><trkpt lat="45.7427421" lon="8.7600195"><ele>289.66666666666663</ele><time>2026-04-24T09:45:40.832Z</time></trkpt><trkpt lat="45.7427777" lon="8.759921"><ele>290.0</ele><time>2026-04-24T09:45:41.826Z</time></trkpt><trkpt lat="45.7428078" lon="8.7598368"><ele>290.3333333333333</ele><time>2026-04-24T09:45:42.828Z</time></trkpt><trkpt lat="45.7428696" lon="8.759742"><ele>290.6666666666667</ele><time>2026-04-24T09:45:44.833Z</time></trkpt><trkpt lat="45.7429395" lon="8.7597742"><ele>291.0</ele><time>2026-04-24T09:45:46.828Z</time></trkpt><trkpt lat="45.7429953" lon="8.7598356"><ele>291.0</ele><time>2026-04-24T09:45:47.829Z</time></trkpt><trkpt lat="45.7430787" lon="8.7599275"><ele>291.0</ele><time>2026-04-24T09:45:48.835Z</time></trkpt><trkpt lat="45.7431755" lon="8.7600166"><ele>291.0</ele><time>2026-04-24T09:45:49.826Z</time></trkpt><trkpt lat="45.7432809" lon="8.7601085"><ele>291.0</ele><time>2026-04-24T09:45:50.825Z</time></trkpt><trkpt lat="45.7433841" lon="8.7602106"><ele>291.25</ele><time>2026-04-24T09:45:51.823Z</time></trkpt><trkpt lat="45.7434876" lon="8.760318"><ele>291.5</ele><time>2026-04-24T09:45:52.828Z</time></trkpt><trkpt lat="45.7435998" lon="8.760429"><ele>291.75</ele><time>2026-04-24T09:45:53.826Z</time></trkpt><trkpt lat="45.7437187" lon="8.7605434"><ele>292.0</ele><time>2026-04-24T09:45:54.83Z</time></trkpt><trkpt lat="45.7438411" lon="8.7606657"><ele>292.66666666666663</ele><time>2026-04-24T09:45:55.825Z</time></trkpt><trkpt lat="45.7439664" lon="8.7608006"><ele>293.3333333333333</ele><time>2026-04-24T09:45:56.839Z</time></trkpt><trkpt lat="45.7440951" lon="8.7609442"><ele>294.0</ele><time>2026-04-24T09:45:57.833Z</time></trkpt><trkpt lat="45.744225" lon="8.7610894"><ele>294.0</ele><time>2026-04-24T09:45:58.833Z</time></trkpt><trkpt lat="45.7443563" lon="8.7612341"><ele>294.0</ele><time>2026-04-24T09:45:59.833Z</time></trkpt><trkpt lat="45.7444792" lon="8.7613803"><ele>294.0</ele><time>2026-04-24T09:46:00.833Z</time></trkpt><trkpt lat="45.7445876" lon="8.7615103"><ele>293.75</ele><time>2026-04-24T09:46:01.821Z</time></trkpt><trkpt lat="45.7446865" lon="8.7616181"><ele>293.5</ele><time>2026-04-24T09:46:02.838Z</time></trkpt><trkpt lat="45.7447902" lon="8.7617123"><ele>293.25</ele><time>2026-04-24T09:46:03.827Z</time></trkpt><trkpt lat="45.7448855" lon="8.761818"><ele>293.0</ele><time>2026-04-24T09:46:04.838Z</time></trkpt><trkpt lat="45.7449673" lon="8.7619309"><ele>293.0</ele><time>2026-04-24T09:46:05.826Z</time></trkpt><trkpt lat="45.7450377" lon="8.7620478"><ele>293.0</ele><time>2026-04-24T09:46:06.834Z</time></trkpt><trkpt lat="45.7451039" lon="8.7621553"><ele>293.0</ele><time>2026-04-24T09:46:07.831Z</time></trkpt><trkpt lat="45.745171" lon="8.7622587"><ele>293.0</ele><time>2026-04-24T09:46:08.83Z</time></trkpt><trkpt lat="45.7452395" lon="8.7623571"><ele>293.0</ele><time>2026-04-24T09:46:09.822Z</time></trkpt><trkpt lat="45.7453073" lon="8.7624346"><ele>293.0</ele><time>2026-04-24T09:46:10.828Z</time></trkpt><trkpt lat="45.7453776" lon="8.762495"><ele>293.0</ele><time>2026-04-24T09:46:11.816Z</time></trkpt><trkpt lat="45.7454626" lon="8.7625525"><ele>293.0</ele><time>2026-04-24T09:46:12.831Z</time></trkpt><trkpt lat="45.7455669" lon="8.7626232"><ele>293.0</ele><time>2026-04-24T09:46:13.828Z</time></trkpt><trkpt lat="45.7456898" lon="8.762704"><ele>293.0</ele><time>2026-04-24T09:46:14.822Z</time></trkpt><trkpt lat="45.7458243" lon="8.7627944"><ele>293.0</ele><time>2026-04-24T09:46:15.822Z</time></trkpt><trkpt lat="45.7459577" lon="8.7628741"><ele>293.0</ele><time>2026-04-24T09:46:16.834Z</time></trkpt><trkpt lat="45.7460856" lon="8.762947"><ele>293.0</ele><time>2026-04-24T09:46:17.833Z</time></trkpt><trkpt lat="45.7462069" lon="8.7630187"><ele>293.0</ele><time>2026-04-24T09:46:18.832Z</time></trkpt><trkpt lat="45.7463245" lon="8.7630892"><ele>293.0</ele><time>2026-04-24T09:46:19.842Z</time></trkpt><trkpt lat="45.7464295" lon="8.763155"><ele>293.0</ele><time>2026-04-24T09:46:20.829Z</time></trkpt><trkpt lat="45.7465181" lon="8.7632151"><ele>293.0</ele><time>2026-04-24T09:46:21.828Z</time></trkpt><trkpt lat="45.7465921" lon="8.7632726"><ele>293.0</ele><time>2026-04-24T09:46:22.831Z</time></trkpt><trkpt lat="45.7466571" lon="8.7633305"><ele>293.0</ele><time>2026-04-24T09:46:23.837Z</time></trkpt><trkpt lat="45.746712" lon="8.7633857"><ele>293.0</ele><time>2026-04-24T09:46:24.829Z</time></trkpt><trkpt lat="45.7468097" lon="8.7634905"><ele>294.0</ele><time>2026-04-24T09:46:26.833Z</time></trkpt><trkpt lat="45.7469007" lon="8.7635783"><ele>295.0</ele><time>2026-04-24T09:46:28.838Z</time></trkpt><trkpt lat="45.7469749" lon="8.7636423"><ele>296.0</ele><time>2026-04-24T09:46:30.827Z</time></trkpt><trkpt lat="45.7470354" lon="8.7636905"><ele>297.0</ele><time>2026-04-24T09:46:32.833Z</time></trkpt><trkpt lat="45.7471083" lon="8.7637681"><ele>298.0</ele><time>2026-04-24T09:46:35.832Z</time></trkpt><trkpt lat="45.7472195" lon="8.763873"><ele>298.0</ele><time>2026-04-24T09:46:37.829Z</time></trkpt><trkpt lat="45.7472936" lon="8.7639332"><ele>298.0</ele><time>2026-04-24T09:46:38.826Z</time></trkpt><trkpt lat="45.7473822" lon="8.7640008"><ele>298.0</ele><time>2026-04-24T09:46:39.833Z</time></trkpt><trkpt lat="45.7474765" lon="8.7640788"><ele>298.0</ele><time>2026-04-24T09:46:40.83Z</time></trkpt><trkpt lat="45.7475776" lon="8.7641728"><ele>298.0</ele><time>2026-04-24T09:46:41.838Z</time></trkpt><trkpt lat="45.7476739" lon="8.7642759"><ele>296.5</ele><time>2026-04-24T09:46:42.832Z</time></trkpt><trkpt lat="45.747763" lon="8.7643849"><ele>295.0</ele><time>2026-04-24T09:46:43.834Z</time></trkpt><trkpt lat="45.7478584" lon="8.764501"><ele>293.5</ele><time>2026-04-24T09:46:44.839Z</time></trkpt><trkpt lat="45.7479567" lon="8.764613"><ele>292.0</ele><time>2026-04-24T09:46:45.832Z</time></trkpt><trkpt lat="45.7480613" lon="8.7647205"><ele>292.0</ele><time>2026-04-24T09:46:46.831Z</time></trkpt><trkpt lat="45.7481664" lon="8.7648209"><ele>292.0</ele><time>2026-04-24T09:46:47.827Z</time></trkpt><trkpt lat="45.7482708" lon="8.7649155"><ele>292.0</ele><time>2026-04-24T09:46:48.832Z</time></trkpt><trkpt lat="45.748374" lon="8.7650103"><ele>292.0</ele><time>2026-04-24T09:46:49.827Z</time></trkpt><trkpt lat="45.7484788" lon="8.765106"><ele>292.5</ele><time>2026-04-24T09:46:50.846Z</time></trkpt><trkpt lat="45.7485764" lon="8.7652106"><ele>293.0</ele><time>2026-04-24T09:46:51.83Z</time></trkpt><trkpt lat="45.7486723" lon="8.7653293"><ele>293.5</ele><time>2026-04-24T09:46:52.838Z</time></trkpt><trkpt lat="45.7487631" lon="8.7654469"><ele>294.0</ele><time>2026-04-24T09:46:53.835Z</time></trkpt><trkpt lat="45.7488494" lon="8.7655689"><ele>294.0</ele><time>2026-04-24T09:46:54.834Z</time></trkpt><trkpt lat="45.7489317" lon="8.7656876"><ele>294.0</ele><time>2026-04-24T09:46:55.833Z</time></trkpt><trkpt lat="45.749019" lon="8.7658021"><ele>294.0</ele><time>2026-04-24T09:46:56.834Z</time></trkpt><trkpt lat="45.7491033" lon="8.7659125"><ele>294.0</ele><time>2026-04-24T09:46:57.826Z</time></trkpt><trkpt lat="45.7491848" lon="8.7660283"><ele>293.75</ele><time>2026-04-24T09:46:58.827Z</time></trkpt><trkpt lat="45.7492592" lon="8.7661536"><ele>293.5</ele><time>2026-04-24T09:46:59.826Z</time></trkpt><trkpt lat="45.7493232" lon="8.7662927"><ele>293.25</ele><time>2026-04-24T09:47:00.835Z</time></trkpt><trkpt lat="45.7493748" lon="8.7664455"><ele>293.0</ele><time>2026-04-24T09:47:01.824Z</time></trkpt><trkpt lat="45.7494171" lon="8.7666124"><ele>293.25</ele><time>2026-04-24T09:47:02.832Z</time></trkpt><trkpt lat="45.7494551" lon="8.7667934"><ele>293.5</ele><time>2026-04-24T09:47:03.828Z</time></trkpt><trkpt lat="45.7494868" lon="8.7669795"><ele>293.75</ele><time>2026-04-24T09:47:04.838Z</time></trkpt><trkpt lat="45.7495096" lon="8.7671601"><ele>294.0</ele><time>2026-04-24T09:47:05.814Z</time></trkpt><trkpt lat="45.7495276" lon="8.7673341"><ele>294.0</ele><time>2026-04-24T09:47:06.828Z</time></trkpt><trkpt lat="45.7495406" lon="8.7674933"><ele>294.0</ele><time>2026-04-24T09:47:07.825Z</time></trkpt><trkpt lat="45.7495553" lon="8.7676394"><ele>294.0</ele><time>2026-04-24T09:47:08.832Z</time></trkpt><trkpt lat="45.7495802" lon="8.7677632"><ele>294.0</ele><time>2026-04-24T09:47:09.825Z</time></trkpt><trkpt lat="45.7496118" lon="8.7678482"><ele>294.0</ele><time>2026-04-24T09:47:10.825Z</time></trkpt><trkpt lat="45.749665" lon="8.7679061"><ele>294.0</ele><time>2026-04-24T09:47:11.81Z</time></trkpt><trkpt lat="45.7497467" lon="8.7679481"><ele>294.5</ele><time>2026-04-24T09:47:12.818Z</time></trkpt><trkpt lat="45.7498491" lon="8.7679984"><ele>295.0</ele><time>2026-04-24T09:47:13.821Z</time></trkpt><trkpt lat="45.7499543" lon="8.7680748"><ele>295.5</ele><time>2026-04-24T09:47:14.823Z</time></trkpt><trkpt lat="45.7500646" lon="8.768167"><ele>296.0</ele><time>2026-04-24T09:47:15.825Z</time></trkpt><trkpt lat="45.7501706" lon="8.7682698"><ele>296.5</ele><time>2026-04-24T09:47:16.823Z</time></trkpt><trkpt lat="45.7502775" lon="8.7683773"><ele>297.0</ele><time>2026-04-24T09:47:17.83Z</time></trkpt><trkpt lat="45.7503806" lon="8.7684821"><ele>297.5</ele><time>2026-04-24T09:47:18.829Z</time></trkpt><trkpt lat="45.7504851" lon="8.768586"><ele>298.0</ele><time>2026-04-24T09:47:19.826Z</time></trkpt><trkpt lat="45.7505921" lon="8.7686897"><ele>298.25</ele><time>2026-04-24T09:47:20.827Z</time></trkpt><trkpt lat="45.7506989" lon="8.7687997"><ele>298.5</ele><time>2026-04-24T09:47:21.84Z</time></trkpt><trkpt lat="45.7508007" lon="8.7689111"><ele>298.75</ele><time>2026-04-24T09:47:22.828Z</time></trkpt><trkpt lat="45.7509047" lon="8.7690244"><ele>299.0</ele><time>2026-04-24T09:47:23.821Z</time></trkpt><trkpt lat="45.7510115" lon="8.7691348"><ele>299.5</ele><time>2026-04-24T09:47:24.829Z</time></trkpt><trkpt lat="45.7511195" lon="8.7692362"><ele>300.0</ele><time>2026-04-24T09:47:25.824Z</time></trkpt><trkpt lat="45.7512246" lon="8.7693399"><ele>300.5</ele><time>2026-04-24T09:47:26.826Z</time></trkpt><trkpt lat="45.7513314" lon="8.7694501"><ele>301.0</ele><time>2026-04-24T09:47:27.828Z</time></trkpt><trkpt lat="45.7514423" lon="8.7695693"><ele>301.25</ele><time>2026-04-24T09:47:28.833Z</time></trkpt><trkpt lat="45.7515508" lon="8.7696912"><ele>301.5</ele><time>2026-04-24T09:47:29.832Z</time></trkpt><trkpt lat="45.7516554" lon="8.7698136"><ele>301.75</ele><time>2026-04-24T09:47:30.832Z</time></trkpt><trkpt lat="45.7517579" lon="8.7699363"><ele>302.0</ele><time>2026-04-24T09:47:31.825Z</time></trkpt><trkpt lat="45.7518532" lon="8.7700526"><ele>301.75</ele><time>2026-04-24T09:47:32.835Z</time></trkpt><trkpt lat="45.7519423" lon="8.7701664"><ele>301.5</ele><time>2026-04-24T09:47:33.824Z</time></trkpt><trkpt lat="45.7520296" lon="8.7702782"><ele>301.25</ele><time>2026-04-24T09:47:34.833Z</time></trkpt><trkpt lat="45.7521154" lon="8.7703926"><ele>301.0</ele><time>2026-04-24T09:47:35.819Z</time></trkpt><trkpt lat="45.7522015" lon="8.7705139"><ele>301.5</ele><time>2026-04-24T09:47:36.832Z</time></trkpt><trkpt lat="45.7522802" lon="8.7706436"><ele>302.0</ele><time>2026-04-24T09:47:37.826Z</time></trkpt><trkpt lat="45.7523523" lon="8.7707759"><ele>302.5</ele><time>2026-04-24T09:47:38.831Z</time></trkpt><trkpt lat="45.7524311" lon="8.7708964"><ele>303.0</ele><time>2026-04-24T09:47:39.827Z</time></trkpt><trkpt lat="45.7525178" lon="8.7710041"><ele>303.5</ele><time>2026-04-24T09:47:40.823Z</time></trkpt><trkpt lat="45.7526089" lon="8.7711"><ele>304.0</ele><time>2026-04-24T09:47:41.828Z</time></trkpt><trkpt lat="45.7526928" lon="8.7711972"><ele>304.5</ele><time>2026-04-24T09:47:42.832Z</time></trkpt><trkpt lat="45.7527862" lon="8.7712997"><ele>305.0</ele><time>2026-04-24T09:47:43.831Z</time></trkpt><trkpt lat="45.7528837" lon="8.7714105"><ele>306.0</ele><time>2026-04-24T09:47:44.829Z</time></trkpt><trkpt lat="45.7529794" lon="8.7715275"><ele>307.0</ele><time>2026-04-24T09:47:45.827Z</time></trkpt><trkpt lat="45.75307" lon="8.7716519"><ele>308.0</ele><time>2026-04-24T09:47:46.831Z</time></trkpt><trkpt lat="45.7531554" lon="8.771779"><ele>309.0</ele><time>2026-04-24T09:47:47.826Z</time></trkpt><trkpt lat="45.7532384" lon="8.7719037"><ele>309.0</ele><time>2026-04-24T09:47:48.823Z</time></trkpt><trkpt lat="45.7533142" lon="8.7720256"><ele>309.0</ele><time>2026-04-24T09:47:49.821Z</time></trkpt><trkpt lat="45.7533882" lon="8.7721356"><ele>309.0</ele><time>2026-04-24T09:47:50.818Z</time></trkpt><trkpt lat="45.7534488" lon="8.7722161"><ele>309.0</ele><time>2026-04-24T09:47:51.814Z</time></trkpt><trkpt lat="45.7535248" lon="8.7722979"><ele>309.0</ele><time>2026-04-24T09:47:53.816Z</time></trkpt><trkpt lat="45.7535792" lon="8.7723527"><ele>308.59999999999997</ele><time>2026-04-24T09:47:55.826Z</time></trkpt><trkpt lat="45.7536378" lon="8.7724579"><ele>308.2</ele><time>2026-04-24T09:47:57.837Z</time></trkpt><trkpt lat="45.7537012" lon="8.7725836"><ele>307.79999999999995</ele><time>2026-04-24T09:47:59.831Z</time></trkpt><trkpt lat="45.7537722" lon="8.7727187"><ele>307.4</ele><time>2026-04-24T09:48:01.83Z</time></trkpt><trkpt lat="45.7538493" lon="8.7728548"><ele>307.0</ele><time>2026-04-24T09:48:03.823Z</time></trkpt><trkpt lat="45.7538908" lon="8.7729252"><ele>307.8</ele><time>2026-04-24T09:48:04.828Z</time></trkpt><trkpt lat="45.7539356" lon="8.7729977"><ele>308.6</ele><time>2026-04-24T09:48:05.825Z</time></trkpt><trkpt lat="45.7540163" lon="8.7731167"><ele>309.40000000000003</ele><time>2026-04-24T09:48:07.826Z</time></trkpt><trkpt lat="45.7540761" lon="8.7732055"><ele>310.2</ele><time>2026-04-24T09:48:09.813Z</time></trkpt><trkpt lat="45.7541522" lon="8.7732927"><ele>311.0</ele><time>2026-04-24T09:48:11.818Z</time></trkpt><trkpt lat="45.7542355" lon="8.7733552"><ele>311.0</ele><time>2026-04-24T09:48:13.81Z</time></trkpt><trkpt lat="45.7543066" lon="8.7733944"><ele>311.0</ele><time>2026-04-24T09:48:15.814Z</time></trkpt><trkpt lat="45.7543601" lon="8.7734534"><ele>311.0</ele><time>2026-04-24T09:48:20.821Z</time></trkpt><trkpt lat="45.7544321" lon="8.7735283"><ele>311.0</ele><time>2026-04-24T09:48:23.826Z</time></trkpt><trkpt lat="45.7544939" lon="8.7735692"><ele>311.0</ele><time>2026-04-24T09:48:25.813Z</time></trkpt><trkpt lat="45.7545674" lon="8.7736379"><ele>311.0</ele><time>2026-04-24T09:48:28.819Z</time></trkpt><trkpt lat="45.7546397" lon="8.7736837"><ele>311.83333333333337</ele><time>2026-04-24T09:48:30.819Z</time></trkpt><trkpt lat="45.7547069" lon="8.7737253"><ele>312.6666666666667</ele><time>2026-04-24T09:48:32.824Z</time></trkpt><trkpt lat="45.7547789" lon="8.7737711"><ele>313.5</ele><time>2026-04-24T09:48:34.816Z</time></trkpt><trkpt lat="45.7548626" lon="8.7738179"><ele>314.3333333333333</ele><time>2026-04-24T09:48:36.821Z</time></trkpt><trkpt lat="45.7549363" lon="8.7738692"><ele>315.16666666666663</ele><time>2026-04-24T09:48:38.825Z</time></trkpt><trkpt lat="45.7550094" lon="8.7739254"><ele>316.0</ele><time>2026-04-24T09:48:40.82Z</time></trkpt><trkpt lat="45.7550944" lon="8.7739825"><ele>316.0</ele><time>2026-04-24T09:48:42.816Z</time></trkpt><trkpt lat="45.7551671" lon="8.7740539"><ele>316.0</ele><time>2026-04-24T09:48:44.824Z</time></trkpt><trkpt lat="45.7552227" lon="8.7741427"><ele>316.0</ele><time>2026-04-24T09:48:46.823Z</time></trkpt><trkpt lat="45.7552696" lon="8.7742765"><ele>316.0</ele><time>2026-04-24T09:48:48.822Z</time></trkpt><trkpt lat="45.7553015" lon="8.7744316"><ele>316.0</ele><time>2026-04-24T09:48:50.828Z</time></trkpt><trkpt lat="45.7553303" lon="8.774592"><ele>315.8571428571429</ele><time>2026-04-24T09:48:52.825Z</time></trkpt><trkpt lat="45.755344" lon="8.7746863"><ele>315.7142857142857</ele><time>2026-04-24T09:48:53.82Z</time></trkpt><trkpt lat="45.7553599" lon="8.7747806"><ele>315.57142857142856</ele><time>2026-04-24T09:48:54.83Z</time></trkpt><trkpt lat="45.7553875" lon="8.7748812"><ele>315.42857142857144</ele><time>2026-04-24T09:48:55.825Z</time></trkpt><trkpt lat="45.7554152" lon="8.7749864"><ele>315.2857142857143</ele><time>2026-04-24T09:48:56.823Z</time></trkpt><trkpt lat="45.7554491" lon="8.7750957"><ele>315.14285714285717</ele><time>2026-04-24T09:48:57.825Z</time></trkpt><trkpt lat="45.7554747" lon="8.7751941"><ele>315.0</ele><time>2026-04-24T09:48:58.821Z</time></trkpt><trkpt lat="45.7555353" lon="8.7752913"><ele>315.0</ele><time>2026-04-24T09:49:00.822Z</time></trkpt><trkpt lat="45.7556073" lon="8.77529"><ele>315.0</ele><time>2026-04-24T09:49:13.822Z</time></trkpt><trkpt lat="45.7556515" lon="8.7751044"><ele>315.0</ele><time>2026-04-24T09:49:15.814Z</time></trkpt><trkpt lat="45.7556869" lon="8.7749388"><ele>315.0</ele><time>2026-04-24T09:49:16.814Z</time></trkpt><trkpt lat="45.7557498" lon="8.774775"><ele>315.0</ele><time>2026-04-24T09:49:17.816Z</time></trkpt><trkpt lat="45.7558193" lon="8.774649"><ele>315.0</ele><time>2026-04-24T09:49:18.806Z</time></trkpt><trkpt lat="45.7559049" lon="8.7745202"><ele>315.0</ele><time>2026-04-24T09:49:19.818Z</time></trkpt><trkpt lat="45.755989" lon="8.774403"><ele>315.0</ele><time>2026-04-24T09:49:20.818Z</time></trkpt><trkpt lat="45.7560696" lon="8.7742971"><ele>314.0</ele><time>2026-04-24T09:49:21.825Z</time></trkpt><trkpt lat="45.7561458" lon="8.7741902"><ele>313.0</ele><time>2026-04-24T09:49:22.821Z</time></trkpt><trkpt lat="45.7562226" lon="8.7740745"><ele>312.0</ele><time>2026-04-24T09:49:23.825Z</time></trkpt><trkpt lat="45.7563001" lon="8.7739586"><ele>311.0</ele><time>2026-04-24T09:49:24.821Z</time></trkpt><trkpt lat="45.7563781" lon="8.7738348"><ele>310.0</ele><time>2026-04-24T09:49:25.837Z</time></trkpt><trkpt lat="45.7564594" lon="8.7737093"><ele>310.0</ele><time>2026-04-24T09:49:26.821Z</time></trkpt><trkpt lat="45.7565408" lon="8.7735837"><ele>310.0</ele><time>2026-04-24T09:49:27.826Z</time></trkpt><trkpt lat="45.75662" lon="8.7734579"><ele>310.0</ele><time>2026-04-24T09:49:28.828Z</time></trkpt><trkpt lat="45.7566963" lon="8.7733313"><ele>310.0</ele><time>2026-04-24T09:49:29.83Z</time></trkpt><trkpt lat="45.7567701" lon="8.7732074"><ele>310.8</ele><time>2026-04-24T09:49:30.825Z</time></trkpt><trkpt lat="45.7568489" lon="8.7730857"><ele>311.6</ele><time>2026-04-24T09:49:31.825Z</time></trkpt><trkpt lat="45.756933" lon="8.7729768"><ele>312.4</ele><time>2026-04-24T09:49:32.821Z</time></trkpt><trkpt lat="45.7570225" lon="8.7728868"><ele>313.2</ele><time>2026-04-24T09:49:33.825Z</time></trkpt><trkpt lat="45.7571183" lon="8.772811"><ele>314.0</ele><time>2026-04-24T09:49:34.824Z</time></trkpt><trkpt lat="45.7572166" lon="8.7727464"><ele>315.0</ele><time>2026-04-24T09:49:35.825Z</time></trkpt><trkpt lat="45.7573138" lon="8.7726926"><ele>316.0</ele><time>2026-04-24T09:49:36.819Z</time></trkpt><trkpt lat="45.7574024" lon="8.7726527"><ele>317.0</ele><time>2026-04-24T09:49:37.819Z</time></trkpt><trkpt lat="45.7574886" lon="8.7726234"><ele>318.0</ele><time>2026-04-24T09:49:38.82Z</time></trkpt><trkpt lat="45.7575764" lon="8.7726112"><ele>319.0</ele><time>2026-04-24T09:49:39.816Z</time></trkpt><trkpt lat="45.7576695" lon="8.7726359"><ele>319.6</ele><time>2026-04-24T09:49:40.811Z</time></trkpt><trkpt lat="45.7577692" lon="8.7726754"><ele>320.2</ele><time>2026-04-24T09:49:41.82Z</time></trkpt><trkpt lat="45.7578799" lon="8.7727299"><ele>320.8</ele><time>2026-04-24T09:49:42.825Z</time></trkpt><trkpt lat="45.7579842" lon="8.7727903"><ele>321.40000000000003</ele><time>2026-04-24T09:49:43.822Z</time></trkpt><trkpt lat="45.7580834" lon="8.7728487"><ele>322.0</ele><time>2026-04-24T09:49:44.822Z</time></trkpt><trkpt lat="45.7581726" lon="8.7729033"><ele>322.0</ele><time>2026-04-24T09:49:45.819Z</time></trkpt><trkpt lat="45.7582612" lon="8.7729542"><ele>322.0</ele><time>2026-04-24T09:49:46.828Z</time></trkpt><trkpt lat="45.7583529" lon="8.7729983"><ele>322.0</ele><time>2026-04-24T09:49:47.821Z</time></trkpt><trkpt lat="45.758451" lon="8.7730367"><ele>322.0</ele><time>2026-04-24T09:49:48.823Z</time></trkpt><trkpt lat="45.7585535" lon="8.7730632"><ele>322.0</ele><time>2026-04-24T09:49:49.82Z</time></trkpt><trkpt lat="45.7586603" lon="8.7730732"><ele>323.0</ele><time>2026-04-24T09:49:50.821Z</time></trkpt><trkpt lat="45.7587642" lon="8.7730528"><ele>324.0</ele><time>2026-04-24T09:49:51.821Z</time></trkpt><trkpt lat="45.7588624" lon="8.772979"><ele>325.0</ele><time>2026-04-24T09:49:52.825Z</time></trkpt><trkpt lat="45.7589396" lon="8.7728465"><ele>326.0</ele><time>2026-04-24T09:49:53.822Z</time></trkpt><trkpt lat="45.7589979" lon="8.7726983"><ele>325.8</ele><time>2026-04-24T09:49:54.823Z</time></trkpt><trkpt lat="45.7590512" lon="8.7725456"><ele>325.6</ele><time>2026-04-24T09:49:55.824Z</time></trkpt><trkpt lat="45.7591078" lon="8.7724032"><ele>325.4</ele><time>2026-04-24T09:49:56.845Z</time></trkpt><trkpt lat="45.7591636" lon="8.7722744"><ele>325.2</ele><time>2026-04-24T09:49:57.837Z</time></trkpt><trkpt lat="45.7592216" lon="8.772146"><ele>325.0</ele><time>2026-04-24T09:49:58.837Z</time></trkpt><trkpt lat="45.7592801" lon="8.7720281"><ele>325.0</ele><time>2026-04-24T09:49:59.835Z</time></trkpt><trkpt lat="45.7593379" lon="8.7719134"><ele>325.0</ele><time>2026-04-24T09:50:00.837Z</time></trkpt><trkpt lat="45.759398" lon="8.7717965"><ele>325.0</ele><time>2026-04-24T09:50:01.833Z</time></trkpt><trkpt lat="45.7594615" lon="8.7716696"><ele>325.0</ele><time>2026-04-24T09:50:02.833Z</time></trkpt><trkpt lat="45.7595287" lon="8.771542"><ele>325.0</ele><time>2026-04-24T09:50:03.823Z</time></trkpt><trkpt lat="45.7595964" lon="8.77141"><ele>325.0</ele><time>2026-04-24T09:50:04.838Z</time></trkpt><trkpt lat="45.7596616" lon="8.771283"><ele>325.0</ele><time>2026-04-24T09:50:05.824Z</time></trkpt><trkpt lat="45.7597233" lon="8.7711594"><ele>325.0</ele><time>2026-04-24T09:50:06.836Z</time></trkpt><trkpt lat="45.7597767" lon="8.7710499"><ele>325.0</ele><time>2026-04-24T09:50:07.824Z</time></trkpt><trkpt lat="45.7598241" lon="8.7709528"><ele>325.0</ele><time>2026-04-24T09:50:08.831Z</time></trkpt><trkpt lat="45.7598633" lon="8.7708704"><ele>325.0</ele><time>2026-04-24T09:50:09.824Z</time></trkpt><trkpt lat="45.7599231" lon="8.7707193"><ele>325.0</ele><time>2026-04-24T09:50:11.809Z</time></trkpt><trkpt lat="45.7599148" lon="8.7705557"><ele>325.0</ele><time>2026-04-24T09:50:13.815Z</time></trkpt><trkpt lat="45.7598696" lon="8.7704489"><ele>325.0</ele><time>2026-04-24T09:50:14.827Z</time></trkpt><trkpt lat="45.7598127" lon="8.7703317"><ele>325.0</ele><time>2026-04-24T09:50:15.82Z</time></trkpt><trkpt lat="45.7597529" lon="8.7702153"><ele>324.66666666666663</ele><time>2026-04-24T09:50:16.828Z</time></trkpt><trkpt lat="45.7596968" lon="8.7700955"><ele>324.3333333333333</ele><time>2026-04-24T09:50:17.828Z</time></trkpt><trkpt lat="45.759645" lon="8.7699915"><ele>324.0</ele><time>2026-04-24T09:50:18.826Z</time></trkpt><trkpt lat="45.7596" lon="8.7698967"><ele>323.6666666666667</ele><time>2026-04-24T09:50:19.828Z</time></trkpt><trkpt lat="45.7595668" lon="8.769805"><ele>323.33333333333337</ele><time>2026-04-24T09:50:20.818Z</time></trkpt><trkpt lat="45.7595496" lon="8.7697156"><ele>323.0</ele><time>2026-04-24T09:50:21.82Z</time></trkpt><trkpt lat="45.7595811" lon="8.7695406"><ele>323.0</ele><time>2026-04-24T09:50:23.821Z</time></trkpt><trkpt lat="45.7596241" lon="8.769446"><ele>323.0</ele><time>2026-04-24T09:50:24.815Z</time></trkpt><trkpt lat="45.7596761" lon="8.7693444"><ele>323.0</ele><time>2026-04-24T09:50:25.821Z</time></trkpt><trkpt lat="45.7597329" lon="8.7692372"><ele>323.0</ele><time>2026-04-24T09:50:26.823Z</time></trkpt><trkpt lat="45.7597875" lon="8.7691279"><ele>323.0</ele><time>2026-04-24T09:50:27.836Z</time></trkpt><trkpt lat="45.7598402" lon="8.7690174"><ele>323.0</ele><time>2026-04-24T09:50:28.823Z</time></trkpt><trkpt lat="45.7598904" lon="8.7689005"><ele>322.83333333333337</ele><time>2026-04-24T09:50:29.82Z</time></trkpt><trkpt lat="45.7599356" lon="8.7687833"><ele>322.6666666666667</ele><time>2026-04-24T09:50:30.826Z</time></trkpt><trkpt lat="45.7599756" lon="8.7686659"><ele>322.5</ele><time>2026-04-24T09:50:31.82Z</time></trkpt><trkpt lat="45.7600101" lon="8.7685466"><ele>322.3333333333333</ele><time>2026-04-24T09:50:32.823Z</time></trkpt><trkpt lat="45.7600386" lon="8.7684311"><ele>322.16666666666663</ele><time>2026-04-24T09:50:33.817Z</time></trkpt><trkpt lat="45.7600673" lon="8.7683135"><ele>322.0</ele><time>2026-04-24T09:50:34.822Z</time></trkpt><trkpt lat="45.7600983" lon="8.7681912"><ele>322.0</ele><time>2026-04-24T09:50:35.818Z</time></trkpt><trkpt lat="45.7601352" lon="8.7680702"><ele>322.0</ele><time>2026-04-24T09:50:36.821Z</time></trkpt><trkpt lat="45.7601796" lon="8.7679519"><ele>322.0</ele><time>2026-04-24T09:50:37.818Z</time></trkpt><trkpt lat="45.760231" lon="8.7678357"><ele>322.0</ele><time>2026-04-24T09:50:38.829Z</time></trkpt><trkpt lat="45.7602893" lon="8.7677133"><ele>322.0</ele><time>2026-04-24T09:50:39.825Z</time></trkpt><trkpt lat="45.7603575" lon="8.7675889"><ele>319.8</ele><time>2026-04-24T09:50:40.822Z</time></trkpt><trkpt lat="45.7604311" lon="8.7674805"><ele>317.6</ele><time>2026-04-24T09:50:41.813Z</time></trkpt><trkpt lat="45.7605123" lon="8.7673805"><ele>315.40000000000003</ele><time>2026-04-24T09:50:42.817Z</time></trkpt><trkpt lat="45.7606013" lon="8.7672949"><ele>313.20000000000005</ele><time>2026-04-24T09:50:43.821Z</time></trkpt><trkpt lat="45.7606933" lon="8.767223"><ele>311.0</ele><time>2026-04-24T09:50:44.82Z</time></trkpt><trkpt lat="45.7607761" lon="8.7671428"><ele>311.0</ele><time>2026-04-24T09:50:45.823Z</time></trkpt><trkpt lat="45.7608407" lon="8.7670488"><ele>311.0</ele><time>2026-04-24T09:50:46.826Z</time></trkpt><trkpt lat="45.7608921" lon="8.7669337"><ele>311.0</ele><time>2026-04-24T09:50:47.834Z</time></trkpt><trkpt lat="45.7609394" lon="8.7667923"><ele>311.0</ele><time>2026-04-24T09:50:48.833Z</time></trkpt><trkpt lat="45.7609919" lon="8.7666416"><ele>311.0</ele><time>2026-04-24T09:50:49.828Z</time></trkpt><trkpt lat="45.7610498" lon="8.7664844"><ele>309.6</ele><time>2026-04-24T09:50:50.828Z</time></trkpt><trkpt lat="45.7611062" lon="8.7663263"><ele>308.20000000000005</ele><time>2026-04-24T09:50:51.83Z</time></trkpt><trkpt lat="45.7611594" lon="8.7661822"><ele>306.79999999999995</ele><time>2026-04-24T09:50:52.825Z</time></trkpt><trkpt lat="45.7612071" lon="8.7660569"><ele>305.4</ele><time>2026-04-24T09:50:53.817Z</time></trkpt><trkpt lat="45.7612506" lon="8.7659593"><ele>304.0</ele><time>2026-04-24T09:50:54.824Z</time></trkpt><trkpt lat="45.7613184" lon="8.7658515"><ele>304.0</ele><time>2026-04-24T09:50:56.816Z</time></trkpt><trkpt lat="45.7614049" lon="8.7658277"><ele>304.0</ele><time>2026-04-24T09:50:58.834Z</time></trkpt><trkpt lat="45.7614688" lon="8.7658527"><ele>304.0</ele><time>2026-04-24T09:50:59.816Z</time></trkpt><trkpt lat="45.7615405" lon="8.7659105"><ele>304.0</ele><time>2026-04-24T09:51:00.822Z</time></trkpt><trkpt lat="45.761618" lon="8.7659963"><ele>304.0</ele><time>2026-04-24T09:51:01.821Z</time></trkpt><trkpt lat="45.7616995" lon="8.7660892"><ele>304.0</ele><time>2026-04-24T09:51:02.821Z</time></trkpt><trkpt lat="45.7617845" lon="8.766183"><ele>303.8</ele><time>2026-04-24T09:51:03.818Z</time></trkpt><trkpt lat="45.7618718" lon="8.7662774"><ele>303.59999999999997</ele><time>2026-04-24T09:51:04.82Z</time></trkpt><trkpt lat="45.7619588" lon="8.7663724"><ele>303.4</ele><time>2026-04-24T09:51:05.823Z</time></trkpt><trkpt lat="45.7620531" lon="8.7664649"><ele>303.2</ele><time>2026-04-24T09:51:06.821Z</time></trkpt><trkpt lat="45.762152" lon="8.7665521"><ele>303.0</ele><time>2026-04-24T09:51:07.825Z</time></trkpt><trkpt lat="45.7622532" lon="8.7666371"><ele>303.0</ele><time>2026-04-24T09:51:08.825Z</time></trkpt><trkpt lat="45.7623518" lon="8.7667265"><ele>303.0</ele><time>2026-04-24T09:51:09.824Z</time></trkpt><trkpt lat="45.7624534" lon="8.7668152"><ele>303.0</ele><time>2026-04-24T09:51:10.831Z</time></trkpt><trkpt lat="45.7625504" lon="8.7669045"><ele>303.0</ele><time>2026-04-24T09:51:11.824Z</time></trkpt><trkpt lat="45.7626479" lon="8.7669931"><ele>303.75</ele><time>2026-04-24T09:51:12.825Z</time></trkpt><trkpt lat="45.7627464" lon="8.7670815"><ele>304.5</ele><time>2026-04-24T09:51:13.824Z</time></trkpt><trkpt lat="45.7628499" lon="8.7671761"><ele>305.25</ele><time>2026-04-24T09:51:14.826Z</time></trkpt><trkpt lat="45.7629467" lon="8.7672698"><ele>306.0</ele><time>2026-04-24T09:51:15.825Z</time></trkpt><trkpt lat="45.7630416" lon="8.767358"><ele>306.0</ele><time>2026-04-24T09:51:16.825Z</time></trkpt><trkpt lat="45.7631401" lon="8.7674431"><ele>306.0</ele><time>2026-04-24T09:51:17.82Z</time></trkpt><trkpt lat="45.7632415" lon="8.7675298"><ele>306.0</ele><time>2026-04-24T09:51:18.826Z</time></trkpt><trkpt lat="45.7633453" lon="8.7676191"><ele>306.0</ele><time>2026-04-24T09:51:19.826Z</time></trkpt><trkpt lat="45.7634481" lon="8.7677086"><ele>305.75</ele><time>2026-04-24T09:51:20.824Z</time></trkpt><trkpt lat="45.7635465" lon="8.767798"><ele>305.5</ele><time>2026-04-24T09:51:21.826Z</time></trkpt><trkpt lat="45.7636461" lon="8.7678865"><ele>305.25</ele><time>2026-04-24T09:51:22.829Z</time></trkpt><trkpt lat="45.7637467" lon="8.7679719"><ele>305.0</ele><time>2026-04-24T09:51:23.826Z</time></trkpt><trkpt lat="45.7638477" lon="8.7680575"><ele>305.0</ele><time>2026-04-24T09:51:24.826Z</time></trkpt><trkpt lat="45.7639482" lon="8.7681419"><ele>305.0</ele><time>2026-04-24T09:51:25.822Z</time></trkpt><trkpt lat="45.7640539" lon="8.7682283"><ele>305.0</ele><time>2026-04-24T09:51:26.826Z</time></trkpt><trkpt lat="45.7641582" lon="8.7683158"><ele>305.0</ele><time>2026-04-24T09:51:27.827Z</time></trkpt><trkpt lat="45.7642615" lon="8.7683998"><ele>305.25</ele><time>2026-04-24T09:51:28.825Z</time></trkpt><trkpt lat="45.7643653" lon="8.7684833"><ele>305.5</ele><time>2026-04-24T09:51:29.84Z</time></trkpt><trkpt lat="45.7644671" lon="8.7685688"><ele>305.75</ele><time>2026-04-24T09:51:30.826Z</time></trkpt><trkpt lat="45.764569" lon="8.7686572"><ele>306.0</ele><time>2026-04-24T09:51:31.828Z</time></trkpt><trkpt lat="45.7646682" lon="8.7687474"><ele>306.0</ele><time>2026-04-24T09:51:32.828Z</time></trkpt><trkpt lat="45.7647615" lon="8.7688326"><ele>306.0</ele><time>2026-04-24T09:51:33.826Z</time></trkpt><trkpt lat="45.7648454" lon="8.768914"><ele>306.0</ele><time>2026-04-24T09:51:34.821Z</time></trkpt><trkpt lat="45.7649199" lon="8.768983"><ele>306.0</ele><time>2026-04-24T09:51:35.82Z</time></trkpt><trkpt lat="45.7649847" lon="8.7690357"><ele>306.0</ele><time>2026-04-24T09:51:36.827Z</time></trkpt><trkpt lat="45.765042" lon="8.7690797"><ele>306.0</ele><time>2026-04-24T09:51:37.819Z</time></trkpt><trkpt lat="45.7651425" lon="8.7691433"><ele>305.8333333333333</ele><time>2026-04-24T09:51:39.823Z</time></trkpt><trkpt lat="45.7652237" lon="8.7691737"><ele>305.6666666666667</ele><time>2026-04-24T09:51:41.827Z</time></trkpt><trkpt lat="45.7652965" lon="8.7692207"><ele>305.5</ele><time>2026-04-24T09:51:43.824Z</time></trkpt><trkpt lat="45.7653993" lon="8.7693405"><ele>305.33333333333337</ele><time>2026-04-24T09:51:45.822Z</time></trkpt><trkpt lat="45.7654579" lon="8.7694101"><ele>305.1666666666667</ele><time>2026-04-24T09:51:46.834Z</time></trkpt><trkpt lat="45.7655165" lon="8.7694787"><ele>305.0</ele><time>2026-04-24T09:51:47.824Z</time></trkpt><trkpt lat="45.765577" lon="8.7695395"><ele>305.0</ele><time>2026-04-24T09:51:48.825Z</time></trkpt><trkpt lat="45.7656407" lon="8.7695999"><ele>305.0</ele><time>2026-04-24T09:51:49.821Z</time></trkpt><trkpt lat="45.7657095" lon="8.7696648"><ele>305.0</ele><time>2026-04-24T09:51:50.826Z</time></trkpt><trkpt lat="45.7657778" lon="8.7697278"><ele>305.0</ele><time>2026-04-24T09:51:51.823Z</time></trkpt><trkpt lat="45.7658454" lon="8.7697854"><ele>305.0</ele><time>2026-04-24T09:51:52.828Z</time></trkpt><trkpt lat="45.7659104" lon="8.769842"><ele>305.0</ele><time>2026-04-24T09:51:53.823Z</time></trkpt><trkpt lat="45.7659765" lon="8.7699034"><ele>305.1666666666667</ele><time>2026-04-24T09:51:54.824Z</time></trkpt><trkpt lat="45.7660449" lon="8.7699632"><ele>305.33333333333337</ele><time>2026-04-24T09:51:55.827Z</time></trkpt><trkpt lat="45.766116" lon="8.7700262"><ele>305.5</ele><time>2026-04-24T09:51:56.828Z</time></trkpt><trkpt lat="45.7661919" lon="8.7700891"><ele>305.6666666666667</ele><time>2026-04-24T09:51:57.823Z</time></trkpt><trkpt lat="45.7662738" lon="8.7701618"><ele>305.8333333333333</ele><time>2026-04-24T09:51:58.821Z</time></trkpt><trkpt lat="45.7663597" lon="8.7702381"><ele>306.0</ele><time>2026-04-24T09:51:59.825Z</time></trkpt><trkpt lat="45.7664539" lon="8.7703188"><ele>306.25</ele><time>2026-04-24T09:52:00.853Z</time></trkpt><trkpt lat="45.7665521" lon="8.7704018"><ele>306.5</ele><time>2026-04-24T09:52:01.826Z</time></trkpt><trkpt lat="45.7666606" lon="8.770496"><ele>306.75</ele><time>2026-04-24T09:52:02.837Z</time></trkpt><trkpt lat="45.7667713" lon="8.7705917"><ele>307.0</ele><time>2026-04-24T09:52:03.828Z</time></trkpt><trkpt lat="45.7668808" lon="8.7706897"><ele>307.0</ele><time>2026-04-24T09:52:04.832Z</time></trkpt><trkpt lat="45.766983" lon="8.7707801"><ele>307.0</ele><time>2026-04-24T09:52:05.824Z</time></trkpt><trkpt lat="45.7670778" lon="8.7708647"><ele>307.0</ele><time>2026-04-24T09:52:06.829Z</time></trkpt><trkpt lat="45.7671667" lon="8.770939"><ele>307.0</ele><time>2026-04-24T09:52:07.824Z</time></trkpt><trkpt lat="45.7672579" lon="8.7710175"><ele>307.0</ele><time>2026-04-24T09:52:08.827Z</time></trkpt><trkpt lat="45.7673562" lon="8.7711024"><ele>307.0</ele><time>2026-04-24T09:52:09.85Z</time></trkpt><trkpt lat="45.7674545" lon="8.7711953"><ele>307.0</ele><time>2026-04-24T09:52:10.851Z</time></trkpt><trkpt lat="45.7675536" lon="8.7712953"><ele>307.0</ele><time>2026-04-24T09:52:11.826Z</time></trkpt><trkpt lat="45.7676542" lon="8.7714025"><ele>307.0</ele><time>2026-04-24T09:52:12.83Z</time></trkpt><trkpt lat="45.7677529" lon="8.7715066"><ele>307.0</ele><time>2026-04-24T09:52:13.827Z</time></trkpt><trkpt lat="45.767849" lon="8.7716033"><ele>307.0</ele><time>2026-04-24T09:52:14.827Z</time></trkpt><trkpt lat="45.7679468" lon="8.7716987"><ele>307.0</ele><time>2026-04-24T09:52:15.828Z</time></trkpt><trkpt lat="45.768048" lon="8.7718015"><ele>307.0</ele><time>2026-04-24T09:52:16.826Z</time></trkpt><trkpt lat="45.7681526" lon="8.7719148"><ele>307.0</ele><time>2026-04-24T09:52:17.826Z</time></trkpt><trkpt lat="45.7682589" lon="8.7720346"><ele>307.0</ele><time>2026-04-24T09:52:18.824Z</time></trkpt><trkpt lat="45.768362" lon="8.772159"><ele>307.0</ele><time>2026-04-24T09:52:19.827Z</time></trkpt><trkpt lat="45.7684607" lon="8.7722826"><ele>307.0</ele><time>2026-04-24T09:52:20.83Z</time></trkpt><trkpt lat="45.7685595" lon="8.7724125"><ele>306.75</ele><time>2026-04-24T09:52:21.826Z</time></trkpt><trkpt lat="45.7686578" lon="8.772544"><ele>306.5</ele><time>2026-04-24T09:52:22.827Z</time></trkpt><trkpt lat="45.7687546" lon="8.772676"><ele>306.25</ele><time>2026-04-24T09:52:23.827Z</time></trkpt><trkpt lat="45.7688503" lon="8.7728067"><ele>306.0</ele><time>2026-04-24T09:52:24.832Z</time></trkpt><trkpt lat="45.7689463" lon="8.7729359"><ele>306.5</ele><time>2026-04-24T09:52:25.829Z</time></trkpt><trkpt lat="45.7690439" lon="8.7730675"><ele>307.0</ele><time>2026-04-24T09:52:26.833Z</time></trkpt><trkpt lat="45.7691402" lon="8.7731997"><ele>307.5</ele><time>2026-04-24T09:52:27.835Z</time></trkpt><trkpt lat="45.7692368" lon="8.7733301"><ele>308.0</ele><time>2026-04-24T09:52:28.832Z</time></trkpt><trkpt lat="45.7693354" lon="8.7734617"><ele>308.0</ele><time>2026-04-24T09:52:29.833Z</time></trkpt><trkpt lat="45.7694359" lon="8.773586"><ele>308.0</ele><time>2026-04-24T09:52:30.842Z</time></trkpt><trkpt lat="45.7695284" lon="8.7737153"><ele>308.0</ele><time>2026-04-24T09:52:31.834Z</time></trkpt><trkpt lat="45.7696059" lon="8.7738505"><ele>308.0</ele><time>2026-04-24T09:52:32.832Z</time></trkpt><trkpt lat="45.7696864" lon="8.7739717"><ele>308.0</ele><time>2026-04-24T09:52:33.827Z</time></trkpt><trkpt lat="45.7697742" lon="8.7740894"><ele>308.0</ele><time>2026-04-24T09:52:34.832Z</time></trkpt><trkpt lat="45.7698539" lon="8.7742142"><ele>308.0</ele><time>2026-04-24T09:52:35.834Z</time></trkpt><trkpt lat="45.7699283" lon="8.7743347"><ele>308.0</ele><time>2026-04-24T09:52:36.832Z</time></trkpt><trkpt lat="45.7699972" lon="8.7744525"><ele>307.6</ele><time>2026-04-24T09:52:37.824Z</time></trkpt><trkpt lat="45.7700671" lon="8.7745726"><ele>307.20000000000005</ele><time>2026-04-24T09:52:38.827Z</time></trkpt><trkpt lat="45.7701356" lon="8.7746914"><ele>306.8</ele><time>2026-04-24T09:52:39.829Z</time></trkpt><trkpt lat="45.7702039" lon="8.7748213"><ele>306.40000000000003</ele><time>2026-04-24T09:52:40.825Z</time></trkpt><trkpt lat="45.7702698" lon="8.7749546"><ele>306.0</ele><time>2026-04-24T09:52:41.829Z</time></trkpt><trkpt lat="45.7703271" lon="8.7750971"><ele>306.8</ele><time>2026-04-24T09:52:42.83Z</time></trkpt><trkpt lat="45.7703824" lon="8.7752348"><ele>307.6</ele><time>2026-04-24T09:52:43.822Z</time></trkpt><trkpt lat="45.7704335" lon="8.7753661"><ele>308.4</ele><time>2026-04-24T09:52:44.823Z</time></trkpt><trkpt lat="45.7704828" lon="8.775497"><ele>309.2</ele><time>2026-04-24T09:52:45.826Z</time></trkpt><trkpt lat="45.7705333" lon="8.7756288"><ele>310.0</ele><time>2026-04-24T09:52:46.827Z</time></trkpt><trkpt lat="45.7705801" lon="8.7757579"><ele>310.0</ele><time>2026-04-24T09:52:47.817Z</time></trkpt><trkpt lat="45.7706251" lon="8.7758833"><ele>310.0</ele><time>2026-04-24T09:52:48.821Z</time></trkpt><trkpt lat="45.7706704" lon="8.7760054"><ele>310.0</ele><time>2026-04-24T09:52:49.826Z</time></trkpt><trkpt lat="45.7707188" lon="8.7761256"><ele>310.0</ele><time>2026-04-24T09:52:50.825Z</time></trkpt><trkpt lat="45.7707656" lon="8.7762376"><ele>310.0</ele><time>2026-04-24T09:52:51.822Z</time></trkpt><trkpt lat="45.7708115" lon="8.7763428"><ele>309.8</ele><time>2026-04-24T09:52:52.823Z</time></trkpt><trkpt lat="45.7708565" lon="8.7764487"><ele>309.6</ele><time>2026-04-24T09:52:53.824Z</time></trkpt><trkpt lat="45.7709024" lon="8.7765595"><ele>309.4</ele><time>2026-04-24T09:52:54.825Z</time></trkpt><trkpt lat="45.7709499" lon="8.7766784"><ele>309.2</ele><time>2026-04-24T09:52:55.825Z</time></trkpt><trkpt lat="45.7709949" lon="8.7767991"><ele>309.0</ele><time>2026-04-24T09:52:56.82Z</time></trkpt><trkpt lat="45.7710385" lon="8.7769127"><ele>309.0</ele><time>2026-04-24T09:52:57.823Z</time></trkpt><trkpt lat="45.7710813" lon="8.777026"><ele>309.0</ele><time>2026-04-24T09:52:58.826Z</time></trkpt><trkpt lat="45.7711261" lon="8.7771433"><ele>309.0</ele><time>2026-04-24T09:52:59.83Z</time></trkpt><trkpt lat="45.7711752" lon="8.7772628"><ele>309.0</ele><time>2026-04-24T09:53:00.824Z</time></trkpt><trkpt lat="45.77123" lon="8.7773814"><ele>309.0</ele><time>2026-04-24T09:53:01.839Z</time></trkpt><trkpt lat="45.7712856" lon="8.7774871"><ele>309.0</ele><time>2026-04-24T09:53:02.825Z</time></trkpt><trkpt lat="45.7713379" lon="8.7775802"><ele>309.0</ele><time>2026-04-24T09:53:03.822Z</time></trkpt><trkpt lat="45.7713823" lon="8.7776542"><ele>309.0</ele><time>2026-04-24T09:53:04.82Z</time></trkpt><trkpt lat="45.771465" lon="8.7777823"><ele>309.0</ele><time>2026-04-24T09:53:06.821Z</time></trkpt><trkpt lat="45.7715144" lon="8.7778545"><ele>309.0</ele><time>2026-04-24T09:53:07.831Z</time></trkpt><trkpt lat="45.7715692" lon="8.7779251"><ele>309.0</ele><time>2026-04-24T09:53:08.822Z</time></trkpt><trkpt lat="45.7716347" lon="8.778007"><ele>308.4</ele><time>2026-04-24T09:53:09.828Z</time></trkpt><trkpt lat="45.7716987" lon="8.7780973"><ele>307.79999999999995</ele><time>2026-04-24T09:53:10.822Z</time></trkpt><trkpt lat="45.7717701" lon="8.7781944"><ele>307.20000000000005</ele><time>2026-04-24T09:53:11.83Z</time></trkpt><trkpt lat="45.7718469" lon="8.7782927"><ele>306.6</ele><time>2026-04-24T09:53:12.828Z</time></trkpt><trkpt lat="45.7719237" lon="8.7783946"><ele>306.0</ele><time>2026-04-24T09:53:13.824Z</time></trkpt><trkpt lat="45.7719913" lon="8.7784996"><ele>307.2</ele><time>2026-04-24T09:53:14.825Z</time></trkpt><trkpt lat="45.7720647" lon="8.7786024"><ele>308.40000000000003</ele><time>2026-04-24T09:53:15.822Z</time></trkpt><trkpt lat="45.772141" lon="8.7786975"><ele>309.6</ele><time>2026-04-24T09:53:16.824Z</time></trkpt><trkpt lat="45.7722137" lon="8.7787955"><ele>310.8</ele><time>2026-04-24T09:53:17.824Z</time></trkpt><trkpt lat="45.7722861" lon="8.7788928"><ele>312.0</ele><time>2026-04-24T09:53:18.829Z</time></trkpt><trkpt lat="45.7723549" lon="8.7789955"><ele>312.0</ele><time>2026-04-24T09:53:19.828Z</time></trkpt><trkpt lat="45.7724215" lon="8.7791089"><ele>312.0</ele><time>2026-04-24T09:53:20.83Z</time></trkpt><trkpt lat="45.7724879" lon="8.7792256"><ele>312.0</ele><time>2026-04-24T09:53:21.831Z</time></trkpt><trkpt lat="45.7725564" lon="8.7793476"><ele>312.0</ele><time>2026-04-24T09:53:22.829Z</time></trkpt><trkpt lat="45.7726208" lon="8.7794722"><ele>312.0</ele><time>2026-04-24T09:53:23.818Z</time></trkpt><trkpt lat="45.7726803" lon="8.7795939"><ele>311.2</ele><time>2026-04-24T09:53:24.826Z</time></trkpt><trkpt lat="45.7727346" lon="8.7797142"><ele>310.4</ele><time>2026-04-24T09:53:25.821Z</time></trkpt><trkpt lat="45.7727825" lon="8.7798233"><ele>309.6</ele><time>2026-04-24T09:53:26.823Z</time></trkpt><trkpt lat="45.7728227" lon="8.7799311"><ele>308.8</ele><time>2026-04-24T09:53:27.823Z</time></trkpt><trkpt lat="45.7728669" lon="8.7800477"><ele>308.0</ele><time>2026-04-24T09:53:28.822Z</time></trkpt><trkpt lat="45.7729138" lon="8.7801779"><ele>308.0</ele><time>2026-04-24T09:53:29.823Z</time></trkpt><trkpt lat="45.7729554" lon="8.7803216"><ele>308.0</ele><time>2026-04-24T09:53:30.825Z</time></trkpt><trkpt lat="45.7729929" lon="8.7804683"><ele>308.0</ele><time>2026-04-24T09:53:31.82Z</time></trkpt><trkpt lat="45.7730247" lon="8.7806205"><ele>308.0</ele><time>2026-04-24T09:53:32.826Z</time></trkpt><trkpt lat="45.7730621" lon="8.7807722"><ele>308.0</ele><time>2026-04-24T09:53:33.82Z</time></trkpt><trkpt lat="45.7730988" lon="8.7809267"><ele>308.25</ele><time>2026-04-24T09:53:34.824Z</time></trkpt><trkpt lat="45.7731417" lon="8.7810837"><ele>308.5</ele><time>2026-04-24T09:53:35.816Z</time></trkpt><trkpt lat="45.7731849" lon="8.7812416"><ele>308.75</ele><time>2026-04-24T09:53:36.817Z</time></trkpt><trkpt lat="45.7732278" lon="8.7813988"><ele>309.0</ele><time>2026-04-24T09:53:37.827Z</time></trkpt><trkpt lat="45.7732704" lon="8.7815458"><ele>309.0</ele><time>2026-04-24T09:53:38.815Z</time></trkpt><trkpt lat="45.7733105" lon="8.7816796"><ele>309.0</ele><time>2026-04-24T09:53:39.821Z</time></trkpt><trkpt lat="45.7733453" lon="8.7818009"><ele>309.0</ele><time>2026-04-24T09:53:40.818Z</time></trkpt><trkpt lat="45.7733733" lon="8.781914"><ele>309.0</ele><time>2026-04-24T09:53:41.814Z</time></trkpt><trkpt lat="45.7733966" lon="8.7820328"><ele>309.0</ele><time>2026-04-24T09:53:42.822Z</time></trkpt><trkpt lat="45.7734108" lon="8.7821521"><ele>309.0</ele><time>2026-04-24T09:53:43.817Z</time></trkpt><trkpt lat="45.7734196" lon="8.7822794"><ele>308.8</ele><time>2026-04-24T09:53:44.819Z</time></trkpt><trkpt lat="45.7734224" lon="8.7824107"><ele>308.59999999999997</ele><time>2026-04-24T09:53:45.82Z</time></trkpt><trkpt lat="45.7734289" lon="8.7825475"><ele>308.4</ele><time>2026-04-24T09:53:46.818Z</time></trkpt><trkpt lat="45.7734476" lon="8.7826888"><ele>308.2</ele><time>2026-04-24T09:53:47.823Z</time></trkpt><trkpt lat="45.7734705" lon="8.7828426"><ele>308.0</ele><time>2026-04-24T09:53:48.821Z</time></trkpt><trkpt lat="45.7734896" lon="8.7830011"><ele>307.5</ele><time>2026-04-24T09:53:49.819Z</time></trkpt><trkpt lat="45.7735049" lon="8.7831609"><ele>307.0</ele><time>2026-04-24T09:53:50.824Z</time></trkpt><trkpt lat="45.77352" lon="8.783321"><ele>306.5</ele><time>2026-04-24T09:53:51.826Z</time></trkpt><trkpt lat="45.773532" lon="8.7834842"><ele>306.0</ele><time>2026-04-24T09:53:52.829Z</time></trkpt><trkpt lat="45.7735446" lon="8.7836483"><ele>304.75</ele><time>2026-04-24T09:53:53.828Z</time></trkpt><trkpt lat="45.7735572" lon="8.7838103"><ele>303.5</ele><time>2026-04-24T09:53:54.826Z</time></trkpt><trkpt lat="45.7735684" lon="8.7839721"><ele>302.25</ele><time>2026-04-24T09:53:55.829Z</time></trkpt><trkpt lat="45.7735819" lon="8.7841369"><ele>301.0</ele><time>2026-04-24T09:53:56.83Z</time></trkpt><trkpt lat="45.7735952" lon="8.7843093"><ele>301.25</ele><time>2026-04-24T09:53:57.825Z</time></trkpt><trkpt lat="45.7736079" lon="8.784497"><ele>301.5</ele><time>2026-04-24T09:53:58.831Z</time></trkpt><trkpt lat="45.7736255" lon="8.7846933"><ele>301.75</ele><time>2026-04-24T09:53:59.831Z</time></trkpt><trkpt lat="45.7736401" lon="8.784895"><ele>302.0</ele><time>2026-04-24T09:54:00.833Z</time></trkpt><trkpt lat="45.773659" lon="8.7850883"><ele>303.25</ele><time>2026-04-24T09:54:01.825Z</time></trkpt><trkpt lat="45.7736728" lon="8.7852706"><ele>304.5</ele><time>2026-04-24T09:54:02.832Z</time></trkpt><trkpt lat="45.7736836" lon="8.7854359"><ele>305.75</ele><time>2026-04-24T09:54:03.839Z</time></trkpt><trkpt lat="45.7736947" lon="8.7855936"><ele>307.0</ele><time>2026-04-24T09:54:04.826Z</time></trkpt><trkpt lat="45.7737013" lon="8.7857534"><ele>307.0</ele><time>2026-04-24T09:54:05.826Z</time></trkpt><trkpt lat="45.7737171" lon="8.785908"><ele>307.0</ele><time>2026-04-24T09:54:06.818Z</time></trkpt><trkpt lat="45.7737304" lon="8.7860645"><ele>307.0</ele><time>2026-04-24T09:54:07.82Z</time></trkpt><trkpt lat="45.7737433" lon="8.7862215"><ele>307.0</ele><time>2026-04-24T09:54:08.817Z</time></trkpt><trkpt lat="45.7737612" lon="8.7863787"><ele>307.0</ele><time>2026-04-24T09:54:09.82Z</time></trkpt><trkpt lat="45.7737755" lon="8.7865347"><ele>307.0</ele><time>2026-04-24T09:54:10.817Z</time></trkpt><trkpt lat="45.7737892" lon="8.7866967"><ele>307.0</ele><time>2026-04-24T09:54:11.817Z</time></trkpt><trkpt lat="45.7738022" lon="8.7868628"><ele>307.0</ele><time>2026-04-24T09:54:12.811Z</time></trkpt><trkpt lat="45.7738137" lon="8.7870563"><ele>307.0</ele><time>2026-04-24T09:54:13.813Z</time></trkpt><trkpt lat="45.7738322" lon="8.7872611"><ele>307.25</ele><time>2026-04-24T09:54:14.821Z</time></trkpt><trkpt lat="45.773854" lon="8.7874577"><ele>307.5</ele><time>2026-04-24T09:54:15.816Z</time></trkpt><trkpt lat="45.773873" lon="8.7876633"><ele>307.75</ele><time>2026-04-24T09:54:16.823Z</time></trkpt><trkpt lat="45.7738909" lon="8.787872"><ele>308.0</ele><time>2026-04-24T09:54:17.817Z</time></trkpt><trkpt lat="45.7739103" lon="8.7880841"><ele>309.0</ele><time>2026-04-24T09:54:18.822Z</time></trkpt><trkpt lat="45.7739311" lon="8.7882906"><ele>310.0</ele><time>2026-04-24T09:54:19.819Z</time></trkpt><trkpt lat="45.7739498" lon="8.7884773"><ele>311.0</ele><time>2026-04-24T09:54:20.824Z</time></trkpt><trkpt lat="45.7739672" lon="8.7886433"><ele>312.0</ele><time>2026-04-24T09:54:21.812Z</time></trkpt><trkpt lat="45.7739788" lon="8.7887871"><ele>312.5</ele><time>2026-04-24T09:54:22.818Z</time></trkpt><trkpt lat="45.7739843" lon="8.7889112"><ele>313.0</ele><time>2026-04-24T09:54:23.818Z</time></trkpt><trkpt lat="45.7739908" lon="8.7890283"><ele>313.5</ele><time>2026-04-24T09:54:24.822Z</time></trkpt><trkpt lat="45.774001" lon="8.7891372"><ele>314.0</ele><time>2026-04-24T09:54:25.823Z</time></trkpt><trkpt lat="45.7740191" lon="8.7892561"><ele>314.5</ele><time>2026-04-24T09:54:26.832Z</time></trkpt><trkpt lat="45.774039" lon="8.7893807"><ele>315.0</ele><time>2026-04-24T09:54:27.826Z</time></trkpt><trkpt lat="45.7740572" lon="8.7895139"><ele>315.2</ele><time>2026-04-24T09:54:28.831Z</time></trkpt><trkpt lat="45.7740788" lon="8.7896539"><ele>315.4</ele><time>2026-04-24T09:54:29.828Z</time></trkpt><trkpt lat="45.7741061" lon="8.789789"><ele>315.6</ele><time>2026-04-24T09:54:30.825Z</time></trkpt><trkpt lat="45.774145" lon="8.7899163"><ele>315.8</ele><time>2026-04-24T09:54:31.832Z</time></trkpt><trkpt lat="45.7741944" lon="8.7900378"><ele>316.0</ele><time>2026-04-24T09:54:32.828Z</time></trkpt><trkpt lat="45.774247" lon="8.7901471"><ele>316.8</ele><time>2026-04-24T09:54:33.818Z</time></trkpt><trkpt lat="45.7743251" lon="8.7902317"><ele>317.6</ele><time>2026-04-24T09:54:34.83Z</time></trkpt><trkpt lat="45.7744168" lon="8.7902971"><ele>318.4</ele><time>2026-04-24T09:54:35.819Z</time></trkpt><trkpt lat="45.7745131" lon="8.7903625"><ele>319.2</ele><time>2026-04-24T09:54:36.822Z</time></trkpt><trkpt lat="45.7746161" lon="8.790419"><ele>320.0</ele><time>2026-04-24T09:54:37.828Z</time></trkpt><trkpt lat="45.774721" lon="8.7904755"><ele>320.0</ele><time>2026-04-24T09:54:38.826Z</time></trkpt><trkpt lat="45.7748234" lon="8.7905316"><ele>320.0</ele><time>2026-04-24T09:54:39.829Z</time></trkpt><trkpt lat="45.7749212" lon="8.7905887"><ele>320.0</ele><time>2026-04-24T09:54:40.826Z</time></trkpt><trkpt lat="45.7750178" lon="8.790653"><ele>320.0</ele><time>2026-04-24T09:54:41.829Z</time></trkpt><trkpt lat="45.7751084" lon="8.790729"><ele>320.0</ele><time>2026-04-24T09:54:42.831Z</time></trkpt><trkpt lat="45.775196" lon="8.7908118"><ele>320.75</ele><time>2026-04-24T09:54:43.83Z</time></trkpt><trkpt lat="45.7752764" lon="8.7909096"><ele>321.5</ele><time>2026-04-24T09:54:44.834Z</time></trkpt><trkpt lat="45.7753619" lon="8.7910269"><ele>322.25</ele><time>2026-04-24T09:54:45.832Z</time></trkpt><trkpt lat="45.7754455" lon="8.7911588"><ele>323.0</ele><time>2026-04-24T09:54:46.833Z</time></trkpt><trkpt lat="45.7755289" lon="8.7912915"><ele>322.4</ele><time>2026-04-24T09:54:47.837Z</time></trkpt><trkpt lat="45.7756002" lon="8.7914196"><ele>321.79999999999995</ele><time>2026-04-24T09:54:48.83Z</time></trkpt><trkpt lat="45.7756566" lon="8.7915333"><ele>321.2</ele><time>2026-04-24T09:54:49.842Z</time></trkpt><trkpt lat="45.7757129" lon="8.7916437"><ele>320.6</ele><time>2026-04-24T09:54:50.831Z</time></trkpt><trkpt lat="45.7757677" lon="8.7917572"><ele>320.0</ele><time>2026-04-24T09:54:51.839Z</time></trkpt><trkpt lat="45.7758218" lon="8.7918816"><ele>320.0</ele><time>2026-04-24T09:54:52.834Z</time></trkpt><trkpt lat="45.7758734" lon="8.7920089"><ele>320.0</ele><time>2026-04-24T09:54:53.841Z</time></trkpt><trkpt lat="45.7759271" lon="8.7921448"><ele>320.0</ele><time>2026-04-24T09:54:54.836Z</time></trkpt><trkpt lat="45.7759816" lon="8.7922964"><ele>320.0</ele><time>2026-04-24T09:54:55.835Z</time></trkpt><trkpt lat="45.7760323" lon="8.7924441"><ele>320.0</ele><time>2026-04-24T09:54:56.835Z</time></trkpt><trkpt lat="45.7760743" lon="8.7925795"><ele>320.8</ele><time>2026-04-24T09:54:57.837Z</time></trkpt><trkpt lat="45.7761127" lon="8.7927079"><ele>321.6</ele><time>2026-04-24T09:54:58.839Z</time></trkpt><trkpt lat="45.7761457" lon="8.7928398"><ele>322.4</ele><time>2026-04-24T09:54:59.841Z</time></trkpt><trkpt lat="45.7761833" lon="8.792973"><ele>323.2</ele><time>2026-04-24T09:55:00.839Z</time></trkpt><trkpt lat="45.7762156" lon="8.7931018"><ele>324.0</ele><time>2026-04-24T09:55:01.841Z</time></trkpt><trkpt lat="45.7762539" lon="8.7932307"><ele>324.0</ele><time>2026-04-24T09:55:02.836Z</time></trkpt><trkpt lat="45.7762903" lon="8.7933548"><ele>324.0</ele><time>2026-04-24T09:55:03.838Z</time></trkpt><trkpt lat="45.776328" lon="8.7934688"><ele>324.0</ele><time>2026-04-24T09:55:04.833Z</time></trkpt><trkpt lat="45.7763643" lon="8.7935702"><ele>324.0</ele><time>2026-04-24T09:55:05.841Z</time></trkpt><trkpt lat="45.7763961" lon="8.7936643"><ele>324.0</ele><time>2026-04-24T09:55:06.821Z</time></trkpt><trkpt lat="45.7764224" lon="8.7938003"><ele>324.0</ele><time>2026-04-24T09:55:08.821Z</time></trkpt><trkpt lat="45.7764273" lon="8.793928"><ele>323.79999999999995</ele><time>2026-04-24T09:55:10.825Z</time></trkpt><trkpt lat="45.7764574" lon="8.7940844"><ele>323.59999999999997</ele><time>2026-04-24T09:55:12.825Z</time></trkpt><trkpt lat="45.7765115" lon="8.7942131"><ele>323.4</ele><time>2026-04-24T09:55:14.826Z</time></trkpt><trkpt lat="45.7765822" lon="8.7943625"><ele>323.2</ele><time>2026-04-24T09:55:16.833Z</time></trkpt><trkpt lat="45.7766238" lon="8.7944499"><ele>323.0</ele><time>2026-04-24T09:55:17.829Z</time></trkpt><trkpt lat="45.7766696" lon="8.7945469"><ele>323.28571428571433</ele><time>2026-04-24T09:55:18.828Z</time></trkpt><trkpt lat="45.7767189" lon="8.7946448"><ele>323.57142857142856</ele><time>2026-04-24T09:55:19.831Z</time></trkpt><trkpt lat="45.7767722" lon="8.7947428"><ele>323.8571428571429</ele><time>2026-04-24T09:55:20.836Z</time></trkpt><trkpt lat="45.7768199" lon="8.7948269"><ele>324.14285714285717</ele><time>2026-04-24T09:55:21.83Z</time></trkpt><trkpt lat="45.7768643" lon="8.7949064"><ele>324.42857142857144</ele><time>2026-04-24T09:55:22.832Z</time></trkpt><trkpt lat="45.7769036" lon="8.7949782"><ele>324.7142857142857</ele><time>2026-04-24T09:55:23.828Z</time></trkpt><trkpt lat="45.7769421" lon="8.7950507"><ele>325.0</ele><time>2026-04-24T09:55:24.832Z</time></trkpt><trkpt lat="45.776979" lon="8.7951279"><ele>323.6</ele><time>2026-04-24T09:55:25.828Z</time></trkpt><trkpt lat="45.7770235" lon="8.7952176"><ele>322.2</ele><time>2026-04-24T09:55:26.844Z</time></trkpt><trkpt lat="45.7770665" lon="8.7953018"><ele>320.8</ele><time>2026-04-24T09:55:27.835Z</time></trkpt><trkpt lat="45.7771074" lon="8.7953781"><ele>319.4</ele><time>2026-04-24T09:55:28.83Z</time></trkpt><trkpt lat="45.7771707" lon="8.7955181"><ele>318.0</ele><time>2026-04-24T09:55:30.827Z</time></trkpt><trkpt lat="45.7772258" lon="8.7956876"><ele>318.0</ele><time>2026-04-24T09:55:32.817Z</time></trkpt><trkpt lat="45.7772617" lon="8.7957997"><ele>318.0</ele><time>2026-04-24T09:55:33.821Z</time></trkpt><trkpt lat="45.7772976" lon="8.795939"><ele>318.0</ele><time>2026-04-24T09:55:34.817Z</time></trkpt><trkpt lat="45.7773328" lon="8.7961007"><ele>318.0</ele><time>2026-04-24T09:55:35.816Z</time></trkpt><trkpt lat="45.7773689" lon="8.7962837"><ele>318.0</ele><time>2026-04-24T09:55:36.832Z</time></trkpt><trkpt lat="45.7774065" lon="8.7964867"><ele>318.25</ele><time>2026-04-24T09:55:37.819Z</time></trkpt><trkpt lat="45.7774423" lon="8.7966928"><ele>318.5</ele><time>2026-04-24T09:55:38.82Z</time></trkpt><trkpt lat="45.777486" lon="8.7968992"><ele>318.75</ele><time>2026-04-24T09:55:39.821Z</time></trkpt><trkpt lat="45.7775309" lon="8.7970922"><ele>319.0</ele><time>2026-04-24T09:55:40.825Z</time></trkpt><trkpt lat="45.777564" lon="8.797273"><ele>319.25</ele><time>2026-04-24T09:55:41.818Z</time></trkpt><trkpt lat="45.7775848" lon="8.7974552"><ele>319.5</ele><time>2026-04-24T09:55:42.819Z</time></trkpt><trkpt lat="45.7775929" lon="8.797631"><ele>319.75</ele><time>2026-04-24T09:55:43.814Z</time></trkpt><trkpt lat="45.7775999" lon="8.7977994"><ele>320.0</ele><time>2026-04-24T09:55:44.825Z</time></trkpt><trkpt lat="45.7775977" lon="8.7979564"><ele>320.2</ele><time>2026-04-24T09:55:45.822Z</time></trkpt><trkpt lat="45.7775857" lon="8.7981139"><ele>320.4</ele><time>2026-04-24T09:55:46.819Z</time></trkpt><trkpt lat="45.777575" lon="8.798278"><ele>320.6</ele><time>2026-04-24T09:55:47.819Z</time></trkpt><trkpt lat="45.7775614" lon="8.7984366"><ele>320.8</ele><time>2026-04-24T09:55:48.815Z</time></trkpt><trkpt lat="45.7775575" lon="8.7985748"><ele>321.0</ele><time>2026-04-24T09:55:49.82Z</time></trkpt><trkpt lat="45.7775506" lon="8.7987045"><ele>321.0</ele><time>2026-04-24T09:55:50.83Z</time></trkpt><trkpt lat="45.7775518" lon="8.7988404"><ele>321.0</ele><time>2026-04-24T09:55:51.825Z</time></trkpt><trkpt lat="45.7775495" lon="8.7989674"><ele>321.0</ele><time>2026-04-24T09:55:52.833Z</time></trkpt><trkpt lat="45.7775393" lon="8.7990755"><ele>321.0</ele><time>2026-04-24T09:55:53.829Z</time></trkpt><trkpt lat="45.7775081" lon="8.7992079"><ele>321.0</ele><time>2026-04-24T09:55:55.819Z</time></trkpt><trkpt lat="45.7774734" lon="8.799294"><ele>321.0</ele><time>2026-04-24T09:55:57.827Z</time></trkpt><trkpt lat="45.777456" lon="8.7994096"><ele>320.8</ele><time>2026-04-24T09:56:00.828Z</time></trkpt><trkpt lat="45.7774481" lon="8.7995045"><ele>320.6</ele><time>2026-04-24T09:56:02.823Z</time></trkpt><trkpt lat="45.7774306" lon="8.7996981"><ele>320.4</ele><time>2026-04-24T09:56:04.816Z</time></trkpt><trkpt lat="45.7774092" lon="8.7998274"><ele>320.2</ele><time>2026-04-24T09:56:05.827Z</time></trkpt><trkpt lat="45.7773835" lon="8.7999802"><ele>320.0</ele><time>2026-04-24T09:56:06.824Z</time></trkpt><trkpt lat="45.7773556" lon="8.8001488"><ele>320.0</ele><time>2026-04-24T09:56:07.836Z</time></trkpt><trkpt lat="45.7773287" lon="8.8003187"><ele>320.0</ele><time>2026-04-24T09:56:08.821Z</time></trkpt><trkpt lat="45.7773091" lon="8.8004872"><ele>320.0</ele><time>2026-04-24T09:56:09.822Z</time></trkpt><trkpt lat="45.7772856" lon="8.8006492"><ele>320.0</ele><time>2026-04-24T09:56:10.82Z</time></trkpt><trkpt lat="45.7772604" lon="8.8008042"><ele>320.0</ele><time>2026-04-24T09:56:11.827Z</time></trkpt><trkpt lat="45.7772403" lon="8.8009575"><ele>320.0</ele><time>2026-04-24T09:56:12.821Z</time></trkpt><trkpt lat="45.7772197" lon="8.8010998"><ele>320.0</ele><time>2026-04-24T09:56:13.822Z</time></trkpt><trkpt lat="45.7771988" lon="8.8012192"><ele>320.0</ele><time>2026-04-24T09:56:14.82Z</time></trkpt><trkpt lat="45.7771764" lon="8.8013127"><ele>320.0</ele><time>2026-04-24T09:56:15.817Z</time></trkpt><trkpt lat="45.7771088" lon="8.8014397"><ele>320.0</ele><time>2026-04-24T09:56:17.829Z</time></trkpt><trkpt lat="45.7770481" lon="8.8014762"><ele>320.0</ele><time>2026-04-24T09:56:18.821Z</time></trkpt><trkpt lat="45.7769734" lon="8.8015052"><ele>320.0</ele><time>2026-04-24T09:56:19.821Z</time></trkpt><trkpt lat="45.7768913" lon="8.8015365"><ele>320.0</ele><time>2026-04-24T09:56:20.812Z</time></trkpt><trkpt lat="45.7767984" lon="8.801576"><ele>320.0</ele><time>2026-04-24T09:56:21.815Z</time></trkpt><trkpt lat="45.7766967" lon="8.8016066"><ele>320.0</ele><time>2026-04-24T09:56:22.816Z</time></trkpt><trkpt lat="45.7765958" lon="8.8016423"><ele>321.0</ele><time>2026-04-24T09:56:23.817Z</time></trkpt><trkpt lat="45.7765037" lon="8.8016856"><ele>322.0</ele><time>2026-04-24T09:56:24.821Z</time></trkpt><trkpt lat="45.7764073" lon="8.8017257"><ele>323.0</ele><time>2026-04-24T09:56:25.824Z</time></trkpt><trkpt lat="45.7763211" lon="8.8017641"><ele>324.0</ele><time>2026-04-24T09:56:26.829Z</time></trkpt><trkpt lat="45.77624" lon="8.8018074"><ele>325.0</ele><time>2026-04-24T09:56:27.826Z</time></trkpt><trkpt lat="45.7761607" lon="8.8018514"><ele>328.0</ele><time>2026-04-24T09:56:28.828Z</time></trkpt><trkpt lat="45.7760882" lon="8.8018903"><ele>328.0</ele><time>2026-04-24T09:56:29.823Z</time></trkpt><trkpt lat="45.7760203" lon="8.8019079"><ele>328.0</ele><time>2026-04-24T09:56:30.821Z</time></trkpt><trkpt lat="45.7759314" lon="8.8018868"><ele>332.0</ele><time>2026-04-24T09:56:32.816Z</time></trkpt><trkpt lat="45.7758977" lon="8.8017807"><ele>330.0</ele><time>2026-04-24T09:56:34.815Z</time></trkpt><trkpt lat="45.7758778" lon="8.8016799"><ele>330.0</ele><time>2026-04-24T09:56:36.811Z</time></trkpt></trkseg></trk></gpx>